<?xml version="1.0" encoding="UTF-8"?>
<gpx creator="Wikiloc - http://www.wikiloc.com" version="1.1" xmlns="http://www.topografix.com/GPX/1/1" xmlns:xsi="http://www.w3.org/2001/XMLSchema-instance" xsi:schemaLocation="http://www.topografix.com/GPX/1/1 http://www.topografix.com/GPX/1/1/gpx.xsd">
  <trk>
    <name>Sant Pere - Vidreres - Tossa - Cadiretes - Llagostera - S'Agaró</name>
    <cmt>Ruta que comença planejant de Sant Pere a Vidreres passant per Sant Celoni, Hostalric, Maçanet, Massanes i Sils i un cop a Vidreres es puja a l'Ermita de Caulès, baixada per carretera fins a Tossa i pujada amb dures rampes al Puig de Cadiretes. Baixada per carretera fins a Llagostera i carrilet fins a S'Agaró.
Els 35 graus i el sol de ple agost augmenten molt la dificultat especialment si es puja a Cadiretes a les 2 del migdia a ple sol.</cmt>
    <desc>Ruta que comença planejant de Sant Pere a Vidreres passant per Sant Celoni, Hostalric, Maçanet, Massanes i Sils i un cop a Vidreres es puja a l'Ermita de Caulès, baixada per carretera fins a Tossa i pujada amb dures rampes al Puig de Cadiretes. Baixada per carretera fins a Llagostera i carrilet fins a S'Agaró.
Els 35 graus i el sol de ple agost augmenten molt la dificultat especialment si es puja a Cadiretes a les 2 del migdia a ple sol.</desc>
    <trkseg>
      <trkpt lat="41.684758" lon="2.393864">
        <ele>305.4</ele>
        <time>2011-08-17T09:33:36Z</time>
      </trkpt>
      <trkpt lat="41.684588" lon="2.394030">
        <ele>304.4</ele>
        <time>2011-08-17T09:33:43Z</time>
      </trkpt>
      <trkpt lat="41.684558" lon="2.394057">
        <ele>304.4</ele>
        <time>2011-08-17T09:33:44Z</time>
      </trkpt>
      <trkpt lat="41.684351" lon="2.394219">
        <ele>303.0</ele>
        <time>2011-08-17T09:33:50Z</time>
      </trkpt>
      <trkpt lat="41.683971" lon="2.394422">
        <ele>301.5</ele>
        <time>2011-08-17T09:33:58Z</time>
      </trkpt>
      <trkpt lat="41.683711" lon="2.394574">
        <ele>299.6</ele>
        <time>2011-08-17T09:34:03Z</time>
      </trkpt>
      <trkpt lat="41.683536" lon="2.394795">
        <ele>298.6</ele>
        <time>2011-08-17T09:34:08Z</time>
      </trkpt>
      <trkpt lat="41.683495" lon="2.394903">
        <ele>298.1</ele>
        <time>2011-08-17T09:34:10Z</time>
      </trkpt>
      <trkpt lat="41.683446" lon="2.394991">
        <ele>297.7</ele>
        <time>2011-08-17T09:34:12Z</time>
      </trkpt>
      <trkpt lat="41.683309" lon="2.395118">
        <ele>296.7</ele>
        <time>2011-08-17T09:34:16Z</time>
      </trkpt>
      <trkpt lat="41.683006" lon="2.395369">
        <ele>295.3</ele>
        <time>2011-08-17T09:34:22Z</time>
      </trkpt>
      <trkpt lat="41.682651" lon="2.395601">
        <ele>294.3</ele>
        <time>2011-08-17T09:34:27Z</time>
      </trkpt>
      <trkpt lat="41.682539" lon="2.395685">
        <ele>294.3</ele>
        <time>2011-08-17T09:34:29Z</time>
      </trkpt>
      <trkpt lat="41.682266" lon="2.395917">
        <ele>295.3</ele>
        <time>2011-08-17T09:34:35Z</time>
      </trkpt>
      <trkpt lat="41.682083" lon="2.396103">
        <ele>297.7</ele>
        <time>2011-08-17T09:34:40Z</time>
      </trkpt>
      <trkpt lat="41.681745" lon="2.396432">
        <ele>298.1</ele>
        <time>2011-08-17T09:34:50Z</time>
      </trkpt>
      <trkpt lat="41.681606" lon="2.396589">
        <ele>298.1</ele>
        <time>2011-08-17T09:34:54Z</time>
      </trkpt>
      <trkpt lat="41.681328" lon="2.396770">
        <ele>293.3</ele>
        <time>2011-08-17T09:34:59Z</time>
      </trkpt>
      <trkpt lat="41.681090" lon="2.396850">
        <ele>290.5</ele>
        <time>2011-08-17T09:35:02Z</time>
      </trkpt>
      <trkpt lat="41.680926" lon="2.397090">
        <ele>282.8</ele>
        <time>2011-08-17T09:35:05Z</time>
      </trkpt>
      <trkpt lat="41.681039" lon="2.397456">
        <ele>277.5</ele>
        <time>2011-08-17T09:35:08Z</time>
      </trkpt>
      <trkpt lat="41.681195" lon="2.397724">
        <ele>273.6</ele>
        <time>2011-08-17T09:35:10Z</time>
      </trkpt>
      <trkpt lat="41.681385" lon="2.398317">
        <ele>267.4</ele>
        <time>2011-08-17T09:35:14Z</time>
      </trkpt>
      <trkpt lat="41.681731" lon="2.399035">
        <ele>258.7</ele>
        <time>2011-08-17T09:35:19Z</time>
      </trkpt>
      <trkpt lat="41.681874" lon="2.399520">
        <ele>255.4</ele>
        <time>2011-08-17T09:35:22Z</time>
      </trkpt>
      <trkpt lat="41.681838" lon="2.399811">
        <ele>253.4</ele>
        <time>2011-08-17T09:35:24Z</time>
      </trkpt>
      <trkpt lat="41.681774" lon="2.400059">
        <ele>251.5</ele>
        <time>2011-08-17T09:35:26Z</time>
      </trkpt>
      <trkpt lat="41.681428" lon="2.400814">
        <ele>253.0</ele>
        <time>2011-08-17T09:35:34Z</time>
      </trkpt>
      <trkpt lat="41.681223" lon="2.401424">
        <ele>256.3</ele>
        <time>2011-08-17T09:35:41Z</time>
      </trkpt>
      <trkpt lat="41.681154" lon="2.401719">
        <ele>258.3</ele>
        <time>2011-08-17T09:35:45Z</time>
      </trkpt>
      <trkpt lat="41.681170" lon="2.402371">
        <ele>253.4</ele>
        <time>2011-08-17T09:35:53Z</time>
      </trkpt>
      <trkpt lat="41.681161" lon="2.402597">
        <ele>251.5</ele>
        <time>2011-08-17T09:35:55Z</time>
      </trkpt>
      <trkpt lat="41.680925" lon="2.403224">
        <ele>247.7</ele>
        <time>2011-08-17T09:36:00Z</time>
      </trkpt>
      <trkpt lat="41.680675" lon="2.403896">
        <ele>243.8</ele>
        <time>2011-08-17T09:36:05Z</time>
      </trkpt>
      <trkpt lat="41.680670" lon="2.404334">
        <ele>243.4</ele>
        <time>2011-08-17T09:36:09Z</time>
      </trkpt>
      <trkpt lat="41.680888" lon="2.404435">
        <ele>243.4</ele>
        <time>2011-08-17T09:36:12Z</time>
      </trkpt>
      <trkpt lat="41.681114" lon="2.404446">
        <ele>243.4</ele>
        <time>2011-08-17T09:36:15Z</time>
      </trkpt>
      <trkpt lat="41.681312" lon="2.404316">
        <ele>242.4</ele>
        <time>2011-08-17T09:36:18Z</time>
      </trkpt>
      <trkpt lat="41.681606" lon="2.404032">
        <ele>241.9</ele>
        <time>2011-08-17T09:36:23Z</time>
      </trkpt>
      <trkpt lat="41.681744" lon="2.403957">
        <ele>242.4</ele>
        <time>2011-08-17T09:36:25Z</time>
      </trkpt>
      <trkpt lat="41.682022" lon="2.403881">
        <ele>244.8</ele>
        <time>2011-08-17T09:36:29Z</time>
      </trkpt>
      <trkpt lat="41.682691" lon="2.403960">
        <ele>245.3</ele>
        <time>2011-08-17T09:36:39Z</time>
      </trkpt>
      <trkpt lat="41.682743" lon="2.403974">
        <ele>245.8</ele>
        <time>2011-08-17T09:36:40Z</time>
      </trkpt>
      <trkpt lat="41.682915" lon="2.404028">
        <ele>246.2</ele>
        <time>2011-08-17T09:36:43Z</time>
      </trkpt>
      <trkpt lat="41.683528" lon="2.404344">
        <ele>248.6</ele>
        <time>2011-08-17T09:36:53Z</time>
      </trkpt>
      <trkpt lat="41.684036" lon="2.404512">
        <ele>252.0</ele>
        <time>2011-08-17T09:37:01Z</time>
      </trkpt>
      <trkpt lat="41.684353" lon="2.404593">
        <ele>252.0</ele>
        <time>2011-08-17T09:37:06Z</time>
      </trkpt>
      <trkpt lat="41.684603" lon="2.404575">
        <ele>251.5</ele>
        <time>2011-08-17T09:37:10Z</time>
      </trkpt>
      <trkpt lat="41.685089" lon="2.404346">
        <ele>251.5</ele>
        <time>2011-08-17T09:37:18Z</time>
      </trkpt>
      <trkpt lat="41.685512" lon="2.404237">
        <ele>252.0</ele>
        <time>2011-08-17T09:37:25Z</time>
      </trkpt>
      <trkpt lat="41.685899" lon="2.404175">
        <ele>254.9</ele>
        <time>2011-08-17T09:37:31Z</time>
      </trkpt>
      <trkpt lat="41.686347" lon="2.404102">
        <ele>255.4</ele>
        <time>2011-08-17T09:37:38Z</time>
      </trkpt>
      <trkpt lat="41.686479" lon="2.404076">
        <ele>255.4</ele>
        <time>2011-08-17T09:37:40Z</time>
      </trkpt>
      <trkpt lat="41.686780" lon="2.404098">
        <ele>257.3</ele>
        <time>2011-08-17T09:37:45Z</time>
      </trkpt>
      <trkpt lat="41.687114" lon="2.404315">
        <ele>254.4</ele>
        <time>2011-08-17T09:37:51Z</time>
      </trkpt>
      <trkpt lat="41.687149" lon="2.404378">
        <ele>254.4</ele>
        <time>2011-08-17T09:37:52Z</time>
      </trkpt>
      <trkpt lat="41.687492" lon="2.405023">
        <ele>256.3</ele>
        <time>2011-08-17T09:38:01Z</time>
      </trkpt>
      <trkpt lat="41.687718" lon="2.405456">
        <ele>253.9</ele>
        <time>2011-08-17T09:38:07Z</time>
      </trkpt>
      <trkpt lat="41.687937" lon="2.405593">
        <ele>254.4</ele>
        <time>2011-08-17T09:38:11Z</time>
      </trkpt>
      <trkpt lat="41.688531" lon="2.405556">
        <ele>258.7</ele>
        <time>2011-08-17T09:38:20Z</time>
      </trkpt>
      <trkpt lat="41.688658" lon="2.405543">
        <ele>259.2</ele>
        <time>2011-08-17T09:38:22Z</time>
      </trkpt>
      <trkpt lat="41.688901" lon="2.405407">
        <ele>259.2</ele>
        <time>2011-08-17T09:38:26Z</time>
      </trkpt>
      <trkpt lat="41.689325" lon="2.404995">
        <ele>258.7</ele>
        <time>2011-08-17T09:38:34Z</time>
      </trkpt>
      <trkpt lat="41.689537" lon="2.404788">
        <ele>258.7</ele>
        <time>2011-08-17T09:38:38Z</time>
      </trkpt>
      <trkpt lat="41.689886" lon="2.404720">
        <ele>259.7</ele>
        <time>2011-08-17T09:38:44Z</time>
      </trkpt>
      <trkpt lat="41.689949" lon="2.404755">
        <ele>259.2</ele>
        <time>2011-08-17T09:38:45Z</time>
      </trkpt>
      <trkpt lat="41.690144" lon="2.404891">
        <ele>261.6</ele>
        <time>2011-08-17T09:38:49Z</time>
      </trkpt>
      <trkpt lat="41.690372" lon="2.404944">
        <ele>263.5</ele>
        <time>2011-08-17T09:38:53Z</time>
      </trkpt>
      <trkpt lat="41.690453" lon="2.404820">
        <ele>265.9</ele>
        <time>2011-08-17T09:38:55Z</time>
      </trkpt>
      <trkpt lat="41.690727" lon="2.404376">
        <ele>266.4</ele>
        <time>2011-08-17T09:39:02Z</time>
      </trkpt>
      <trkpt lat="41.691097" lon="2.404194">
        <ele>266.9</ele>
        <time>2011-08-17T09:39:09Z</time>
      </trkpt>
      <trkpt lat="41.691154" lon="2.404178">
        <ele>266.9</ele>
        <time>2011-08-17T09:39:10Z</time>
      </trkpt>
      <trkpt lat="41.691260" lon="2.404155">
        <ele>268.3</ele>
        <time>2011-08-17T09:39:12Z</time>
      </trkpt>
      <trkpt lat="41.691454" lon="2.404207">
        <ele>269.3</ele>
        <time>2011-08-17T09:39:16Z</time>
      </trkpt>
      <trkpt lat="41.691594" lon="2.404453">
        <ele>271.7</ele>
        <time>2011-08-17T09:39:22Z</time>
      </trkpt>
      <trkpt lat="41.691659" lon="2.404837">
        <ele>271.7</ele>
        <time>2011-08-17T09:39:31Z</time>
      </trkpt>
      <trkpt lat="41.691692" lon="2.405145">
        <ele>271.7</ele>
        <time>2011-08-17T09:39:38Z</time>
      </trkpt>
      <trkpt lat="41.691732" lon="2.405496">
        <ele>274.6</ele>
        <time>2011-08-17T09:39:46Z</time>
      </trkpt>
      <trkpt lat="41.691737" lon="2.405863">
        <ele>277.0</ele>
        <time>2011-08-17T09:39:54Z</time>
      </trkpt>
      <trkpt lat="41.691772" lon="2.406379">
        <ele>277.0</ele>
        <time>2011-08-17T09:40:04Z</time>
      </trkpt>
      <trkpt lat="41.691881" lon="2.406755">
        <ele>277.5</ele>
        <time>2011-08-17T09:40:12Z</time>
      </trkpt>
      <trkpt lat="41.692000" lon="2.407045">
        <ele>281.3</ele>
        <time>2011-08-17T09:40:19Z</time>
      </trkpt>
      <trkpt lat="41.692147" lon="2.407352">
        <ele>283.7</ele>
        <time>2011-08-17T09:40:27Z</time>
      </trkpt>
      <trkpt lat="41.692276" lon="2.407620">
        <ele>284.2</ele>
        <time>2011-08-17T09:40:35Z</time>
      </trkpt>
      <trkpt lat="41.692397" lon="2.407890">
        <ele>290.9</ele>
        <time>2011-08-17T09:40:43Z</time>
      </trkpt>
      <trkpt lat="41.692529" lon="2.408238">
        <ele>293.3</ele>
        <time>2011-08-17T09:40:52Z</time>
      </trkpt>
      <trkpt lat="41.692613" lon="2.408496">
        <ele>292.4</ele>
        <time>2011-08-17T09:40:59Z</time>
      </trkpt>
      <trkpt lat="41.692747" lon="2.408762">
        <ele>292.9</ele>
        <time>2011-08-17T09:41:06Z</time>
      </trkpt>
      <trkpt lat="41.692821" lon="2.408900">
        <ele>295.7</ele>
        <time>2011-08-17T09:41:10Z</time>
      </trkpt>
      <trkpt lat="41.692878" lon="2.409075">
        <ele>299.1</ele>
        <time>2011-08-17T09:41:15Z</time>
      </trkpt>
      <trkpt lat="41.692880" lon="2.409384">
        <ele>301.0</ele>
        <time>2011-08-17T09:41:23Z</time>
      </trkpt>
      <trkpt lat="41.692835" lon="2.409692">
        <ele>303.4</ele>
        <time>2011-08-17T09:41:31Z</time>
      </trkpt>
      <trkpt lat="41.692885" lon="2.410017">
        <ele>304.9</ele>
        <time>2011-08-17T09:41:39Z</time>
      </trkpt>
      <trkpt lat="41.692968" lon="2.410293">
        <ele>307.3</ele>
        <time>2011-08-17T09:41:47Z</time>
      </trkpt>
      <trkpt lat="41.693068" lon="2.410534">
        <ele>308.7</ele>
        <time>2011-08-17T09:41:54Z</time>
      </trkpt>
      <trkpt lat="41.693116" lon="2.410793">
        <ele>309.7</ele>
        <time>2011-08-17T09:42:01Z</time>
      </trkpt>
      <trkpt lat="41.693161" lon="2.411152">
        <ele>311.6</ele>
        <time>2011-08-17T09:42:10Z</time>
      </trkpt>
      <trkpt lat="41.693181" lon="2.411483">
        <ele>317.4</ele>
        <time>2011-08-17T09:42:18Z</time>
      </trkpt>
      <trkpt lat="41.693208" lon="2.411770">
        <ele>320.7</ele>
        <time>2011-08-17T09:42:26Z</time>
      </trkpt>
      <trkpt lat="41.693144" lon="2.411978">
        <ele>324.1</ele>
        <time>2011-08-17T09:42:33Z</time>
      </trkpt>
      <trkpt lat="41.692999" lon="2.412134">
        <ele>326.5</ele>
        <time>2011-08-17T09:42:40Z</time>
      </trkpt>
      <trkpt lat="41.692863" lon="2.412215">
        <ele>326.5</ele>
        <time>2011-08-17T09:42:46Z</time>
      </trkpt>
      <trkpt lat="41.692697" lon="2.412227">
        <ele>326.5</ele>
        <time>2011-08-17T09:42:53Z</time>
      </trkpt>
      <trkpt lat="41.692670" lon="2.412245">
        <ele>326.5</ele>
        <time>2011-08-17T09:42:55Z</time>
      </trkpt>
      <trkpt lat="41.692714" lon="2.412324">
        <ele>327.0</ele>
        <time>2011-08-17T09:43:01Z</time>
      </trkpt>
      <trkpt lat="41.692726" lon="2.412323">
        <ele>327.0</ele>
        <time>2011-08-17T09:43:02Z</time>
      </trkpt>
      <trkpt lat="41.692814" lon="2.412352">
        <ele>326.5</ele>
        <time>2011-08-17T09:43:10Z</time>
      </trkpt>
      <trkpt lat="41.692884" lon="2.412389">
        <ele>324.1</ele>
        <time>2011-08-17T09:43:16Z</time>
      </trkpt>
      <trkpt lat="41.692957" lon="2.412401">
        <ele>324.6</ele>
        <time>2011-08-17T09:43:20Z</time>
      </trkpt>
      <trkpt lat="41.693234" lon="2.412430">
        <ele>323.1</ele>
        <time>2011-08-17T09:43:27Z</time>
      </trkpt>
      <trkpt lat="41.693289" lon="2.412443">
        <ele>324.6</ele>
        <time>2011-08-17T09:43:28Z</time>
      </trkpt>
      <trkpt lat="41.693463" lon="2.412569">
        <ele>323.1</ele>
        <time>2011-08-17T09:43:32Z</time>
      </trkpt>
      <trkpt lat="41.693730" lon="2.413050">
        <ele>318.8</ele>
        <time>2011-08-17T09:43:38Z</time>
      </trkpt>
      <trkpt lat="41.693848" lon="2.413244">
        <ele>315.9</ele>
        <time>2011-08-17T09:43:40Z</time>
      </trkpt>
      <trkpt lat="41.694060" lon="2.413908">
        <ele>311.1</ele>
        <time>2011-08-17T09:43:45Z</time>
      </trkpt>
      <trkpt lat="41.694368" lon="2.414378">
        <ele>305.8</ele>
        <time>2011-08-17T09:43:49Z</time>
      </trkpt>
      <trkpt lat="41.695075" lon="2.415159">
        <ele>299.6</ele>
        <time>2011-08-17T09:43:57Z</time>
      </trkpt>
      <trkpt lat="41.695516" lon="2.415431">
        <ele>295.7</ele>
        <time>2011-08-17T09:44:02Z</time>
      </trkpt>
      <trkpt lat="41.695773" lon="2.415315">
        <ele>293.3</ele>
        <time>2011-08-17T09:44:05Z</time>
      </trkpt>
      <trkpt lat="41.695856" lon="2.415237">
        <ele>292.9</ele>
        <time>2011-08-17T09:44:06Z</time>
      </trkpt>
      <trkpt lat="41.696125" lon="2.414910">
        <ele>289.0</ele>
        <time>2011-08-17T09:44:09Z</time>
      </trkpt>
      <trkpt lat="41.696278" lon="2.414495">
        <ele>284.7</ele>
        <time>2011-08-17T09:44:13Z</time>
      </trkpt>
      <trkpt lat="41.696444" lon="2.414555">
        <ele>279.9</ele>
        <time>2011-08-17T09:44:17Z</time>
      </trkpt>
      <trkpt lat="41.696518" lon="2.414861">
        <ele>276.5</ele>
        <time>2011-08-17T09:44:20Z</time>
      </trkpt>
      <trkpt lat="41.696572" lon="2.415095">
        <ele>274.1</ele>
        <time>2011-08-17T09:44:22Z</time>
      </trkpt>
      <trkpt lat="41.696499" lon="2.415600">
        <ele>268.3</ele>
        <time>2011-08-17T09:44:26Z</time>
      </trkpt>
      <trkpt lat="41.696393" lon="2.416093">
        <ele>264.0</ele>
        <time>2011-08-17T09:44:30Z</time>
      </trkpt>
      <trkpt lat="41.696413" lon="2.416517">
        <ele>261.1</ele>
        <time>2011-08-17T09:44:33Z</time>
      </trkpt>
      <trkpt lat="41.696402" lon="2.416793">
        <ele>259.2</ele>
        <time>2011-08-17T09:44:35Z</time>
      </trkpt>
      <trkpt lat="41.696494" lon="2.417238">
        <ele>256.3</ele>
        <time>2011-08-17T09:44:38Z</time>
      </trkpt>
      <trkpt lat="41.696534" lon="2.417523">
        <ele>254.4</ele>
        <time>2011-08-17T09:44:40Z</time>
      </trkpt>
      <trkpt lat="41.696438" lon="2.418074">
        <ele>250.6</ele>
        <time>2011-08-17T09:44:44Z</time>
      </trkpt>
      <trkpt lat="41.696306" lon="2.418639">
        <ele>246.7</ele>
        <time>2011-08-17T09:44:49Z</time>
      </trkpt>
      <trkpt lat="41.696316" lon="2.419170">
        <ele>244.3</ele>
        <time>2011-08-17T09:44:54Z</time>
      </trkpt>
      <trkpt lat="41.696411" lon="2.419365">
        <ele>243.4</ele>
        <time>2011-08-17T09:44:56Z</time>
      </trkpt>
      <trkpt lat="41.696526" lon="2.419530">
        <ele>242.9</ele>
        <time>2011-08-17T09:44:58Z</time>
      </trkpt>
      <trkpt lat="41.696566" lon="2.419892">
        <ele>240.9</ele>
        <time>2011-08-17T09:45:02Z</time>
      </trkpt>
      <trkpt lat="41.696527" lon="2.419974">
        <ele>241.4</ele>
        <time>2011-08-17T09:45:03Z</time>
      </trkpt>
      <trkpt lat="41.696108" lon="2.420529">
        <ele>240.9</ele>
        <time>2011-08-17T09:45:11Z</time>
      </trkpt>
      <trkpt lat="41.695966" lon="2.420760">
        <ele>240.5</ele>
        <time>2011-08-17T09:45:14Z</time>
      </trkpt>
      <trkpt lat="41.695851" lon="2.421177">
        <ele>240.5</ele>
        <time>2011-08-17T09:45:19Z</time>
      </trkpt>
      <trkpt lat="41.695840" lon="2.421348">
        <ele>240.5</ele>
        <time>2011-08-17T09:45:21Z</time>
      </trkpt>
      <trkpt lat="41.695895" lon="2.421970">
        <ele>241.4</ele>
        <time>2011-08-17T09:45:29Z</time>
      </trkpt>
      <trkpt lat="41.695906" lon="2.422040">
        <ele>241.4</ele>
        <time>2011-08-17T09:45:30Z</time>
      </trkpt>
      <trkpt lat="41.695990" lon="2.422362">
        <ele>242.9</ele>
        <time>2011-08-17T09:45:35Z</time>
      </trkpt>
      <trkpt lat="41.695998" lon="2.422512">
        <ele>242.9</ele>
        <time>2011-08-17T09:45:37Z</time>
      </trkpt>
      <trkpt lat="41.695956" lon="2.422796">
        <ele>244.3</ele>
        <time>2011-08-17T09:45:41Z</time>
      </trkpt>
      <trkpt lat="41.695847" lon="2.423119">
        <ele>244.3</ele>
        <time>2011-08-17T09:45:46Z</time>
      </trkpt>
      <trkpt lat="41.695815" lon="2.423315">
        <ele>244.8</ele>
        <time>2011-08-17T09:45:49Z</time>
      </trkpt>
      <trkpt lat="41.695871" lon="2.423681">
        <ele>245.3</ele>
        <time>2011-08-17T09:45:55Z</time>
      </trkpt>
      <trkpt lat="41.695877" lon="2.423741">
        <ele>245.8</ele>
        <time>2011-08-17T09:45:56Z</time>
      </trkpt>
      <trkpt lat="41.695928" lon="2.424318">
        <ele>246.7</ele>
        <time>2011-08-17T09:46:05Z</time>
      </trkpt>
      <trkpt lat="41.695936" lon="2.424440">
        <ele>246.2</ele>
        <time>2011-08-17T09:46:07Z</time>
      </trkpt>
      <trkpt lat="41.695917" lon="2.424612">
        <ele>246.2</ele>
        <time>2011-08-17T09:46:10Z</time>
      </trkpt>
      <trkpt lat="41.695854" lon="2.424764">
        <ele>246.7</ele>
        <time>2011-08-17T09:46:13Z</time>
      </trkpt>
      <trkpt lat="41.695812" lon="2.424879">
        <ele>246.7</ele>
        <time>2011-08-17T09:46:15Z</time>
      </trkpt>
      <trkpt lat="41.695659" lon="2.425450">
        <ele>245.8</ele>
        <time>2011-08-17T09:46:24Z</time>
      </trkpt>
      <trkpt lat="41.695616" lon="2.425577">
        <ele>245.8</ele>
        <time>2011-08-17T09:46:26Z</time>
      </trkpt>
      <trkpt lat="41.695453" lon="2.426141">
        <ele>244.3</ele>
        <time>2011-08-17T09:46:33Z</time>
      </trkpt>
      <trkpt lat="41.695410" lon="2.426334">
        <ele>243.8</ele>
        <time>2011-08-17T09:46:35Z</time>
      </trkpt>
      <trkpt lat="41.695398" lon="2.426817">
        <ele>242.4</ele>
        <time>2011-08-17T09:46:40Z</time>
      </trkpt>
      <trkpt lat="41.695421" lon="2.427005">
        <ele>241.9</ele>
        <time>2011-08-17T09:46:42Z</time>
      </trkpt>
      <trkpt lat="41.695477" lon="2.427214">
        <ele>241.4</ele>
        <time>2011-08-17T09:46:44Z</time>
      </trkpt>
      <trkpt lat="41.695604" lon="2.427760">
        <ele>239.5</ele>
        <time>2011-08-17T09:46:49Z</time>
      </trkpt>
      <trkpt lat="41.695631" lon="2.428163">
        <ele>237.6</ele>
        <time>2011-08-17T09:46:54Z</time>
      </trkpt>
      <trkpt lat="41.695643" lon="2.428673">
        <ele>234.2</ele>
        <time>2011-08-17T09:47:01Z</time>
      </trkpt>
      <trkpt lat="41.695647" lon="2.428748">
        <ele>233.3</ele>
        <time>2011-08-17T09:47:02Z</time>
      </trkpt>
      <trkpt lat="41.695760" lon="2.429147">
        <ele>231.3</ele>
        <time>2011-08-17T09:47:06Z</time>
      </trkpt>
      <trkpt lat="41.695996" lon="2.429778">
        <ele>226.5</ele>
        <time>2011-08-17T09:47:13Z</time>
      </trkpt>
      <trkpt lat="41.696071" lon="2.430176">
        <ele>225.1</ele>
        <time>2011-08-17T09:47:17Z</time>
      </trkpt>
      <trkpt lat="41.696413" lon="2.430836">
        <ele>224.1</ele>
        <time>2011-08-17T09:47:23Z</time>
      </trkpt>
      <trkpt lat="41.696840" lon="2.431184">
        <ele>224.6</ele>
        <time>2011-08-17T09:47:28Z</time>
      </trkpt>
      <trkpt lat="41.697162" lon="2.431347">
        <ele>227.5</ele>
        <time>2011-08-17T09:47:32Z</time>
      </trkpt>
      <trkpt lat="41.697297" lon="2.431354">
        <ele>228.5</ele>
        <time>2011-08-17T09:47:34Z</time>
      </trkpt>
      <trkpt lat="41.697686" lon="2.431550">
        <ele>230.4</ele>
        <time>2011-08-17T09:47:40Z</time>
      </trkpt>
      <trkpt lat="41.698072" lon="2.431757">
        <ele>231.3</ele>
        <time>2011-08-17T09:47:46Z</time>
      </trkpt>
      <trkpt lat="41.698485" lon="2.431825">
        <ele>231.3</ele>
        <time>2011-08-17T09:47:52Z</time>
      </trkpt>
      <trkpt lat="41.698804" lon="2.432030">
        <ele>230.4</ele>
        <time>2011-08-17T09:47:57Z</time>
      </trkpt>
      <trkpt lat="41.699156" lon="2.432452">
        <ele>229.9</ele>
        <time>2011-08-17T09:48:04Z</time>
      </trkpt>
      <trkpt lat="41.699484" lon="2.432985">
        <ele>231.3</ele>
        <time>2011-08-17T09:48:12Z</time>
      </trkpt>
      <trkpt lat="41.699830" lon="2.433598">
        <ele>232.3</ele>
        <time>2011-08-17T09:48:21Z</time>
      </trkpt>
      <trkpt lat="41.700106" lon="2.434093">
        <ele>229.4</ele>
        <time>2011-08-17T09:48:28Z</time>
      </trkpt>
      <trkpt lat="41.700141" lon="2.434439">
        <ele>228.0</ele>
        <time>2011-08-17T09:48:32Z</time>
      </trkpt>
      <trkpt lat="41.700071" lon="2.434589">
        <ele>227.0</ele>
        <time>2011-08-17T09:48:34Z</time>
      </trkpt>
      <trkpt lat="41.699994" lon="2.434741">
        <ele>227.0</ele>
        <time>2011-08-17T09:48:36Z</time>
      </trkpt>
      <trkpt lat="41.699935" lon="2.435162">
        <ele>227.0</ele>
        <time>2011-08-17T09:48:41Z</time>
      </trkpt>
      <trkpt lat="41.699856" lon="2.435865">
        <ele>227.0</ele>
        <time>2011-08-17T09:48:49Z</time>
      </trkpt>
      <trkpt lat="41.699757" lon="2.436660">
        <ele>225.6</ele>
        <time>2011-08-17T09:48:59Z</time>
      </trkpt>
      <trkpt lat="41.699743" lon="2.436974">
        <ele>224.6</ele>
        <time>2011-08-17T09:49:03Z</time>
      </trkpt>
      <trkpt lat="41.699755" lon="2.437098">
        <ele>225.1</ele>
        <time>2011-08-17T09:49:05Z</time>
      </trkpt>
      <trkpt lat="41.699702" lon="2.437331">
        <ele>224.6</ele>
        <time>2011-08-17T09:49:09Z</time>
      </trkpt>
      <trkpt lat="41.699583" lon="2.438065">
        <ele>223.6</ele>
        <time>2011-08-17T09:49:18Z</time>
      </trkpt>
      <trkpt lat="41.699490" lon="2.438641">
        <ele>222.7</ele>
        <time>2011-08-17T09:49:25Z</time>
      </trkpt>
      <trkpt lat="41.699522" lon="2.438953">
        <ele>222.2</ele>
        <time>2011-08-17T09:49:29Z</time>
      </trkpt>
      <trkpt lat="41.699703" lon="2.439443">
        <ele>223.6</ele>
        <time>2011-08-17T09:49:36Z</time>
      </trkpt>
      <trkpt lat="41.699834" lon="2.439822">
        <ele>223.6</ele>
        <time>2011-08-17T09:49:42Z</time>
      </trkpt>
      <trkpt lat="41.699904" lon="2.440063">
        <ele>220.8</ele>
        <time>2011-08-17T09:49:46Z</time>
      </trkpt>
      <trkpt lat="41.699824" lon="2.440470">
        <ele>219.3</ele>
        <time>2011-08-17T09:49:52Z</time>
      </trkpt>
      <trkpt lat="41.699479" lon="2.441095">
        <ele>218.8</ele>
        <time>2011-08-17T09:50:01Z</time>
      </trkpt>
      <trkpt lat="41.699109" lon="2.441765">
        <ele>217.4</ele>
        <time>2011-08-17T09:50:10Z</time>
      </trkpt>
      <trkpt lat="41.698745" lon="2.442272">
        <ele>216.0</ele>
        <time>2011-08-17T09:50:18Z</time>
      </trkpt>
      <trkpt lat="41.698451" lon="2.442705">
        <ele>216.0</ele>
        <time>2011-08-17T09:50:25Z</time>
      </trkpt>
      <trkpt lat="41.698238" lon="2.443326">
        <ele>212.6</ele>
        <time>2011-08-17T09:50:33Z</time>
      </trkpt>
      <trkpt lat="41.698208" lon="2.443404">
        <ele>213.1</ele>
        <time>2011-08-17T09:50:34Z</time>
      </trkpt>
      <trkpt lat="41.697888" lon="2.443903">
        <ele>213.6</ele>
        <time>2011-08-17T09:50:42Z</time>
      </trkpt>
      <trkpt lat="41.697564" lon="2.444375">
        <ele>212.1</ele>
        <time>2011-08-17T09:50:50Z</time>
      </trkpt>
      <trkpt lat="41.697398" lon="2.444602">
        <ele>213.1</ele>
        <time>2011-08-17T09:50:54Z</time>
      </trkpt>
      <trkpt lat="41.696869" lon="2.445220">
        <ele>214.0</ele>
        <time>2011-08-17T09:51:05Z</time>
      </trkpt>
      <trkpt lat="41.696408" lon="2.445756">
        <ele>212.6</ele>
        <time>2011-08-17T09:51:14Z</time>
      </trkpt>
      <trkpt lat="41.695943" lon="2.446317">
        <ele>209.2</ele>
        <time>2011-08-17T09:51:23Z</time>
      </trkpt>
      <trkpt lat="41.695330" lon="2.446882">
        <ele>208.3</ele>
        <time>2011-08-17T09:51:34Z</time>
      </trkpt>
      <trkpt lat="41.694878" lon="2.447458">
        <ele>205.9</ele>
        <time>2011-08-17T09:51:44Z</time>
      </trkpt>
      <trkpt lat="41.694837" lon="2.447518">
        <ele>205.4</ele>
        <time>2011-08-17T09:51:45Z</time>
      </trkpt>
      <trkpt lat="41.694796" lon="2.447864">
        <ele>203.5</ele>
        <time>2011-08-17T09:51:49Z</time>
      </trkpt>
      <trkpt lat="41.694656" lon="2.448068">
        <ele>202.5</ele>
        <time>2011-08-17T09:51:52Z</time>
      </trkpt>
      <trkpt lat="41.694558" lon="2.448209">
        <ele>201.1</ele>
        <time>2011-08-17T09:51:54Z</time>
      </trkpt>
      <trkpt lat="41.694470" lon="2.448364">
        <ele>199.6</ele>
        <time>2011-08-17T09:51:56Z</time>
      </trkpt>
      <trkpt lat="41.694223" lon="2.449244">
        <ele>195.8</ele>
        <time>2011-08-17T09:52:06Z</time>
      </trkpt>
      <trkpt lat="41.693967" lon="2.449947">
        <ele>195.8</ele>
        <time>2011-08-17T09:52:15Z</time>
      </trkpt>
      <trkpt lat="41.693940" lon="2.450021">
        <ele>195.8</ele>
        <time>2011-08-17T09:52:16Z</time>
      </trkpt>
      <trkpt lat="41.693890" lon="2.450409">
        <ele>195.8</ele>
        <time>2011-08-17T09:52:21Z</time>
      </trkpt>
      <trkpt lat="41.693929" lon="2.450698">
        <ele>196.2</ele>
        <time>2011-08-17T09:52:25Z</time>
      </trkpt>
      <trkpt lat="41.694187" lon="2.451399">
        <ele>197.2</ele>
        <time>2011-08-17T09:52:35Z</time>
      </trkpt>
      <trkpt lat="41.694355" lon="2.451987">
        <ele>198.6</ele>
        <time>2011-08-17T09:52:43Z</time>
      </trkpt>
      <trkpt lat="41.694449" lon="2.452523">
        <ele>199.6</ele>
        <time>2011-08-17T09:52:50Z</time>
      </trkpt>
      <trkpt lat="41.694462" lon="2.453118">
        <ele>201.1</ele>
        <time>2011-08-17T09:52:58Z</time>
      </trkpt>
      <trkpt lat="41.694300" lon="2.453869">
        <ele>198.2</ele>
        <time>2011-08-17T09:53:08Z</time>
      </trkpt>
      <trkpt lat="41.694252" lon="2.454017">
        <ele>198.2</ele>
        <time>2011-08-17T09:53:10Z</time>
      </trkpt>
      <trkpt lat="41.694120" lon="2.454176">
        <ele>197.7</ele>
        <time>2011-08-17T09:53:14Z</time>
      </trkpt>
      <trkpt lat="41.693951" lon="2.454295">
        <ele>199.1</ele>
        <time>2011-08-17T09:53:18Z</time>
      </trkpt>
      <trkpt lat="41.693868" lon="2.454481">
        <ele>199.1</ele>
        <time>2011-08-17T09:53:21Z</time>
      </trkpt>
      <trkpt lat="41.693545" lon="2.454890">
        <ele>198.6</ele>
        <time>2011-08-17T09:53:28Z</time>
      </trkpt>
      <trkpt lat="41.693530" lon="2.455012">
        <ele>198.2</ele>
        <time>2011-08-17T09:53:32Z</time>
      </trkpt>
      <trkpt lat="41.693564" lon="2.455148">
        <ele>197.7</ele>
        <time>2011-08-17T09:53:37Z</time>
      </trkpt>
      <trkpt lat="41.693229" lon="2.455530">
        <ele>197.2</ele>
        <time>2011-08-17T09:53:45Z</time>
      </trkpt>
      <trkpt lat="41.692778" lon="2.456083">
        <ele>196.2</ele>
        <time>2011-08-17T09:53:55Z</time>
      </trkpt>
      <trkpt lat="41.692402" lon="2.456672">
        <ele>196.2</ele>
        <time>2011-08-17T09:54:04Z</time>
      </trkpt>
      <trkpt lat="41.692202" lon="2.457344">
        <ele>194.3</ele>
        <time>2011-08-17T09:54:12Z</time>
      </trkpt>
      <trkpt lat="41.692004" lon="2.458207">
        <ele>190.5</ele>
        <time>2011-08-17T09:54:21Z</time>
      </trkpt>
      <trkpt lat="41.691799" lon="2.459197">
        <ele>190.5</ele>
        <time>2011-08-17T09:54:31Z</time>
      </trkpt>
      <trkpt lat="41.691627" lon="2.459947">
        <ele>190.0</ele>
        <time>2011-08-17T09:54:39Z</time>
      </trkpt>
      <trkpt lat="41.691428" lon="2.460872">
        <ele>191.0</ele>
        <time>2011-08-17T09:54:49Z</time>
      </trkpt>
      <trkpt lat="41.691190" lon="2.461561">
        <ele>190.5</ele>
        <time>2011-08-17T09:54:57Z</time>
      </trkpt>
      <trkpt lat="41.690838" lon="2.462413">
        <ele>189.0</ele>
        <time>2011-08-17T09:55:07Z</time>
      </trkpt>
      <trkpt lat="41.690702" lon="2.463153">
        <ele>188.6</ele>
        <time>2011-08-17T09:55:15Z</time>
      </trkpt>
      <trkpt lat="41.690555" lon="2.463694">
        <ele>191.0</ele>
        <time>2011-08-17T09:55:22Z</time>
      </trkpt>
      <trkpt lat="41.690335" lon="2.464107">
        <ele>192.4</ele>
        <time>2011-08-17T09:55:29Z</time>
      </trkpt>
      <trkpt lat="41.690106" lon="2.464379">
        <ele>194.3</ele>
        <time>2011-08-17T09:55:36Z</time>
      </trkpt>
      <trkpt lat="41.689844" lon="2.464691">
        <ele>195.3</ele>
        <time>2011-08-17T09:55:45Z</time>
      </trkpt>
      <trkpt lat="41.689582" lon="2.464970">
        <ele>191.0</ele>
        <time>2011-08-17T09:55:51Z</time>
      </trkpt>
      <trkpt lat="41.689368" lon="2.465231">
        <ele>189.0</ele>
        <time>2011-08-17T09:55:55Z</time>
      </trkpt>
      <trkpt lat="41.689077" lon="2.465928">
        <ele>183.7</ele>
        <time>2011-08-17T09:56:02Z</time>
      </trkpt>
      <trkpt lat="41.688948" lon="2.466421">
        <ele>182.3</ele>
        <time>2011-08-17T09:56:06Z</time>
      </trkpt>
      <trkpt lat="41.688657" lon="2.466794">
        <ele>182.3</ele>
        <time>2011-08-17T09:56:10Z</time>
      </trkpt>
      <trkpt lat="41.688583" lon="2.467121">
        <ele>182.3</ele>
        <time>2011-08-17T09:56:13Z</time>
      </trkpt>
      <trkpt lat="41.688523" lon="2.467530">
        <ele>181.3</ele>
        <time>2011-08-17T09:56:17Z</time>
      </trkpt>
      <trkpt lat="41.688280" lon="2.468296">
        <ele>180.9</ele>
        <time>2011-08-17T09:56:26Z</time>
      </trkpt>
      <trkpt lat="41.688012" lon="2.468929">
        <ele>178.9</ele>
        <time>2011-08-17T09:56:35Z</time>
      </trkpt>
      <trkpt lat="41.687761" lon="2.469458">
        <ele>176.1</ele>
        <time>2011-08-17T09:56:43Z</time>
      </trkpt>
      <trkpt lat="41.687416" lon="2.469941">
        <ele>175.1</ele>
        <time>2011-08-17T09:56:51Z</time>
      </trkpt>
      <trkpt lat="41.686906" lon="2.470587">
        <ele>169.8</ele>
        <time>2011-08-17T09:57:01Z</time>
      </trkpt>
      <trkpt lat="41.686452" lon="2.471187">
        <ele>166.9</ele>
        <time>2011-08-17T09:57:09Z</time>
      </trkpt>
      <trkpt lat="41.686164" lon="2.471872">
        <ele>163.1</ele>
        <time>2011-08-17T09:57:16Z</time>
      </trkpt>
      <trkpt lat="41.685976" lon="2.472559">
        <ele>159.7</ele>
        <time>2011-08-17T09:57:22Z</time>
      </trkpt>
      <trkpt lat="41.685780" lon="2.473231">
        <ele>157.3</ele>
        <time>2011-08-17T09:57:29Z</time>
      </trkpt>
      <trkpt lat="41.685577" lon="2.473869">
        <ele>159.2</ele>
        <time>2011-08-17T09:57:36Z</time>
      </trkpt>
      <trkpt lat="41.685367" lon="2.474531">
        <ele>161.6</ele>
        <time>2011-08-17T09:57:44Z</time>
      </trkpt>
      <trkpt lat="41.685265" lon="2.474825">
        <ele>162.1</ele>
        <time>2011-08-17T09:57:48Z</time>
      </trkpt>
      <trkpt lat="41.685137" lon="2.474996">
        <ele>163.6</ele>
        <time>2011-08-17T09:57:52Z</time>
      </trkpt>
      <trkpt lat="41.684924" lon="2.475268">
        <ele>163.6</ele>
        <time>2011-08-17T09:57:58Z</time>
      </trkpt>
      <trkpt lat="41.684975" lon="2.475663">
        <ele>163.1</ele>
        <time>2011-08-17T09:58:03Z</time>
      </trkpt>
      <trkpt lat="41.684969" lon="2.475803">
        <ele>163.6</ele>
        <time>2011-08-17T09:58:05Z</time>
      </trkpt>
      <trkpt lat="41.684902" lon="2.476415">
        <ele>164.5</ele>
        <time>2011-08-17T09:58:12Z</time>
      </trkpt>
      <trkpt lat="41.684880" lon="2.477336">
        <ele>163.6</ele>
        <time>2011-08-17T09:58:22Z</time>
      </trkpt>
      <trkpt lat="41.684855" lon="2.478066">
        <ele>161.2</ele>
        <time>2011-08-17T09:58:30Z</time>
      </trkpt>
      <trkpt lat="41.684843" lon="2.479002">
        <ele>161.2</ele>
        <time>2011-08-17T09:58:40Z</time>
      </trkpt>
      <trkpt lat="41.684822" lon="2.479904">
        <ele>159.7</ele>
        <time>2011-08-17T09:58:50Z</time>
      </trkpt>
      <trkpt lat="41.684816" lon="2.479988">
        <ele>160.2</ele>
        <time>2011-08-17T09:58:51Z</time>
      </trkpt>
      <trkpt lat="41.684651" lon="2.480086">
        <ele>160.2</ele>
        <time>2011-08-17T09:58:55Z</time>
      </trkpt>
      <trkpt lat="41.684542" lon="2.480090">
        <ele>159.7</ele>
        <time>2011-08-17T09:58:57Z</time>
      </trkpt>
      <trkpt lat="41.684010" lon="2.480218">
        <ele>158.3</ele>
        <time>2011-08-17T09:59:06Z</time>
      </trkpt>
      <trkpt lat="41.683446" lon="2.480371">
        <ele>153.9</ele>
        <time>2011-08-17T09:59:15Z</time>
      </trkpt>
      <trkpt lat="41.682807" lon="2.480534">
        <ele>150.6</ele>
        <time>2011-08-17T09:59:25Z</time>
      </trkpt>
      <trkpt lat="41.682436" lon="2.480635">
        <ele>151.1</ele>
        <time>2011-08-17T09:59:31Z</time>
      </trkpt>
      <trkpt lat="41.682302" lon="2.480777">
        <ele>150.1</ele>
        <time>2011-08-17T09:59:34Z</time>
      </trkpt>
      <trkpt lat="41.682305" lon="2.481057">
        <ele>149.1</ele>
        <time>2011-08-17T09:59:37Z</time>
      </trkpt>
      <trkpt lat="41.682446" lon="2.481890">
        <ele>149.6</ele>
        <time>2011-08-17T09:59:46Z</time>
      </trkpt>
      <trkpt lat="41.682568" lon="2.482609">
        <ele>151.5</ele>
        <time>2011-08-17T09:59:54Z</time>
      </trkpt>
      <trkpt lat="41.682656" lon="2.483266">
        <ele>151.5</ele>
        <time>2011-08-17T10:00:02Z</time>
      </trkpt>
      <trkpt lat="41.682742" lon="2.483750">
        <ele>152.0</ele>
        <time>2011-08-17T10:00:08Z</time>
      </trkpt>
      <trkpt lat="41.682810" lon="2.484307">
        <ele>151.5</ele>
        <time>2011-08-17T10:00:15Z</time>
      </trkpt>
      <trkpt lat="41.682884" lon="2.484855">
        <ele>151.1</ele>
        <time>2011-08-17T10:00:22Z</time>
      </trkpt>
      <trkpt lat="41.682975" lon="2.485418">
        <ele>150.6</ele>
        <time>2011-08-17T10:00:29Z</time>
      </trkpt>
      <trkpt lat="41.683079" lon="2.485945">
        <ele>149.6</ele>
        <time>2011-08-17T10:00:35Z</time>
      </trkpt>
      <trkpt lat="41.683261" lon="2.486561">
        <ele>150.1</ele>
        <time>2011-08-17T10:00:43Z</time>
      </trkpt>
      <trkpt lat="41.683439" lon="2.487059">
        <ele>151.1</ele>
        <time>2011-08-17T10:00:50Z</time>
      </trkpt>
      <trkpt lat="41.683684" lon="2.487699">
        <ele>152.0</ele>
        <time>2011-08-17T10:01:00Z</time>
      </trkpt>
      <trkpt lat="41.683768" lon="2.487967">
        <ele>151.5</ele>
        <time>2011-08-17T10:01:04Z</time>
      </trkpt>
      <trkpt lat="41.683678" lon="2.488117">
        <ele>148.7</ele>
        <time>2011-08-17T10:01:08Z</time>
      </trkpt>
      <trkpt lat="41.683625" lon="2.488112">
        <ele>148.7</ele>
        <time>2011-08-17T10:01:09Z</time>
      </trkpt>
      <trkpt lat="41.683345" lon="2.488032">
        <ele>146.3</ele>
        <time>2011-08-17T10:01:14Z</time>
      </trkpt>
      <trkpt lat="41.683149" lon="2.487812">
        <ele>145.3</ele>
        <time>2011-08-17T10:01:18Z</time>
      </trkpt>
      <trkpt lat="41.682845" lon="2.487712">
        <ele>143.9</ele>
        <time>2011-08-17T10:01:23Z</time>
      </trkpt>
      <trkpt lat="41.682601" lon="2.487792">
        <ele>143.9</ele>
        <time>2011-08-17T10:01:27Z</time>
      </trkpt>
      <trkpt lat="41.682354" lon="2.487964">
        <ele>142.9</ele>
        <time>2011-08-17T10:01:31Z</time>
      </trkpt>
      <trkpt lat="41.682180" lon="2.487982">
        <ele>141.0</ele>
        <time>2011-08-17T10:01:33Z</time>
      </trkpt>
      <trkpt lat="41.681679" lon="2.487972">
        <ele>139.0</ele>
        <time>2011-08-17T10:01:39Z</time>
      </trkpt>
      <trkpt lat="41.681600" lon="2.487951">
        <ele>138.6</ele>
        <time>2011-08-17T10:01:40Z</time>
      </trkpt>
      <trkpt lat="41.681469" lon="2.487773">
        <ele>141.0</ele>
        <time>2011-08-17T10:01:44Z</time>
      </trkpt>
      <trkpt lat="41.681308" lon="2.487563">
        <ele>141.9</ele>
        <time>2011-08-17T10:01:48Z</time>
      </trkpt>
      <trkpt lat="41.681143" lon="2.487591">
        <ele>142.9</ele>
        <time>2011-08-17T10:01:52Z</time>
      </trkpt>
      <trkpt lat="41.681083" lon="2.487687">
        <ele>142.4</ele>
        <time>2011-08-17T10:01:54Z</time>
      </trkpt>
      <trkpt lat="41.681023" lon="2.487925">
        <ele>141.9</ele>
        <time>2011-08-17T10:01:58Z</time>
      </trkpt>
      <trkpt lat="41.680870" lon="2.488145">
        <ele>140.5</ele>
        <time>2011-08-17T10:02:03Z</time>
      </trkpt>
      <trkpt lat="41.680639" lon="2.488473">
        <ele>139.0</ele>
        <time>2011-08-17T10:02:09Z</time>
      </trkpt>
      <trkpt lat="41.680418" lon="2.488869">
        <ele>140.0</ele>
        <time>2011-08-17T10:02:16Z</time>
      </trkpt>
      <trkpt lat="41.680295" lon="2.489047">
        <ele>138.6</ele>
        <time>2011-08-17T10:02:20Z</time>
      </trkpt>
      <trkpt lat="41.680138" lon="2.489299">
        <ele>139.0</ele>
        <time>2011-08-17T10:02:25Z</time>
      </trkpt>
      <trkpt lat="41.680106" lon="2.489560">
        <ele>140.0</ele>
        <time>2011-08-17T10:02:30Z</time>
      </trkpt>
      <trkpt lat="41.680194" lon="2.489689">
        <ele>136.6</ele>
        <time>2011-08-17T10:02:33Z</time>
      </trkpt>
      <trkpt lat="41.680654" lon="2.490073">
        <ele>132.8</ele>
        <time>2011-08-17T10:02:43Z</time>
      </trkpt>
      <trkpt lat="41.681169" lon="2.490528">
        <ele>132.3</ele>
        <time>2011-08-17T10:02:51Z</time>
      </trkpt>
      <trkpt lat="41.681537" lon="2.490988">
        <ele>131.8</ele>
        <time>2011-08-17T10:02:58Z</time>
      </trkpt>
      <trkpt lat="41.681822" lon="2.491496">
        <ele>131.4</ele>
        <time>2011-08-17T10:03:05Z</time>
      </trkpt>
      <trkpt lat="41.681857" lon="2.491581">
        <ele>131.4</ele>
        <time>2011-08-17T10:03:06Z</time>
      </trkpt>
      <trkpt lat="41.681919" lon="2.491826">
        <ele>130.4</ele>
        <time>2011-08-17T10:03:09Z</time>
      </trkpt>
      <trkpt lat="41.682158" lon="2.492326">
        <ele>128.0</ele>
        <time>2011-08-17T10:03:16Z</time>
      </trkpt>
      <trkpt lat="41.682421" lon="2.492723">
        <ele>127.0</ele>
        <time>2011-08-17T10:03:22Z</time>
      </trkpt>
      <trkpt lat="41.682841" lon="2.493320">
        <ele>130.4</ele>
        <time>2011-08-17T10:03:30Z</time>
      </trkpt>
      <trkpt lat="41.683203" lon="2.493971">
        <ele>133.3</ele>
        <time>2011-08-17T10:03:38Z</time>
      </trkpt>
      <trkpt lat="41.683514" lon="2.494633">
        <ele>131.8</ele>
        <time>2011-08-17T10:03:46Z</time>
      </trkpt>
      <trkpt lat="41.683764" lon="2.495188">
        <ele>129.9</ele>
        <time>2011-08-17T10:03:53Z</time>
      </trkpt>
      <trkpt lat="41.683903" lon="2.495490">
        <ele>131.4</ele>
        <time>2011-08-17T10:03:57Z</time>
      </trkpt>
      <trkpt lat="41.683989" lon="2.495732">
        <ele>129.4</ele>
        <time>2011-08-17T10:04:00Z</time>
      </trkpt>
      <trkpt lat="41.684183" lon="2.496203">
        <ele>129.0</ele>
        <time>2011-08-17T10:04:06Z</time>
      </trkpt>
      <trkpt lat="41.684445" lon="2.496472">
        <ele>128.0</ele>
        <time>2011-08-17T10:04:11Z</time>
      </trkpt>
      <trkpt lat="41.684826" lon="2.496538">
        <ele>127.0</ele>
        <time>2011-08-17T10:04:16Z</time>
      </trkpt>
      <trkpt lat="41.684985" lon="2.496603">
        <ele>126.1</ele>
        <time>2011-08-17T10:04:18Z</time>
      </trkpt>
      <trkpt lat="41.685299" lon="2.496724">
        <ele>125.1</ele>
        <time>2011-08-17T10:04:22Z</time>
      </trkpt>
      <trkpt lat="41.685525" lon="2.496961">
        <ele>124.1</ele>
        <time>2011-08-17T10:04:26Z</time>
      </trkpt>
      <trkpt lat="41.685651" lon="2.497315">
        <ele>122.2</ele>
        <time>2011-08-17T10:04:30Z</time>
      </trkpt>
      <trkpt lat="41.685961" lon="2.497915">
        <ele>119.3</ele>
        <time>2011-08-17T10:04:37Z</time>
      </trkpt>
      <trkpt lat="41.686245" lon="2.498399">
        <ele>118.4</ele>
        <time>2011-08-17T10:04:43Z</time>
      </trkpt>
      <trkpt lat="41.686375" lon="2.498631">
        <ele>118.4</ele>
        <time>2011-08-17T10:04:46Z</time>
      </trkpt>
      <trkpt lat="41.686430" lon="2.498747">
        <ele>116.9</ele>
        <time>2011-08-17T10:04:48Z</time>
      </trkpt>
      <trkpt lat="41.686518" lon="2.498946">
        <ele>116.0</ele>
        <time>2011-08-17T10:04:51Z</time>
      </trkpt>
      <trkpt lat="41.686707" lon="2.499333">
        <ele>113.6</ele>
        <time>2011-08-17T10:04:56Z</time>
      </trkpt>
      <trkpt lat="41.686789" lon="2.499512">
        <ele>113.6</ele>
        <time>2011-08-17T10:04:58Z</time>
      </trkpt>
      <trkpt lat="41.687101" lon="2.500112">
        <ele>114.5</ele>
        <time>2011-08-17T10:05:05Z</time>
      </trkpt>
      <trkpt lat="41.687365" lon="2.500600">
        <ele>117.9</ele>
        <time>2011-08-17T10:05:12Z</time>
      </trkpt>
      <trkpt lat="41.687646" lon="2.501146">
        <ele>116.9</ele>
        <time>2011-08-17T10:05:19Z</time>
      </trkpt>
      <trkpt lat="41.687690" lon="2.501218">
        <ele>116.9</ele>
        <time>2011-08-17T10:05:20Z</time>
      </trkpt>
      <trkpt lat="41.687881" lon="2.501473">
        <ele>115.5</ele>
        <time>2011-08-17T10:05:24Z</time>
      </trkpt>
      <trkpt lat="41.688050" lon="2.501810">
        <ele>114.1</ele>
        <time>2011-08-17T10:05:29Z</time>
      </trkpt>
      <trkpt lat="41.688185" lon="2.502034">
        <ele>114.1</ele>
        <time>2011-08-17T10:05:33Z</time>
      </trkpt>
      <trkpt lat="41.688577" lon="2.502472">
        <ele>116.0</ele>
        <time>2011-08-17T10:05:41Z</time>
      </trkpt>
      <trkpt lat="41.689072" lon="2.503014">
        <ele>118.4</ele>
        <time>2011-08-17T10:05:50Z</time>
      </trkpt>
      <trkpt lat="41.689446" lon="2.503504">
        <ele>121.3</ele>
        <time>2011-08-17T10:05:57Z</time>
      </trkpt>
      <trkpt lat="41.689493" lon="2.503563">
        <ele>121.3</ele>
        <time>2011-08-17T10:05:58Z</time>
      </trkpt>
      <trkpt lat="41.689758" lon="2.503803">
        <ele>120.3</ele>
        <time>2011-08-17T10:06:04Z</time>
      </trkpt>
      <trkpt lat="41.689784" lon="2.503843">
        <ele>120.8</ele>
        <time>2011-08-17T10:06:05Z</time>
      </trkpt>
      <trkpt lat="41.689872" lon="2.504086">
        <ele>120.8</ele>
        <time>2011-08-17T10:06:10Z</time>
      </trkpt>
      <trkpt lat="41.690145" lon="2.504527">
        <ele>121.7</ele>
        <time>2011-08-17T10:06:18Z</time>
      </trkpt>
      <trkpt lat="41.690230" lon="2.504668">
        <ele>123.7</ele>
        <time>2011-08-17T10:06:20Z</time>
      </trkpt>
      <trkpt lat="41.690591" lon="2.505273">
        <ele>122.7</ele>
        <time>2011-08-17T10:06:29Z</time>
      </trkpt>
      <trkpt lat="41.690869" lon="2.505789">
        <ele>119.8</ele>
        <time>2011-08-17T10:06:36Z</time>
      </trkpt>
      <trkpt lat="41.691132" lon="2.506278">
        <ele>118.4</ele>
        <time>2011-08-17T10:06:43Z</time>
      </trkpt>
      <trkpt lat="41.691185" lon="2.506365">
        <ele>117.9</ele>
        <time>2011-08-17T10:06:44Z</time>
      </trkpt>
      <trkpt lat="41.691386" lon="2.506871">
        <ele>116.0</ele>
        <time>2011-08-17T10:06:50Z</time>
      </trkpt>
      <trkpt lat="41.691638" lon="2.507434">
        <ele>114.5</ele>
        <time>2011-08-17T10:06:57Z</time>
      </trkpt>
      <trkpt lat="41.691899" lon="2.507890">
        <ele>114.5</ele>
        <time>2011-08-17T10:07:03Z</time>
      </trkpt>
      <trkpt lat="41.692137" lon="2.508341">
        <ele>114.1</ele>
        <time>2011-08-17T10:07:09Z</time>
      </trkpt>
      <trkpt lat="41.692383" lon="2.508809">
        <ele>111.7</ele>
        <time>2011-08-17T10:07:16Z</time>
      </trkpt>
      <trkpt lat="41.692603" lon="2.509274">
        <ele>111.2</ele>
        <time>2011-08-17T10:07:23Z</time>
      </trkpt>
      <trkpt lat="41.692637" lon="2.509338">
        <ele>110.7</ele>
        <time>2011-08-17T10:07:24Z</time>
      </trkpt>
      <trkpt lat="41.692731" lon="2.509449">
        <ele>110.7</ele>
        <time>2011-08-17T10:07:26Z</time>
      </trkpt>
      <trkpt lat="41.692969" lon="2.509875">
        <ele>110.7</ele>
        <time>2011-08-17T10:07:32Z</time>
      </trkpt>
      <trkpt lat="41.693051" lon="2.510001">
        <ele>110.2</ele>
        <time>2011-08-17T10:07:34Z</time>
      </trkpt>
      <trkpt lat="41.693183" lon="2.510185">
        <ele>109.7</ele>
        <time>2011-08-17T10:07:37Z</time>
      </trkpt>
      <trkpt lat="41.693550" lon="2.510648">
        <ele>108.8</ele>
        <time>2011-08-17T10:07:44Z</time>
      </trkpt>
      <trkpt lat="41.693659" lon="2.510858">
        <ele>108.3</ele>
        <time>2011-08-17T10:07:47Z</time>
      </trkpt>
      <trkpt lat="41.693868" lon="2.511063">
        <ele>108.3</ele>
        <time>2011-08-17T10:07:51Z</time>
      </trkpt>
      <trkpt lat="41.694237" lon="2.511422">
        <ele>109.7</ele>
        <time>2011-08-17T10:07:58Z</time>
      </trkpt>
      <trkpt lat="41.694637" lon="2.511756">
        <ele>113.1</ele>
        <time>2011-08-17T10:08:05Z</time>
      </trkpt>
      <trkpt lat="41.695054" lon="2.512089">
        <ele>113.6</ele>
        <time>2011-08-17T10:08:12Z</time>
      </trkpt>
      <trkpt lat="41.695494" lon="2.512461">
        <ele>114.5</ele>
        <time>2011-08-17T10:08:20Z</time>
      </trkpt>
      <trkpt lat="41.695944" lon="2.512773">
        <ele>114.1</ele>
        <time>2011-08-17T10:08:28Z</time>
      </trkpt>
      <trkpt lat="41.696372" lon="2.513024">
        <ele>112.6</ele>
        <time>2011-08-17T10:08:35Z</time>
      </trkpt>
      <trkpt lat="41.696786" lon="2.513267">
        <ele>111.2</ele>
        <time>2011-08-17T10:08:41Z</time>
      </trkpt>
      <trkpt lat="41.697191" lon="2.513588">
        <ele>111.2</ele>
        <time>2011-08-17T10:08:48Z</time>
      </trkpt>
      <trkpt lat="41.697249" lon="2.513633">
        <ele>111.7</ele>
        <time>2011-08-17T10:08:49Z</time>
      </trkpt>
      <trkpt lat="41.697621" lon="2.513965">
        <ele>111.2</ele>
        <time>2011-08-17T10:08:56Z</time>
      </trkpt>
      <trkpt lat="41.697963" lon="2.514238">
        <ele>108.8</ele>
        <time>2011-08-17T10:09:02Z</time>
      </trkpt>
      <trkpt lat="41.698384" lon="2.514558">
        <ele>106.8</ele>
        <time>2011-08-17T10:09:09Z</time>
      </trkpt>
      <trkpt lat="41.698541" lon="2.514686">
        <ele>106.8</ele>
        <time>2011-08-17T10:09:12Z</time>
      </trkpt>
      <trkpt lat="41.698944" lon="2.515010">
        <ele>106.4</ele>
        <time>2011-08-17T10:09:19Z</time>
      </trkpt>
      <trkpt lat="41.699277" lon="2.515299">
        <ele>107.3</ele>
        <time>2011-08-17T10:09:25Z</time>
      </trkpt>
      <trkpt lat="41.699698" lon="2.515664">
        <ele>110.2</ele>
        <time>2011-08-17T10:09:33Z</time>
      </trkpt>
      <trkpt lat="41.699756" lon="2.515700">
        <ele>110.2</ele>
        <time>2011-08-17T10:09:34Z</time>
      </trkpt>
      <trkpt lat="41.699905" lon="2.515839">
        <ele>110.7</ele>
        <time>2011-08-17T10:09:37Z</time>
      </trkpt>
      <trkpt lat="41.700293" lon="2.516192">
        <ele>110.2</ele>
        <time>2011-08-17T10:09:44Z</time>
      </trkpt>
      <trkpt lat="41.700826" lon="2.516666">
        <ele>107.8</ele>
        <time>2011-08-17T10:09:53Z</time>
      </trkpt>
      <trkpt lat="41.701251" lon="2.516993">
        <ele>106.8</ele>
        <time>2011-08-17T10:10:00Z</time>
      </trkpt>
      <trkpt lat="41.701369" lon="2.517068">
        <ele>106.4</ele>
        <time>2011-08-17T10:10:02Z</time>
      </trkpt>
      <trkpt lat="41.701644" lon="2.517173">
        <ele>107.8</ele>
        <time>2011-08-17T10:10:07Z</time>
      </trkpt>
      <trkpt lat="41.701840" lon="2.517438">
        <ele>108.8</ele>
        <time>2011-08-17T10:10:12Z</time>
      </trkpt>
      <trkpt lat="41.701915" lon="2.517732">
        <ele>109.2</ele>
        <time>2011-08-17T10:10:16Z</time>
      </trkpt>
      <trkpt lat="41.702030" lon="2.517989">
        <ele>108.3</ele>
        <time>2011-08-17T10:10:20Z</time>
      </trkpt>
      <trkpt lat="41.702310" lon="2.518351">
        <ele>107.3</ele>
        <time>2011-08-17T10:10:26Z</time>
      </trkpt>
      <trkpt lat="41.702542" lon="2.518905">
        <ele>106.4</ele>
        <time>2011-08-17T10:10:33Z</time>
      </trkpt>
      <trkpt lat="41.702848" lon="2.519403">
        <ele>105.4</ele>
        <time>2011-08-17T10:10:40Z</time>
      </trkpt>
      <trkpt lat="41.703046" lon="2.519771">
        <ele>105.9</ele>
        <time>2011-08-17T10:10:45Z</time>
      </trkpt>
      <trkpt lat="41.703164" lon="2.520076">
        <ele>103.5</ele>
        <time>2011-08-17T10:10:49Z</time>
      </trkpt>
      <trkpt lat="41.703480" lon="2.520682">
        <ele>104.0</ele>
        <time>2011-08-17T10:10:57Z</time>
      </trkpt>
      <trkpt lat="41.703768" lon="2.521232">
        <ele>103.0</ele>
        <time>2011-08-17T10:11:04Z</time>
      </trkpt>
      <trkpt lat="41.703973" lon="2.521694">
        <ele>102.0</ele>
        <time>2011-08-17T10:11:10Z</time>
      </trkpt>
      <trkpt lat="41.704359" lon="2.522206">
        <ele>100.1</ele>
        <time>2011-08-17T10:11:18Z</time>
      </trkpt>
      <trkpt lat="41.704476" lon="2.522309">
        <ele>100.1</ele>
        <time>2011-08-17T10:11:20Z</time>
      </trkpt>
      <trkpt lat="41.704659" lon="2.522556">
        <ele>98.7</ele>
        <time>2011-08-17T10:11:24Z</time>
      </trkpt>
      <trkpt lat="41.704783" lon="2.522664">
        <ele>99.2</ele>
        <time>2011-08-17T10:11:26Z</time>
      </trkpt>
      <trkpt lat="41.705126" lon="2.523226">
        <ele>99.2</ele>
        <time>2011-08-17T10:11:34Z</time>
      </trkpt>
      <trkpt lat="41.705322" lon="2.523890">
        <ele>99.6</ele>
        <time>2011-08-17T10:11:42Z</time>
      </trkpt>
      <trkpt lat="41.705619" lon="2.524616">
        <ele>100.1</ele>
        <time>2011-08-17T10:11:51Z</time>
      </trkpt>
      <trkpt lat="41.705755" lon="2.524831">
        <ele>99.6</ele>
        <time>2011-08-17T10:11:54Z</time>
      </trkpt>
      <trkpt lat="41.705879" lon="2.525151">
        <ele>100.6</ele>
        <time>2011-08-17T10:11:58Z</time>
      </trkpt>
      <trkpt lat="41.706034" lon="2.525934">
        <ele>101.1</ele>
        <time>2011-08-17T10:12:07Z</time>
      </trkpt>
      <trkpt lat="41.706142" lon="2.526249">
        <ele>101.1</ele>
        <time>2011-08-17T10:12:11Z</time>
      </trkpt>
      <trkpt lat="41.706363" lon="2.526956">
        <ele>99.6</ele>
        <time>2011-08-17T10:12:20Z</time>
      </trkpt>
      <trkpt lat="41.706399" lon="2.527037">
        <ele>100.6</ele>
        <time>2011-08-17T10:12:21Z</time>
      </trkpt>
      <trkpt lat="41.706526" lon="2.527493">
        <ele>102.5</ele>
        <time>2011-08-17T10:12:27Z</time>
      </trkpt>
      <trkpt lat="41.706511" lon="2.527573">
        <ele>103.0</ele>
        <time>2011-08-17T10:12:28Z</time>
      </trkpt>
      <trkpt lat="41.706495" lon="2.527727">
        <ele>104.0</ele>
        <time>2011-08-17T10:12:30Z</time>
      </trkpt>
      <trkpt lat="41.706558" lon="2.528015">
        <ele>104.4</ele>
        <time>2011-08-17T10:12:34Z</time>
      </trkpt>
      <trkpt lat="41.706856" lon="2.528678">
        <ele>104.4</ele>
        <time>2011-08-17T10:12:42Z</time>
      </trkpt>
      <trkpt lat="41.707153" lon="2.529326">
        <ele>104.4</ele>
        <time>2011-08-17T10:12:50Z</time>
      </trkpt>
      <trkpt lat="41.707607" lon="2.530203">
        <ele>102.5</ele>
        <time>2011-08-17T10:13:01Z</time>
      </trkpt>
      <trkpt lat="41.707926" lon="2.530786">
        <ele>101.1</ele>
        <time>2011-08-17T10:13:08Z</time>
      </trkpt>
      <trkpt lat="41.708327" lon="2.531445">
        <ele>101.6</ele>
        <time>2011-08-17T10:13:16Z</time>
      </trkpt>
      <trkpt lat="41.708768" lon="2.532173">
        <ele>102.5</ele>
        <time>2011-08-17T10:13:25Z</time>
      </trkpt>
      <trkpt lat="41.709208" lon="2.532878">
        <ele>101.6</ele>
        <time>2011-08-17T10:13:34Z</time>
      </trkpt>
      <trkpt lat="41.709315" lon="2.533022">
        <ele>102.0</ele>
        <time>2011-08-17T10:13:36Z</time>
      </trkpt>
      <trkpt lat="41.709619" lon="2.533293">
        <ele>100.1</ele>
        <time>2011-08-17T10:13:41Z</time>
      </trkpt>
      <trkpt lat="41.710051" lon="2.533754">
        <ele>99.2</ele>
        <time>2011-08-17T10:13:48Z</time>
      </trkpt>
      <trkpt lat="41.710115" lon="2.533806">
        <ele>98.7</ele>
        <time>2011-08-17T10:13:49Z</time>
      </trkpt>
      <trkpt lat="41.710262" lon="2.534110">
        <ele>97.7</ele>
        <time>2011-08-17T10:13:53Z</time>
      </trkpt>
      <trkpt lat="41.710543" lon="2.534665">
        <ele>97.2</ele>
        <time>2011-08-17T10:14:00Z</time>
      </trkpt>
      <trkpt lat="41.710865" lon="2.535327">
        <ele>95.3</ele>
        <time>2011-08-17T10:14:08Z</time>
      </trkpt>
      <trkpt lat="41.711226" lon="2.536041">
        <ele>97.2</ele>
        <time>2011-08-17T10:14:17Z</time>
      </trkpt>
      <trkpt lat="41.711546" lon="2.536750">
        <ele>97.2</ele>
        <time>2011-08-17T10:14:25Z</time>
      </trkpt>
      <trkpt lat="41.711863" lon="2.537450">
        <ele>94.3</ele>
        <time>2011-08-17T10:14:33Z</time>
      </trkpt>
      <trkpt lat="41.712132" lon="2.538204">
        <ele>92.4</ele>
        <time>2011-08-17T10:14:41Z</time>
      </trkpt>
      <trkpt lat="41.712388" lon="2.539081">
        <ele>91.9</ele>
        <time>2011-08-17T10:14:50Z</time>
      </trkpt>
      <trkpt lat="41.712668" lon="2.539976">
        <ele>92.9</ele>
        <time>2011-08-17T10:14:59Z</time>
      </trkpt>
      <trkpt lat="41.712882" lon="2.540928">
        <ele>93.9</ele>
        <time>2011-08-17T10:15:08Z</time>
      </trkpt>
      <trkpt lat="41.713050" lon="2.541756">
        <ele>92.4</ele>
        <time>2011-08-17T10:15:16Z</time>
      </trkpt>
      <trkpt lat="41.713214" lon="2.542627">
        <ele>92.9</ele>
        <time>2011-08-17T10:15:24Z</time>
      </trkpt>
      <trkpt lat="41.713246" lon="2.543273">
        <ele>92.4</ele>
        <time>2011-08-17T10:15:30Z</time>
      </trkpt>
      <trkpt lat="41.713343" lon="2.544189">
        <ele>93.4</ele>
        <time>2011-08-17T10:15:39Z</time>
      </trkpt>
      <trkpt lat="41.713416" lon="2.544914">
        <ele>95.8</ele>
        <time>2011-08-17T10:15:47Z</time>
      </trkpt>
      <trkpt lat="41.713416" lon="2.545180">
        <ele>96.3</ele>
        <time>2011-08-17T10:15:50Z</time>
      </trkpt>
      <trkpt lat="41.713466" lon="2.545960">
        <ele>93.9</ele>
        <time>2011-08-17T10:15:59Z</time>
      </trkpt>
      <trkpt lat="41.713531" lon="2.546863">
        <ele>94.3</ele>
        <time>2011-08-17T10:16:09Z</time>
      </trkpt>
      <trkpt lat="41.713607" lon="2.547632">
        <ele>94.3</ele>
        <time>2011-08-17T10:16:18Z</time>
      </trkpt>
      <trkpt lat="41.713649" lon="2.547905">
        <ele>93.4</ele>
        <time>2011-08-17T10:16:21Z</time>
      </trkpt>
      <trkpt lat="41.713670" lon="2.548118">
        <ele>92.9</ele>
        <time>2011-08-17T10:16:23Z</time>
      </trkpt>
      <trkpt lat="41.713777" lon="2.549001">
        <ele>92.4</ele>
        <time>2011-08-17T10:16:32Z</time>
      </trkpt>
      <trkpt lat="41.713843" lon="2.549659">
        <ele>91.5</ele>
        <time>2011-08-17T10:16:39Z</time>
      </trkpt>
      <trkpt lat="41.713931" lon="2.550491">
        <ele>91.9</ele>
        <time>2011-08-17T10:16:48Z</time>
      </trkpt>
      <trkpt lat="41.714026" lon="2.551352">
        <ele>92.9</ele>
        <time>2011-08-17T10:16:58Z</time>
      </trkpt>
      <trkpt lat="41.714123" lon="2.552111">
        <ele>91.5</ele>
        <time>2011-08-17T10:17:07Z</time>
      </trkpt>
      <trkpt lat="41.714191" lon="2.552697">
        <ele>90.5</ele>
        <time>2011-08-17T10:17:14Z</time>
      </trkpt>
      <trkpt lat="41.714214" lon="2.552951">
        <ele>90.5</ele>
        <time>2011-08-17T10:17:17Z</time>
      </trkpt>
      <trkpt lat="41.714335" lon="2.553635">
        <ele>88.6</ele>
        <time>2011-08-17T10:17:25Z</time>
      </trkpt>
      <trkpt lat="41.714465" lon="2.554406">
        <ele>88.1</ele>
        <time>2011-08-17T10:17:34Z</time>
      </trkpt>
      <trkpt lat="41.714634" lon="2.555010">
        <ele>87.1</ele>
        <time>2011-08-17T10:17:42Z</time>
      </trkpt>
      <trkpt lat="41.714658" lon="2.555078">
        <ele>87.1</ele>
        <time>2011-08-17T10:17:43Z</time>
      </trkpt>
      <trkpt lat="41.714711" lon="2.555282">
        <ele>86.2</ele>
        <time>2011-08-17T10:17:46Z</time>
      </trkpt>
      <trkpt lat="41.714763" lon="2.555510">
        <ele>85.2</ele>
        <time>2011-08-17T10:17:49Z</time>
      </trkpt>
      <trkpt lat="41.714856" lon="2.555994">
        <ele>85.2</ele>
        <time>2011-08-17T10:17:55Z</time>
      </trkpt>
      <trkpt lat="41.715045" lon="2.556708">
        <ele>82.8</ele>
        <time>2011-08-17T10:18:04Z</time>
      </trkpt>
      <trkpt lat="41.715160" lon="2.557281">
        <ele>80.4</ele>
        <time>2011-08-17T10:18:11Z</time>
      </trkpt>
      <trkpt lat="41.715264" lon="2.557793">
        <ele>80.4</ele>
        <time>2011-08-17T10:18:17Z</time>
      </trkpt>
      <trkpt lat="41.715477" lon="2.558060">
        <ele>81.8</ele>
        <time>2011-08-17T10:18:22Z</time>
      </trkpt>
      <trkpt lat="41.715609" lon="2.558016">
        <ele>81.4</ele>
        <time>2011-08-17T10:18:25Z</time>
      </trkpt>
      <trkpt lat="41.715692" lon="2.558141">
        <ele>80.9</ele>
        <time>2011-08-17T10:18:28Z</time>
      </trkpt>
      <trkpt lat="41.715809" lon="2.558661">
        <ele>81.8</ele>
        <time>2011-08-17T10:18:35Z</time>
      </trkpt>
      <trkpt lat="41.715852" lon="2.558909">
        <ele>82.3</ele>
        <time>2011-08-17T10:18:38Z</time>
      </trkpt>
      <trkpt lat="41.715787" lon="2.559214">
        <ele>82.8</ele>
        <time>2011-08-17T10:18:42Z</time>
      </trkpt>
      <trkpt lat="41.715750" lon="2.559701">
        <ele>84.7</ele>
        <time>2011-08-17T10:18:48Z</time>
      </trkpt>
      <trkpt lat="41.715790" lon="2.559859">
        <ele>84.3</ele>
        <time>2011-08-17T10:18:50Z</time>
      </trkpt>
      <trkpt lat="41.716044" lon="2.560605">
        <ele>79.9</ele>
        <time>2011-08-17T10:18:59Z</time>
      </trkpt>
      <trkpt lat="41.716080" lon="2.560701">
        <ele>79.0</ele>
        <time>2011-08-17T10:19:00Z</time>
      </trkpt>
      <trkpt lat="41.716289" lon="2.561340">
        <ele>80.9</ele>
        <time>2011-08-17T10:19:07Z</time>
      </trkpt>
      <trkpt lat="41.716545" lon="2.562053">
        <ele>84.3</ele>
        <time>2011-08-17T10:19:16Z</time>
      </trkpt>
      <trkpt lat="41.716754" lon="2.562575">
        <ele>83.8</ele>
        <time>2011-08-17T10:19:23Z</time>
      </trkpt>
      <trkpt lat="41.717101" lon="2.563433">
        <ele>82.3</ele>
        <time>2011-08-17T10:19:33Z</time>
      </trkpt>
      <trkpt lat="41.717368" lon="2.564017">
        <ele>80.9</ele>
        <time>2011-08-17T10:19:40Z</time>
      </trkpt>
      <trkpt lat="41.717666" lon="2.564723">
        <ele>79.9</ele>
        <time>2011-08-17T10:19:48Z</time>
      </trkpt>
      <trkpt lat="41.717884" lon="2.565222">
        <ele>80.9</ele>
        <time>2011-08-17T10:19:54Z</time>
      </trkpt>
      <trkpt lat="41.718242" lon="2.566016">
        <ele>79.4</ele>
        <time>2011-08-17T10:20:04Z</time>
      </trkpt>
      <trkpt lat="41.718545" lon="2.566652">
        <ele>79.0</ele>
        <time>2011-08-17T10:20:12Z</time>
      </trkpt>
      <trkpt lat="41.718918" lon="2.567464">
        <ele>78.5</ele>
        <time>2011-08-17T10:20:22Z</time>
      </trkpt>
      <trkpt lat="41.719184" lon="2.568017">
        <ele>78.0</ele>
        <time>2011-08-17T10:20:29Z</time>
      </trkpt>
      <trkpt lat="41.719482" lon="2.568660">
        <ele>78.5</ele>
        <time>2011-08-17T10:20:37Z</time>
      </trkpt>
      <trkpt lat="41.719781" lon="2.569272">
        <ele>79.0</ele>
        <time>2011-08-17T10:20:45Z</time>
      </trkpt>
      <trkpt lat="41.720038" lon="2.569812">
        <ele>78.5</ele>
        <time>2011-08-17T10:20:52Z</time>
      </trkpt>
      <trkpt lat="41.720365" lon="2.570506">
        <ele>78.0</ele>
        <time>2011-08-17T10:21:01Z</time>
      </trkpt>
      <trkpt lat="41.720700" lon="2.571217">
        <ele>78.5</ele>
        <time>2011-08-17T10:21:10Z</time>
      </trkpt>
      <trkpt lat="41.721035" lon="2.571921">
        <ele>77.0</ele>
        <time>2011-08-17T10:21:19Z</time>
      </trkpt>
      <trkpt lat="41.721144" lon="2.572126">
        <ele>76.6</ele>
        <time>2011-08-17T10:21:22Z</time>
      </trkpt>
      <trkpt lat="41.721270" lon="2.572300">
        <ele>76.6</ele>
        <time>2011-08-17T10:21:25Z</time>
      </trkpt>
      <trkpt lat="41.721398" lon="2.572595">
        <ele>74.6</ele>
        <time>2011-08-17T10:21:29Z</time>
      </trkpt>
      <trkpt lat="41.721615" lon="2.573107">
        <ele>73.2</ele>
        <time>2011-08-17T10:21:35Z</time>
      </trkpt>
      <trkpt lat="41.721702" lon="2.573329">
        <ele>72.7</ele>
        <time>2011-08-17T10:21:38Z</time>
      </trkpt>
      <trkpt lat="41.721930" lon="2.573851">
        <ele>72.7</ele>
        <time>2011-08-17T10:21:46Z</time>
      </trkpt>
      <trkpt lat="41.722151" lon="2.574342">
        <ele>73.7</ele>
        <time>2011-08-17T10:21:53Z</time>
      </trkpt>
      <trkpt lat="41.722476" lon="2.575107">
        <ele>71.3</ele>
        <time>2011-08-17T10:22:03Z</time>
      </trkpt>
      <trkpt lat="41.722800" lon="2.575858">
        <ele>69.8</ele>
        <time>2011-08-17T10:22:13Z</time>
      </trkpt>
      <trkpt lat="41.723017" lon="2.576398">
        <ele>71.3</ele>
        <time>2011-08-17T10:22:20Z</time>
      </trkpt>
      <trkpt lat="41.723279" lon="2.577119">
        <ele>71.3</ele>
        <time>2011-08-17T10:22:29Z</time>
      </trkpt>
      <trkpt lat="41.723547" lon="2.577867">
        <ele>72.7</ele>
        <time>2011-08-17T10:22:38Z</time>
      </trkpt>
      <trkpt lat="41.723795" lon="2.578662">
        <ele>71.3</ele>
        <time>2011-08-17T10:22:47Z</time>
      </trkpt>
      <trkpt lat="41.724048" lon="2.579500">
        <ele>71.3</ele>
        <time>2011-08-17T10:22:56Z</time>
      </trkpt>
      <trkpt lat="41.724203" lon="2.580030">
        <ele>71.3</ele>
        <time>2011-08-17T10:23:02Z</time>
      </trkpt>
      <trkpt lat="41.724340" lon="2.580555">
        <ele>69.8</ele>
        <time>2011-08-17T10:23:08Z</time>
      </trkpt>
      <trkpt lat="41.724506" lon="2.581206">
        <ele>69.4</ele>
        <time>2011-08-17T10:23:15Z</time>
      </trkpt>
      <trkpt lat="41.724671" lon="2.581743">
        <ele>70.8</ele>
        <time>2011-08-17T10:23:21Z</time>
      </trkpt>
      <trkpt lat="41.724853" lon="2.582481">
        <ele>71.3</ele>
        <time>2011-08-17T10:23:29Z</time>
      </trkpt>
      <trkpt lat="41.725049" lon="2.583331">
        <ele>71.8</ele>
        <time>2011-08-17T10:23:38Z</time>
      </trkpt>
      <trkpt lat="41.725246" lon="2.584179">
        <ele>71.8</ele>
        <time>2011-08-17T10:23:47Z</time>
      </trkpt>
      <trkpt lat="41.725394" lon="2.585134">
        <ele>72.7</ele>
        <time>2011-08-17T10:23:57Z</time>
      </trkpt>
      <trkpt lat="41.725476" lon="2.585485">
        <ele>72.7</ele>
        <time>2011-08-17T10:24:01Z</time>
      </trkpt>
      <trkpt lat="41.725658" lon="2.585764">
        <ele>73.2</ele>
        <time>2011-08-17T10:24:05Z</time>
      </trkpt>
      <trkpt lat="41.726013" lon="2.586061">
        <ele>73.7</ele>
        <time>2011-08-17T10:24:11Z</time>
      </trkpt>
      <trkpt lat="41.726437" lon="2.586682">
        <ele>73.2</ele>
        <time>2011-08-17T10:24:20Z</time>
      </trkpt>
      <trkpt lat="41.726565" lon="2.586995">
        <ele>71.8</ele>
        <time>2011-08-17T10:24:24Z</time>
      </trkpt>
      <trkpt lat="41.726784" lon="2.587641">
        <ele>69.4</ele>
        <time>2011-08-17T10:24:32Z</time>
      </trkpt>
      <trkpt lat="41.726804" lon="2.587725">
        <ele>68.9</ele>
        <time>2011-08-17T10:24:33Z</time>
      </trkpt>
      <trkpt lat="41.726845" lon="2.587949">
        <ele>67.9</ele>
        <time>2011-08-17T10:24:36Z</time>
      </trkpt>
      <trkpt lat="41.726896" lon="2.588228">
        <ele>66.5</ele>
        <time>2011-08-17T10:24:40Z</time>
      </trkpt>
      <trkpt lat="41.727025" lon="2.588625">
        <ele>64.1</ele>
        <time>2011-08-17T10:24:45Z</time>
      </trkpt>
      <trkpt lat="41.727062" lon="2.588769">
        <ele>63.6</ele>
        <time>2011-08-17T10:24:47Z</time>
      </trkpt>
      <trkpt lat="41.727101" lon="2.588979">
        <ele>62.1</ele>
        <time>2011-08-17T10:24:50Z</time>
      </trkpt>
      <trkpt lat="41.727192" lon="2.589307">
        <ele>60.7</ele>
        <time>2011-08-17T10:24:54Z</time>
      </trkpt>
      <trkpt lat="41.727326" lon="2.589919">
        <ele>57.3</ele>
        <time>2011-08-17T10:25:02Z</time>
      </trkpt>
      <trkpt lat="41.727338" lon="2.589991">
        <ele>57.3</ele>
        <time>2011-08-17T10:25:03Z</time>
      </trkpt>
      <trkpt lat="41.727523" lon="2.590552">
        <ele>60.2</ele>
        <time>2011-08-17T10:25:10Z</time>
      </trkpt>
      <trkpt lat="41.727548" lon="2.590704">
        <ele>60.2</ele>
        <time>2011-08-17T10:25:12Z</time>
      </trkpt>
      <trkpt lat="41.727655" lon="2.591275">
        <ele>62.1</ele>
        <time>2011-08-17T10:25:20Z</time>
      </trkpt>
      <trkpt lat="41.727706" lon="2.591568">
        <ele>62.6</ele>
        <time>2011-08-17T10:25:24Z</time>
      </trkpt>
      <trkpt lat="41.727804" lon="2.592229">
        <ele>64.5</ele>
        <time>2011-08-17T10:25:31Z</time>
      </trkpt>
      <trkpt lat="41.727806" lon="2.592295">
        <ele>65.0</ele>
        <time>2011-08-17T10:25:32Z</time>
      </trkpt>
      <trkpt lat="41.727862" lon="2.592444">
        <ele>66.0</ele>
        <time>2011-08-17T10:25:34Z</time>
      </trkpt>
      <trkpt lat="41.727834" lon="2.592756">
        <ele>66.5</ele>
        <time>2011-08-17T10:25:38Z</time>
      </trkpt>
      <trkpt lat="41.727715" lon="2.592816">
        <ele>67.4</ele>
        <time>2011-08-17T10:25:41Z</time>
      </trkpt>
      <trkpt lat="41.727359" lon="2.592871">
        <ele>69.8</ele>
        <time>2011-08-17T10:25:49Z</time>
      </trkpt>
      <trkpt lat="41.726906" lon="2.592972">
        <ele>71.8</ele>
        <time>2011-08-17T10:25:57Z</time>
      </trkpt>
      <trkpt lat="41.726714" lon="2.593123">
        <ele>72.7</ele>
        <time>2011-08-17T10:26:01Z</time>
      </trkpt>
      <trkpt lat="41.726670" lon="2.593252">
        <ele>72.7</ele>
        <time>2011-08-17T10:26:03Z</time>
      </trkpt>
      <trkpt lat="41.726623" lon="2.593748">
        <ele>72.2</ele>
        <time>2011-08-17T10:26:09Z</time>
      </trkpt>
      <trkpt lat="41.726483" lon="2.594372">
        <ele>71.8</ele>
        <time>2011-08-17T10:26:17Z</time>
      </trkpt>
      <trkpt lat="41.726379" lon="2.595040">
        <ele>72.7</ele>
        <time>2011-08-17T10:26:26Z</time>
      </trkpt>
      <trkpt lat="41.726321" lon="2.595759">
        <ele>72.2</ele>
        <time>2011-08-17T10:26:35Z</time>
      </trkpt>
      <trkpt lat="41.726269" lon="2.596473">
        <ele>72.2</ele>
        <time>2011-08-17T10:26:44Z</time>
      </trkpt>
      <trkpt lat="41.726225" lon="2.597121">
        <ele>70.3</ele>
        <time>2011-08-17T10:26:52Z</time>
      </trkpt>
      <trkpt lat="41.726224" lon="2.597199">
        <ele>69.8</ele>
        <time>2011-08-17T10:26:53Z</time>
      </trkpt>
      <trkpt lat="41.726347" lon="2.597753">
        <ele>68.9</ele>
        <time>2011-08-17T10:27:00Z</time>
      </trkpt>
      <trkpt lat="41.726520" lon="2.597887">
        <ele>67.9</ele>
        <time>2011-08-17T10:27:04Z</time>
      </trkpt>
      <trkpt lat="41.726575" lon="2.597887">
        <ele>67.9</ele>
        <time>2011-08-17T10:27:05Z</time>
      </trkpt>
      <trkpt lat="41.727106" lon="2.597866">
        <ele>67.4</ele>
        <time>2011-08-17T10:27:14Z</time>
      </trkpt>
      <trkpt lat="41.727277" lon="2.597864">
        <ele>67.4</ele>
        <time>2011-08-17T10:27:17Z</time>
      </trkpt>
      <trkpt lat="41.727445" lon="2.597996">
        <ele>68.4</ele>
        <time>2011-08-17T10:27:21Z</time>
      </trkpt>
      <trkpt lat="41.727464" lon="2.598157">
        <ele>68.4</ele>
        <time>2011-08-17T10:27:23Z</time>
      </trkpt>
      <trkpt lat="41.727380" lon="2.598872">
        <ele>66.5</ele>
        <time>2011-08-17T10:27:31Z</time>
      </trkpt>
      <trkpt lat="41.727322" lon="2.599597">
        <ele>67.9</ele>
        <time>2011-08-17T10:27:39Z</time>
      </trkpt>
      <trkpt lat="41.727311" lon="2.599692">
        <ele>68.4</ele>
        <time>2011-08-17T10:27:40Z</time>
      </trkpt>
      <trkpt lat="41.727126" lon="2.600480">
        <ele>71.3</ele>
        <time>2011-08-17T10:27:49Z</time>
      </trkpt>
      <trkpt lat="41.726928" lon="2.601232">
        <ele>71.8</ele>
        <time>2011-08-17T10:27:58Z</time>
      </trkpt>
      <trkpt lat="41.726880" lon="2.601542">
        <ele>71.8</ele>
        <time>2011-08-17T10:28:02Z</time>
      </trkpt>
      <trkpt lat="41.726861" lon="2.601824">
        <ele>71.3</ele>
        <time>2011-08-17T10:28:05Z</time>
      </trkpt>
      <trkpt lat="41.726823" lon="2.602341">
        <ele>69.8</ele>
        <time>2011-08-17T10:28:11Z</time>
      </trkpt>
      <trkpt lat="41.726736" lon="2.602660">
        <ele>69.8</ele>
        <time>2011-08-17T10:28:15Z</time>
      </trkpt>
      <trkpt lat="41.726740" lon="2.603007">
        <ele>69.4</ele>
        <time>2011-08-17T10:28:19Z</time>
      </trkpt>
      <trkpt lat="41.726978" lon="2.603926">
        <ele>67.9</ele>
        <time>2011-08-17T10:28:30Z</time>
      </trkpt>
      <trkpt lat="41.727163" lon="2.604596">
        <ele>67.4</ele>
        <time>2011-08-17T10:28:38Z</time>
      </trkpt>
      <trkpt lat="41.727312" lon="2.605248">
        <ele>66.9</ele>
        <time>2011-08-17T10:28:46Z</time>
      </trkpt>
      <trkpt lat="41.727516" lon="2.606029">
        <ele>65.5</ele>
        <time>2011-08-17T10:28:56Z</time>
      </trkpt>
      <trkpt lat="41.727754" lon="2.606912">
        <ele>67.9</ele>
        <time>2011-08-17T10:29:07Z</time>
      </trkpt>
      <trkpt lat="41.728010" lon="2.607588">
        <ele>64.5</ele>
        <time>2011-08-17T10:29:16Z</time>
      </trkpt>
      <trkpt lat="41.728315" lon="2.608265">
        <ele>64.5</ele>
        <time>2011-08-17T10:29:25Z</time>
      </trkpt>
      <trkpt lat="41.728486" lon="2.608970">
        <ele>65.5</ele>
        <time>2011-08-17T10:29:34Z</time>
      </trkpt>
      <trkpt lat="41.728550" lon="2.609349">
        <ele>66.9</ele>
        <time>2011-08-17T10:29:39Z</time>
      </trkpt>
      <trkpt lat="41.728729" lon="2.609596">
        <ele>66.9</ele>
        <time>2011-08-17T10:29:44Z</time>
      </trkpt>
      <trkpt lat="41.728883" lon="2.609604">
        <ele>65.5</ele>
        <time>2011-08-17T10:29:47Z</time>
      </trkpt>
      <trkpt lat="41.729180" lon="2.609546">
        <ele>62.6</ele>
        <time>2011-08-17T10:29:52Z</time>
      </trkpt>
      <trkpt lat="41.729569" lon="2.609689">
        <ele>61.7</ele>
        <time>2011-08-17T10:29:59Z</time>
      </trkpt>
      <trkpt lat="41.729700" lon="2.609640">
        <ele>64.1</ele>
        <time>2011-08-17T10:30:03Z</time>
      </trkpt>
      <trkpt lat="41.729804" lon="2.609577">
        <ele>63.6</ele>
        <time>2011-08-17T10:30:07Z</time>
      </trkpt>
      <trkpt lat="41.729888" lon="2.609689">
        <ele>62.1</ele>
        <time>2011-08-17T10:30:12Z</time>
      </trkpt>
      <trkpt lat="41.729920" lon="2.609886">
        <ele>62.1</ele>
        <time>2011-08-17T10:30:17Z</time>
      </trkpt>
      <trkpt lat="41.730054" lon="2.610028">
        <ele>63.6</ele>
        <time>2011-08-17T10:30:24Z</time>
      </trkpt>
      <trkpt lat="41.730118" lon="2.610180">
        <ele>64.1</ele>
        <time>2011-08-17T10:30:30Z</time>
      </trkpt>
      <trkpt lat="41.730140" lon="2.610316">
        <ele>63.1</ele>
        <time>2011-08-17T10:30:36Z</time>
      </trkpt>
      <trkpt lat="41.730187" lon="2.610414">
        <ele>63.1</ele>
        <time>2011-08-17T10:31:14Z</time>
      </trkpt>
      <trkpt lat="41.730202" lon="2.610429">
        <ele>63.6</ele>
        <time>2011-08-17T10:31:15Z</time>
      </trkpt>
      <trkpt lat="41.730228" lon="2.610480">
        <ele>63.6</ele>
        <time>2011-08-17T10:31:21Z</time>
      </trkpt>
      <trkpt lat="41.730312" lon="2.610664">
        <ele>63.1</ele>
        <time>2011-08-17T10:31:28Z</time>
      </trkpt>
      <trkpt lat="41.730372" lon="2.610879">
        <ele>62.1</ele>
        <time>2011-08-17T10:31:35Z</time>
      </trkpt>
      <trkpt lat="41.730381" lon="2.610912">
        <ele>62.1</ele>
        <time>2011-08-17T10:31:36Z</time>
      </trkpt>
      <trkpt lat="41.730503" lon="2.611148">
        <ele>61.2</ele>
        <time>2011-08-17T10:31:43Z</time>
      </trkpt>
      <trkpt lat="41.730581" lon="2.611323">
        <ele>60.7</ele>
        <time>2011-08-17T10:31:49Z</time>
      </trkpt>
      <trkpt lat="41.730735" lon="2.611524">
        <ele>59.3</ele>
        <time>2011-08-17T10:31:55Z</time>
      </trkpt>
      <trkpt lat="41.730780" lon="2.611794">
        <ele>58.3</ele>
        <time>2011-08-17T10:32:02Z</time>
      </trkpt>
      <trkpt lat="41.730940" lon="2.612014">
        <ele>56.9</ele>
        <time>2011-08-17T10:32:09Z</time>
      </trkpt>
      <trkpt lat="41.730999" lon="2.612234">
        <ele>55.4</ele>
        <time>2011-08-17T10:32:14Z</time>
      </trkpt>
      <trkpt lat="41.731101" lon="2.612463">
        <ele>55.4</ele>
        <time>2011-08-17T10:32:20Z</time>
      </trkpt>
      <trkpt lat="41.731164" lon="2.612666">
        <ele>55.4</ele>
        <time>2011-08-17T10:32:25Z</time>
      </trkpt>
      <trkpt lat="41.731216" lon="2.612894">
        <ele>54.9</ele>
        <time>2011-08-17T10:32:31Z</time>
      </trkpt>
      <trkpt lat="41.731255" lon="2.612994">
        <ele>54.9</ele>
        <time>2011-08-17T10:32:34Z</time>
      </trkpt>
      <trkpt lat="41.731346" lon="2.613083">
        <ele>57.8</ele>
        <time>2011-08-17T10:32:38Z</time>
      </trkpt>
      <trkpt lat="41.731411" lon="2.613161">
        <ele>59.3</ele>
        <time>2011-08-17T10:32:45Z</time>
      </trkpt>
      <trkpt lat="41.731453" lon="2.613245">
        <ele>59.3</ele>
        <time>2011-08-17T10:33:10Z</time>
      </trkpt>
      <trkpt lat="41.731585" lon="2.613510">
        <ele>58.3</ele>
        <time>2011-08-17T10:33:16Z</time>
      </trkpt>
      <trkpt lat="41.731715" lon="2.613737">
        <ele>59.3</ele>
        <time>2011-08-17T10:33:21Z</time>
      </trkpt>
      <trkpt lat="41.731914" lon="2.614033">
        <ele>60.2</ele>
        <time>2011-08-17T10:33:28Z</time>
      </trkpt>
      <trkpt lat="41.732048" lon="2.614338">
        <ele>58.3</ele>
        <time>2011-08-17T10:33:34Z</time>
      </trkpt>
      <trkpt lat="41.732353" lon="2.614877">
        <ele>56.4</ele>
        <time>2011-08-17T10:33:45Z</time>
      </trkpt>
      <trkpt lat="41.732547" lon="2.615172">
        <ele>57.8</ele>
        <time>2011-08-17T10:33:51Z</time>
      </trkpt>
      <trkpt lat="41.732842" lon="2.615613">
        <ele>59.7</ele>
        <time>2011-08-17T10:34:00Z</time>
      </trkpt>
      <trkpt lat="41.733196" lon="2.616116">
        <ele>64.1</ele>
        <time>2011-08-17T10:34:10Z</time>
      </trkpt>
      <trkpt lat="41.733376" lon="2.616364">
        <ele>66.0</ele>
        <time>2011-08-17T10:34:15Z</time>
      </trkpt>
      <trkpt lat="41.733888" lon="2.616859">
        <ele>68.9</ele>
        <time>2011-08-17T10:34:27Z</time>
      </trkpt>
      <trkpt lat="41.734273" lon="2.617227">
        <ele>69.8</ele>
        <time>2011-08-17T10:34:36Z</time>
      </trkpt>
      <trkpt lat="41.734704" lon="2.617649">
        <ele>69.4</ele>
        <time>2011-08-17T10:34:46Z</time>
      </trkpt>
      <trkpt lat="41.734999" lon="2.617968">
        <ele>67.9</ele>
        <time>2011-08-17T10:34:53Z</time>
      </trkpt>
      <trkpt lat="41.735417" lon="2.618478">
        <ele>67.9</ele>
        <time>2011-08-17T10:35:04Z</time>
      </trkpt>
      <trkpt lat="41.735721" lon="2.618961">
        <ele>66.9</ele>
        <time>2011-08-17T10:35:13Z</time>
      </trkpt>
      <trkpt lat="41.736021" lon="2.619540">
        <ele>69.4</ele>
        <time>2011-08-17T10:35:22Z</time>
      </trkpt>
      <trkpt lat="41.736277" lon="2.620106">
        <ele>69.4</ele>
        <time>2011-08-17T10:35:31Z</time>
      </trkpt>
      <trkpt lat="41.736471" lon="2.620633">
        <ele>66.9</ele>
        <time>2011-08-17T10:35:39Z</time>
      </trkpt>
      <trkpt lat="41.736491" lon="2.621005">
        <ele>66.9</ele>
        <time>2011-08-17T10:35:44Z</time>
      </trkpt>
      <trkpt lat="41.736617" lon="2.621218">
        <ele>65.0</ele>
        <time>2011-08-17T10:35:48Z</time>
      </trkpt>
      <trkpt lat="41.736646" lon="2.621274">
        <ele>65.0</ele>
        <time>2011-08-17T10:35:49Z</time>
      </trkpt>
      <trkpt lat="41.736690" lon="2.621406">
        <ele>62.6</ele>
        <time>2011-08-17T10:35:51Z</time>
      </trkpt>
      <trkpt lat="41.736728" lon="2.621579">
        <ele>61.2</ele>
        <time>2011-08-17T10:35:53Z</time>
      </trkpt>
      <trkpt lat="41.737028" lon="2.622317">
        <ele>61.7</ele>
        <time>2011-08-17T10:36:02Z</time>
      </trkpt>
      <trkpt lat="41.737198" lon="2.622767">
        <ele>62.6</ele>
        <time>2011-08-17T10:36:09Z</time>
      </trkpt>
      <trkpt lat="41.737375" lon="2.623169">
        <ele>63.1</ele>
        <time>2011-08-17T10:36:16Z</time>
      </trkpt>
      <trkpt lat="41.737529" lon="2.623477">
        <ele>65.0</ele>
        <time>2011-08-17T10:36:22Z</time>
      </trkpt>
      <trkpt lat="41.737702" lon="2.623910">
        <ele>66.0</ele>
        <time>2011-08-17T10:36:30Z</time>
      </trkpt>
      <trkpt lat="41.737957" lon="2.624661">
        <ele>65.5</ele>
        <time>2011-08-17T10:36:42Z</time>
      </trkpt>
      <trkpt lat="41.738198" lon="2.625342">
        <ele>66.0</ele>
        <time>2011-08-17T10:36:53Z</time>
      </trkpt>
      <trkpt lat="41.738380" lon="2.625783">
        <ele>66.9</ele>
        <time>2011-08-17T10:37:01Z</time>
      </trkpt>
      <trkpt lat="41.738536" lon="2.626156">
        <ele>69.8</ele>
        <time>2011-08-17T10:37:08Z</time>
      </trkpt>
      <trkpt lat="41.738699" lon="2.626588">
        <ele>71.8</ele>
        <time>2011-08-17T10:37:17Z</time>
      </trkpt>
      <trkpt lat="41.738719" lon="2.626639">
        <ele>71.3</ele>
        <time>2011-08-17T10:37:18Z</time>
      </trkpt>
      <trkpt lat="41.738802" lon="2.626847">
        <ele>70.8</ele>
        <time>2011-08-17T10:37:22Z</time>
      </trkpt>
      <trkpt lat="41.739067" lon="2.627287">
        <ele>72.7</ele>
        <time>2011-08-17T10:37:31Z</time>
      </trkpt>
      <trkpt lat="41.739169" lon="2.627402">
        <ele>74.2</ele>
        <time>2011-08-17T10:37:34Z</time>
      </trkpt>
      <trkpt lat="41.739303" lon="2.627496">
        <ele>75.1</ele>
        <time>2011-08-17T10:37:38Z</time>
      </trkpt>
      <trkpt lat="41.739572" lon="2.627567">
        <ele>75.6</ele>
        <time>2011-08-17T10:37:45Z</time>
      </trkpt>
      <trkpt lat="41.739745" lon="2.627556">
        <ele>75.1</ele>
        <time>2011-08-17T10:37:49Z</time>
      </trkpt>
      <trkpt lat="41.739918" lon="2.627512">
        <ele>75.1</ele>
        <time>2011-08-17T10:37:53Z</time>
      </trkpt>
      <trkpt lat="41.740347" lon="2.627375">
        <ele>78.5</ele>
        <time>2011-08-17T10:38:02Z</time>
      </trkpt>
      <trkpt lat="41.740529" lon="2.627303">
        <ele>80.4</ele>
        <time>2011-08-17T10:38:06Z</time>
      </trkpt>
      <trkpt lat="41.740971" lon="2.627159">
        <ele>86.2</ele>
        <time>2011-08-17T10:38:15Z</time>
      </trkpt>
      <trkpt lat="41.741342" lon="2.627048">
        <ele>88.6</ele>
        <time>2011-08-17T10:38:23Z</time>
      </trkpt>
      <trkpt lat="41.741433" lon="2.627007">
        <ele>90.5</ele>
        <time>2011-08-17T10:38:25Z</time>
      </trkpt>
      <trkpt lat="41.741602" lon="2.626935">
        <ele>92.9</ele>
        <time>2011-08-17T10:38:29Z</time>
      </trkpt>
      <trkpt lat="41.741698" lon="2.626904">
        <ele>93.9</ele>
        <time>2011-08-17T10:38:31Z</time>
      </trkpt>
      <trkpt lat="41.742026" lon="2.626958">
        <ele>90.0</ele>
        <time>2011-08-17T10:38:37Z</time>
      </trkpt>
      <trkpt lat="41.742067" lon="2.626960">
        <ele>89.5</ele>
        <time>2011-08-17T10:38:38Z</time>
      </trkpt>
      <trkpt lat="41.742191" lon="2.626891">
        <ele>88.6</ele>
        <time>2011-08-17T10:38:41Z</time>
      </trkpt>
      <trkpt lat="41.742626" lon="2.626809">
        <ele>88.1</ele>
        <time>2011-08-17T10:38:51Z</time>
      </trkpt>
      <trkpt lat="41.742707" lon="2.626802">
        <ele>88.1</ele>
        <time>2011-08-17T10:38:53Z</time>
      </trkpt>
      <trkpt lat="41.742873" lon="2.626747">
        <ele>89.5</ele>
        <time>2011-08-17T10:38:57Z</time>
      </trkpt>
      <trkpt lat="41.743007" lon="2.626723">
        <ele>90.5</ele>
        <time>2011-08-17T10:39:00Z</time>
      </trkpt>
      <trkpt lat="41.743328" lon="2.626690">
        <ele>90.5</ele>
        <time>2011-08-17T10:39:07Z</time>
      </trkpt>
      <trkpt lat="41.743645" lon="2.626700">
        <ele>94.8</ele>
        <time>2011-08-17T10:39:15Z</time>
      </trkpt>
      <trkpt lat="41.743804" lon="2.626723">
        <ele>96.7</ele>
        <time>2011-08-17T10:39:19Z</time>
      </trkpt>
      <trkpt lat="41.744083" lon="2.626856">
        <ele>98.2</ele>
        <time>2011-08-17T10:39:26Z</time>
      </trkpt>
      <trkpt lat="41.744198" lon="2.626949">
        <ele>98.2</ele>
        <time>2011-08-17T10:39:29Z</time>
      </trkpt>
      <trkpt lat="41.744529" lon="2.627055">
        <ele>103.5</ele>
        <time>2011-08-17T10:39:38Z</time>
      </trkpt>
      <trkpt lat="41.744811" lon="2.627126">
        <ele>110.7</ele>
        <time>2011-08-17T10:39:46Z</time>
      </trkpt>
      <trkpt lat="41.745062" lon="2.627263">
        <ele>111.7</ele>
        <time>2011-08-17T10:39:53Z</time>
      </trkpt>
      <trkpt lat="41.745247" lon="2.627317">
        <ele>104.9</ele>
        <time>2011-08-17T10:39:59Z</time>
      </trkpt>
      <trkpt lat="41.745323" lon="2.627035">
        <ele>106.8</ele>
        <time>2011-08-17T10:40:05Z</time>
      </trkpt>
      <trkpt lat="41.745339" lon="2.626909">
        <ele>105.4</ele>
        <time>2011-08-17T10:40:07Z</time>
      </trkpt>
      <trkpt lat="41.745504" lon="2.626731">
        <ele>101.6</ele>
        <time>2011-08-17T10:40:12Z</time>
      </trkpt>
      <trkpt lat="41.745616" lon="2.626898">
        <ele>100.1</ele>
        <time>2011-08-17T10:40:15Z</time>
      </trkpt>
      <trkpt lat="41.745842" lon="2.627551">
        <ele>98.7</ele>
        <time>2011-08-17T10:40:24Z</time>
      </trkpt>
      <trkpt lat="41.745947" lon="2.627839">
        <ele>97.2</ele>
        <time>2011-08-17T10:40:28Z</time>
      </trkpt>
      <trkpt lat="41.746197" lon="2.628536">
        <ele>95.8</ele>
        <time>2011-08-17T10:40:38Z</time>
      </trkpt>
      <trkpt lat="41.746257" lon="2.628747">
        <ele>96.3</ele>
        <time>2011-08-17T10:40:41Z</time>
      </trkpt>
      <trkpt lat="41.746303" lon="2.629523">
        <ele>94.3</ele>
        <time>2011-08-17T10:40:51Z</time>
      </trkpt>
      <trkpt lat="41.746318" lon="2.629926">
        <ele>93.4</ele>
        <time>2011-08-17T10:40:56Z</time>
      </trkpt>
      <trkpt lat="41.746362" lon="2.630469">
        <ele>91.9</ele>
        <time>2011-08-17T10:41:03Z</time>
      </trkpt>
      <trkpt lat="41.746330" lon="2.631144">
        <ele>92.4</ele>
        <time>2011-08-17T10:41:12Z</time>
      </trkpt>
      <trkpt lat="41.746342" lon="2.631641">
        <ele>91.5</ele>
        <time>2011-08-17T10:41:19Z</time>
      </trkpt>
      <trkpt lat="41.746368" lon="2.631974">
        <ele>90.0</ele>
        <time>2011-08-17T10:41:24Z</time>
      </trkpt>
      <trkpt lat="41.746498" lon="2.632169">
        <ele>89.1</ele>
        <time>2011-08-17T10:41:29Z</time>
      </trkpt>
      <trkpt lat="41.746532" lon="2.632166">
        <ele>88.6</ele>
        <time>2011-08-17T10:41:30Z</time>
      </trkpt>
      <trkpt lat="41.747019" lon="2.631999">
        <ele>89.5</ele>
        <time>2011-08-17T10:41:39Z</time>
      </trkpt>
      <trkpt lat="41.747256" lon="2.632024">
        <ele>82.8</ele>
        <time>2011-08-17T10:41:44Z</time>
      </trkpt>
      <trkpt lat="41.747373" lon="2.632268">
        <ele>79.0</ele>
        <time>2011-08-17T10:41:49Z</time>
      </trkpt>
      <trkpt lat="41.747457" lon="2.632747">
        <ele>75.6</ele>
        <time>2011-08-17T10:41:55Z</time>
      </trkpt>
      <trkpt lat="41.747629" lon="2.632968">
        <ele>74.2</ele>
        <time>2011-08-17T10:41:59Z</time>
      </trkpt>
      <trkpt lat="41.747747" lon="2.632940">
        <ele>73.7</ele>
        <time>2011-08-17T10:42:01Z</time>
      </trkpt>
      <trkpt lat="41.748012" lon="2.632958">
        <ele>74.2</ele>
        <time>2011-08-17T10:42:06Z</time>
      </trkpt>
      <trkpt lat="41.748043" lon="2.633083">
        <ele>74.2</ele>
        <time>2011-08-17T10:42:08Z</time>
      </trkpt>
      <trkpt lat="41.748049" lon="2.633242">
        <ele>73.7</ele>
        <time>2011-08-17T10:42:10Z</time>
      </trkpt>
      <trkpt lat="41.748154" lon="2.633853">
        <ele>71.8</ele>
        <time>2011-08-17T10:42:16Z</time>
      </trkpt>
      <trkpt lat="41.748285" lon="2.634044">
        <ele>70.3</ele>
        <time>2011-08-17T10:42:20Z</time>
      </trkpt>
      <trkpt lat="41.748323" lon="2.634045">
        <ele>69.8</ele>
        <time>2011-08-17T10:42:22Z</time>
      </trkpt>
      <trkpt lat="41.748554" lon="2.633941">
        <ele>68.9</ele>
        <time>2011-08-17T10:42:28Z</time>
      </trkpt>
      <trkpt lat="41.748762" lon="2.634089">
        <ele>69.8</ele>
        <time>2011-08-17T10:42:32Z</time>
      </trkpt>
      <trkpt lat="41.748835" lon="2.634314">
        <ele>67.4</ele>
        <time>2011-08-17T10:42:35Z</time>
      </trkpt>
      <trkpt lat="41.748959" lon="2.635047">
        <ele>63.6</ele>
        <time>2011-08-17T10:42:44Z</time>
      </trkpt>
      <trkpt lat="41.749082" lon="2.635736">
        <ele>62.1</ele>
        <time>2011-08-17T10:42:53Z</time>
      </trkpt>
      <trkpt lat="41.749100" lon="2.635810">
        <ele>62.1</ele>
        <time>2011-08-17T10:42:54Z</time>
      </trkpt>
      <trkpt lat="41.749323" lon="2.636092">
        <ele>61.7</ele>
        <time>2011-08-17T10:42:59Z</time>
      </trkpt>
      <trkpt lat="41.749366" lon="2.636116">
        <ele>61.2</ele>
        <time>2011-08-17T10:43:00Z</time>
      </trkpt>
      <trkpt lat="41.749593" lon="2.636237">
        <ele>60.2</ele>
        <time>2011-08-17T10:43:05Z</time>
      </trkpt>
      <trkpt lat="41.749965" lon="2.636450">
        <ele>60.7</ele>
        <time>2011-08-17T10:43:13Z</time>
      </trkpt>
      <trkpt lat="41.750067" lon="2.636499">
        <ele>61.2</ele>
        <time>2011-08-17T10:43:15Z</time>
      </trkpt>
      <trkpt lat="41.750430" lon="2.636499">
        <ele>62.1</ele>
        <time>2011-08-17T10:43:22Z</time>
      </trkpt>
      <trkpt lat="41.750532" lon="2.636500">
        <ele>63.1</ele>
        <time>2011-08-17T10:43:24Z</time>
      </trkpt>
      <trkpt lat="41.750765" lon="2.636607">
        <ele>62.1</ele>
        <time>2011-08-17T10:43:29Z</time>
      </trkpt>
      <trkpt lat="41.751104" lon="2.636918">
        <ele>60.2</ele>
        <time>2011-08-17T10:43:37Z</time>
      </trkpt>
      <trkpt lat="41.751415" lon="2.637467">
        <ele>57.8</ele>
        <time>2011-08-17T10:43:46Z</time>
      </trkpt>
      <trkpt lat="41.751732" lon="2.638038">
        <ele>57.3</ele>
        <time>2011-08-17T10:43:55Z</time>
      </trkpt>
      <trkpt lat="41.752141" lon="2.638513">
        <ele>59.3</ele>
        <time>2011-08-17T10:44:04Z</time>
      </trkpt>
      <trkpt lat="41.752548" lon="2.638954">
        <ele>61.2</ele>
        <time>2011-08-17T10:44:13Z</time>
      </trkpt>
      <trkpt lat="41.752980" lon="2.639445">
        <ele>61.7</ele>
        <time>2011-08-17T10:44:23Z</time>
      </trkpt>
      <trkpt lat="41.753066" lon="2.639534">
        <ele>61.2</ele>
        <time>2011-08-17T10:44:25Z</time>
      </trkpt>
      <trkpt lat="41.753422" lon="2.639693">
        <ele>62.6</ele>
        <time>2011-08-17T10:44:32Z</time>
      </trkpt>
      <trkpt lat="41.753837" lon="2.639797">
        <ele>64.1</ele>
        <time>2011-08-17T10:44:41Z</time>
      </trkpt>
      <trkpt lat="41.753878" lon="2.639797">
        <ele>64.1</ele>
        <time>2011-08-17T10:44:42Z</time>
      </trkpt>
      <trkpt lat="41.754190" lon="2.639669">
        <ele>65.0</ele>
        <time>2011-08-17T10:44:50Z</time>
      </trkpt>
      <trkpt lat="41.754326" lon="2.639563">
        <ele>67.4</ele>
        <time>2011-08-17T10:44:54Z</time>
      </trkpt>
      <trkpt lat="41.754602" lon="2.639531">
        <ele>70.3</ele>
        <time>2011-08-17T10:45:01Z</time>
      </trkpt>
      <trkpt lat="41.754846" lon="2.639557">
        <ele>74.2</ele>
        <time>2011-08-17T10:45:08Z</time>
      </trkpt>
      <trkpt lat="41.755192" lon="2.639581">
        <ele>77.0</ele>
        <time>2011-08-17T10:45:17Z</time>
      </trkpt>
      <trkpt lat="41.755229" lon="2.639599">
        <ele>77.5</ele>
        <time>2011-08-17T10:45:18Z</time>
      </trkpt>
      <trkpt lat="41.755611" lon="2.639716">
        <ele>78.5</ele>
        <time>2011-08-17T10:45:28Z</time>
      </trkpt>
      <trkpt lat="41.755799" lon="2.639818">
        <ele>79.9</ele>
        <time>2011-08-17T10:45:34Z</time>
      </trkpt>
      <trkpt lat="41.755817" lon="2.639833">
        <ele>79.9</ele>
        <time>2011-08-17T10:45:35Z</time>
      </trkpt>
      <trkpt lat="41.755953" lon="2.639885">
        <ele>79.0</ele>
        <time>2011-08-17T10:45:42Z</time>
      </trkpt>
      <trkpt lat="41.756077" lon="2.639925">
        <ele>77.0</ele>
        <time>2011-08-17T10:45:50Z</time>
      </trkpt>
      <trkpt lat="41.756174" lon="2.639937">
        <ele>76.1</ele>
        <time>2011-08-17T10:45:57Z</time>
      </trkpt>
      <trkpt lat="41.756300" lon="2.640095">
        <ele>76.1</ele>
        <time>2011-08-17T10:46:04Z</time>
      </trkpt>
      <trkpt lat="41.756435" lon="2.640370">
        <ele>74.6</ele>
        <time>2011-08-17T10:46:10Z</time>
      </trkpt>
      <trkpt lat="41.756615" lon="2.640679">
        <ele>73.2</ele>
        <time>2011-08-17T10:46:16Z</time>
      </trkpt>
      <trkpt lat="41.756659" lon="2.641034">
        <ele>71.8</ele>
        <time>2011-08-17T10:46:21Z</time>
      </trkpt>
      <trkpt lat="41.756645" lon="2.641327">
        <ele>71.3</ele>
        <time>2011-08-17T10:46:25Z</time>
      </trkpt>
      <trkpt lat="41.756621" lon="2.641725">
        <ele>70.3</ele>
        <time>2011-08-17T10:46:30Z</time>
      </trkpt>
      <trkpt lat="41.756556" lon="2.642006">
        <ele>69.8</ele>
        <time>2011-08-17T10:46:34Z</time>
      </trkpt>
      <trkpt lat="41.756322" lon="2.642387">
        <ele>68.9</ele>
        <time>2011-08-17T10:46:39Z</time>
      </trkpt>
      <trkpt lat="41.756052" lon="2.643094">
        <ele>66.5</ele>
        <time>2011-08-17T10:46:46Z</time>
      </trkpt>
      <trkpt lat="41.755966" lon="2.643377">
        <ele>65.5</ele>
        <time>2011-08-17T10:46:49Z</time>
      </trkpt>
      <trkpt lat="41.755849" lon="2.643735">
        <ele>64.1</ele>
        <time>2011-08-17T10:46:53Z</time>
      </trkpt>
      <trkpt lat="41.755801" lon="2.644005">
        <ele>63.1</ele>
        <time>2011-08-17T10:46:56Z</time>
      </trkpt>
      <trkpt lat="41.755816" lon="2.644371">
        <ele>61.7</ele>
        <time>2011-08-17T10:47:00Z</time>
      </trkpt>
      <trkpt lat="41.755969" lon="2.644898">
        <ele>60.7</ele>
        <time>2011-08-17T10:47:06Z</time>
      </trkpt>
      <trkpt lat="41.755925" lon="2.645720">
        <ele>58.3</ele>
        <time>2011-08-17T10:47:15Z</time>
      </trkpt>
      <trkpt lat="41.755936" lon="2.646335">
        <ele>58.8</ele>
        <time>2011-08-17T10:47:23Z</time>
      </trkpt>
      <trkpt lat="41.756002" lon="2.646906">
        <ele>58.8</ele>
        <time>2011-08-17T10:47:30Z</time>
      </trkpt>
      <trkpt lat="41.755943" lon="2.647314">
        <ele>59.3</ele>
        <time>2011-08-17T10:47:35Z</time>
      </trkpt>
      <trkpt lat="41.755916" lon="2.647386">
        <ele>59.3</ele>
        <time>2011-08-17T10:47:36Z</time>
      </trkpt>
      <trkpt lat="41.755654" lon="2.647886">
        <ele>58.3</ele>
        <time>2011-08-17T10:47:44Z</time>
      </trkpt>
      <trkpt lat="41.755382" lon="2.648354">
        <ele>57.3</ele>
        <time>2011-08-17T10:47:51Z</time>
      </trkpt>
      <trkpt lat="41.755074" lon="2.648833">
        <ele>56.4</ele>
        <time>2011-08-17T10:47:59Z</time>
      </trkpt>
      <trkpt lat="41.754878" lon="2.649042">
        <ele>56.4</ele>
        <time>2011-08-17T10:48:04Z</time>
      </trkpt>
      <trkpt lat="41.754799" lon="2.649108">
        <ele>56.9</ele>
        <time>2011-08-17T10:48:06Z</time>
      </trkpt>
      <trkpt lat="41.754729" lon="2.649296">
        <ele>59.3</ele>
        <time>2011-08-17T10:48:10Z</time>
      </trkpt>
      <trkpt lat="41.754786" lon="2.649401">
        <ele>60.2</ele>
        <time>2011-08-17T10:48:12Z</time>
      </trkpt>
      <trkpt lat="41.755012" lon="2.649708">
        <ele>58.8</ele>
        <time>2011-08-17T10:48:19Z</time>
      </trkpt>
      <trkpt lat="41.755298" lon="2.650115">
        <ele>58.8</ele>
        <time>2011-08-17T10:48:28Z</time>
      </trkpt>
      <trkpt lat="41.755527" lon="2.650279">
        <ele>59.7</ele>
        <time>2011-08-17T10:48:34Z</time>
      </trkpt>
      <trkpt lat="41.755544" lon="2.650319">
        <ele>60.2</ele>
        <time>2011-08-17T10:48:35Z</time>
      </trkpt>
      <trkpt lat="41.755672" lon="2.650702">
        <ele>59.3</ele>
        <time>2011-08-17T10:48:43Z</time>
      </trkpt>
      <trkpt lat="41.755699" lon="2.650816">
        <ele>58.8</ele>
        <time>2011-08-17T10:48:45Z</time>
      </trkpt>
      <trkpt lat="41.755725" lon="2.651345">
        <ele>56.9</ele>
        <time>2011-08-17T10:48:54Z</time>
      </trkpt>
      <trkpt lat="41.755733" lon="2.651565">
        <ele>55.9</ele>
        <time>2011-08-17T10:48:58Z</time>
      </trkpt>
      <trkpt lat="41.755736" lon="2.651732">
        <ele>57.3</ele>
        <time>2011-08-17T10:49:01Z</time>
      </trkpt>
      <trkpt lat="41.755660" lon="2.652081">
        <ele>57.3</ele>
        <time>2011-08-17T10:49:08Z</time>
      </trkpt>
      <trkpt lat="41.755614" lon="2.652279">
        <ele>56.9</ele>
        <time>2011-08-17T10:49:12Z</time>
      </trkpt>
      <trkpt lat="41.755416" lon="2.652684">
        <ele>56.4</ele>
        <time>2011-08-17T10:49:19Z</time>
      </trkpt>
      <trkpt lat="41.755380" lon="2.652742">
        <ele>56.4</ele>
        <time>2011-08-17T10:49:20Z</time>
      </trkpt>
      <trkpt lat="41.755394" lon="2.653125">
        <ele>55.4</ele>
        <time>2011-08-17T10:49:25Z</time>
      </trkpt>
      <trkpt lat="41.755460" lon="2.653265">
        <ele>54.5</ele>
        <time>2011-08-17T10:49:27Z</time>
      </trkpt>
      <trkpt lat="41.755635" lon="2.653939">
        <ele>52.0</ele>
        <time>2011-08-17T10:49:35Z</time>
      </trkpt>
      <trkpt lat="41.755693" lon="2.654402">
        <ele>51.6</ele>
        <time>2011-08-17T10:49:41Z</time>
      </trkpt>
      <trkpt lat="41.755857" lon="2.655048">
        <ele>50.6</ele>
        <time>2011-08-17T10:49:50Z</time>
      </trkpt>
      <trkpt lat="41.755965" lon="2.655520">
        <ele>55.4</ele>
        <time>2011-08-17T10:49:57Z</time>
      </trkpt>
      <trkpt lat="41.756102" lon="2.655850">
        <ele>59.7</ele>
        <time>2011-08-17T10:50:04Z</time>
      </trkpt>
      <trkpt lat="41.756207" lon="2.656135">
        <ele>63.6</ele>
        <time>2011-08-17T10:50:11Z</time>
      </trkpt>
      <trkpt lat="41.756396" lon="2.656464">
        <ele>66.0</ele>
        <time>2011-08-17T10:50:20Z</time>
      </trkpt>
      <trkpt lat="41.756501" lon="2.656620">
        <ele>68.4</ele>
        <time>2011-08-17T10:50:24Z</time>
      </trkpt>
      <trkpt lat="41.756708" lon="2.656803">
        <ele>72.7</ele>
        <time>2011-08-17T10:50:31Z</time>
      </trkpt>
      <trkpt lat="41.756737" lon="2.656816">
        <ele>72.2</ele>
        <time>2011-08-17T10:50:32Z</time>
      </trkpt>
      <trkpt lat="41.756962" lon="2.656956">
        <ele>72.2</ele>
        <time>2011-08-17T10:50:40Z</time>
      </trkpt>
      <trkpt lat="41.757162" lon="2.657189">
        <ele>72.2</ele>
        <time>2011-08-17T10:50:48Z</time>
      </trkpt>
      <trkpt lat="41.757312" lon="2.657444">
        <ele>73.7</ele>
        <time>2011-08-17T10:50:55Z</time>
      </trkpt>
      <trkpt lat="41.757476" lon="2.657740">
        <ele>75.6</ele>
        <time>2011-08-17T10:51:03Z</time>
      </trkpt>
      <trkpt lat="41.757569" lon="2.658009">
        <ele>77.0</ele>
        <time>2011-08-17T10:51:09Z</time>
      </trkpt>
      <trkpt lat="41.757685" lon="2.658228">
        <ele>80.4</ele>
        <time>2011-08-17T10:51:15Z</time>
      </trkpt>
      <trkpt lat="41.757842" lon="2.658277">
        <ele>79.9</ele>
        <time>2011-08-17T10:51:21Z</time>
      </trkpt>
      <trkpt lat="41.757923" lon="2.658282">
        <ele>79.9</ele>
        <time>2011-08-17T10:51:24Z</time>
      </trkpt>
      <trkpt lat="41.757987" lon="2.658380">
        <ele>81.8</ele>
        <time>2011-08-17T10:51:31Z</time>
      </trkpt>
      <trkpt lat="41.758051" lon="2.658508">
        <ele>81.4</ele>
        <time>2011-08-17T10:51:40Z</time>
      </trkpt>
      <trkpt lat="41.758064" lon="2.658580">
        <ele>80.4</ele>
        <time>2011-08-17T10:51:50Z</time>
      </trkpt>
      <trkpt lat="41.758129" lon="2.658776">
        <ele>79.4</ele>
        <time>2011-08-17T10:51:55Z</time>
      </trkpt>
      <trkpt lat="41.758164" lon="2.658889">
        <ele>79.4</ele>
        <time>2011-08-17T10:51:57Z</time>
      </trkpt>
      <trkpt lat="41.758386" lon="2.659173">
        <ele>77.0</ele>
        <time>2011-08-17T10:52:03Z</time>
      </trkpt>
      <trkpt lat="41.758558" lon="2.659480">
        <ele>76.6</ele>
        <time>2011-08-17T10:52:08Z</time>
      </trkpt>
      <trkpt lat="41.758699" lon="2.660054">
        <ele>77.0</ele>
        <time>2011-08-17T10:52:16Z</time>
      </trkpt>
      <trkpt lat="41.758724" lon="2.660177">
        <ele>77.5</ele>
        <time>2011-08-17T10:52:18Z</time>
      </trkpt>
      <trkpt lat="41.758836" lon="2.660392">
        <ele>76.1</ele>
        <time>2011-08-17T10:52:22Z</time>
      </trkpt>
      <trkpt lat="41.759246" lon="2.660806">
        <ele>72.2</ele>
        <time>2011-08-17T10:52:29Z</time>
      </trkpt>
      <trkpt lat="41.759765" lon="2.661443">
        <ele>68.4</ele>
        <time>2011-08-17T10:52:37Z</time>
      </trkpt>
      <trkpt lat="41.760105" lon="2.661817">
        <ele>68.4</ele>
        <time>2011-08-17T10:52:42Z</time>
      </trkpt>
      <trkpt lat="41.760382" lon="2.661980">
        <ele>67.9</ele>
        <time>2011-08-17T10:52:46Z</time>
      </trkpt>
      <trkpt lat="41.760638" lon="2.662305">
        <ele>65.0</ele>
        <time>2011-08-17T10:52:51Z</time>
      </trkpt>
      <trkpt lat="41.760716" lon="2.662483">
        <ele>64.1</ele>
        <time>2011-08-17T10:52:53Z</time>
      </trkpt>
      <trkpt lat="41.760956" lon="2.662784">
        <ele>63.6</ele>
        <time>2011-08-17T10:52:57Z</time>
      </trkpt>
      <trkpt lat="41.761457" lon="2.663164">
        <ele>61.7</ele>
        <time>2011-08-17T10:53:05Z</time>
      </trkpt>
      <trkpt lat="41.761728" lon="2.663475">
        <ele>60.7</ele>
        <time>2011-08-17T10:53:10Z</time>
      </trkpt>
      <trkpt lat="41.762133" lon="2.663728">
        <ele>58.3</ele>
        <time>2011-08-17T10:53:16Z</time>
      </trkpt>
      <trkpt lat="41.762520" lon="2.663992">
        <ele>59.3</ele>
        <time>2011-08-17T10:53:23Z</time>
      </trkpt>
      <trkpt lat="41.762593" lon="2.664020">
        <ele>58.8</ele>
        <time>2011-08-17T10:53:27Z</time>
      </trkpt>
      <trkpt lat="41.762656" lon="2.664098">
        <ele>60.2</ele>
        <time>2011-08-17T10:54:08Z</time>
      </trkpt>
      <trkpt lat="41.762778" lon="2.664286">
        <ele>59.7</ele>
        <time>2011-08-17T10:54:13Z</time>
      </trkpt>
      <trkpt lat="41.762967" lon="2.664614">
        <ele>58.8</ele>
        <time>2011-08-17T10:54:20Z</time>
      </trkpt>
      <trkpt lat="41.763174" lon="2.664875">
        <ele>58.8</ele>
        <time>2011-08-17T10:54:27Z</time>
      </trkpt>
      <trkpt lat="41.763226" lon="2.664908">
        <ele>59.3</ele>
        <time>2011-08-17T10:54:29Z</time>
      </trkpt>
      <trkpt lat="41.763277" lon="2.665149">
        <ele>60.7</ele>
        <time>2011-08-17T10:54:35Z</time>
      </trkpt>
      <trkpt lat="41.763273" lon="2.665217">
        <ele>60.7</ele>
        <time>2011-08-17T10:54:36Z</time>
      </trkpt>
      <trkpt lat="41.763259" lon="2.665356">
        <ele>59.3</ele>
        <time>2011-08-17T10:54:38Z</time>
      </trkpt>
      <trkpt lat="41.763096" lon="2.665745">
        <ele>58.8</ele>
        <time>2011-08-17T10:54:44Z</time>
      </trkpt>
      <trkpt lat="41.762741" lon="2.666088">
        <ele>57.3</ele>
        <time>2011-08-17T10:54:52Z</time>
      </trkpt>
      <trkpt lat="41.762213" lon="2.666501">
        <ele>54.9</ele>
        <time>2011-08-17T10:55:03Z</time>
      </trkpt>
      <trkpt lat="41.762074" lon="2.666615">
        <ele>54.5</ele>
        <time>2011-08-17T10:55:06Z</time>
      </trkpt>
      <trkpt lat="41.761988" lon="2.666712">
        <ele>54.0</ele>
        <time>2011-08-17T10:55:08Z</time>
      </trkpt>
      <trkpt lat="41.761613" lon="2.667180">
        <ele>52.0</ele>
        <time>2011-08-17T10:55:17Z</time>
      </trkpt>
      <trkpt lat="41.761317" lon="2.667523">
        <ele>51.1</ele>
        <time>2011-08-17T10:55:24Z</time>
      </trkpt>
      <trkpt lat="41.761138" lon="2.667747">
        <ele>50.1</ele>
        <time>2011-08-17T10:55:29Z</time>
      </trkpt>
      <trkpt lat="41.761221" lon="2.668027">
        <ele>50.1</ele>
        <time>2011-08-17T10:55:35Z</time>
      </trkpt>
      <trkpt lat="41.761492" lon="2.668274">
        <ele>55.9</ele>
        <time>2011-08-17T10:55:44Z</time>
      </trkpt>
      <trkpt lat="41.761718" lon="2.668510">
        <ele>61.7</ele>
        <time>2011-08-17T10:55:53Z</time>
      </trkpt>
      <trkpt lat="41.761892" lon="2.668692">
        <ele>65.0</ele>
        <time>2011-08-17T10:56:00Z</time>
      </trkpt>
      <trkpt lat="41.762096" lon="2.668956">
        <ele>67.9</ele>
        <time>2011-08-17T10:56:10Z</time>
      </trkpt>
      <trkpt lat="41.762229" lon="2.669223">
        <ele>68.4</ele>
        <time>2011-08-17T10:56:18Z</time>
      </trkpt>
      <trkpt lat="41.762327" lon="2.669443">
        <ele>67.9</ele>
        <time>2011-08-17T10:56:24Z</time>
      </trkpt>
      <trkpt lat="41.762437" lon="2.669694">
        <ele>68.9</ele>
        <time>2011-08-17T10:56:29Z</time>
      </trkpt>
      <trkpt lat="41.762790" lon="2.670077">
        <ele>66.9</ele>
        <time>2011-08-17T10:56:37Z</time>
      </trkpt>
      <trkpt lat="41.762840" lon="2.670116">
        <ele>67.4</ele>
        <time>2011-08-17T10:56:38Z</time>
      </trkpt>
      <trkpt lat="41.763040" lon="2.670242">
        <ele>66.0</ele>
        <time>2011-08-17T10:56:42Z</time>
      </trkpt>
      <trkpt lat="41.763537" lon="2.670363">
        <ele>63.1</ele>
        <time>2011-08-17T10:56:50Z</time>
      </trkpt>
      <trkpt lat="41.763989" lon="2.670491">
        <ele>61.2</ele>
        <time>2011-08-17T10:56:56Z</time>
      </trkpt>
      <trkpt lat="41.764711" lon="2.670784">
        <ele>57.3</ele>
        <time>2011-08-17T10:57:05Z</time>
      </trkpt>
      <trkpt lat="41.765218" lon="2.670756">
        <ele>54.0</ele>
        <time>2011-08-17T10:57:11Z</time>
      </trkpt>
      <trkpt lat="41.765672" lon="2.670586">
        <ele>55.4</ele>
        <time>2011-08-17T10:57:17Z</time>
      </trkpt>
      <trkpt lat="41.766386" lon="2.670300">
        <ele>54.5</ele>
        <time>2011-08-17T10:57:27Z</time>
      </trkpt>
      <trkpt lat="41.766996" lon="2.670138">
        <ele>54.5</ele>
        <time>2011-08-17T10:57:36Z</time>
      </trkpt>
      <trkpt lat="41.767482" lon="2.670126">
        <ele>56.4</ele>
        <time>2011-08-17T10:57:43Z</time>
      </trkpt>
      <trkpt lat="41.768092" lon="2.670154">
        <ele>54.5</ele>
        <time>2011-08-17T10:57:52Z</time>
      </trkpt>
      <trkpt lat="41.768834" lon="2.670214">
        <ele>56.4</ele>
        <time>2011-08-17T10:58:03Z</time>
      </trkpt>
      <trkpt lat="41.769438" lon="2.670225">
        <ele>57.8</ele>
        <time>2011-08-17T10:58:12Z</time>
      </trkpt>
      <trkpt lat="41.769961" lon="2.670230">
        <ele>56.9</ele>
        <time>2011-08-17T10:58:20Z</time>
      </trkpt>
      <trkpt lat="41.770526" lon="2.670284">
        <ele>54.5</ele>
        <time>2011-08-17T10:58:29Z</time>
      </trkpt>
      <trkpt lat="41.770980" lon="2.670222">
        <ele>48.7</ele>
        <time>2011-08-17T10:58:36Z</time>
      </trkpt>
      <trkpt lat="41.771360" lon="2.670096">
        <ele>50.1</ele>
        <time>2011-08-17T10:58:42Z</time>
      </trkpt>
      <trkpt lat="41.771866" lon="2.669709">
        <ele>53.5</ele>
        <time>2011-08-17T10:58:50Z</time>
      </trkpt>
      <trkpt lat="41.772413" lon="2.669227">
        <ele>53.0</ele>
        <time>2011-08-17T10:58:59Z</time>
      </trkpt>
      <trkpt lat="41.772692" lon="2.668960">
        <ele>53.5</ele>
        <time>2011-08-17T10:59:04Z</time>
      </trkpt>
      <trkpt lat="41.772993" lon="2.668559">
        <ele>55.9</ele>
        <time>2011-08-17T10:59:10Z</time>
      </trkpt>
      <trkpt lat="41.773107" lon="2.668441">
        <ele>55.9</ele>
        <time>2011-08-17T10:59:12Z</time>
      </trkpt>
      <trkpt lat="41.773431" lon="2.668298">
        <ele>54.5</ele>
        <time>2011-08-17T10:59:17Z</time>
      </trkpt>
      <trkpt lat="41.773557" lon="2.668273">
        <ele>53.5</ele>
        <time>2011-08-17T10:59:19Z</time>
      </trkpt>
      <trkpt lat="41.774092" lon="2.668286">
        <ele>54.5</ele>
        <time>2011-08-17T10:59:27Z</time>
      </trkpt>
      <trkpt lat="41.774445" lon="2.668243">
        <ele>54.0</ele>
        <time>2011-08-17T10:59:33Z</time>
      </trkpt>
      <trkpt lat="41.774760" lon="2.668149">
        <ele>54.0</ele>
        <time>2011-08-17T10:59:38Z</time>
      </trkpt>
      <trkpt lat="41.775060" lon="2.668072">
        <ele>54.9</ele>
        <time>2011-08-17T10:59:43Z</time>
      </trkpt>
      <trkpt lat="41.775514" lon="2.667943">
        <ele>60.7</ele>
        <time>2011-08-17T10:59:50Z</time>
      </trkpt>
      <trkpt lat="41.776131" lon="2.667849">
        <ele>60.2</ele>
        <time>2011-08-17T11:00:00Z</time>
      </trkpt>
      <trkpt lat="41.776566" lon="2.667927">
        <ele>62.1</ele>
        <time>2011-08-17T11:00:07Z</time>
      </trkpt>
      <trkpt lat="41.776669" lon="2.667998">
        <ele>63.1</ele>
        <time>2011-08-17T11:00:09Z</time>
      </trkpt>
      <trkpt lat="41.777180" lon="2.668531">
        <ele>64.1</ele>
        <time>2011-08-17T11:00:19Z</time>
      </trkpt>
      <trkpt lat="41.777559" lon="2.668954">
        <ele>63.6</ele>
        <time>2011-08-17T11:00:27Z</time>
      </trkpt>
      <trkpt lat="41.778031" lon="2.669598">
        <ele>60.7</ele>
        <time>2011-08-17T11:00:37Z</time>
      </trkpt>
      <trkpt lat="41.778166" lon="2.669803">
        <ele>59.7</ele>
        <time>2011-08-17T11:00:40Z</time>
      </trkpt>
      <trkpt lat="41.778343" lon="2.670108">
        <ele>58.8</ele>
        <time>2011-08-17T11:00:44Z</time>
      </trkpt>
      <trkpt lat="41.778481" lon="2.670450">
        <ele>58.8</ele>
        <time>2011-08-17T11:00:48Z</time>
      </trkpt>
      <trkpt lat="41.778531" lon="2.670812">
        <ele>57.3</ele>
        <time>2011-08-17T11:00:52Z</time>
      </trkpt>
      <trkpt lat="41.778625" lon="2.671586">
        <ele>58.3</ele>
        <time>2011-08-17T11:01:01Z</time>
      </trkpt>
      <trkpt lat="41.778643" lon="2.671659">
        <ele>58.8</ele>
        <time>2011-08-17T11:01:02Z</time>
      </trkpt>
      <trkpt lat="41.778856" lon="2.672158">
        <ele>60.7</ele>
        <time>2011-08-17T11:01:09Z</time>
      </trkpt>
      <trkpt lat="41.779205" lon="2.672498">
        <ele>59.7</ele>
        <time>2011-08-17T11:01:16Z</time>
      </trkpt>
      <trkpt lat="41.779551" lon="2.672936">
        <ele>59.7</ele>
        <time>2011-08-17T11:01:24Z</time>
      </trkpt>
      <trkpt lat="41.779885" lon="2.673417">
        <ele>59.7</ele>
        <time>2011-08-17T11:01:32Z</time>
      </trkpt>
      <trkpt lat="41.780277" lon="2.673990">
        <ele>58.8</ele>
        <time>2011-08-17T11:01:41Z</time>
      </trkpt>
      <trkpt lat="41.780549" lon="2.674639">
        <ele>60.7</ele>
        <time>2011-08-17T11:01:50Z</time>
      </trkpt>
      <trkpt lat="41.780681" lon="2.674916">
        <ele>61.7</ele>
        <time>2011-08-17T11:01:54Z</time>
      </trkpt>
      <trkpt lat="41.781091" lon="2.675380">
        <ele>62.6</ele>
        <time>2011-08-17T11:02:03Z</time>
      </trkpt>
      <trkpt lat="41.781457" lon="2.675721">
        <ele>63.1</ele>
        <time>2011-08-17T11:02:10Z</time>
      </trkpt>
      <trkpt lat="41.781927" lon="2.676174">
        <ele>62.6</ele>
        <time>2011-08-17T11:02:19Z</time>
      </trkpt>
      <trkpt lat="41.782382" lon="2.676734">
        <ele>61.7</ele>
        <time>2011-08-17T11:02:28Z</time>
      </trkpt>
      <trkpt lat="41.782690" lon="2.677185">
        <ele>61.2</ele>
        <time>2011-08-17T11:02:35Z</time>
      </trkpt>
      <trkpt lat="41.783132" lon="2.677812">
        <ele>61.2</ele>
        <time>2011-08-17T11:02:45Z</time>
      </trkpt>
      <trkpt lat="41.783445" lon="2.678383">
        <ele>63.1</ele>
        <time>2011-08-17T11:02:53Z</time>
      </trkpt>
      <trkpt lat="41.783801" lon="2.678810">
        <ele>65.0</ele>
        <time>2011-08-17T11:03:01Z</time>
      </trkpt>
      <trkpt lat="41.784179" lon="2.679270">
        <ele>65.0</ele>
        <time>2011-08-17T11:03:09Z</time>
      </trkpt>
      <trkpt lat="41.784504" lon="2.679674">
        <ele>66.0</ele>
        <time>2011-08-17T11:03:16Z</time>
      </trkpt>
      <trkpt lat="41.784743" lon="2.679934">
        <ele>66.5</ele>
        <time>2011-08-17T11:03:21Z</time>
      </trkpt>
      <trkpt lat="41.784908" lon="2.680040">
        <ele>66.0</ele>
        <time>2011-08-17T11:03:24Z</time>
      </trkpt>
      <trkpt lat="41.785183" lon="2.680075">
        <ele>65.5</ele>
        <time>2011-08-17T11:03:29Z</time>
      </trkpt>
      <trkpt lat="41.785410" lon="2.680043">
        <ele>64.5</ele>
        <time>2011-08-17T11:03:33Z</time>
      </trkpt>
      <trkpt lat="41.785540" lon="2.680047">
        <ele>66.0</ele>
        <time>2011-08-17T11:03:35Z</time>
      </trkpt>
      <trkpt lat="41.786064" lon="2.680222">
        <ele>63.6</ele>
        <time>2011-08-17T11:03:43Z</time>
      </trkpt>
      <trkpt lat="41.786269" lon="2.680314">
        <ele>64.1</ele>
        <time>2011-08-17T11:03:46Z</time>
      </trkpt>
      <trkpt lat="41.786583" lon="2.680586">
        <ele>66.0</ele>
        <time>2011-08-17T11:03:52Z</time>
      </trkpt>
      <trkpt lat="41.786924" lon="2.680962">
        <ele>69.4</ele>
        <time>2011-08-17T11:03:59Z</time>
      </trkpt>
      <trkpt lat="41.787267" lon="2.681429">
        <ele>66.9</ele>
        <time>2011-08-17T11:04:06Z</time>
      </trkpt>
      <trkpt lat="41.787570" lon="2.681716">
        <ele>67.4</ele>
        <time>2011-08-17T11:04:13Z</time>
      </trkpt>
      <trkpt lat="41.787727" lon="2.681813">
        <ele>67.9</ele>
        <time>2011-08-17T11:04:17Z</time>
      </trkpt>
      <trkpt lat="41.788087" lon="2.682029">
        <ele>67.4</ele>
        <time>2011-08-17T11:04:24Z</time>
      </trkpt>
      <trkpt lat="41.788470" lon="2.682255">
        <ele>66.9</ele>
        <time>2011-08-17T11:04:31Z</time>
      </trkpt>
      <trkpt lat="41.788795" lon="2.682464">
        <ele>67.4</ele>
        <time>2011-08-17T11:04:37Z</time>
      </trkpt>
      <trkpt lat="41.789015" lon="2.682610">
        <ele>66.9</ele>
        <time>2011-08-17T11:04:41Z</time>
      </trkpt>
      <trkpt lat="41.789284" lon="2.682918">
        <ele>66.9</ele>
        <time>2011-08-17T11:04:47Z</time>
      </trkpt>
      <trkpt lat="41.789459" lon="2.683070">
        <ele>66.9</ele>
        <time>2011-08-17T11:04:51Z</time>
      </trkpt>
      <trkpt lat="41.789849" lon="2.683215">
        <ele>66.5</ele>
        <time>2011-08-17T11:04:59Z</time>
      </trkpt>
      <trkpt lat="41.789960" lon="2.683239">
        <ele>66.5</ele>
        <time>2011-08-17T11:05:01Z</time>
      </trkpt>
      <trkpt lat="41.790111" lon="2.683208">
        <ele>67.9</ele>
        <time>2011-08-17T11:05:04Z</time>
      </trkpt>
      <trkpt lat="41.790236" lon="2.683216">
        <ele>67.9</ele>
        <time>2011-08-17T11:05:06Z</time>
      </trkpt>
      <trkpt lat="41.790440" lon="2.683277">
        <ele>66.9</ele>
        <time>2011-08-17T11:05:09Z</time>
      </trkpt>
      <trkpt lat="41.790776" lon="2.683531">
        <ele>67.9</ele>
        <time>2011-08-17T11:05:15Z</time>
      </trkpt>
      <trkpt lat="41.791196" lon="2.683853">
        <ele>69.4</ele>
        <time>2011-08-17T11:05:23Z</time>
      </trkpt>
      <trkpt lat="41.791296" lon="2.683894">
        <ele>68.9</ele>
        <time>2011-08-17T11:05:25Z</time>
      </trkpt>
      <trkpt lat="41.791588" lon="2.683985">
        <ele>66.9</ele>
        <time>2011-08-17T11:05:30Z</time>
      </trkpt>
      <trkpt lat="41.791847" lon="2.684113">
        <ele>66.9</ele>
        <time>2011-08-17T11:05:35Z</time>
      </trkpt>
      <trkpt lat="41.792172" lon="2.684444">
        <ele>66.9</ele>
        <time>2011-08-17T11:05:42Z</time>
      </trkpt>
      <trkpt lat="41.792409" lon="2.684836">
        <ele>65.5</ele>
        <time>2011-08-17T11:05:48Z</time>
      </trkpt>
      <trkpt lat="41.792583" lon="2.685260">
        <ele>65.5</ele>
        <time>2011-08-17T11:05:54Z</time>
      </trkpt>
      <trkpt lat="41.792691" lon="2.685440">
        <ele>66.5</ele>
        <time>2011-08-17T11:05:57Z</time>
      </trkpt>
      <trkpt lat="41.793022" lon="2.685725">
        <ele>65.5</ele>
        <time>2011-08-17T11:06:04Z</time>
      </trkpt>
      <trkpt lat="41.793166" lon="2.685797">
        <ele>65.0</ele>
        <time>2011-08-17T11:06:07Z</time>
      </trkpt>
      <trkpt lat="41.793246" lon="2.685858">
        <ele>65.0</ele>
        <time>2011-08-17T11:06:09Z</time>
      </trkpt>
      <trkpt lat="41.793445" lon="2.686200">
        <ele>63.6</ele>
        <time>2011-08-17T11:06:14Z</time>
      </trkpt>
      <trkpt lat="41.793544" lon="2.686730">
        <ele>60.2</ele>
        <time>2011-08-17T11:06:21Z</time>
      </trkpt>
      <trkpt lat="41.793659" lon="2.687333">
        <ele>63.1</ele>
        <time>2011-08-17T11:06:29Z</time>
      </trkpt>
      <trkpt lat="41.793738" lon="2.687523">
        <ele>64.5</ele>
        <time>2011-08-17T11:06:32Z</time>
      </trkpt>
      <trkpt lat="41.794183" lon="2.688243">
        <ele>67.9</ele>
        <time>2011-08-17T11:06:44Z</time>
      </trkpt>
      <trkpt lat="41.794504" lon="2.688781">
        <ele>69.4</ele>
        <time>2011-08-17T11:06:53Z</time>
      </trkpt>
      <trkpt lat="41.794533" lon="2.688825">
        <ele>69.4</ele>
        <time>2011-08-17T11:06:54Z</time>
      </trkpt>
      <trkpt lat="41.794732" lon="2.689297">
        <ele>70.3</ele>
        <time>2011-08-17T11:07:03Z</time>
      </trkpt>
      <trkpt lat="41.794841" lon="2.689584">
        <ele>71.3</ele>
        <time>2011-08-17T11:07:06Z</time>
      </trkpt>
      <trkpt lat="41.795334" lon="2.690464">
        <ele>70.8</ele>
        <time>2011-08-17T11:07:19Z</time>
      </trkpt>
      <trkpt lat="41.795483" lon="2.690742">
        <ele>70.8</ele>
        <time>2011-08-17T11:07:23Z</time>
      </trkpt>
      <trkpt lat="41.795594" lon="2.690924">
        <ele>72.2</ele>
        <time>2011-08-17T11:07:26Z</time>
      </trkpt>
      <trkpt lat="41.795652" lon="2.691061">
        <ele>73.7</ele>
        <time>2011-08-17T11:07:28Z</time>
      </trkpt>
      <trkpt lat="41.795710" lon="2.691473">
        <ele>76.1</ele>
        <time>2011-08-17T11:07:34Z</time>
      </trkpt>
      <trkpt lat="41.795722" lon="2.691824">
        <ele>77.5</ele>
        <time>2011-08-17T11:07:39Z</time>
      </trkpt>
      <trkpt lat="41.795706" lon="2.692015">
        <ele>77.5</ele>
        <time>2011-08-17T11:07:42Z</time>
      </trkpt>
      <trkpt lat="41.795692" lon="2.692387">
        <ele>76.6</ele>
        <time>2011-08-17T11:07:47Z</time>
      </trkpt>
      <trkpt lat="41.795719" lon="2.693187">
        <ele>73.7</ele>
        <time>2011-08-17T11:07:56Z</time>
      </trkpt>
      <trkpt lat="41.795715" lon="2.693346">
        <ele>72.7</ele>
        <time>2011-08-17T11:07:58Z</time>
      </trkpt>
      <trkpt lat="41.795694" lon="2.693513">
        <ele>71.8</ele>
        <time>2011-08-17T11:08:00Z</time>
      </trkpt>
      <trkpt lat="41.795711" lon="2.694097">
        <ele>68.9</ele>
        <time>2011-08-17T11:08:07Z</time>
      </trkpt>
      <trkpt lat="41.795702" lon="2.694347">
        <ele>67.9</ele>
        <time>2011-08-17T11:08:10Z</time>
      </trkpt>
      <trkpt lat="41.795663" lon="2.694625">
        <ele>67.9</ele>
        <time>2011-08-17T11:08:14Z</time>
      </trkpt>
      <trkpt lat="41.795666" lon="2.694824">
        <ele>66.9</ele>
        <time>2011-08-17T11:08:17Z</time>
      </trkpt>
      <trkpt lat="41.795629" lon="2.695054">
        <ele>66.5</ele>
        <time>2011-08-17T11:08:21Z</time>
      </trkpt>
      <trkpt lat="41.795699" lon="2.695465">
        <ele>65.0</ele>
        <time>2011-08-17T11:08:25Z</time>
      </trkpt>
      <trkpt lat="41.795711" lon="2.696292">
        <ele>62.6</ele>
        <time>2011-08-17T11:08:33Z</time>
      </trkpt>
      <trkpt lat="41.795811" lon="2.697031">
        <ele>67.4</ele>
        <time>2011-08-17T11:08:41Z</time>
      </trkpt>
      <trkpt lat="41.796015" lon="2.697700">
        <ele>69.8</ele>
        <time>2011-08-17T11:08:49Z</time>
      </trkpt>
      <trkpt lat="41.796290" lon="2.698423">
        <ele>71.3</ele>
        <time>2011-08-17T11:08:58Z</time>
      </trkpt>
      <trkpt lat="41.796632" lon="2.699288">
        <ele>75.1</ele>
        <time>2011-08-17T11:09:09Z</time>
      </trkpt>
      <trkpt lat="41.796876" lon="2.699907">
        <ele>76.1</ele>
        <time>2011-08-17T11:09:18Z</time>
      </trkpt>
      <trkpt lat="41.797115" lon="2.700534">
        <ele>77.5</ele>
        <time>2011-08-17T11:09:27Z</time>
      </trkpt>
      <trkpt lat="41.797352" lon="2.701155">
        <ele>75.6</ele>
        <time>2011-08-17T11:09:36Z</time>
      </trkpt>
      <trkpt lat="41.797642" lon="2.701930">
        <ele>74.2</ele>
        <time>2011-08-17T11:09:47Z</time>
      </trkpt>
      <trkpt lat="41.797892" lon="2.702573">
        <ele>74.6</ele>
        <time>2011-08-17T11:09:56Z</time>
      </trkpt>
      <trkpt lat="41.798045" lon="2.703084">
        <ele>74.6</ele>
        <time>2011-08-17T11:10:03Z</time>
      </trkpt>
      <trkpt lat="41.798070" lon="2.703307">
        <ele>74.6</ele>
        <time>2011-08-17T11:10:06Z</time>
      </trkpt>
      <trkpt lat="41.798032" lon="2.704090">
        <ele>73.2</ele>
        <time>2011-08-17T11:10:16Z</time>
      </trkpt>
      <trkpt lat="41.797950" lon="2.704907">
        <ele>72.7</ele>
        <time>2011-08-17T11:10:26Z</time>
      </trkpt>
      <trkpt lat="41.797936" lon="2.705328">
        <ele>71.8</ele>
        <time>2011-08-17T11:10:31Z</time>
      </trkpt>
      <trkpt lat="41.797960" lon="2.705587">
        <ele>71.8</ele>
        <time>2011-08-17T11:10:34Z</time>
      </trkpt>
      <trkpt lat="41.798031" lon="2.706038">
        <ele>72.2</ele>
        <time>2011-08-17T11:10:40Z</time>
      </trkpt>
      <trkpt lat="41.797931" lon="2.706128">
        <ele>72.7</ele>
        <time>2011-08-17T11:10:42Z</time>
      </trkpt>
      <trkpt lat="41.797591" lon="2.706232">
        <ele>72.2</ele>
        <time>2011-08-17T11:10:47Z</time>
      </trkpt>
      <trkpt lat="41.797243" lon="2.706290">
        <ele>71.8</ele>
        <time>2011-08-17T11:10:52Z</time>
      </trkpt>
      <trkpt lat="41.796898" lon="2.706459">
        <ele>69.4</ele>
        <time>2011-08-17T11:10:58Z</time>
      </trkpt>
      <trkpt lat="41.796383" lon="2.706949">
        <ele>64.1</ele>
        <time>2011-08-17T11:11:08Z</time>
      </trkpt>
      <trkpt lat="41.796154" lon="2.707176">
        <ele>62.1</ele>
        <time>2011-08-17T11:11:13Z</time>
      </trkpt>
      <trkpt lat="41.796023" lon="2.707325">
        <ele>60.7</ele>
        <time>2011-08-17T11:11:16Z</time>
      </trkpt>
      <trkpt lat="41.795903" lon="2.707503">
        <ele>59.3</ele>
        <time>2011-08-17T11:11:19Z</time>
      </trkpt>
      <trkpt lat="41.795718" lon="2.707738">
        <ele>58.8</ele>
        <time>2011-08-17T11:11:25Z</time>
      </trkpt>
      <trkpt lat="41.795670" lon="2.707793">
        <ele>59.3</ele>
        <time>2011-08-17T11:11:27Z</time>
      </trkpt>
      <trkpt lat="41.795631" lon="2.708061">
        <ele>60.7</ele>
        <time>2011-08-17T11:11:31Z</time>
      </trkpt>
      <trkpt lat="41.795647" lon="2.708220">
        <ele>60.7</ele>
        <time>2011-08-17T11:11:33Z</time>
      </trkpt>
      <trkpt lat="41.795627" lon="2.708843">
        <ele>62.1</ele>
        <time>2011-08-17T11:11:41Z</time>
      </trkpt>
      <trkpt lat="41.795599" lon="2.709066">
        <ele>63.1</ele>
        <time>2011-08-17T11:11:44Z</time>
      </trkpt>
      <trkpt lat="41.795552" lon="2.709194">
        <ele>63.1</ele>
        <time>2011-08-17T11:11:46Z</time>
      </trkpt>
      <trkpt lat="41.795342" lon="2.709455">
        <ele>63.1</ele>
        <time>2011-08-17T11:11:51Z</time>
      </trkpt>
      <trkpt lat="41.795232" lon="2.709803">
        <ele>62.6</ele>
        <time>2011-08-17T11:11:56Z</time>
      </trkpt>
      <trkpt lat="41.795166" lon="2.710329">
        <ele>64.5</ele>
        <time>2011-08-17T11:12:03Z</time>
      </trkpt>
      <trkpt lat="41.795157" lon="2.710400">
        <ele>65.0</ele>
        <time>2011-08-17T11:12:04Z</time>
      </trkpt>
      <trkpt lat="41.795122" lon="2.710512">
        <ele>65.0</ele>
        <time>2011-08-17T11:12:06Z</time>
      </trkpt>
      <trkpt lat="41.795113" lon="2.711000">
        <ele>67.4</ele>
        <time>2011-08-17T11:12:13Z</time>
      </trkpt>
      <trkpt lat="41.795165" lon="2.711617">
        <ele>66.9</ele>
        <time>2011-08-17T11:12:20Z</time>
      </trkpt>
      <trkpt lat="41.795178" lon="2.711704">
        <ele>66.9</ele>
        <time>2011-08-17T11:12:21Z</time>
      </trkpt>
      <trkpt lat="41.795284" lon="2.712118">
        <ele>67.4</ele>
        <time>2011-08-17T11:12:25Z</time>
      </trkpt>
      <trkpt lat="41.795434" lon="2.712534">
        <ele>66.9</ele>
        <time>2011-08-17T11:12:30Z</time>
      </trkpt>
      <trkpt lat="41.795483" lon="2.713008">
        <ele>66.9</ele>
        <time>2011-08-17T11:12:36Z</time>
      </trkpt>
      <trkpt lat="41.795477" lon="2.713461">
        <ele>66.5</ele>
        <time>2011-08-17T11:12:42Z</time>
      </trkpt>
      <trkpt lat="41.795516" lon="2.714221">
        <ele>66.0</ele>
        <time>2011-08-17T11:12:51Z</time>
      </trkpt>
      <trkpt lat="41.795562" lon="2.714892">
        <ele>64.5</ele>
        <time>2011-08-17T11:12:59Z</time>
      </trkpt>
      <trkpt lat="41.795587" lon="2.715315">
        <ele>64.1</ele>
        <time>2011-08-17T11:13:04Z</time>
      </trkpt>
      <trkpt lat="41.795662" lon="2.715960">
        <ele>62.1</ele>
        <time>2011-08-17T11:13:11Z</time>
      </trkpt>
      <trkpt lat="41.795723" lon="2.716477">
        <ele>61.2</ele>
        <time>2011-08-17T11:13:17Z</time>
      </trkpt>
      <trkpt lat="41.795777" lon="2.717187">
        <ele>58.8</ele>
        <time>2011-08-17T11:13:26Z</time>
      </trkpt>
      <trkpt lat="41.795802" lon="2.717503">
        <ele>57.8</ele>
        <time>2011-08-17T11:13:30Z</time>
      </trkpt>
      <trkpt lat="41.795863" lon="2.718041">
        <ele>55.9</ele>
        <time>2011-08-17T11:13:37Z</time>
      </trkpt>
      <trkpt lat="41.795892" lon="2.718430">
        <ele>54.0</ele>
        <time>2011-08-17T11:13:42Z</time>
      </trkpt>
      <trkpt lat="41.795965" lon="2.719052">
        <ele>51.6</ele>
        <time>2011-08-17T11:13:49Z</time>
      </trkpt>
      <trkpt lat="41.796019" lon="2.719490">
        <ele>52.0</ele>
        <time>2011-08-17T11:13:55Z</time>
      </trkpt>
      <trkpt lat="41.796045" lon="2.719738">
        <ele>53.0</ele>
        <time>2011-08-17T11:13:58Z</time>
      </trkpt>
      <trkpt lat="41.796108" lon="2.720364">
        <ele>56.9</ele>
        <time>2011-08-17T11:14:06Z</time>
      </trkpt>
      <trkpt lat="41.796158" lon="2.720855">
        <ele>56.9</ele>
        <time>2011-08-17T11:14:12Z</time>
      </trkpt>
      <trkpt lat="41.796204" lon="2.721421">
        <ele>57.3</ele>
        <time>2011-08-17T11:14:19Z</time>
      </trkpt>
      <trkpt lat="41.796251" lon="2.722080">
        <ele>56.4</ele>
        <time>2011-08-17T11:14:27Z</time>
      </trkpt>
      <trkpt lat="41.796311" lon="2.722746">
        <ele>55.9</ele>
        <time>2011-08-17T11:14:34Z</time>
      </trkpt>
      <trkpt lat="41.796371" lon="2.723515">
        <ele>54.9</ele>
        <time>2011-08-17T11:14:42Z</time>
      </trkpt>
      <trkpt lat="41.796448" lon="2.724422">
        <ele>57.8</ele>
        <time>2011-08-17T11:14:52Z</time>
      </trkpt>
      <trkpt lat="41.796504" lon="2.725089">
        <ele>60.7</ele>
        <time>2011-08-17T11:15:00Z</time>
      </trkpt>
      <trkpt lat="41.796540" lon="2.725899">
        <ele>61.7</ele>
        <time>2011-08-17T11:15:10Z</time>
      </trkpt>
      <trkpt lat="41.796572" lon="2.726515">
        <ele>60.7</ele>
        <time>2011-08-17T11:15:18Z</time>
      </trkpt>
      <trkpt lat="41.796590" lon="2.726842">
        <ele>60.7</ele>
        <time>2011-08-17T11:15:22Z</time>
      </trkpt>
      <trkpt lat="41.796620" lon="2.727086">
        <ele>60.7</ele>
        <time>2011-08-17T11:15:25Z</time>
      </trkpt>
      <trkpt lat="41.796646" lon="2.727423">
        <ele>58.8</ele>
        <time>2011-08-17T11:15:30Z</time>
      </trkpt>
      <trkpt lat="41.796734" lon="2.728149">
        <ele>56.4</ele>
        <time>2011-08-17T11:15:39Z</time>
      </trkpt>
      <trkpt lat="41.796810" lon="2.728919">
        <ele>60.2</ele>
        <time>2011-08-17T11:15:48Z</time>
      </trkpt>
      <trkpt lat="41.796886" lon="2.729197">
        <ele>62.1</ele>
        <time>2011-08-17T11:15:52Z</time>
      </trkpt>
      <trkpt lat="41.796901" lon="2.729503">
        <ele>63.1</ele>
        <time>2011-08-17T11:15:57Z</time>
      </trkpt>
      <trkpt lat="41.796861" lon="2.729763">
        <ele>63.1</ele>
        <time>2011-08-17T11:16:01Z</time>
      </trkpt>
      <trkpt lat="41.796885" lon="2.730318">
        <ele>64.1</ele>
        <time>2011-08-17T11:16:09Z</time>
      </trkpt>
      <trkpt lat="41.796950" lon="2.730894">
        <ele>64.1</ele>
        <time>2011-08-17T11:16:17Z</time>
      </trkpt>
      <trkpt lat="41.796966" lon="2.730972">
        <ele>64.5</ele>
        <time>2011-08-17T11:16:18Z</time>
      </trkpt>
      <trkpt lat="41.797014" lon="2.731118">
        <ele>64.1</ele>
        <time>2011-08-17T11:16:20Z</time>
      </trkpt>
      <trkpt lat="41.797148" lon="2.731377">
        <ele>63.1</ele>
        <time>2011-08-17T11:16:24Z</time>
      </trkpt>
      <trkpt lat="41.797568" lon="2.732019">
        <ele>64.5</ele>
        <time>2011-08-17T11:16:34Z</time>
      </trkpt>
      <trkpt lat="41.798051" lon="2.732690">
        <ele>65.0</ele>
        <time>2011-08-17T11:16:45Z</time>
      </trkpt>
      <trkpt lat="41.798343" lon="2.733141">
        <ele>65.0</ele>
        <time>2011-08-17T11:16:52Z</time>
      </trkpt>
      <trkpt lat="41.798855" lon="2.733884">
        <ele>65.5</ele>
        <time>2011-08-17T11:17:04Z</time>
      </trkpt>
      <trkpt lat="41.799231" lon="2.734427">
        <ele>66.0</ele>
        <time>2011-08-17T11:17:13Z</time>
      </trkpt>
      <trkpt lat="41.799785" lon="2.735207">
        <ele>66.5</ele>
        <time>2011-08-17T11:17:26Z</time>
      </trkpt>
      <trkpt lat="41.800241" lon="2.735833">
        <ele>66.5</ele>
        <time>2011-08-17T11:17:36Z</time>
      </trkpt>
      <trkpt lat="41.800629" lon="2.736409">
        <ele>65.5</ele>
        <time>2011-08-17T11:17:45Z</time>
      </trkpt>
      <trkpt lat="41.800996" lon="2.736964">
        <ele>65.5</ele>
        <time>2011-08-17T11:17:54Z</time>
      </trkpt>
      <trkpt lat="41.801291" lon="2.737401">
        <ele>65.5</ele>
        <time>2011-08-17T11:18:01Z</time>
      </trkpt>
      <trkpt lat="41.801591" lon="2.737831">
        <ele>66.0</ele>
        <time>2011-08-17T11:18:08Z</time>
      </trkpt>
      <trkpt lat="41.802051" lon="2.738506">
        <ele>66.0</ele>
        <time>2011-08-17T11:18:19Z</time>
      </trkpt>
      <trkpt lat="41.802474" lon="2.739126">
        <ele>66.9</ele>
        <time>2011-08-17T11:18:29Z</time>
      </trkpt>
      <trkpt lat="41.802786" lon="2.739594">
        <ele>67.4</ele>
        <time>2011-08-17T11:18:37Z</time>
      </trkpt>
      <trkpt lat="41.803102" lon="2.740057">
        <ele>66.9</ele>
        <time>2011-08-17T11:18:45Z</time>
      </trkpt>
      <trkpt lat="41.803448" lon="2.740612">
        <ele>66.0</ele>
        <time>2011-08-17T11:18:54Z</time>
      </trkpt>
      <trkpt lat="41.803781" lon="2.741156">
        <ele>66.0</ele>
        <time>2011-08-17T11:19:03Z</time>
      </trkpt>
      <trkpt lat="41.803817" lon="2.741221">
        <ele>66.5</ele>
        <time>2011-08-17T11:19:04Z</time>
      </trkpt>
      <trkpt lat="41.804187" lon="2.741868">
        <ele>67.4</ele>
        <time>2011-08-17T11:19:14Z</time>
      </trkpt>
      <trkpt lat="41.804412" lon="2.742382">
        <ele>66.9</ele>
        <time>2011-08-17T11:19:22Z</time>
      </trkpt>
      <trkpt lat="41.804519" lon="2.742658">
        <ele>66.9</ele>
        <time>2011-08-17T11:19:26Z</time>
      </trkpt>
      <trkpt lat="41.804689" lon="2.743242">
        <ele>66.5</ele>
        <time>2011-08-17T11:19:34Z</time>
      </trkpt>
      <trkpt lat="41.804769" lon="2.743870">
        <ele>66.0</ele>
        <time>2011-08-17T11:19:43Z</time>
      </trkpt>
      <trkpt lat="41.804799" lon="2.744061">
        <ele>66.5</ele>
        <time>2011-08-17T11:19:46Z</time>
      </trkpt>
      <trkpt lat="41.804825" lon="2.744164">
        <ele>66.5</ele>
        <time>2011-08-17T11:19:48Z</time>
      </trkpt>
      <trkpt lat="41.804799" lon="2.744319">
        <ele>66.0</ele>
        <time>2011-08-17T11:19:52Z</time>
      </trkpt>
      <trkpt lat="41.804625" lon="2.744402">
        <ele>64.5</ele>
        <time>2011-08-17T11:19:59Z</time>
      </trkpt>
      <trkpt lat="41.804609" lon="2.744586">
        <ele>63.6</ele>
        <time>2011-08-17T11:20:03Z</time>
      </trkpt>
      <trkpt lat="41.804532" lon="2.744658">
        <ele>62.6</ele>
        <time>2011-08-17T11:20:07Z</time>
      </trkpt>
      <trkpt lat="41.804508" lon="2.744748">
        <ele>62.1</ele>
        <time>2011-08-17T11:21:33Z</time>
      </trkpt>
      <trkpt lat="41.804481" lon="2.744776">
        <ele>63.6</ele>
        <time>2011-08-17T11:21:44Z</time>
      </trkpt>
      <trkpt lat="41.804369" lon="2.744903">
        <ele>64.1</ele>
        <time>2011-08-17T11:21:50Z</time>
      </trkpt>
      <trkpt lat="41.804151" lon="2.745140">
        <ele>64.1</ele>
        <time>2011-08-17T11:21:59Z</time>
      </trkpt>
      <trkpt lat="41.803967" lon="2.745338">
        <ele>66.5</ele>
        <time>2011-08-17T11:22:06Z</time>
      </trkpt>
      <trkpt lat="41.803763" lon="2.745516">
        <ele>66.0</ele>
        <time>2011-08-17T11:22:12Z</time>
      </trkpt>
      <trkpt lat="41.803543" lon="2.745703">
        <ele>67.4</ele>
        <time>2011-08-17T11:22:18Z</time>
      </trkpt>
      <trkpt lat="41.803394" lon="2.745846">
        <ele>67.9</ele>
        <time>2011-08-17T11:22:22Z</time>
      </trkpt>
      <trkpt lat="41.803146" lon="2.746111">
        <ele>66.9</ele>
        <time>2011-08-17T11:22:30Z</time>
      </trkpt>
      <trkpt lat="41.802955" lon="2.746287">
        <ele>64.5</ele>
        <time>2011-08-17T11:22:38Z</time>
      </trkpt>
      <trkpt lat="41.802791" lon="2.746438">
        <ele>63.1</ele>
        <time>2011-08-17T11:22:44Z</time>
      </trkpt>
      <trkpt lat="41.802554" lon="2.746675">
        <ele>59.3</ele>
        <time>2011-08-17T11:22:51Z</time>
      </trkpt>
      <trkpt lat="41.802192" lon="2.747035">
        <ele>60.7</ele>
        <time>2011-08-17T11:23:00Z</time>
      </trkpt>
      <trkpt lat="41.802071" lon="2.747137">
        <ele>59.3</ele>
        <time>2011-08-17T11:23:03Z</time>
      </trkpt>
      <trkpt lat="41.801765" lon="2.747233">
        <ele>60.2</ele>
        <time>2011-08-17T11:23:09Z</time>
      </trkpt>
      <trkpt lat="41.801448" lon="2.747121">
        <ele>58.8</ele>
        <time>2011-08-17T11:23:16Z</time>
      </trkpt>
      <trkpt lat="41.801194" lon="2.747059">
        <ele>58.3</ele>
        <time>2011-08-17T11:23:21Z</time>
      </trkpt>
      <trkpt lat="41.800959" lon="2.747168">
        <ele>57.3</ele>
        <time>2011-08-17T11:23:27Z</time>
      </trkpt>
      <trkpt lat="41.800886" lon="2.747326">
        <ele>56.9</ele>
        <time>2011-08-17T11:23:30Z</time>
      </trkpt>
      <trkpt lat="41.800809" lon="2.747584">
        <ele>57.3</ele>
        <time>2011-08-17T11:23:36Z</time>
      </trkpt>
      <trkpt lat="41.800794" lon="2.747752">
        <ele>56.4</ele>
        <time>2011-08-17T11:23:39Z</time>
      </trkpt>
      <trkpt lat="41.800746" lon="2.748199">
        <ele>58.8</ele>
        <time>2011-08-17T11:23:44Z</time>
      </trkpt>
      <trkpt lat="41.800555" lon="2.748811">
        <ele>65.5</ele>
        <time>2011-08-17T11:23:54Z</time>
      </trkpt>
      <trkpt lat="41.800385" lon="2.749381">
        <ele>69.8</ele>
        <time>2011-08-17T11:24:03Z</time>
      </trkpt>
      <trkpt lat="41.800308" lon="2.749636">
        <ele>71.3</ele>
        <time>2011-08-17T11:24:07Z</time>
      </trkpt>
      <trkpt lat="41.800138" lon="2.750047">
        <ele>70.8</ele>
        <time>2011-08-17T11:24:14Z</time>
      </trkpt>
      <trkpt lat="41.799861" lon="2.750461">
        <ele>71.8</ele>
        <time>2011-08-17T11:24:22Z</time>
      </trkpt>
      <trkpt lat="41.799524" lon="2.750917">
        <ele>69.8</ele>
        <time>2011-08-17T11:24:31Z</time>
      </trkpt>
      <trkpt lat="41.799209" lon="2.751413">
        <ele>71.8</ele>
        <time>2011-08-17T11:24:40Z</time>
      </trkpt>
      <trkpt lat="41.799019" lon="2.751942">
        <ele>69.4</ele>
        <time>2011-08-17T11:24:48Z</time>
      </trkpt>
      <trkpt lat="41.798928" lon="2.752193">
        <ele>67.9</ele>
        <time>2011-08-17T11:24:52Z</time>
      </trkpt>
      <trkpt lat="41.798860" lon="2.752355">
        <ele>66.5</ele>
        <time>2011-08-17T11:24:55Z</time>
      </trkpt>
      <trkpt lat="41.798748" lon="2.752698">
        <ele>64.1</ele>
        <time>2011-08-17T11:25:01Z</time>
      </trkpt>
      <trkpt lat="41.798777" lon="2.752824">
        <ele>64.5</ele>
        <time>2011-08-17T11:25:03Z</time>
      </trkpt>
      <trkpt lat="41.799009" lon="2.753286">
        <ele>68.4</ele>
        <time>2011-08-17T11:25:11Z</time>
      </trkpt>
      <trkpt lat="41.799025" lon="2.753570">
        <ele>69.8</ele>
        <time>2011-08-17T11:25:16Z</time>
      </trkpt>
      <trkpt lat="41.798945" lon="2.754105">
        <ele>71.8</ele>
        <time>2011-08-17T11:25:26Z</time>
      </trkpt>
      <trkpt lat="41.798862" lon="2.754590">
        <ele>72.7</ele>
        <time>2011-08-17T11:25:34Z</time>
      </trkpt>
      <trkpt lat="41.798794" lon="2.755154">
        <ele>72.7</ele>
        <time>2011-08-17T11:25:43Z</time>
      </trkpt>
      <trkpt lat="41.798724" lon="2.755679">
        <ele>74.2</ele>
        <time>2011-08-17T11:25:52Z</time>
      </trkpt>
      <trkpt lat="41.798671" lon="2.755929">
        <ele>74.2</ele>
        <time>2011-08-17T11:25:59Z</time>
      </trkpt>
      <trkpt lat="41.798590" lon="2.756146">
        <ele>75.1</ele>
        <time>2011-08-17T11:26:06Z</time>
      </trkpt>
      <trkpt lat="41.798541" lon="2.756376">
        <ele>74.2</ele>
        <time>2011-08-17T11:26:11Z</time>
      </trkpt>
      <trkpt lat="41.798501" lon="2.756710">
        <ele>74.2</ele>
        <time>2011-08-17T11:26:18Z</time>
      </trkpt>
      <trkpt lat="41.798486" lon="2.756777">
        <ele>74.2</ele>
        <time>2011-08-17T11:26:19Z</time>
      </trkpt>
      <trkpt lat="41.798450" lon="2.757086">
        <ele>69.8</ele>
        <time>2011-08-17T11:26:23Z</time>
      </trkpt>
      <trkpt lat="41.798394" lon="2.757415">
        <ele>69.8</ele>
        <time>2011-08-17T11:26:28Z</time>
      </trkpt>
      <trkpt lat="41.798295" lon="2.757895">
        <ele>74.6</ele>
        <time>2011-08-17T11:26:35Z</time>
      </trkpt>
      <trkpt lat="41.798067" lon="2.758419">
        <ele>79.0</ele>
        <time>2011-08-17T11:26:45Z</time>
      </trkpt>
      <trkpt lat="41.797943" lon="2.758688">
        <ele>80.4</ele>
        <time>2011-08-17T11:26:50Z</time>
      </trkpt>
      <trkpt lat="41.797721" lon="2.759264">
        <ele>80.4</ele>
        <time>2011-08-17T11:27:00Z</time>
      </trkpt>
      <trkpt lat="41.797567" lon="2.759725">
        <ele>80.4</ele>
        <time>2011-08-17T11:27:08Z</time>
      </trkpt>
      <trkpt lat="41.797667" lon="2.759999">
        <ele>80.4</ele>
        <time>2011-08-17T11:27:13Z</time>
      </trkpt>
      <trkpt lat="41.797759" lon="2.760076">
        <ele>80.4</ele>
        <time>2011-08-17T11:27:15Z</time>
      </trkpt>
      <trkpt lat="41.798151" lon="2.760346">
        <ele>79.9</ele>
        <time>2011-08-17T11:27:23Z</time>
      </trkpt>
      <trkpt lat="41.798593" lon="2.760601">
        <ele>78.5</ele>
        <time>2011-08-17T11:27:32Z</time>
      </trkpt>
      <trkpt lat="41.799013" lon="2.760782">
        <ele>79.0</ele>
        <time>2011-08-17T11:27:40Z</time>
      </trkpt>
      <trkpt lat="41.799412" lon="2.761032">
        <ele>81.4</ele>
        <time>2011-08-17T11:27:48Z</time>
      </trkpt>
      <trkpt lat="41.799828" lon="2.761297">
        <ele>80.9</ele>
        <time>2011-08-17T11:27:56Z</time>
      </trkpt>
      <trkpt lat="41.800323" lon="2.761657">
        <ele>79.4</ele>
        <time>2011-08-17T11:28:05Z</time>
      </trkpt>
      <trkpt lat="41.800860" lon="2.762029">
        <ele>78.5</ele>
        <time>2011-08-17T11:28:15Z</time>
      </trkpt>
      <trkpt lat="41.801363" lon="2.762295">
        <ele>77.5</ele>
        <time>2011-08-17T11:28:24Z</time>
      </trkpt>
      <trkpt lat="41.801886" lon="2.762561">
        <ele>79.0</ele>
        <time>2011-08-17T11:28:33Z</time>
      </trkpt>
      <trkpt lat="41.802376" lon="2.762851">
        <ele>79.9</ele>
        <time>2011-08-17T11:28:42Z</time>
      </trkpt>
      <trkpt lat="41.802903" lon="2.763152">
        <ele>81.8</ele>
        <time>2011-08-17T11:28:52Z</time>
      </trkpt>
      <trkpt lat="41.803009" lon="2.763208">
        <ele>81.8</ele>
        <time>2011-08-17T11:28:54Z</time>
      </trkpt>
      <trkpt lat="41.803307" lon="2.763345">
        <ele>82.8</ele>
        <time>2011-08-17T11:29:00Z</time>
      </trkpt>
      <trkpt lat="41.803480" lon="2.763391">
        <ele>83.3</ele>
        <time>2011-08-17T11:29:04Z</time>
      </trkpt>
      <trkpt lat="41.803567" lon="2.763497">
        <ele>82.3</ele>
        <time>2011-08-17T11:29:08Z</time>
      </trkpt>
      <trkpt lat="41.803525" lon="2.763563">
        <ele>82.8</ele>
        <time>2011-08-17T11:29:10Z</time>
      </trkpt>
      <trkpt lat="41.803467" lon="2.763629">
        <ele>83.8</ele>
        <time>2011-08-17T11:29:12Z</time>
      </trkpt>
      <trkpt lat="41.803331" lon="2.763964">
        <ele>83.3</ele>
        <time>2011-08-17T11:29:18Z</time>
      </trkpt>
      <trkpt lat="41.803341" lon="2.764390">
        <ele>82.8</ele>
        <time>2011-08-17T11:29:24Z</time>
      </trkpt>
      <trkpt lat="41.803447" lon="2.764708">
        <ele>83.3</ele>
        <time>2011-08-17T11:29:29Z</time>
      </trkpt>
      <trkpt lat="41.803534" lon="2.764888">
        <ele>83.8</ele>
        <time>2011-08-17T11:29:32Z</time>
      </trkpt>
      <trkpt lat="41.803583" lon="2.765303">
        <ele>85.7</ele>
        <time>2011-08-17T11:29:38Z</time>
      </trkpt>
      <trkpt lat="41.803486" lon="2.766246">
        <ele>85.2</ele>
        <time>2011-08-17T11:29:51Z</time>
      </trkpt>
      <trkpt lat="41.803412" lon="2.766869">
        <ele>85.2</ele>
        <time>2011-08-17T11:30:00Z</time>
      </trkpt>
      <trkpt lat="41.803326" lon="2.767629">
        <ele>86.7</ele>
        <time>2011-08-17T11:30:11Z</time>
      </trkpt>
      <trkpt lat="41.803236" lon="2.768375">
        <ele>89.1</ele>
        <time>2011-08-17T11:30:22Z</time>
      </trkpt>
      <trkpt lat="41.803144" lon="2.769089">
        <ele>90.0</ele>
        <time>2011-08-17T11:30:33Z</time>
      </trkpt>
      <trkpt lat="41.802990" lon="2.769678">
        <ele>91.0</ele>
        <time>2011-08-17T11:30:42Z</time>
      </trkpt>
      <trkpt lat="41.802710" lon="2.770227">
        <ele>90.5</ele>
        <time>2011-08-17T11:30:51Z</time>
      </trkpt>
      <trkpt lat="41.802297" lon="2.770700">
        <ele>91.0</ele>
        <time>2011-08-17T11:31:00Z</time>
      </trkpt>
      <trkpt lat="41.801794" lon="2.771197">
        <ele>90.5</ele>
        <time>2011-08-17T11:31:10Z</time>
      </trkpt>
      <trkpt lat="41.801460" lon="2.771493">
        <ele>91.0</ele>
        <time>2011-08-17T11:31:17Z</time>
      </trkpt>
      <trkpt lat="41.800985" lon="2.771910">
        <ele>91.9</ele>
        <time>2011-08-17T11:31:27Z</time>
      </trkpt>
      <trkpt lat="41.800530" lon="2.772321">
        <ele>91.5</ele>
        <time>2011-08-17T11:31:37Z</time>
      </trkpt>
      <trkpt lat="41.800094" lon="2.772686">
        <ele>91.9</ele>
        <time>2011-08-17T11:31:46Z</time>
      </trkpt>
      <trkpt lat="41.799717" lon="2.773034">
        <ele>92.4</ele>
        <time>2011-08-17T11:31:54Z</time>
      </trkpt>
      <trkpt lat="41.799226" lon="2.773463">
        <ele>93.9</ele>
        <time>2011-08-17T11:32:04Z</time>
      </trkpt>
      <trkpt lat="41.798783" lon="2.773850">
        <ele>93.9</ele>
        <time>2011-08-17T11:32:13Z</time>
      </trkpt>
      <trkpt lat="41.798358" lon="2.774255">
        <ele>93.4</ele>
        <time>2011-08-17T11:32:22Z</time>
      </trkpt>
      <trkpt lat="41.797858" lon="2.774746">
        <ele>93.4</ele>
        <time>2011-08-17T11:32:32Z</time>
      </trkpt>
      <trkpt lat="41.797375" lon="2.775158">
        <ele>93.9</ele>
        <time>2011-08-17T11:32:41Z</time>
      </trkpt>
      <trkpt lat="41.796944" lon="2.775479">
        <ele>93.4</ele>
        <time>2011-08-17T11:32:49Z</time>
      </trkpt>
      <trkpt lat="41.796509" lon="2.775673">
        <ele>91.0</ele>
        <time>2011-08-17T11:32:57Z</time>
      </trkpt>
      <trkpt lat="41.796041" lon="2.775892">
        <ele>91.5</ele>
        <time>2011-08-17T11:33:06Z</time>
      </trkpt>
      <trkpt lat="41.795476" lon="2.776118">
        <ele>90.5</ele>
        <time>2011-08-17T11:33:16Z</time>
      </trkpt>
      <trkpt lat="41.794760" lon="2.776405">
        <ele>89.5</ele>
        <time>2011-08-17T11:33:28Z</time>
      </trkpt>
      <trkpt lat="41.794519" lon="2.776500">
        <ele>89.1</ele>
        <time>2011-08-17T11:33:32Z</time>
      </trkpt>
      <trkpt lat="41.794338" lon="2.776476">
        <ele>88.6</ele>
        <time>2011-08-17T11:33:35Z</time>
      </trkpt>
      <trkpt lat="41.794135" lon="2.776569">
        <ele>88.1</ele>
        <time>2011-08-17T11:33:39Z</time>
      </trkpt>
      <trkpt lat="41.793883" lon="2.776757">
        <ele>89.1</ele>
        <time>2011-08-17T11:33:44Z</time>
      </trkpt>
      <trkpt lat="41.793303" lon="2.776948">
        <ele>88.6</ele>
        <time>2011-08-17T11:33:55Z</time>
      </trkpt>
      <trkpt lat="41.792750" lon="2.777071">
        <ele>85.7</ele>
        <time>2011-08-17T11:34:04Z</time>
      </trkpt>
      <trkpt lat="41.792114" lon="2.777182">
        <ele>82.8</ele>
        <time>2011-08-17T11:34:14Z</time>
      </trkpt>
      <trkpt lat="41.791584" lon="2.777284">
        <ele>83.8</ele>
        <time>2011-08-17T11:34:23Z</time>
      </trkpt>
      <trkpt lat="41.790975" lon="2.777393">
        <ele>86.2</ele>
        <time>2011-08-17T11:34:34Z</time>
      </trkpt>
      <trkpt lat="41.790600" lon="2.777458">
        <ele>87.6</ele>
        <time>2011-08-17T11:34:42Z</time>
      </trkpt>
      <trkpt lat="41.790323" lon="2.777508">
        <ele>88.6</ele>
        <time>2011-08-17T11:34:48Z</time>
      </trkpt>
      <trkpt lat="41.790135" lon="2.777585">
        <ele>89.1</ele>
        <time>2011-08-17T11:34:53Z</time>
      </trkpt>
      <trkpt lat="41.790134" lon="2.777771">
        <ele>88.1</ele>
        <time>2011-08-17T11:34:57Z</time>
      </trkpt>
      <trkpt lat="41.790241" lon="2.778131">
        <ele>87.1</ele>
        <time>2011-08-17T11:35:05Z</time>
      </trkpt>
      <trkpt lat="41.790277" lon="2.778382">
        <ele>87.6</ele>
        <time>2011-08-17T11:35:12Z</time>
      </trkpt>
      <trkpt lat="41.790335" lon="2.778663">
        <ele>86.7</ele>
        <time>2011-08-17T11:35:18Z</time>
      </trkpt>
      <trkpt lat="41.790392" lon="2.778980">
        <ele>85.2</ele>
        <time>2011-08-17T11:35:25Z</time>
      </trkpt>
      <trkpt lat="41.790429" lon="2.779257">
        <ele>86.2</ele>
        <time>2011-08-17T11:35:31Z</time>
      </trkpt>
      <trkpt lat="41.790444" lon="2.779559">
        <ele>87.1</ele>
        <time>2011-08-17T11:35:38Z</time>
      </trkpt>
      <trkpt lat="41.790344" lon="2.779816">
        <ele>89.5</ele>
        <time>2011-08-17T11:35:44Z</time>
      </trkpt>
      <trkpt lat="41.790248" lon="2.780138">
        <ele>92.9</ele>
        <time>2011-08-17T11:35:51Z</time>
      </trkpt>
      <trkpt lat="41.790105" lon="2.780377">
        <ele>94.8</ele>
        <time>2011-08-17T11:35:57Z</time>
      </trkpt>
      <trkpt lat="41.789927" lon="2.780732">
        <ele>93.4</ele>
        <time>2011-08-17T11:36:05Z</time>
      </trkpt>
      <trkpt lat="41.789920" lon="2.780776">
        <ele>93.4</ele>
        <time>2011-08-17T11:36:06Z</time>
      </trkpt>
      <trkpt lat="41.789970" lon="2.780923">
        <ele>91.9</ele>
        <time>2011-08-17T11:36:10Z</time>
      </trkpt>
      <trkpt lat="41.790151" lon="2.781110">
        <ele>91.0</ele>
        <time>2011-08-17T11:36:18Z</time>
      </trkpt>
      <trkpt lat="41.790218" lon="2.781212">
        <ele>91.9</ele>
        <time>2011-08-17T11:36:21Z</time>
      </trkpt>
      <trkpt lat="41.790358" lon="2.781457">
        <ele>89.5</ele>
        <time>2011-08-17T11:36:28Z</time>
      </trkpt>
      <trkpt lat="41.790419" lon="2.781588">
        <ele>89.1</ele>
        <time>2011-08-17T11:36:31Z</time>
      </trkpt>
      <trkpt lat="41.790454" lon="2.781804">
        <ele>89.5</ele>
        <time>2011-08-17T11:36:35Z</time>
      </trkpt>
      <trkpt lat="41.790437" lon="2.782042">
        <ele>87.1</ele>
        <time>2011-08-17T11:36:39Z</time>
      </trkpt>
      <trkpt lat="41.790422" lon="2.782163">
        <ele>86.7</ele>
        <time>2011-08-17T11:36:41Z</time>
      </trkpt>
      <trkpt lat="41.790423" lon="2.782349">
        <ele>85.7</ele>
        <time>2011-08-17T11:36:44Z</time>
      </trkpt>
      <trkpt lat="41.790349" lon="2.782894">
        <ele>85.7</ele>
        <time>2011-08-17T11:36:54Z</time>
      </trkpt>
      <trkpt lat="41.790323" lon="2.783039">
        <ele>86.2</ele>
        <time>2011-08-17T11:36:57Z</time>
      </trkpt>
      <trkpt lat="41.790262" lon="2.783539">
        <ele>87.1</ele>
        <time>2011-08-17T11:37:05Z</time>
      </trkpt>
      <trkpt lat="41.790215" lon="2.783939">
        <ele>87.6</ele>
        <time>2011-08-17T11:37:12Z</time>
      </trkpt>
      <trkpt lat="41.790165" lon="2.784418">
        <ele>87.1</ele>
        <time>2011-08-17T11:37:20Z</time>
      </trkpt>
      <trkpt lat="41.790095" lon="2.784873">
        <ele>87.1</ele>
        <time>2011-08-17T11:37:28Z</time>
      </trkpt>
      <trkpt lat="41.790067" lon="2.785036">
        <ele>86.7</ele>
        <time>2011-08-17T11:37:31Z</time>
      </trkpt>
      <trkpt lat="41.790037" lon="2.785384">
        <ele>85.7</ele>
        <time>2011-08-17T11:37:37Z</time>
      </trkpt>
      <trkpt lat="41.789999" lon="2.785539">
        <ele>85.2</ele>
        <time>2011-08-17T11:37:40Z</time>
      </trkpt>
      <trkpt lat="41.789913" lon="2.785724">
        <ele>83.8</ele>
        <time>2011-08-17T11:37:44Z</time>
      </trkpt>
      <trkpt lat="41.789784" lon="2.785909">
        <ele>83.3</ele>
        <time>2011-08-17T11:37:49Z</time>
      </trkpt>
      <trkpt lat="41.789594" lon="2.786015">
        <ele>81.4</ele>
        <time>2011-08-17T11:37:54Z</time>
      </trkpt>
      <trkpt lat="41.789369" lon="2.786291">
        <ele>82.8</ele>
        <time>2011-08-17T11:38:00Z</time>
      </trkpt>
      <trkpt lat="41.789059" lon="2.786626">
        <ele>84.3</ele>
        <time>2011-08-17T11:38:09Z</time>
      </trkpt>
      <trkpt lat="41.788894" lon="2.786750">
        <ele>85.7</ele>
        <time>2011-08-17T11:38:13Z</time>
      </trkpt>
      <trkpt lat="41.788590" lon="2.786874">
        <ele>88.6</ele>
        <time>2011-08-17T11:38:21Z</time>
      </trkpt>
      <trkpt lat="41.788415" lon="2.786946">
        <ele>88.6</ele>
        <time>2011-08-17T11:38:26Z</time>
      </trkpt>
      <trkpt lat="41.788212" lon="2.786886">
        <ele>88.6</ele>
        <time>2011-08-17T11:38:31Z</time>
      </trkpt>
      <trkpt lat="41.788183" lon="2.786701">
        <ele>88.6</ele>
        <time>2011-08-17T11:38:34Z</time>
      </trkpt>
      <trkpt lat="41.788113" lon="2.786083">
        <ele>88.1</ele>
        <time>2011-08-17T11:38:43Z</time>
      </trkpt>
      <trkpt lat="41.788083" lon="2.785652">
        <ele>86.7</ele>
        <time>2011-08-17T11:38:49Z</time>
      </trkpt>
      <trkpt lat="41.788077" lon="2.785019">
        <ele>84.3</ele>
        <time>2011-08-17T11:38:58Z</time>
      </trkpt>
      <trkpt lat="41.788124" lon="2.784308">
        <ele>81.8</ele>
        <time>2011-08-17T11:39:07Z</time>
      </trkpt>
      <trkpt lat="41.788090" lon="2.783802">
        <ele>82.3</ele>
        <time>2011-08-17T11:39:14Z</time>
      </trkpt>
      <trkpt lat="41.788021" lon="2.783547">
        <ele>83.3</ele>
        <time>2011-08-17T11:39:18Z</time>
      </trkpt>
      <trkpt lat="41.787945" lon="2.783320">
        <ele>83.8</ele>
        <time>2011-08-17T11:39:22Z</time>
      </trkpt>
      <trkpt lat="41.787775" lon="2.782884">
        <ele>84.7</ele>
        <time>2011-08-17T11:39:30Z</time>
      </trkpt>
      <trkpt lat="41.787668" lon="2.782604">
        <ele>84.7</ele>
        <time>2011-08-17T11:39:35Z</time>
      </trkpt>
      <trkpt lat="41.787514" lon="2.782445">
        <ele>86.7</ele>
        <time>2011-08-17T11:39:40Z</time>
      </trkpt>
      <trkpt lat="41.787364" lon="2.782577">
        <ele>84.7</ele>
        <time>2011-08-17T11:39:44Z</time>
      </trkpt>
      <trkpt lat="41.787001" lon="2.782928">
        <ele>86.2</ele>
        <time>2011-08-17T11:39:53Z</time>
      </trkpt>
      <trkpt lat="41.786584" lon="2.783250">
        <ele>84.7</ele>
        <time>2011-08-17T11:40:03Z</time>
      </trkpt>
      <trkpt lat="41.786379" lon="2.783425">
        <ele>85.2</ele>
        <time>2011-08-17T11:40:08Z</time>
      </trkpt>
      <trkpt lat="41.786258" lon="2.783538">
        <ele>86.2</ele>
        <time>2011-08-17T11:40:11Z</time>
      </trkpt>
      <trkpt lat="41.785953" lon="2.783706">
        <ele>87.1</ele>
        <time>2011-08-17T11:40:19Z</time>
      </trkpt>
      <trkpt lat="41.785862" lon="2.783902">
        <ele>88.1</ele>
        <time>2011-08-17T11:40:24Z</time>
      </trkpt>
      <trkpt lat="41.785747" lon="2.784232">
        <ele>91.0</ele>
        <time>2011-08-17T11:40:32Z</time>
      </trkpt>
      <trkpt lat="41.785525" lon="2.784371">
        <ele>92.4</ele>
        <time>2011-08-17T11:40:40Z</time>
      </trkpt>
      <trkpt lat="41.785342" lon="2.784493">
        <ele>92.4</ele>
        <time>2011-08-17T11:40:46Z</time>
      </trkpt>
      <trkpt lat="41.785219" lon="2.784774">
        <ele>89.5</ele>
        <time>2011-08-17T11:40:51Z</time>
      </trkpt>
      <trkpt lat="41.785141" lon="2.785156">
        <ele>85.2</ele>
        <time>2011-08-17T11:40:55Z</time>
      </trkpt>
      <trkpt lat="41.784916" lon="2.785679">
        <ele>86.2</ele>
        <time>2011-08-17T11:41:01Z</time>
      </trkpt>
      <trkpt lat="41.784732" lon="2.786028">
        <ele>85.2</ele>
        <time>2011-08-17T11:41:07Z</time>
      </trkpt>
      <trkpt lat="41.784467" lon="2.786527">
        <ele>85.7</ele>
        <time>2011-08-17T11:41:16Z</time>
      </trkpt>
      <trkpt lat="41.784276" lon="2.786911">
        <ele>85.7</ele>
        <time>2011-08-17T11:41:23Z</time>
      </trkpt>
      <trkpt lat="41.784122" lon="2.787229">
        <ele>86.2</ele>
        <time>2011-08-17T11:41:29Z</time>
      </trkpt>
      <trkpt lat="41.783846" lon="2.787731">
        <ele>86.7</ele>
        <time>2011-08-17T11:41:39Z</time>
      </trkpt>
      <trkpt lat="41.783543" lon="2.788160">
        <ele>87.1</ele>
        <time>2011-08-17T11:41:48Z</time>
      </trkpt>
      <trkpt lat="41.783300" lon="2.788587">
        <ele>87.1</ele>
        <time>2011-08-17T11:41:56Z</time>
      </trkpt>
      <trkpt lat="41.783106" lon="2.789231">
        <ele>87.1</ele>
        <time>2011-08-17T11:42:06Z</time>
      </trkpt>
      <trkpt lat="41.783008" lon="2.790033">
        <ele>87.1</ele>
        <time>2011-08-17T11:42:18Z</time>
      </trkpt>
      <trkpt lat="41.782960" lon="2.790659">
        <ele>87.1</ele>
        <time>2011-08-17T11:42:27Z</time>
      </trkpt>
      <trkpt lat="41.782957" lon="2.790730">
        <ele>87.1</ele>
        <time>2011-08-17T11:42:28Z</time>
      </trkpt>
      <trkpt lat="41.782905" lon="2.791489">
        <ele>88.1</ele>
        <time>2011-08-17T11:42:39Z</time>
      </trkpt>
      <trkpt lat="41.782884" lon="2.791824">
        <ele>88.6</ele>
        <time>2011-08-17T11:42:44Z</time>
      </trkpt>
      <trkpt lat="41.782832" lon="2.792135">
        <ele>89.5</ele>
        <time>2011-08-17T11:42:49Z</time>
      </trkpt>
      <trkpt lat="41.782789" lon="2.792324">
        <ele>89.1</ele>
        <time>2011-08-17T11:42:52Z</time>
      </trkpt>
      <trkpt lat="41.782752" lon="2.792450">
        <ele>88.6</ele>
        <time>2011-08-17T11:42:54Z</time>
      </trkpt>
      <trkpt lat="41.782632" lon="2.792618">
        <ele>87.1</ele>
        <time>2011-08-17T11:42:58Z</time>
      </trkpt>
      <trkpt lat="41.782503" lon="2.792680">
        <ele>86.7</ele>
        <time>2011-08-17T11:43:01Z</time>
      </trkpt>
      <trkpt lat="41.782215" lon="2.792806">
        <ele>85.7</ele>
        <time>2011-08-17T11:43:09Z</time>
      </trkpt>
      <trkpt lat="41.781945" lon="2.792897">
        <ele>85.7</ele>
        <time>2011-08-17T11:43:16Z</time>
      </trkpt>
      <trkpt lat="41.781572" lon="2.793079">
        <ele>87.1</ele>
        <time>2011-08-17T11:43:24Z</time>
      </trkpt>
      <trkpt lat="41.781139" lon="2.793384">
        <ele>91.0</ele>
        <time>2011-08-17T11:43:34Z</time>
      </trkpt>
      <trkpt lat="41.781022" lon="2.793510">
        <ele>92.4</ele>
        <time>2011-08-17T11:43:37Z</time>
      </trkpt>
      <trkpt lat="41.780672" lon="2.793911">
        <ele>94.3</ele>
        <time>2011-08-17T11:43:47Z</time>
      </trkpt>
      <trkpt lat="41.780355" lon="2.794289">
        <ele>96.3</ele>
        <time>2011-08-17T11:43:56Z</time>
      </trkpt>
      <trkpt lat="41.780056" lon="2.794686">
        <ele>97.2</ele>
        <time>2011-08-17T11:44:05Z</time>
      </trkpt>
      <trkpt lat="41.780031" lon="2.794731">
        <ele>97.2</ele>
        <time>2011-08-17T11:44:06Z</time>
      </trkpt>
      <trkpt lat="41.779946" lon="2.795077">
        <ele>96.3</ele>
        <time>2011-08-17T11:44:13Z</time>
      </trkpt>
      <trkpt lat="41.779932" lon="2.795602">
        <ele>97.2</ele>
        <time>2011-08-17T11:44:23Z</time>
      </trkpt>
      <trkpt lat="41.779898" lon="2.796047">
        <ele>98.7</ele>
        <time>2011-08-17T11:44:31Z</time>
      </trkpt>
      <trkpt lat="41.779896" lon="2.796159">
        <ele>98.2</ele>
        <time>2011-08-17T11:44:33Z</time>
      </trkpt>
      <trkpt lat="41.779869" lon="2.796752">
        <ele>98.7</ele>
        <time>2011-08-17T11:44:43Z</time>
      </trkpt>
      <trkpt lat="41.779874" lon="2.797203">
        <ele>98.7</ele>
        <time>2011-08-17T11:44:52Z</time>
      </trkpt>
      <trkpt lat="41.779887" lon="2.797544">
        <ele>97.7</ele>
        <time>2011-08-17T11:45:00Z</time>
      </trkpt>
      <trkpt lat="41.779957" lon="2.798084">
        <ele>96.7</ele>
        <time>2011-08-17T11:45:10Z</time>
      </trkpt>
      <trkpt lat="41.780036" lon="2.798402">
        <ele>96.7</ele>
        <time>2011-08-17T11:45:17Z</time>
      </trkpt>
      <trkpt lat="41.780157" lon="2.798720">
        <ele>95.8</ele>
        <time>2011-08-17T11:45:24Z</time>
      </trkpt>
      <trkpt lat="41.780202" lon="2.798976">
        <ele>96.7</ele>
        <time>2011-08-17T11:45:29Z</time>
      </trkpt>
      <trkpt lat="41.780167" lon="2.799274">
        <ele>97.2</ele>
        <time>2011-08-17T11:45:34Z</time>
      </trkpt>
      <trkpt lat="41.780111" lon="2.799528">
        <ele>95.3</ele>
        <time>2011-08-17T11:45:40Z</time>
      </trkpt>
      <trkpt lat="41.780095" lon="2.799781">
        <ele>96.3</ele>
        <time>2011-08-17T11:45:47Z</time>
      </trkpt>
      <trkpt lat="41.780104" lon="2.800086">
        <ele>96.7</ele>
        <time>2011-08-17T11:45:54Z</time>
      </trkpt>
      <trkpt lat="41.780127" lon="2.800425">
        <ele>99.6</ele>
        <time>2011-08-17T11:46:02Z</time>
      </trkpt>
      <trkpt lat="41.780106" lon="2.800747">
        <ele>100.1</ele>
        <time>2011-08-17T11:46:09Z</time>
      </trkpt>
      <trkpt lat="41.780044" lon="2.800980">
        <ele>99.6</ele>
        <time>2011-08-17T11:46:16Z</time>
      </trkpt>
      <trkpt lat="41.780033" lon="2.801167">
        <ele>101.1</ele>
        <time>2011-08-17T11:46:22Z</time>
      </trkpt>
      <trkpt lat="41.780011" lon="2.801558">
        <ele>102.5</ele>
        <time>2011-08-17T11:46:32Z</time>
      </trkpt>
      <trkpt lat="41.779972" lon="2.801747">
        <ele>101.6</ele>
        <time>2011-08-17T11:46:39Z</time>
      </trkpt>
      <trkpt lat="41.779873" lon="2.801966">
        <ele>100.6</ele>
        <time>2011-08-17T11:46:47Z</time>
      </trkpt>
      <trkpt lat="41.779777" lon="2.802115">
        <ele>103.5</ele>
        <time>2011-08-17T11:46:54Z</time>
      </trkpt>
      <trkpt lat="41.779644" lon="2.802255">
        <ele>105.4</ele>
        <time>2011-08-17T11:47:02Z</time>
      </trkpt>
      <trkpt lat="41.779511" lon="2.802452">
        <ele>109.2</ele>
        <time>2011-08-17T11:47:11Z</time>
      </trkpt>
      <trkpt lat="41.779457" lon="2.802672">
        <ele>110.2</ele>
        <time>2011-08-17T11:47:19Z</time>
      </trkpt>
      <trkpt lat="41.779465" lon="2.802886">
        <ele>115.0</ele>
        <time>2011-08-17T11:47:27Z</time>
      </trkpt>
      <trkpt lat="41.779516" lon="2.803157">
        <ele>116.5</ele>
        <time>2011-08-17T11:47:36Z</time>
      </trkpt>
      <trkpt lat="41.779551" lon="2.803443">
        <ele>117.4</ele>
        <time>2011-08-17T11:47:46Z</time>
      </trkpt>
      <trkpt lat="41.779499" lon="2.803684">
        <ele>118.9</ele>
        <time>2011-08-17T11:47:53Z</time>
      </trkpt>
      <trkpt lat="41.779412" lon="2.803882">
        <ele>121.7</ele>
        <time>2011-08-17T11:48:00Z</time>
      </trkpt>
      <trkpt lat="41.779255" lon="2.804119">
        <ele>125.6</ele>
        <time>2011-08-17T11:48:09Z</time>
      </trkpt>
      <trkpt lat="41.779144" lon="2.804324">
        <ele>124.1</ele>
        <time>2011-08-17T11:48:16Z</time>
      </trkpt>
      <trkpt lat="41.779035" lon="2.804630">
        <ele>127.5</ele>
        <time>2011-08-17T11:48:25Z</time>
      </trkpt>
      <trkpt lat="41.778964" lon="2.804895">
        <ele>126.6</ele>
        <time>2011-08-17T11:48:33Z</time>
      </trkpt>
      <trkpt lat="41.778818" lon="2.805110">
        <ele>126.6</ele>
        <time>2011-08-17T11:48:40Z</time>
      </trkpt>
      <trkpt lat="41.778652" lon="2.805349">
        <ele>127.5</ele>
        <time>2011-08-17T11:48:48Z</time>
      </trkpt>
      <trkpt lat="41.778550" lon="2.805609">
        <ele>129.4</ele>
        <time>2011-08-17T11:48:55Z</time>
      </trkpt>
      <trkpt lat="41.778505" lon="2.805879">
        <ele>128.0</ele>
        <time>2011-08-17T11:49:02Z</time>
      </trkpt>
      <trkpt lat="41.778456" lon="2.806030">
        <ele>126.6</ele>
        <time>2011-08-17T11:49:07Z</time>
      </trkpt>
      <trkpt lat="41.778377" lon="2.806245">
        <ele>127.5</ele>
        <time>2011-08-17T11:49:15Z</time>
      </trkpt>
      <trkpt lat="41.778329" lon="2.806415">
        <ele>126.1</ele>
        <time>2011-08-17T11:49:23Z</time>
      </trkpt>
      <trkpt lat="41.778239" lon="2.806634">
        <ele>124.6</ele>
        <time>2011-08-17T11:49:30Z</time>
      </trkpt>
      <trkpt lat="41.778211" lon="2.806680">
        <ele>124.6</ele>
        <time>2011-08-17T11:49:31Z</time>
      </trkpt>
      <trkpt lat="41.778145" lon="2.806753">
        <ele>123.7</ele>
        <time>2011-08-17T11:49:33Z</time>
      </trkpt>
      <trkpt lat="41.777985" lon="2.806910">
        <ele>121.7</ele>
        <time>2011-08-17T11:49:37Z</time>
      </trkpt>
      <trkpt lat="41.777775" lon="2.807243">
        <ele>121.3</ele>
        <time>2011-08-17T11:49:44Z</time>
      </trkpt>
      <trkpt lat="41.777678" lon="2.807595">
        <ele>125.1</ele>
        <time>2011-08-17T11:49:52Z</time>
      </trkpt>
      <trkpt lat="41.777638" lon="2.807846">
        <ele>125.6</ele>
        <time>2011-08-17T11:49:58Z</time>
      </trkpt>
      <trkpt lat="41.777598" lon="2.808139">
        <ele>126.1</ele>
        <time>2011-08-17T11:50:05Z</time>
      </trkpt>
      <trkpt lat="41.777544" lon="2.808684">
        <ele>129.9</ele>
        <time>2011-08-17T11:50:17Z</time>
      </trkpt>
      <trkpt lat="41.777526" lon="2.809142">
        <ele>132.3</ele>
        <time>2011-08-17T11:50:27Z</time>
      </trkpt>
      <trkpt lat="41.777503" lon="2.809442">
        <ele>134.2</ele>
        <time>2011-08-17T11:50:34Z</time>
      </trkpt>
      <trkpt lat="41.777508" lon="2.809781">
        <ele>138.1</ele>
        <time>2011-08-17T11:50:42Z</time>
      </trkpt>
      <trkpt lat="41.777546" lon="2.810069">
        <ele>140.5</ele>
        <time>2011-08-17T11:50:49Z</time>
      </trkpt>
      <trkpt lat="41.777551" lon="2.810385">
        <ele>141.9</ele>
        <time>2011-08-17T11:50:57Z</time>
      </trkpt>
      <trkpt lat="41.777472" lon="2.810679">
        <ele>145.3</ele>
        <time>2011-08-17T11:51:05Z</time>
      </trkpt>
      <trkpt lat="41.777377" lon="2.810960">
        <ele>145.8</ele>
        <time>2011-08-17T11:51:13Z</time>
      </trkpt>
      <trkpt lat="41.777272" lon="2.811298">
        <ele>147.7</ele>
        <time>2011-08-17T11:51:22Z</time>
      </trkpt>
      <trkpt lat="41.777189" lon="2.811586">
        <ele>149.1</ele>
        <time>2011-08-17T11:51:30Z</time>
      </trkpt>
      <trkpt lat="41.777080" lon="2.811854">
        <ele>151.1</ele>
        <time>2011-08-17T11:51:38Z</time>
      </trkpt>
      <trkpt lat="41.776915" lon="2.812158">
        <ele>155.9</ele>
        <time>2011-08-17T11:51:48Z</time>
      </trkpt>
      <trkpt lat="41.776744" lon="2.812357">
        <ele>157.8</ele>
        <time>2011-08-17T11:51:57Z</time>
      </trkpt>
      <trkpt lat="41.776521" lon="2.812459">
        <ele>157.8</ele>
        <time>2011-08-17T11:52:06Z</time>
      </trkpt>
      <trkpt lat="41.776347" lon="2.812463">
        <ele>158.8</ele>
        <time>2011-08-17T11:52:13Z</time>
      </trkpt>
      <trkpt lat="41.776160" lon="2.812536">
        <ele>159.7</ele>
        <time>2011-08-17T11:52:22Z</time>
      </trkpt>
      <trkpt lat="41.776041" lon="2.812666">
        <ele>162.6</ele>
        <time>2011-08-17T11:52:29Z</time>
      </trkpt>
      <trkpt lat="41.775896" lon="2.812817">
        <ele>164.0</ele>
        <time>2011-08-17T11:52:38Z</time>
      </trkpt>
      <trkpt lat="41.775766" lon="2.812879">
        <ele>166.9</ele>
        <time>2011-08-17T11:52:45Z</time>
      </trkpt>
      <trkpt lat="41.775663" lon="2.812922">
        <ele>169.3</ele>
        <time>2011-08-17T11:52:51Z</time>
      </trkpt>
      <trkpt lat="41.775615" lon="2.813040">
        <ele>170.8</ele>
        <time>2011-08-17T11:52:57Z</time>
      </trkpt>
      <trkpt lat="41.775675" lon="2.813216">
        <ele>172.2</ele>
        <time>2011-08-17T11:53:04Z</time>
      </trkpt>
      <trkpt lat="41.775785" lon="2.813421">
        <ele>175.1</ele>
        <time>2011-08-17T11:53:13Z</time>
      </trkpt>
      <trkpt lat="41.775902" lon="2.813633">
        <ele>176.5</ele>
        <time>2011-08-17T11:53:22Z</time>
      </trkpt>
      <trkpt lat="41.775996" lon="2.813829">
        <ele>177.0</ele>
        <time>2011-08-17T11:53:30Z</time>
      </trkpt>
      <trkpt lat="41.776056" lon="2.814045">
        <ele>180.4</ele>
        <time>2011-08-17T11:53:38Z</time>
      </trkpt>
      <trkpt lat="41.776077" lon="2.814228">
        <ele>182.3</ele>
        <time>2011-08-17T11:53:45Z</time>
      </trkpt>
      <trkpt lat="41.776067" lon="2.814474">
        <ele>185.2</ele>
        <time>2011-08-17T11:53:54Z</time>
      </trkpt>
      <trkpt lat="41.776058" lon="2.814673">
        <ele>187.6</ele>
        <time>2011-08-17T11:54:01Z</time>
      </trkpt>
      <trkpt lat="41.776078" lon="2.814874">
        <ele>189.5</ele>
        <time>2011-08-17T11:54:08Z</time>
      </trkpt>
      <trkpt lat="41.776117" lon="2.815078">
        <ele>189.5</ele>
        <time>2011-08-17T11:54:15Z</time>
      </trkpt>
      <trkpt lat="41.776076" lon="2.815317">
        <ele>191.0</ele>
        <time>2011-08-17T11:54:23Z</time>
      </trkpt>
      <trkpt lat="41.776011" lon="2.815597">
        <ele>193.8</ele>
        <time>2011-08-17T11:54:32Z</time>
      </trkpt>
      <trkpt lat="41.776017" lon="2.815788">
        <ele>193.4</ele>
        <time>2011-08-17T11:54:38Z</time>
      </trkpt>
      <trkpt lat="41.776008" lon="2.815789">
        <ele>194.3</ele>
        <time>2011-08-17T11:54:42Z</time>
      </trkpt>
      <trkpt lat="41.776010" lon="2.815826">
        <ele>194.8</ele>
        <time>2011-08-17T11:54:43Z</time>
      </trkpt>
      <trkpt lat="41.775997" lon="2.816281">
        <ele>195.8</ele>
        <time>2011-08-17T11:54:53Z</time>
      </trkpt>
      <trkpt lat="41.775949" lon="2.816643">
        <ele>194.8</ele>
        <time>2011-08-17T11:55:02Z</time>
      </trkpt>
      <trkpt lat="41.775809" lon="2.816879">
        <ele>194.8</ele>
        <time>2011-08-17T11:55:10Z</time>
      </trkpt>
      <trkpt lat="41.775663" lon="2.817127">
        <ele>194.3</ele>
        <time>2011-08-17T11:55:18Z</time>
      </trkpt>
      <trkpt lat="41.775559" lon="2.817276">
        <ele>193.4</ele>
        <time>2011-08-17T11:55:24Z</time>
      </trkpt>
      <trkpt lat="41.775470" lon="2.817373">
        <ele>191.9</ele>
        <time>2011-08-17T11:55:30Z</time>
      </trkpt>
      <trkpt lat="41.775439" lon="2.817414">
        <ele>191.9</ele>
        <time>2011-08-17T11:55:33Z</time>
      </trkpt>
      <trkpt lat="41.775419" lon="2.817510">
        <ele>191.0</ele>
        <time>2011-08-17T11:55:38Z</time>
      </trkpt>
      <trkpt lat="41.775399" lon="2.817529">
        <ele>190.5</ele>
        <time>2011-08-17T11:55:40Z</time>
      </trkpt>
      <trkpt lat="41.775388" lon="2.817560">
        <ele>191.0</ele>
        <time>2011-08-17T11:55:47Z</time>
      </trkpt>
      <trkpt lat="41.775391" lon="2.817561">
        <ele>191.0</ele>
        <time>2011-08-17T11:56:22Z</time>
      </trkpt>
      <trkpt lat="41.775364" lon="2.817590">
        <ele>191.4</ele>
        <time>2011-08-17T11:56:36Z</time>
      </trkpt>
      <trkpt lat="41.775357" lon="2.817616">
        <ele>191.4</ele>
        <time>2011-08-17T11:56:58Z</time>
      </trkpt>
      <trkpt lat="41.775344" lon="2.817659">
        <ele>193.4</ele>
        <time>2011-08-17T11:57:05Z</time>
      </trkpt>
      <trkpt lat="41.775263" lon="2.818009">
        <ele>193.4</ele>
        <time>2011-08-17T11:57:14Z</time>
      </trkpt>
      <trkpt lat="41.775228" lon="2.818337">
        <ele>196.2</ele>
        <time>2011-08-17T11:57:23Z</time>
      </trkpt>
      <trkpt lat="41.775172" lon="2.818651">
        <ele>197.7</ele>
        <time>2011-08-17T11:57:32Z</time>
      </trkpt>
      <trkpt lat="41.775087" lon="2.818904">
        <ele>199.6</ele>
        <time>2011-08-17T11:57:40Z</time>
      </trkpt>
      <trkpt lat="41.774968" lon="2.819132">
        <ele>201.5</ele>
        <time>2011-08-17T11:57:48Z</time>
      </trkpt>
      <trkpt lat="41.774840" lon="2.819384">
        <ele>201.5</ele>
        <time>2011-08-17T11:57:56Z</time>
      </trkpt>
      <trkpt lat="41.774681" lon="2.819520">
        <ele>203.0</ele>
        <time>2011-08-17T11:58:03Z</time>
      </trkpt>
      <trkpt lat="41.774520" lon="2.819584">
        <ele>203.9</ele>
        <time>2011-08-17T11:58:10Z</time>
      </trkpt>
      <trkpt lat="41.774370" lon="2.819690">
        <ele>203.9</ele>
        <time>2011-08-17T11:58:17Z</time>
      </trkpt>
      <trkpt lat="41.774243" lon="2.819881">
        <ele>207.3</ele>
        <time>2011-08-17T11:58:24Z</time>
      </trkpt>
      <trkpt lat="41.774197" lon="2.820041">
        <ele>210.2</ele>
        <time>2011-08-17T11:58:30Z</time>
      </trkpt>
      <trkpt lat="41.774114" lon="2.820278">
        <ele>212.1</ele>
        <time>2011-08-17T11:58:38Z</time>
      </trkpt>
      <trkpt lat="41.774074" lon="2.820535">
        <ele>213.1</ele>
        <time>2011-08-17T11:58:46Z</time>
      </trkpt>
      <trkpt lat="41.774110" lon="2.820851">
        <ele>215.0</ele>
        <time>2011-08-17T11:58:55Z</time>
      </trkpt>
      <trkpt lat="41.774228" lon="2.821167">
        <ele>215.5</ele>
        <time>2011-08-17T11:59:05Z</time>
      </trkpt>
      <trkpt lat="41.774324" lon="2.821399">
        <ele>215.5</ele>
        <time>2011-08-17T11:59:13Z</time>
      </trkpt>
      <trkpt lat="41.774451" lon="2.821680">
        <ele>216.0</ele>
        <time>2011-08-17T11:59:22Z</time>
      </trkpt>
      <trkpt lat="41.774577" lon="2.821961">
        <ele>216.9</ele>
        <time>2011-08-17T11:59:31Z</time>
      </trkpt>
      <trkpt lat="41.774720" lon="2.822321">
        <ele>218.4</ele>
        <time>2011-08-17T11:59:42Z</time>
      </trkpt>
      <trkpt lat="41.774789" lon="2.822644">
        <ele>220.3</ele>
        <time>2011-08-17T11:59:51Z</time>
      </trkpt>
      <trkpt lat="41.774806" lon="2.822835">
        <ele>222.2</ele>
        <time>2011-08-17T11:59:57Z</time>
      </trkpt>
      <trkpt lat="41.774861" lon="2.823026">
        <ele>224.1</ele>
        <time>2011-08-17T12:00:04Z</time>
      </trkpt>
      <trkpt lat="41.774892" lon="2.823237">
        <ele>226.5</ele>
        <time>2011-08-17T12:00:12Z</time>
      </trkpt>
      <trkpt lat="41.774935" lon="2.823417">
        <ele>227.5</ele>
        <time>2011-08-17T12:00:19Z</time>
      </trkpt>
      <trkpt lat="41.774980" lon="2.823628">
        <ele>230.4</ele>
        <time>2011-08-17T12:00:27Z</time>
      </trkpt>
      <trkpt lat="41.775004" lon="2.823853">
        <ele>231.3</ele>
        <time>2011-08-17T12:00:35Z</time>
      </trkpt>
      <trkpt lat="41.775073" lon="2.824054">
        <ele>233.7</ele>
        <time>2011-08-17T12:00:43Z</time>
      </trkpt>
      <trkpt lat="41.775131" lon="2.824199">
        <ele>234.2</ele>
        <time>2011-08-17T12:00:49Z</time>
      </trkpt>
      <trkpt lat="41.775199" lon="2.824450">
        <ele>236.1</ele>
        <time>2011-08-17T12:00:59Z</time>
      </trkpt>
      <trkpt lat="41.775232" lon="2.824703">
        <ele>237.1</ele>
        <time>2011-08-17T12:01:08Z</time>
      </trkpt>
      <trkpt lat="41.775233" lon="2.824961">
        <ele>239.0</ele>
        <time>2011-08-17T12:01:17Z</time>
      </trkpt>
      <trkpt lat="41.775214" lon="2.825275">
        <ele>239.0</ele>
        <time>2011-08-17T12:01:28Z</time>
      </trkpt>
      <trkpt lat="41.775224" lon="2.825501">
        <ele>239.0</ele>
        <time>2011-08-17T12:01:36Z</time>
      </trkpt>
      <trkpt lat="41.775360" lon="2.825620">
        <ele>241.4</ele>
        <time>2011-08-17T12:01:43Z</time>
      </trkpt>
      <trkpt lat="41.775505" lon="2.825724">
        <ele>245.3</ele>
        <time>2011-08-17T12:01:51Z</time>
      </trkpt>
      <trkpt lat="41.775621" lon="2.825867">
        <ele>247.2</ele>
        <time>2011-08-17T12:01:58Z</time>
      </trkpt>
      <trkpt lat="41.775678" lon="2.826039">
        <ele>248.6</ele>
        <time>2011-08-17T12:02:05Z</time>
      </trkpt>
      <trkpt lat="41.775697" lon="2.826161">
        <ele>251.5</ele>
        <time>2011-08-17T12:02:10Z</time>
      </trkpt>
      <trkpt lat="41.775613" lon="2.826337">
        <ele>253.0</ele>
        <time>2011-08-17T12:02:18Z</time>
      </trkpt>
      <trkpt lat="41.775488" lon="2.826441">
        <ele>254.4</ele>
        <time>2011-08-17T12:02:25Z</time>
      </trkpt>
      <trkpt lat="41.775366" lon="2.826548">
        <ele>256.3</ele>
        <time>2011-08-17T12:02:32Z</time>
      </trkpt>
      <trkpt lat="41.775255" lon="2.826681">
        <ele>260.2</ele>
        <time>2011-08-17T12:02:39Z</time>
      </trkpt>
      <trkpt lat="41.775146" lon="2.826931">
        <ele>262.6</ele>
        <time>2011-08-17T12:02:49Z</time>
      </trkpt>
      <trkpt lat="41.775105" lon="2.827118">
        <ele>263.5</ele>
        <time>2011-08-17T12:02:56Z</time>
      </trkpt>
      <trkpt lat="41.775107" lon="2.827294">
        <ele>264.0</ele>
        <time>2011-08-17T12:03:03Z</time>
      </trkpt>
      <trkpt lat="41.775112" lon="2.827494">
        <ele>265.0</ele>
        <time>2011-08-17T12:03:10Z</time>
      </trkpt>
      <trkpt lat="41.775062" lon="2.827696">
        <ele>267.4</ele>
        <time>2011-08-17T12:03:17Z</time>
      </trkpt>
      <trkpt lat="41.775016" lon="2.827965">
        <ele>267.4</ele>
        <time>2011-08-17T12:03:26Z</time>
      </trkpt>
      <trkpt lat="41.775032" lon="2.828222">
        <ele>265.5</ele>
        <time>2011-08-17T12:03:35Z</time>
      </trkpt>
      <trkpt lat="41.775065" lon="2.828385">
        <ele>266.4</ele>
        <time>2011-08-17T12:03:43Z</time>
      </trkpt>
      <trkpt lat="41.775129" lon="2.828558">
        <ele>265.5</ele>
        <time>2011-08-17T12:03:51Z</time>
      </trkpt>
      <trkpt lat="41.775261" lon="2.828857">
        <ele>263.1</ele>
        <time>2011-08-17T12:03:57Z</time>
      </trkpt>
      <trkpt lat="41.775450" lon="2.829348">
        <ele>260.2</ele>
        <time>2011-08-17T12:04:03Z</time>
      </trkpt>
      <trkpt lat="41.775531" lon="2.829586">
        <ele>260.7</ele>
        <time>2011-08-17T12:04:06Z</time>
      </trkpt>
      <trkpt lat="41.775582" lon="2.829912">
        <ele>262.1</ele>
        <time>2011-08-17T12:04:12Z</time>
      </trkpt>
      <trkpt lat="41.775595" lon="2.830227">
        <ele>263.5</ele>
        <time>2011-08-17T12:04:20Z</time>
      </trkpt>
      <trkpt lat="41.775631" lon="2.830451">
        <ele>265.5</ele>
        <time>2011-08-17T12:04:27Z</time>
      </trkpt>
      <trkpt lat="41.775754" lon="2.830609">
        <ele>266.4</ele>
        <time>2011-08-17T12:04:33Z</time>
      </trkpt>
      <trkpt lat="41.775825" lon="2.830807">
        <ele>267.4</ele>
        <time>2011-08-17T12:04:39Z</time>
      </trkpt>
      <trkpt lat="41.775835" lon="2.831005">
        <ele>269.3</ele>
        <time>2011-08-17T12:04:46Z</time>
      </trkpt>
      <trkpt lat="41.775816" lon="2.831102">
        <ele>269.3</ele>
        <time>2011-08-17T12:04:50Z</time>
      </trkpt>
      <trkpt lat="41.775796" lon="2.831288">
        <ele>269.8</ele>
        <time>2011-08-17T12:04:58Z</time>
      </trkpt>
      <trkpt lat="41.775792" lon="2.831338">
        <ele>269.3</ele>
        <time>2011-08-17T12:05:01Z</time>
      </trkpt>
      <trkpt lat="41.775744" lon="2.831492">
        <ele>271.2</ele>
        <time>2011-08-17T12:05:09Z</time>
      </trkpt>
      <trkpt lat="41.775758" lon="2.831581">
        <ele>268.3</ele>
        <time>2011-08-17T12:05:17Z</time>
      </trkpt>
      <trkpt lat="41.775759" lon="2.831590">
        <ele>267.9</ele>
        <time>2011-08-17T12:05:34Z</time>
      </trkpt>
      <trkpt lat="41.775810" lon="2.831787">
        <ele>265.5</ele>
        <time>2011-08-17T12:05:40Z</time>
      </trkpt>
      <trkpt lat="41.775929" lon="2.832143">
        <ele>259.7</ele>
        <time>2011-08-17T12:05:45Z</time>
      </trkpt>
      <trkpt lat="41.775991" lon="2.832435">
        <ele>257.3</ele>
        <time>2011-08-17T12:05:48Z</time>
      </trkpt>
      <trkpt lat="41.775989" lon="2.832796">
        <ele>255.8</ele>
        <time>2011-08-17T12:05:52Z</time>
      </trkpt>
      <trkpt lat="41.775954" lon="2.832978">
        <ele>254.9</ele>
        <time>2011-08-17T12:05:54Z</time>
      </trkpt>
      <trkpt lat="41.775726" lon="2.833368">
        <ele>251.5</ele>
        <time>2011-08-17T12:05:59Z</time>
      </trkpt>
      <trkpt lat="41.775211" lon="2.833843">
        <ele>248.2</ele>
        <time>2011-08-17T12:06:07Z</time>
      </trkpt>
      <trkpt lat="41.775064" lon="2.834239">
        <ele>247.7</ele>
        <time>2011-08-17T12:06:12Z</time>
      </trkpt>
      <trkpt lat="41.775095" lon="2.834650">
        <ele>245.3</ele>
        <time>2011-08-17T12:06:16Z</time>
      </trkpt>
      <trkpt lat="41.774987" lon="2.834876">
        <ele>245.3</ele>
        <time>2011-08-17T12:06:19Z</time>
      </trkpt>
      <trkpt lat="41.774794" lon="2.834959">
        <ele>247.7</ele>
        <time>2011-08-17T12:06:23Z</time>
      </trkpt>
      <trkpt lat="41.774763" lon="2.834951">
        <ele>248.6</ele>
        <time>2011-08-17T12:06:24Z</time>
      </trkpt>
      <trkpt lat="41.774579" lon="2.834843">
        <ele>251.5</ele>
        <time>2011-08-17T12:06:32Z</time>
      </trkpt>
      <trkpt lat="41.774382" lon="2.834798">
        <ele>252.5</ele>
        <time>2011-08-17T12:06:41Z</time>
      </trkpt>
      <trkpt lat="41.774238" lon="2.834865">
        <ele>254.4</ele>
        <time>2011-08-17T12:06:49Z</time>
      </trkpt>
      <trkpt lat="41.774161" lon="2.835044">
        <ele>257.3</ele>
        <time>2011-08-17T12:06:58Z</time>
      </trkpt>
      <trkpt lat="41.774070" lon="2.835244">
        <ele>260.7</ele>
        <time>2011-08-17T12:07:07Z</time>
      </trkpt>
      <trkpt lat="41.774003" lon="2.835409">
        <ele>263.5</ele>
        <time>2011-08-17T12:07:15Z</time>
      </trkpt>
      <trkpt lat="41.773931" lon="2.835589">
        <ele>266.9</ele>
        <time>2011-08-17T12:07:23Z</time>
      </trkpt>
      <trkpt lat="41.773926" lon="2.835764">
        <ele>267.4</ele>
        <time>2011-08-17T12:07:30Z</time>
      </trkpt>
      <trkpt lat="41.774014" lon="2.835946">
        <ele>266.9</ele>
        <time>2011-08-17T12:07:38Z</time>
      </trkpt>
      <trkpt lat="41.774076" lon="2.836123">
        <ele>267.9</ele>
        <time>2011-08-17T12:07:45Z</time>
      </trkpt>
      <trkpt lat="41.774134" lon="2.836346">
        <ele>269.8</ele>
        <time>2011-08-17T12:07:53Z</time>
      </trkpt>
      <trkpt lat="41.774182" lon="2.836560">
        <ele>271.2</ele>
        <time>2011-08-17T12:08:01Z</time>
      </trkpt>
      <trkpt lat="41.774216" lon="2.836768">
        <ele>272.2</ele>
        <time>2011-08-17T12:08:08Z</time>
      </trkpt>
      <trkpt lat="41.774240" lon="2.837025">
        <ele>273.2</ele>
        <time>2011-08-17T12:08:17Z</time>
      </trkpt>
      <trkpt lat="41.774235" lon="2.837215">
        <ele>275.1</ele>
        <time>2011-08-17T12:08:24Z</time>
      </trkpt>
      <trkpt lat="41.774231" lon="2.837433">
        <ele>278.0</ele>
        <time>2011-08-17T12:08:32Z</time>
      </trkpt>
      <trkpt lat="41.774305" lon="2.837612">
        <ele>278.9</ele>
        <time>2011-08-17T12:08:39Z</time>
      </trkpt>
      <trkpt lat="41.774424" lon="2.837791">
        <ele>281.3</ele>
        <time>2011-08-17T12:08:47Z</time>
      </trkpt>
      <trkpt lat="41.774518" lon="2.837929">
        <ele>282.8</ele>
        <time>2011-08-17T12:08:54Z</time>
      </trkpt>
      <trkpt lat="41.774572" lon="2.838079">
        <ele>285.2</ele>
        <time>2011-08-17T12:09:00Z</time>
      </trkpt>
      <trkpt lat="41.774588" lon="2.838284">
        <ele>287.6</ele>
        <time>2011-08-17T12:09:07Z</time>
      </trkpt>
      <trkpt lat="41.774571" lon="2.838486">
        <ele>289.0</ele>
        <time>2011-08-17T12:09:14Z</time>
      </trkpt>
      <trkpt lat="41.774569" lon="2.838679">
        <ele>285.6</ele>
        <time>2011-08-17T12:09:21Z</time>
      </trkpt>
      <trkpt lat="41.774617" lon="2.838874">
        <ele>287.1</ele>
        <time>2011-08-17T12:09:28Z</time>
      </trkpt>
      <trkpt lat="41.774652" lon="2.839084">
        <ele>291.9</ele>
        <time>2011-08-17T12:09:36Z</time>
      </trkpt>
      <trkpt lat="41.774694" lon="2.839283">
        <ele>293.8</ele>
        <time>2011-08-17T12:09:44Z</time>
      </trkpt>
      <trkpt lat="41.774688" lon="2.839495">
        <ele>296.7</ele>
        <time>2011-08-17T12:09:51Z</time>
      </trkpt>
      <trkpt lat="41.774657" lon="2.839739">
        <ele>299.6</ele>
        <time>2011-08-17T12:09:59Z</time>
      </trkpt>
      <trkpt lat="41.774563" lon="2.839924">
        <ele>301.0</ele>
        <time>2011-08-17T12:10:06Z</time>
      </trkpt>
      <trkpt lat="41.774428" lon="2.840086">
        <ele>297.7</ele>
        <time>2011-08-17T12:10:15Z</time>
      </trkpt>
      <trkpt lat="41.774351" lon="2.840264">
        <ele>297.7</ele>
        <time>2011-08-17T12:10:22Z</time>
      </trkpt>
      <trkpt lat="41.774344" lon="2.840506">
        <ele>299.6</ele>
        <time>2011-08-17T12:10:30Z</time>
      </trkpt>
      <trkpt lat="41.774370" lon="2.840757">
        <ele>300.5</ele>
        <time>2011-08-17T12:10:38Z</time>
      </trkpt>
      <trkpt lat="41.774481" lon="2.840939">
        <ele>302.5</ele>
        <time>2011-08-17T12:10:45Z</time>
      </trkpt>
      <trkpt lat="41.774568" lon="2.841083">
        <ele>305.4</ele>
        <time>2011-08-17T12:10:51Z</time>
      </trkpt>
      <trkpt lat="41.774578" lon="2.841299">
        <ele>309.2</ele>
        <time>2011-08-17T12:10:58Z</time>
      </trkpt>
      <trkpt lat="41.774652" lon="2.841491">
        <ele>305.8</ele>
        <time>2011-08-17T12:11:04Z</time>
      </trkpt>
      <trkpt lat="41.774793" lon="2.841618">
        <ele>308.2</ele>
        <time>2011-08-17T12:11:11Z</time>
      </trkpt>
      <trkpt lat="41.775018" lon="2.841717">
        <ele>309.7</ele>
        <time>2011-08-17T12:11:20Z</time>
      </trkpt>
      <trkpt lat="41.775191" lon="2.841780">
        <ele>310.2</ele>
        <time>2011-08-17T12:11:27Z</time>
      </trkpt>
      <trkpt lat="41.775422" lon="2.841917">
        <ele>308.7</ele>
        <time>2011-08-17T12:11:37Z</time>
      </trkpt>
      <trkpt lat="41.775590" lon="2.842019">
        <ele>309.7</ele>
        <time>2011-08-17T12:11:45Z</time>
      </trkpt>
      <trkpt lat="41.775648" lon="2.842098">
        <ele>312.1</ele>
        <time>2011-08-17T12:11:49Z</time>
      </trkpt>
      <trkpt lat="41.775676" lon="2.842195">
        <ele>314.0</ele>
        <time>2011-08-17T12:11:54Z</time>
      </trkpt>
      <trkpt lat="41.775660" lon="2.842224">
        <ele>314.5</ele>
        <time>2011-08-17T12:11:56Z</time>
      </trkpt>
      <trkpt lat="41.775668" lon="2.842292">
        <ele>314.0</ele>
        <time>2011-08-17T12:12:00Z</time>
      </trkpt>
      <trkpt lat="41.775652" lon="2.842406">
        <ele>315.4</ele>
        <time>2011-08-17T12:12:06Z</time>
      </trkpt>
      <trkpt lat="41.775615" lon="2.842617">
        <ele>316.9</ele>
        <time>2011-08-17T12:12:15Z</time>
      </trkpt>
      <trkpt lat="41.775553" lon="2.842824">
        <ele>315.4</ele>
        <time>2011-08-17T12:12:23Z</time>
      </trkpt>
      <trkpt lat="41.775499" lon="2.843019">
        <ele>317.9</ele>
        <time>2011-08-17T12:12:31Z</time>
      </trkpt>
      <trkpt lat="41.775426" lon="2.843280">
        <ele>318.8</ele>
        <time>2011-08-17T12:12:41Z</time>
      </trkpt>
      <trkpt lat="41.775399" lon="2.843475">
        <ele>319.8</ele>
        <time>2011-08-17T12:12:48Z</time>
      </trkpt>
      <trkpt lat="41.775332" lon="2.843774">
        <ele>321.7</ele>
        <time>2011-08-17T12:12:59Z</time>
      </trkpt>
      <trkpt lat="41.775239" lon="2.844022">
        <ele>322.2</ele>
        <time>2011-08-17T12:13:08Z</time>
      </trkpt>
      <trkpt lat="41.775105" lon="2.844167">
        <ele>319.3</ele>
        <time>2011-08-17T12:13:16Z</time>
      </trkpt>
      <trkpt lat="41.774930" lon="2.844285">
        <ele>321.7</ele>
        <time>2011-08-17T12:13:25Z</time>
      </trkpt>
      <trkpt lat="41.774797" lon="2.844416">
        <ele>325.1</ele>
        <time>2011-08-17T12:13:32Z</time>
      </trkpt>
      <trkpt lat="41.774671" lon="2.844557">
        <ele>330.8</ele>
        <time>2011-08-17T12:13:40Z</time>
      </trkpt>
      <trkpt lat="41.774564" lon="2.844766">
        <ele>330.8</ele>
        <time>2011-08-17T12:13:49Z</time>
      </trkpt>
      <trkpt lat="41.774480" lon="2.844932">
        <ele>330.8</ele>
        <time>2011-08-17T12:13:56Z</time>
      </trkpt>
      <trkpt lat="41.774339" lon="2.845155">
        <ele>333.2</ele>
        <time>2011-08-17T12:14:06Z</time>
      </trkpt>
      <trkpt lat="41.774226" lon="2.845344">
        <ele>334.7</ele>
        <time>2011-08-17T12:14:14Z</time>
      </trkpt>
      <trkpt lat="41.774118" lon="2.845456">
        <ele>337.6</ele>
        <time>2011-08-17T12:14:21Z</time>
      </trkpt>
      <trkpt lat="41.774048" lon="2.845609">
        <ele>340.0</ele>
        <time>2011-08-17T12:14:28Z</time>
      </trkpt>
      <trkpt lat="41.774007" lon="2.845809">
        <ele>341.4</ele>
        <time>2011-08-17T12:14:35Z</time>
      </trkpt>
      <trkpt lat="41.773937" lon="2.846001">
        <ele>340.9</ele>
        <time>2011-08-17T12:14:42Z</time>
      </trkpt>
      <trkpt lat="41.773828" lon="2.846163">
        <ele>342.4</ele>
        <time>2011-08-17T12:14:50Z</time>
      </trkpt>
      <trkpt lat="41.773696" lon="2.846301">
        <ele>345.3</ele>
        <time>2011-08-17T12:14:58Z</time>
      </trkpt>
      <trkpt lat="41.773635" lon="2.846373">
        <ele>346.2</ele>
        <time>2011-08-17T12:15:02Z</time>
      </trkpt>
      <trkpt lat="41.773471" lon="2.846609">
        <ele>348.6</ele>
        <time>2011-08-17T12:15:13Z</time>
      </trkpt>
      <trkpt lat="41.773346" lon="2.846770">
        <ele>347.7</ele>
        <time>2011-08-17T12:15:22Z</time>
      </trkpt>
      <trkpt lat="41.773190" lon="2.846902">
        <ele>350.1</ele>
        <time>2011-08-17T12:15:30Z</time>
      </trkpt>
      <trkpt lat="41.773158" lon="2.846923">
        <ele>348.6</ele>
        <time>2011-08-17T12:15:32Z</time>
      </trkpt>
      <trkpt lat="41.773085" lon="2.846990">
        <ele>349.6</ele>
        <time>2011-08-17T12:15:39Z</time>
      </trkpt>
      <trkpt lat="41.773053" lon="2.846998">
        <ele>349.6</ele>
        <time>2011-08-17T12:16:23Z</time>
      </trkpt>
      <trkpt lat="41.773018" lon="2.847052">
        <ele>349.6</ele>
        <time>2011-08-17T12:16:27Z</time>
      </trkpt>
      <trkpt lat="41.772878" lon="2.847076">
        <ele>350.1</ele>
        <time>2011-08-17T12:16:35Z</time>
      </trkpt>
      <trkpt lat="41.772687" lon="2.847079">
        <ele>348.1</ele>
        <time>2011-08-17T12:16:44Z</time>
      </trkpt>
      <trkpt lat="41.772429" lon="2.847090">
        <ele>345.7</ele>
        <time>2011-08-17T12:16:50Z</time>
      </trkpt>
      <trkpt lat="41.772311" lon="2.847076">
        <ele>344.8</ele>
        <time>2011-08-17T12:16:52Z</time>
      </trkpt>
      <trkpt lat="41.772030" lon="2.846941">
        <ele>343.8</ele>
        <time>2011-08-17T12:16:58Z</time>
      </trkpt>
      <trkpt lat="41.771896" lon="2.846806">
        <ele>346.7</ele>
        <time>2011-08-17T12:17:05Z</time>
      </trkpt>
      <trkpt lat="41.771757" lon="2.846599">
        <ele>349.6</ele>
        <time>2011-08-17T12:17:14Z</time>
      </trkpt>
      <trkpt lat="41.771645" lon="2.846402">
        <ele>352.5</ele>
        <time>2011-08-17T12:17:22Z</time>
      </trkpt>
      <trkpt lat="41.771563" lon="2.846249">
        <ele>353.9</ele>
        <time>2011-08-17T12:17:29Z</time>
      </trkpt>
      <trkpt lat="41.771502" lon="2.846149">
        <ele>355.3</ele>
        <time>2011-08-17T12:17:34Z</time>
      </trkpt>
      <trkpt lat="41.771436" lon="2.846009">
        <ele>356.8</ele>
        <time>2011-08-17T12:17:41Z</time>
      </trkpt>
      <trkpt lat="41.771409" lon="2.845969">
        <ele>357.3</ele>
        <time>2011-08-17T12:17:43Z</time>
      </trkpt>
      <trkpt lat="41.771264" lon="2.845813">
        <ele>357.3</ele>
        <time>2011-08-17T12:17:52Z</time>
      </trkpt>
      <trkpt lat="41.771136" lon="2.845671">
        <ele>359.7</ele>
        <time>2011-08-17T12:18:01Z</time>
      </trkpt>
      <trkpt lat="41.770985" lon="2.845599">
        <ele>360.6</ele>
        <time>2011-08-17T12:18:09Z</time>
      </trkpt>
      <trkpt lat="41.770811" lon="2.845590">
        <ele>363.0</ele>
        <time>2011-08-17T12:18:18Z</time>
      </trkpt>
      <trkpt lat="41.770629" lon="2.845664">
        <ele>364.0</ele>
        <time>2011-08-17T12:18:27Z</time>
      </trkpt>
      <trkpt lat="41.770529" lon="2.845817">
        <ele>365.4</ele>
        <time>2011-08-17T12:18:34Z</time>
      </trkpt>
      <trkpt lat="41.770448" lon="2.846097">
        <ele>365.9</ele>
        <time>2011-08-17T12:18:44Z</time>
      </trkpt>
      <trkpt lat="41.770350" lon="2.846308">
        <ele>365.0</ele>
        <time>2011-08-17T12:18:51Z</time>
      </trkpt>
      <trkpt lat="41.770184" lon="2.846580">
        <ele>364.5</ele>
        <time>2011-08-17T12:18:59Z</time>
      </trkpt>
      <trkpt lat="41.769975" lon="2.846704">
        <ele>365.0</ele>
        <time>2011-08-17T12:19:06Z</time>
      </trkpt>
      <trkpt lat="41.769707" lon="2.846817">
        <ele>366.9</ele>
        <time>2011-08-17T12:19:14Z</time>
      </trkpt>
      <trkpt lat="41.769391" lon="2.846912">
        <ele>367.8</ele>
        <time>2011-08-17T12:19:23Z</time>
      </trkpt>
      <trkpt lat="41.769079" lon="2.847014">
        <ele>367.4</ele>
        <time>2011-08-17T12:19:32Z</time>
      </trkpt>
      <trkpt lat="41.768808" lon="2.847191">
        <ele>364.5</ele>
        <time>2011-08-17T12:19:40Z</time>
      </trkpt>
      <trkpt lat="41.768585" lon="2.847464">
        <ele>365.9</ele>
        <time>2011-08-17T12:19:48Z</time>
      </trkpt>
      <trkpt lat="41.768445" lon="2.847841">
        <ele>364.5</ele>
        <time>2011-08-17T12:19:56Z</time>
      </trkpt>
      <trkpt lat="41.768305" lon="2.848265">
        <ele>366.4</ele>
        <time>2011-08-17T12:20:05Z</time>
      </trkpt>
      <trkpt lat="41.768225" lon="2.848397">
        <ele>366.9</ele>
        <time>2011-08-17T12:20:08Z</time>
      </trkpt>
      <trkpt lat="41.768049" lon="2.848674">
        <ele>370.7</ele>
        <time>2011-08-17T12:20:15Z</time>
      </trkpt>
      <trkpt lat="41.767972" lon="2.848767">
        <ele>372.2</ele>
        <time>2011-08-17T12:20:18Z</time>
      </trkpt>
      <trkpt lat="41.767760" lon="2.848956">
        <ele>372.6</ele>
        <time>2011-08-17T12:20:26Z</time>
      </trkpt>
      <trkpt lat="41.767596" lon="2.849108">
        <ele>372.2</ele>
        <time>2011-08-17T12:20:33Z</time>
      </trkpt>
      <trkpt lat="41.767503" lon="2.849336">
        <ele>371.7</ele>
        <time>2011-08-17T12:20:40Z</time>
      </trkpt>
      <trkpt lat="41.767435" lon="2.849642">
        <ele>372.6</ele>
        <time>2011-08-17T12:20:49Z</time>
      </trkpt>
      <trkpt lat="41.767313" lon="2.849886">
        <ele>374.1</ele>
        <time>2011-08-17T12:20:57Z</time>
      </trkpt>
      <trkpt lat="41.767142" lon="2.849899">
        <ele>376.5</ele>
        <time>2011-08-17T12:21:03Z</time>
      </trkpt>
      <trkpt lat="41.766842" lon="2.849723">
        <ele>378.4</ele>
        <time>2011-08-17T12:21:14Z</time>
      </trkpt>
      <trkpt lat="41.766783" lon="2.849710">
        <ele>377.9</ele>
        <time>2011-08-17T12:21:16Z</time>
      </trkpt>
      <trkpt lat="41.766531" lon="2.850051">
        <ele>377.5</ele>
        <time>2011-08-17T12:21:28Z</time>
      </trkpt>
      <trkpt lat="41.766420" lon="2.850334">
        <ele>377.9</ele>
        <time>2011-08-17T12:21:36Z</time>
      </trkpt>
      <trkpt lat="41.766374" lon="2.850698">
        <ele>378.9</ele>
        <time>2011-08-17T12:21:45Z</time>
      </trkpt>
      <trkpt lat="41.766397" lon="2.851034">
        <ele>378.4</ele>
        <time>2011-08-17T12:21:52Z</time>
      </trkpt>
      <trkpt lat="41.766366" lon="2.851436">
        <ele>377.0</ele>
        <time>2011-08-17T12:22:01Z</time>
      </trkpt>
      <trkpt lat="41.766322" lon="2.851685">
        <ele>376.5</ele>
        <time>2011-08-17T12:22:06Z</time>
      </trkpt>
      <trkpt lat="41.766160" lon="2.851937">
        <ele>373.6</ele>
        <time>2011-08-17T12:22:12Z</time>
      </trkpt>
      <trkpt lat="41.766036" lon="2.851980">
        <ele>374.1</ele>
        <time>2011-08-17T12:22:15Z</time>
      </trkpt>
      <trkpt lat="41.765682" lon="2.852003">
        <ele>377.5</ele>
        <time>2011-08-17T12:22:24Z</time>
      </trkpt>
      <trkpt lat="41.765605" lon="2.852032">
        <ele>378.4</ele>
        <time>2011-08-17T12:22:27Z</time>
      </trkpt>
      <trkpt lat="41.765796" lon="2.852410">
        <ele>377.5</ele>
        <time>2011-08-17T12:22:29Z</time>
      </trkpt>
      <trkpt lat="41.765492" lon="2.852275">
        <ele>379.4</ele>
        <time>2011-08-17T12:22:36Z</time>
      </trkpt>
      <trkpt lat="41.765335" lon="2.852363">
        <ele>382.7</ele>
        <time>2011-08-17T12:22:44Z</time>
      </trkpt>
      <trkpt lat="41.765237" lon="2.852524">
        <ele>386.6</ele>
        <time>2011-08-17T12:22:52Z</time>
      </trkpt>
      <trkpt lat="41.765142" lon="2.852727">
        <ele>389.0</ele>
        <time>2011-08-17T12:23:00Z</time>
      </trkpt>
      <trkpt lat="41.765020" lon="2.852918">
        <ele>390.4</ele>
        <time>2011-08-17T12:23:09Z</time>
      </trkpt>
      <trkpt lat="41.765017" lon="2.852942">
        <ele>390.4</ele>
        <time>2011-08-17T12:23:11Z</time>
      </trkpt>
      <trkpt lat="41.765019" lon="2.853052">
        <ele>390.0</ele>
        <time>2011-08-17T12:23:19Z</time>
      </trkpt>
      <trkpt lat="41.765033" lon="2.853047">
        <ele>390.9</ele>
        <time>2011-08-17T12:24:08Z</time>
      </trkpt>
      <trkpt lat="41.765046" lon="2.853226">
        <ele>390.0</ele>
        <time>2011-08-17T12:24:14Z</time>
      </trkpt>
      <trkpt lat="41.765044" lon="2.853582">
        <ele>388.5</ele>
        <time>2011-08-17T12:24:23Z</time>
      </trkpt>
      <trkpt lat="41.765094" lon="2.853809">
        <ele>388.0</ele>
        <time>2011-08-17T12:24:28Z</time>
      </trkpt>
      <trkpt lat="41.765108" lon="2.853945">
        <ele>387.5</ele>
        <time>2011-08-17T12:24:30Z</time>
      </trkpt>
      <trkpt lat="41.765016" lon="2.854320">
        <ele>386.1</ele>
        <time>2011-08-17T12:24:35Z</time>
      </trkpt>
      <trkpt lat="41.764965" lon="2.854373">
        <ele>385.6</ele>
        <time>2011-08-17T12:24:36Z</time>
      </trkpt>
      <trkpt lat="41.764856" lon="2.854471">
        <ele>386.6</ele>
        <time>2011-08-17T12:24:38Z</time>
      </trkpt>
      <trkpt lat="41.764753" lon="2.854795">
        <ele>385.6</ele>
        <time>2011-08-17T12:24:43Z</time>
      </trkpt>
      <trkpt lat="41.764760" lon="2.854941">
        <ele>386.6</ele>
        <time>2011-08-17T12:24:45Z</time>
      </trkpt>
      <trkpt lat="41.764823" lon="2.855309">
        <ele>387.1</ele>
        <time>2011-08-17T12:24:51Z</time>
      </trkpt>
      <trkpt lat="41.764980" lon="2.855760">
        <ele>386.6</ele>
        <time>2011-08-17T12:24:58Z</time>
      </trkpt>
      <trkpt lat="41.765049" lon="2.855967">
        <ele>386.1</ele>
        <time>2011-08-17T12:25:01Z</time>
      </trkpt>
      <trkpt lat="41.765037" lon="2.856430">
        <ele>388.0</ele>
        <time>2011-08-17T12:25:08Z</time>
      </trkpt>
      <trkpt lat="41.764994" lon="2.856542">
        <ele>388.5</ele>
        <time>2011-08-17T12:25:10Z</time>
      </trkpt>
      <trkpt lat="41.764747" lon="2.856859">
        <ele>388.0</ele>
        <time>2011-08-17T12:25:17Z</time>
      </trkpt>
      <trkpt lat="41.764711" lon="2.856893">
        <ele>389.0</ele>
        <time>2011-08-17T12:25:18Z</time>
      </trkpt>
      <trkpt lat="41.764641" lon="2.857155">
        <ele>388.5</ele>
        <time>2011-08-17T12:25:23Z</time>
      </trkpt>
      <trkpt lat="41.764655" lon="2.857222">
        <ele>388.0</ele>
        <time>2011-08-17T12:25:24Z</time>
      </trkpt>
      <trkpt lat="41.764758" lon="2.857796">
        <ele>384.7</ele>
        <time>2011-08-17T12:25:30Z</time>
      </trkpt>
      <trkpt lat="41.764809" lon="2.858597">
        <ele>380.3</ele>
        <time>2011-08-17T12:25:37Z</time>
      </trkpt>
      <trkpt lat="41.764840" lon="2.859103">
        <ele>377.9</ele>
        <time>2011-08-17T12:25:41Z</time>
      </trkpt>
      <trkpt lat="41.764975" lon="2.859662">
        <ele>377.0</ele>
        <time>2011-08-17T12:25:46Z</time>
      </trkpt>
      <trkpt lat="41.765090" lon="2.859831">
        <ele>375.1</ele>
        <time>2011-08-17T12:25:48Z</time>
      </trkpt>
      <trkpt lat="41.765261" lon="2.860046">
        <ele>373.6</ele>
        <time>2011-08-17T12:25:51Z</time>
      </trkpt>
      <trkpt lat="41.765423" lon="2.860384">
        <ele>371.2</ele>
        <time>2011-08-17T12:25:55Z</time>
      </trkpt>
      <trkpt lat="41.765477" lon="2.860657">
        <ele>369.8</ele>
        <time>2011-08-17T12:25:58Z</time>
      </trkpt>
      <trkpt lat="41.765519" lon="2.860912">
        <ele>368.3</ele>
        <time>2011-08-17T12:26:01Z</time>
      </trkpt>
      <trkpt lat="41.765522" lon="2.861035">
        <ele>368.3</ele>
        <time>2011-08-17T12:26:03Z</time>
      </trkpt>
      <trkpt lat="41.765650" lon="2.861229">
        <ele>368.8</ele>
        <time>2011-08-17T12:26:08Z</time>
      </trkpt>
      <trkpt lat="41.765764" lon="2.861464">
        <ele>369.8</ele>
        <time>2011-08-17T12:26:13Z</time>
      </trkpt>
      <trkpt lat="41.765775" lon="2.861605">
        <ele>369.8</ele>
        <time>2011-08-17T12:26:15Z</time>
      </trkpt>
      <trkpt lat="41.765815" lon="2.861844">
        <ele>370.2</ele>
        <time>2011-08-17T12:26:18Z</time>
      </trkpt>
      <trkpt lat="41.766017" lon="2.862234">
        <ele>369.8</ele>
        <time>2011-08-17T12:26:23Z</time>
      </trkpt>
      <trkpt lat="41.766092" lon="2.862507">
        <ele>365.9</ele>
        <time>2011-08-17T12:26:26Z</time>
      </trkpt>
      <trkpt lat="41.766112" lon="2.862870">
        <ele>363.5</ele>
        <time>2011-08-17T12:26:30Z</time>
      </trkpt>
      <trkpt lat="41.766353" lon="2.863452">
        <ele>360.2</ele>
        <time>2011-08-17T12:26:36Z</time>
      </trkpt>
      <trkpt lat="41.766447" lon="2.863655">
        <ele>358.7</ele>
        <time>2011-08-17T12:26:38Z</time>
      </trkpt>
      <trkpt lat="41.766431" lon="2.864070">
        <ele>356.3</ele>
        <time>2011-08-17T12:26:42Z</time>
      </trkpt>
      <trkpt lat="41.766671" lon="2.864469">
        <ele>355.3</ele>
        <time>2011-08-17T12:26:47Z</time>
      </trkpt>
      <trkpt lat="41.766892" lon="2.864887">
        <ele>351.5</ele>
        <time>2011-08-17T12:26:52Z</time>
      </trkpt>
      <trkpt lat="41.766960" lon="2.865368">
        <ele>349.6</ele>
        <time>2011-08-17T12:26:57Z</time>
      </trkpt>
      <trkpt lat="41.767026" lon="2.865525">
        <ele>348.6</ele>
        <time>2011-08-17T12:26:59Z</time>
      </trkpt>
      <trkpt lat="41.767132" lon="2.865945">
        <ele>347.2</ele>
        <time>2011-08-17T12:27:04Z</time>
      </trkpt>
      <trkpt lat="41.767065" lon="2.866285">
        <ele>347.2</ele>
        <time>2011-08-17T12:27:08Z</time>
      </trkpt>
      <trkpt lat="41.767206" lon="2.866491">
        <ele>345.3</ele>
        <time>2011-08-17T12:27:11Z</time>
      </trkpt>
      <trkpt lat="41.767401" lon="2.866517">
        <ele>344.3</ele>
        <time>2011-08-17T12:27:14Z</time>
      </trkpt>
      <trkpt lat="41.767547" lon="2.866513">
        <ele>341.9</ele>
        <time>2011-08-17T12:27:16Z</time>
      </trkpt>
      <trkpt lat="41.767872" lon="2.866614">
        <ele>339.0</ele>
        <time>2011-08-17T12:27:20Z</time>
      </trkpt>
      <trkpt lat="41.768287" lon="2.866850">
        <ele>333.2</ele>
        <time>2011-08-17T12:27:26Z</time>
      </trkpt>
      <trkpt lat="41.768360" lon="2.866848">
        <ele>331.8</ele>
        <time>2011-08-17T12:27:27Z</time>
      </trkpt>
      <trkpt lat="41.768661" lon="2.867002">
        <ele>330.4</ele>
        <time>2011-08-17T12:27:32Z</time>
      </trkpt>
      <trkpt lat="41.768881" lon="2.867330">
        <ele>328.4</ele>
        <time>2011-08-17T12:27:36Z</time>
      </trkpt>
      <trkpt lat="41.769060" lon="2.867492">
        <ele>326.5</ele>
        <time>2011-08-17T12:27:39Z</time>
      </trkpt>
      <trkpt lat="41.769058" lon="2.867702">
        <ele>325.5</ele>
        <time>2011-08-17T12:27:42Z</time>
      </trkpt>
      <trkpt lat="41.769029" lon="2.867776">
        <ele>325.1</ele>
        <time>2011-08-17T12:27:43Z</time>
      </trkpt>
      <trkpt lat="41.769095" lon="2.868173">
        <ele>322.2</ele>
        <time>2011-08-17T12:27:48Z</time>
      </trkpt>
      <trkpt lat="41.769244" lon="2.868234">
        <ele>321.2</ele>
        <time>2011-08-17T12:27:50Z</time>
      </trkpt>
      <trkpt lat="41.769619" lon="2.868319">
        <ele>317.9</ele>
        <time>2011-08-17T12:27:55Z</time>
      </trkpt>
      <trkpt lat="41.769830" lon="2.868553">
        <ele>316.4</ele>
        <time>2011-08-17T12:27:59Z</time>
      </trkpt>
      <trkpt lat="41.770101" lon="2.868723">
        <ele>313.0</ele>
        <time>2011-08-17T12:28:03Z</time>
      </trkpt>
      <trkpt lat="41.770427" lon="2.869035">
        <ele>308.2</ele>
        <time>2011-08-17T12:28:08Z</time>
      </trkpt>
      <trkpt lat="41.770724" lon="2.869213">
        <ele>304.4</ele>
        <time>2011-08-17T12:28:12Z</time>
      </trkpt>
      <trkpt lat="41.770859" lon="2.869157">
        <ele>302.0</ele>
        <time>2011-08-17T12:28:14Z</time>
      </trkpt>
      <trkpt lat="41.771096" lon="2.869133">
        <ele>299.1</ele>
        <time>2011-08-17T12:28:18Z</time>
      </trkpt>
      <trkpt lat="41.771283" lon="2.869397">
        <ele>295.3</ele>
        <time>2011-08-17T12:28:22Z</time>
      </trkpt>
      <trkpt lat="41.771571" lon="2.869493">
        <ele>292.4</ele>
        <time>2011-08-17T12:28:26Z</time>
      </trkpt>
      <trkpt lat="41.771781" lon="2.869510">
        <ele>289.5</ele>
        <time>2011-08-17T12:28:29Z</time>
      </trkpt>
      <trkpt lat="41.771910" lon="2.869700">
        <ele>286.6</ele>
        <time>2011-08-17T12:28:33Z</time>
      </trkpt>
      <trkpt lat="41.771916" lon="2.869779">
        <ele>286.1</ele>
        <time>2011-08-17T12:28:34Z</time>
      </trkpt>
      <trkpt lat="41.771935" lon="2.870292">
        <ele>281.8</ele>
        <time>2011-08-17T12:28:39Z</time>
      </trkpt>
      <trkpt lat="41.772092" lon="2.870496">
        <ele>278.9</ele>
        <time>2011-08-17T12:28:43Z</time>
      </trkpt>
      <trkpt lat="41.772378" lon="2.870379">
        <ele>277.5</ele>
        <time>2011-08-17T12:28:47Z</time>
      </trkpt>
      <trkpt lat="41.772542" lon="2.870491">
        <ele>274.1</ele>
        <time>2011-08-17T12:28:50Z</time>
      </trkpt>
      <trkpt lat="41.772577" lon="2.870576">
        <ele>273.6</ele>
        <time>2011-08-17T12:28:51Z</time>
      </trkpt>
      <trkpt lat="41.772736" lon="2.871279">
        <ele>266.9</ele>
        <time>2011-08-17T12:28:57Z</time>
      </trkpt>
      <trkpt lat="41.772750" lon="2.871464">
        <ele>265.5</ele>
        <time>2011-08-17T12:28:59Z</time>
      </trkpt>
      <trkpt lat="41.772883" lon="2.871595">
        <ele>262.6</ele>
        <time>2011-08-17T12:29:03Z</time>
      </trkpt>
      <trkpt lat="41.773023" lon="2.871479">
        <ele>262.1</ele>
        <time>2011-08-17T12:29:06Z</time>
      </trkpt>
      <trkpt lat="41.773291" lon="2.871091">
        <ele>257.3</ele>
        <time>2011-08-17T12:29:12Z</time>
      </trkpt>
      <trkpt lat="41.773409" lon="2.870939">
        <ele>254.9</ele>
        <time>2011-08-17T12:29:15Z</time>
      </trkpt>
      <trkpt lat="41.773518" lon="2.870852">
        <ele>252.5</ele>
        <time>2011-08-17T12:29:19Z</time>
      </trkpt>
      <trkpt lat="41.773503" lon="2.870847">
        <ele>250.6</ele>
        <time>2011-08-17T12:29:28Z</time>
      </trkpt>
      <trkpt lat="41.773503" lon="2.870847">
        <ele>251.0</ele>
        <time>2011-08-17T12:30:48Z</time>
      </trkpt>
      <trkpt lat="41.773410" lon="2.870957">
        <ele>248.2</ele>
        <time>2011-08-17T12:30:53Z</time>
      </trkpt>
      <trkpt lat="41.773272" lon="2.871178">
        <ele>248.6</ele>
        <time>2011-08-17T12:31:00Z</time>
      </trkpt>
      <trkpt lat="41.773106" lon="2.871429">
        <ele>248.2</ele>
        <time>2011-08-17T12:31:07Z</time>
      </trkpt>
      <trkpt lat="41.772929" lon="2.871840">
        <ele>247.7</ele>
        <time>2011-08-17T12:31:16Z</time>
      </trkpt>
      <trkpt lat="41.772722" lon="2.872219">
        <ele>247.7</ele>
        <time>2011-08-17T12:31:25Z</time>
      </trkpt>
      <trkpt lat="41.772659" lon="2.872340">
        <ele>247.7</ele>
        <time>2011-08-17T12:31:28Z</time>
      </trkpt>
      <trkpt lat="41.772392" lon="2.872749">
        <ele>247.2</ele>
        <time>2011-08-17T12:31:36Z</time>
      </trkpt>
      <trkpt lat="41.772122" lon="2.873144">
        <ele>244.8</ele>
        <time>2011-08-17T12:31:42Z</time>
      </trkpt>
      <trkpt lat="41.771750" lon="2.873616">
        <ele>243.4</ele>
        <time>2011-08-17T12:31:49Z</time>
      </trkpt>
      <trkpt lat="41.771442" lon="2.873990">
        <ele>240.9</ele>
        <time>2011-08-17T12:31:55Z</time>
      </trkpt>
      <trkpt lat="41.771243" lon="2.874549">
        <ele>236.1</ele>
        <time>2011-08-17T12:32:01Z</time>
      </trkpt>
      <trkpt lat="41.771230" lon="2.874762">
        <ele>235.2</ele>
        <time>2011-08-17T12:32:03Z</time>
      </trkpt>
      <trkpt lat="41.771250" lon="2.875142">
        <ele>234.2</ele>
        <time>2011-08-17T12:32:07Z</time>
      </trkpt>
      <trkpt lat="41.771114" lon="2.875565">
        <ele>232.8</ele>
        <time>2011-08-17T12:32:12Z</time>
      </trkpt>
      <trkpt lat="41.771053" lon="2.875619">
        <ele>232.3</ele>
        <time>2011-08-17T12:32:13Z</time>
      </trkpt>
      <trkpt lat="41.770772" lon="2.875934">
        <ele>231.8</ele>
        <time>2011-08-17T12:32:18Z</time>
      </trkpt>
      <trkpt lat="41.770806" lon="2.876212">
        <ele>231.8</ele>
        <time>2011-08-17T12:32:21Z</time>
      </trkpt>
      <trkpt lat="41.771079" lon="2.876571">
        <ele>229.9</ele>
        <time>2011-08-17T12:32:26Z</time>
      </trkpt>
      <trkpt lat="41.771172" lon="2.876862">
        <ele>229.9</ele>
        <time>2011-08-17T12:32:29Z</time>
      </trkpt>
      <trkpt lat="41.771076" lon="2.877146">
        <ele>229.4</ele>
        <time>2011-08-17T12:32:32Z</time>
      </trkpt>
      <trkpt lat="41.770806" lon="2.877417">
        <ele>227.5</ele>
        <time>2011-08-17T12:32:36Z</time>
      </trkpt>
      <trkpt lat="41.770660" lon="2.877703">
        <ele>225.6</ele>
        <time>2011-08-17T12:32:39Z</time>
      </trkpt>
      <trkpt lat="41.770686" lon="2.877942">
        <ele>221.2</ele>
        <time>2011-08-17T12:32:41Z</time>
      </trkpt>
      <trkpt lat="41.770751" lon="2.878175">
        <ele>219.8</ele>
        <time>2011-08-17T12:32:43Z</time>
      </trkpt>
      <trkpt lat="41.770724" lon="2.878559">
        <ele>218.8</ele>
        <time>2011-08-17T12:32:46Z</time>
      </trkpt>
      <trkpt lat="41.770558" lon="2.878715">
        <ele>217.4</ele>
        <time>2011-08-17T12:32:48Z</time>
      </trkpt>
      <trkpt lat="41.770355" lon="2.878745">
        <ele>216.0</ele>
        <time>2011-08-17T12:32:50Z</time>
      </trkpt>
      <trkpt lat="41.769874" lon="2.878952">
        <ele>211.6</ele>
        <time>2011-08-17T12:32:55Z</time>
      </trkpt>
      <trkpt lat="41.769820" lon="2.879066">
        <ele>210.7</ele>
        <time>2011-08-17T12:32:56Z</time>
      </trkpt>
      <trkpt lat="41.769596" lon="2.879672">
        <ele>207.3</ele>
        <time>2011-08-17T12:33:01Z</time>
      </trkpt>
      <trkpt lat="41.769265" lon="2.880144">
        <ele>202.0</ele>
        <time>2011-08-17T12:33:06Z</time>
      </trkpt>
      <trkpt lat="41.769063" lon="2.880174">
        <ele>200.6</ele>
        <time>2011-08-17T12:33:08Z</time>
      </trkpt>
      <trkpt lat="41.768176" lon="2.880216">
        <ele>194.8</ele>
        <time>2011-08-17T12:33:17Z</time>
      </trkpt>
      <trkpt lat="41.768082" lon="2.880224">
        <ele>194.8</ele>
        <time>2011-08-17T12:33:18Z</time>
      </trkpt>
      <trkpt lat="41.767773" lon="2.880491">
        <ele>191.9</ele>
        <time>2011-08-17T12:33:22Z</time>
      </trkpt>
      <trkpt lat="41.767767" lon="2.880752">
        <ele>191.0</ele>
        <time>2011-08-17T12:33:24Z</time>
      </trkpt>
      <trkpt lat="41.767896" lon="2.880958">
        <ele>189.5</ele>
        <time>2011-08-17T12:33:26Z</time>
      </trkpt>
      <trkpt lat="41.768081" lon="2.881079">
        <ele>187.6</ele>
        <time>2011-08-17T12:33:28Z</time>
      </trkpt>
      <trkpt lat="41.768285" lon="2.881164">
        <ele>187.1</ele>
        <time>2011-08-17T12:33:30Z</time>
      </trkpt>
      <trkpt lat="41.768619" lon="2.881541">
        <ele>183.3</ele>
        <time>2011-08-17T12:33:34Z</time>
      </trkpt>
      <trkpt lat="41.768697" lon="2.881984">
        <ele>179.9</ele>
        <time>2011-08-17T12:33:37Z</time>
      </trkpt>
      <trkpt lat="41.768694" lon="2.882143">
        <ele>178.9</ele>
        <time>2011-08-17T12:33:38Z</time>
      </trkpt>
      <trkpt lat="41.768722" lon="2.882991">
        <ele>174.6</ele>
        <time>2011-08-17T12:33:43Z</time>
      </trkpt>
      <trkpt lat="41.768355" lon="2.883488">
        <ele>170.8</ele>
        <time>2011-08-17T12:33:47Z</time>
      </trkpt>
      <trkpt lat="41.768119" lon="2.883696">
        <ele>169.3</ele>
        <time>2011-08-17T12:33:49Z</time>
      </trkpt>
      <trkpt lat="41.767871" lon="2.883887">
        <ele>167.4</ele>
        <time>2011-08-17T12:33:51Z</time>
      </trkpt>
      <trkpt lat="41.767250" lon="2.884062">
        <ele>160.7</ele>
        <time>2011-08-17T12:33:56Z</time>
      </trkpt>
      <trkpt lat="41.766638" lon="2.884006">
        <ele>152.0</ele>
        <time>2011-08-17T12:34:01Z</time>
      </trkpt>
      <trkpt lat="41.765925" lon="2.883711">
        <ele>145.3</ele>
        <time>2011-08-17T12:34:07Z</time>
      </trkpt>
      <trkpt lat="41.765579" lon="2.883546">
        <ele>142.4</ele>
        <time>2011-08-17T12:34:10Z</time>
      </trkpt>
      <trkpt lat="41.764972" lon="2.883540">
        <ele>134.2</ele>
        <time>2011-08-17T12:34:15Z</time>
      </trkpt>
      <trkpt lat="41.764679" lon="2.883799">
        <ele>129.4</ele>
        <time>2011-08-17T12:34:18Z</time>
      </trkpt>
      <trkpt lat="41.764555" lon="2.884212">
        <ele>128.0</ele>
        <time>2011-08-17T12:34:21Z</time>
      </trkpt>
      <trkpt lat="41.764619" lon="2.884618">
        <ele>129.4</ele>
        <time>2011-08-17T12:34:24Z</time>
      </trkpt>
      <trkpt lat="41.764725" lon="2.884859">
        <ele>129.4</ele>
        <time>2011-08-17T12:34:26Z</time>
      </trkpt>
      <trkpt lat="41.765110" lon="2.885600">
        <ele>127.5</ele>
        <time>2011-08-17T12:34:32Z</time>
      </trkpt>
      <trkpt lat="41.765155" lon="2.886155">
        <ele>126.1</ele>
        <time>2011-08-17T12:34:36Z</time>
      </trkpt>
      <trkpt lat="41.764991" lon="2.886326">
        <ele>125.6</ele>
        <time>2011-08-17T12:34:38Z</time>
      </trkpt>
      <trkpt lat="41.764788" lon="2.886281">
        <ele>124.1</ele>
        <time>2011-08-17T12:34:40Z</time>
      </trkpt>
      <trkpt lat="41.764586" lon="2.885970">
        <ele>119.3</ele>
        <time>2011-08-17T12:34:43Z</time>
      </trkpt>
      <trkpt lat="41.764291" lon="2.885353">
        <ele>116.5</ele>
        <time>2011-08-17T12:34:48Z</time>
      </trkpt>
      <trkpt lat="41.763857" lon="2.884672">
        <ele>115.5</ele>
        <time>2011-08-17T12:34:54Z</time>
      </trkpt>
      <trkpt lat="41.763451" lon="2.884401">
        <ele>113.1</ele>
        <time>2011-08-17T12:34:58Z</time>
      </trkpt>
      <trkpt lat="41.763231" lon="2.884377">
        <ele>113.6</ele>
        <time>2011-08-17T12:35:00Z</time>
      </trkpt>
      <trkpt lat="41.762420" lon="2.884586">
        <ele>110.2</ele>
        <time>2011-08-17T12:35:08Z</time>
      </trkpt>
      <trkpt lat="41.761811" lon="2.884643">
        <ele>108.3</ele>
        <time>2011-08-17T12:35:15Z</time>
      </trkpt>
      <trkpt lat="41.761006" lon="2.884567">
        <ele>105.9</ele>
        <time>2011-08-17T12:35:25Z</time>
      </trkpt>
      <trkpt lat="41.760384" lon="2.884590">
        <ele>103.5</ele>
        <time>2011-08-17T12:35:34Z</time>
      </trkpt>
      <trkpt lat="41.759793" lon="2.884718">
        <ele>99.6</ele>
        <time>2011-08-17T12:35:43Z</time>
      </trkpt>
      <trkpt lat="41.759093" lon="2.884882">
        <ele>98.7</ele>
        <time>2011-08-17T12:35:53Z</time>
      </trkpt>
      <trkpt lat="41.758495" lon="2.885017">
        <ele>96.3</ele>
        <time>2011-08-17T12:36:02Z</time>
      </trkpt>
      <trkpt lat="41.757912" lon="2.885260">
        <ele>95.3</ele>
        <time>2011-08-17T12:36:10Z</time>
      </trkpt>
      <trkpt lat="41.757220" lon="2.885700">
        <ele>94.3</ele>
        <time>2011-08-17T12:36:20Z</time>
      </trkpt>
      <trkpt lat="41.756848" lon="2.886091">
        <ele>95.8</ele>
        <time>2011-08-17T12:36:27Z</time>
      </trkpt>
      <trkpt lat="41.756556" lon="2.886549">
        <ele>101.1</ele>
        <time>2011-08-17T12:36:35Z</time>
      </trkpt>
      <trkpt lat="41.756304" lon="2.886993">
        <ele>109.2</ele>
        <time>2011-08-17T12:36:44Z</time>
      </trkpt>
      <trkpt lat="41.756191" lon="2.887228">
        <ele>109.2</ele>
        <time>2011-08-17T12:36:51Z</time>
      </trkpt>
      <trkpt lat="41.756095" lon="2.887437">
        <ele>107.8</ele>
        <time>2011-08-17T12:36:57Z</time>
      </trkpt>
      <trkpt lat="41.756041" lon="2.887736">
        <ele>96.7</ele>
        <time>2011-08-17T12:37:04Z</time>
      </trkpt>
      <trkpt lat="41.755821" lon="2.888106">
        <ele>93.4</ele>
        <time>2011-08-17T12:37:12Z</time>
      </trkpt>
      <trkpt lat="41.755519" lon="2.888396">
        <ele>93.4</ele>
        <time>2011-08-17T12:37:20Z</time>
      </trkpt>
      <trkpt lat="41.755122" lon="2.888603">
        <ele>93.9</ele>
        <time>2011-08-17T12:37:29Z</time>
      </trkpt>
      <trkpt lat="41.754671" lon="2.888718">
        <ele>91.0</ele>
        <time>2011-08-17T12:37:39Z</time>
      </trkpt>
      <trkpt lat="41.754327" lon="2.888811">
        <ele>91.0</ele>
        <time>2011-08-17T12:37:48Z</time>
      </trkpt>
      <trkpt lat="41.754243" lon="2.888829">
        <ele>92.9</ele>
        <time>2011-08-17T12:37:50Z</time>
      </trkpt>
      <trkpt lat="41.754166" lon="2.888866">
        <ele>92.9</ele>
        <time>2011-08-17T12:37:52Z</time>
      </trkpt>
      <trkpt lat="41.753899" lon="2.888965">
        <ele>93.4</ele>
        <time>2011-08-17T12:38:00Z</time>
      </trkpt>
      <trkpt lat="41.753882" lon="2.888986">
        <ele>92.9</ele>
        <time>2011-08-17T12:38:04Z</time>
      </trkpt>
      <trkpt lat="41.753855" lon="2.889001">
        <ele>92.4</ele>
        <time>2011-08-17T12:38:46Z</time>
      </trkpt>
      <trkpt lat="41.753832" lon="2.889011">
        <ele>91.5</ele>
        <time>2011-08-17T12:38:59Z</time>
      </trkpt>
      <trkpt lat="41.753785" lon="2.889059">
        <ele>90.5</ele>
        <time>2011-08-17T12:39:13Z</time>
      </trkpt>
      <trkpt lat="41.753655" lon="2.889211">
        <ele>88.6</ele>
        <time>2011-08-17T12:39:18Z</time>
      </trkpt>
      <trkpt lat="41.753420" lon="2.889611">
        <ele>85.2</ele>
        <time>2011-08-17T12:39:25Z</time>
      </trkpt>
      <trkpt lat="41.753179" lon="2.890141">
        <ele>82.3</ele>
        <time>2011-08-17T12:39:32Z</time>
      </trkpt>
      <trkpt lat="41.753147" lon="2.890229">
        <ele>81.4</ele>
        <time>2011-08-17T12:39:33Z</time>
      </trkpt>
      <trkpt lat="41.753015" lon="2.890504">
        <ele>80.4</ele>
        <time>2011-08-17T12:39:36Z</time>
      </trkpt>
      <trkpt lat="41.752762" lon="2.890805">
        <ele>79.4</ele>
        <time>2011-08-17T12:39:40Z</time>
      </trkpt>
      <trkpt lat="41.752298" lon="2.891260">
        <ele>79.0</ele>
        <time>2011-08-17T12:39:47Z</time>
      </trkpt>
      <trkpt lat="41.751934" lon="2.891424">
        <ele>77.5</ele>
        <time>2011-08-17T12:39:52Z</time>
      </trkpt>
      <trkpt lat="41.751462" lon="2.891266">
        <ele>74.6</ele>
        <time>2011-08-17T12:39:59Z</time>
      </trkpt>
      <trkpt lat="41.750860" lon="2.891162">
        <ele>69.8</ele>
        <time>2011-08-17T12:40:07Z</time>
      </trkpt>
      <trkpt lat="41.750222" lon="2.891226">
        <ele>64.1</ele>
        <time>2011-08-17T12:40:15Z</time>
      </trkpt>
      <trkpt lat="41.749702" lon="2.891380">
        <ele>64.1</ele>
        <time>2011-08-17T12:40:23Z</time>
      </trkpt>
      <trkpt lat="41.749261" lon="2.891538">
        <ele>64.5</ele>
        <time>2011-08-17T12:40:31Z</time>
      </trkpt>
      <trkpt lat="41.748755" lon="2.891742">
        <ele>62.1</ele>
        <time>2011-08-17T12:40:40Z</time>
      </trkpt>
      <trkpt lat="41.748293" lon="2.892049">
        <ele>63.1</ele>
        <time>2011-08-17T12:40:48Z</time>
      </trkpt>
      <trkpt lat="41.747908" lon="2.892376">
        <ele>64.5</ele>
        <time>2011-08-17T12:40:56Z</time>
      </trkpt>
      <trkpt lat="41.747654" lon="2.892601">
        <ele>66.5</ele>
        <time>2011-08-17T12:41:02Z</time>
      </trkpt>
      <trkpt lat="41.747341" lon="2.892903">
        <ele>69.4</ele>
        <time>2011-08-17T12:41:11Z</time>
      </trkpt>
      <trkpt lat="41.747014" lon="2.893175">
        <ele>72.7</ele>
        <time>2011-08-17T12:41:19Z</time>
      </trkpt>
      <trkpt lat="41.746665" lon="2.893508">
        <ele>73.7</ele>
        <time>2011-08-17T12:41:27Z</time>
      </trkpt>
      <trkpt lat="41.746313" lon="2.893765">
        <ele>78.0</ele>
        <time>2011-08-17T12:41:35Z</time>
      </trkpt>
      <trkpt lat="41.745986" lon="2.894013">
        <ele>68.9</ele>
        <time>2011-08-17T12:41:46Z</time>
      </trkpt>
      <trkpt lat="41.745727" lon="2.894097">
        <ele>65.0</ele>
        <time>2011-08-17T12:41:55Z</time>
      </trkpt>
      <trkpt lat="41.745507" lon="2.894149">
        <ele>62.6</ele>
        <time>2011-08-17T12:42:03Z</time>
      </trkpt>
      <trkpt lat="41.745370" lon="2.894166">
        <ele>60.7</ele>
        <time>2011-08-17T12:42:09Z</time>
      </trkpt>
      <trkpt lat="41.745208" lon="2.894213">
        <ele>59.3</ele>
        <time>2011-08-17T12:42:17Z</time>
      </trkpt>
      <trkpt lat="41.745149" lon="2.894235">
        <ele>58.3</ele>
        <time>2011-08-17T12:42:21Z</time>
      </trkpt>
      <trkpt lat="41.745016" lon="2.894278">
        <ele>56.4</ele>
        <time>2011-08-17T12:42:29Z</time>
      </trkpt>
      <trkpt lat="41.744806" lon="2.894313">
        <ele>55.4</ele>
        <time>2011-08-17T12:42:38Z</time>
      </trkpt>
      <trkpt lat="41.744614" lon="2.894315">
        <ele>56.9</ele>
        <time>2011-08-17T12:42:45Z</time>
      </trkpt>
      <trkpt lat="41.744421" lon="2.894359">
        <ele>57.8</ele>
        <time>2011-08-17T12:42:54Z</time>
      </trkpt>
      <trkpt lat="41.744225" lon="2.894375">
        <ele>57.8</ele>
        <time>2011-08-17T12:43:02Z</time>
      </trkpt>
      <trkpt lat="41.744025" lon="2.894390">
        <ele>57.8</ele>
        <time>2011-08-17T12:43:11Z</time>
      </trkpt>
      <trkpt lat="41.743862" lon="2.894423">
        <ele>58.3</ele>
        <time>2011-08-17T12:43:21Z</time>
      </trkpt>
      <trkpt lat="41.743748" lon="2.894453">
        <ele>57.8</ele>
        <time>2011-08-17T12:43:28Z</time>
      </trkpt>
      <trkpt lat="41.743621" lon="2.894477">
        <ele>57.8</ele>
        <time>2011-08-17T12:43:36Z</time>
      </trkpt>
      <trkpt lat="41.743483" lon="2.894513">
        <ele>56.9</ele>
        <time>2011-08-17T12:43:43Z</time>
      </trkpt>
      <trkpt lat="41.743258" lon="2.894574">
        <ele>55.9</ele>
        <time>2011-08-17T12:43:50Z</time>
      </trkpt>
      <trkpt lat="41.743030" lon="2.894670">
        <ele>54.5</ele>
        <time>2011-08-17T12:43:56Z</time>
      </trkpt>
      <trkpt lat="41.742919" lon="2.894735">
        <ele>54.0</ele>
        <time>2011-08-17T12:43:59Z</time>
      </trkpt>
      <trkpt lat="41.742671" lon="2.894931">
        <ele>52.0</ele>
        <time>2011-08-17T12:44:06Z</time>
      </trkpt>
      <trkpt lat="41.742476" lon="2.895318">
        <ele>51.6</ele>
        <time>2011-08-17T12:44:15Z</time>
      </trkpt>
      <trkpt lat="41.742372" lon="2.895753">
        <ele>57.3</ele>
        <time>2011-08-17T12:44:24Z</time>
      </trkpt>
      <trkpt lat="41.742357" lon="2.895856">
        <ele>58.3</ele>
        <time>2011-08-17T12:44:26Z</time>
      </trkpt>
      <trkpt lat="41.742325" lon="2.896474">
        <ele>56.9</ele>
        <time>2011-08-17T12:44:35Z</time>
      </trkpt>
      <trkpt lat="41.742301" lon="2.897216">
        <ele>55.4</ele>
        <time>2011-08-17T12:44:44Z</time>
      </trkpt>
      <trkpt lat="41.742212" lon="2.898073">
        <ele>54.5</ele>
        <time>2011-08-17T12:44:54Z</time>
      </trkpt>
      <trkpt lat="41.742162" lon="2.898219">
        <ele>54.5</ele>
        <time>2011-08-17T12:44:56Z</time>
      </trkpt>
      <trkpt lat="41.741941" lon="2.898491">
        <ele>54.0</ele>
        <time>2011-08-17T12:45:01Z</time>
      </trkpt>
      <trkpt lat="41.741766" lon="2.898588">
        <ele>53.5</ele>
        <time>2011-08-17T12:45:04Z</time>
      </trkpt>
      <trkpt lat="41.741543" lon="2.898690">
        <ele>52.0</ele>
        <time>2011-08-17T12:45:08Z</time>
      </trkpt>
      <trkpt lat="41.741170" lon="2.898640">
        <ele>53.5</ele>
        <time>2011-08-17T12:45:14Z</time>
      </trkpt>
      <trkpt lat="41.741117" lon="2.898615">
        <ele>54.0</ele>
        <time>2011-08-17T12:45:15Z</time>
      </trkpt>
      <trkpt lat="41.740932" lon="2.898429">
        <ele>57.3</ele>
        <time>2011-08-17T12:45:20Z</time>
      </trkpt>
      <trkpt lat="41.740796" lon="2.898168">
        <ele>60.2</ele>
        <time>2011-08-17T12:45:25Z</time>
      </trkpt>
      <trkpt lat="41.740560" lon="2.897743">
        <ele>64.1</ele>
        <time>2011-08-17T12:45:32Z</time>
      </trkpt>
      <trkpt lat="41.740303" lon="2.897175">
        <ele>64.1</ele>
        <time>2011-08-17T12:45:41Z</time>
      </trkpt>
      <trkpt lat="41.739941" lon="2.896888">
        <ele>54.0</ele>
        <time>2011-08-17T12:45:48Z</time>
      </trkpt>
      <trkpt lat="41.739846" lon="2.896838">
        <ele>52.0</ele>
        <time>2011-08-17T12:45:50Z</time>
      </trkpt>
      <trkpt lat="41.739439" lon="2.896756">
        <ele>48.7</ele>
        <time>2011-08-17T12:45:58Z</time>
      </trkpt>
      <trkpt lat="41.739041" lon="2.896871">
        <ele>44.8</ele>
        <time>2011-08-17T12:46:05Z</time>
      </trkpt>
      <trkpt lat="41.738574" lon="2.897056">
        <ele>42.9</ele>
        <time>2011-08-17T12:46:13Z</time>
      </trkpt>
      <trkpt lat="41.738047" lon="2.897161">
        <ele>42.0</ele>
        <time>2011-08-17T12:46:22Z</time>
      </trkpt>
      <trkpt lat="41.737607" lon="2.897077">
        <ele>42.0</ele>
        <time>2011-08-17T12:46:30Z</time>
      </trkpt>
      <trkpt lat="41.737383" lon="2.897005">
        <ele>41.5</ele>
        <time>2011-08-17T12:46:34Z</time>
      </trkpt>
      <trkpt lat="41.736856" lon="2.896738">
        <ele>38.6</ele>
        <time>2011-08-17T12:46:44Z</time>
      </trkpt>
      <trkpt lat="41.736478" lon="2.896410">
        <ele>42.0</ele>
        <time>2011-08-17T12:46:52Z</time>
      </trkpt>
      <trkpt lat="41.736102" lon="2.896078">
        <ele>43.9</ele>
        <time>2011-08-17T12:47:00Z</time>
      </trkpt>
      <trkpt lat="41.735788" lon="2.895892">
        <ele>44.8</ele>
        <time>2011-08-17T12:47:06Z</time>
      </trkpt>
      <trkpt lat="41.735474" lon="2.895817">
        <ele>42.4</ele>
        <time>2011-08-17T12:47:13Z</time>
      </trkpt>
      <trkpt lat="41.735093" lon="2.895866">
        <ele>40.5</ele>
        <time>2011-08-17T12:47:22Z</time>
      </trkpt>
      <trkpt lat="41.734923" lon="2.895970">
        <ele>40.0</ele>
        <time>2011-08-17T12:47:26Z</time>
      </trkpt>
      <trkpt lat="41.734779" lon="2.896101">
        <ele>39.6</ele>
        <time>2011-08-17T12:47:30Z</time>
      </trkpt>
      <trkpt lat="41.734713" lon="2.896186">
        <ele>39.6</ele>
        <time>2011-08-17T12:47:32Z</time>
      </trkpt>
      <trkpt lat="41.734400" lon="2.896515">
        <ele>38.6</ele>
        <time>2011-08-17T12:47:39Z</time>
      </trkpt>
      <trkpt lat="41.734139" lon="2.896891">
        <ele>40.0</ele>
        <time>2011-08-17T12:47:45Z</time>
      </trkpt>
      <trkpt lat="41.733677" lon="2.897418">
        <ele>39.6</ele>
        <time>2011-08-17T12:47:55Z</time>
      </trkpt>
      <trkpt lat="41.733306" lon="2.897994">
        <ele>38.6</ele>
        <time>2011-08-17T12:48:04Z</time>
      </trkpt>
      <trkpt lat="41.733096" lon="2.898317">
        <ele>39.1</ele>
        <time>2011-08-17T12:48:09Z</time>
      </trkpt>
      <trkpt lat="41.732996" lon="2.898432">
        <ele>39.1</ele>
        <time>2011-08-17T12:48:11Z</time>
      </trkpt>
      <trkpt lat="41.732887" lon="2.898547">
        <ele>39.1</ele>
        <time>2011-08-17T12:48:13Z</time>
      </trkpt>
      <trkpt lat="41.732660" lon="2.898698">
        <ele>39.1</ele>
        <time>2011-08-17T12:48:17Z</time>
      </trkpt>
      <trkpt lat="41.732092" lon="2.898803">
        <ele>36.7</ele>
        <time>2011-08-17T12:48:25Z</time>
      </trkpt>
      <trkpt lat="41.731704" lon="2.898878">
        <ele>30.9</ele>
        <time>2011-08-17T12:48:32Z</time>
      </trkpt>
      <trkpt lat="41.731310" lon="2.898945">
        <ele>25.6</ele>
        <time>2011-08-17T12:48:40Z</time>
      </trkpt>
      <trkpt lat="41.731093" lon="2.898994">
        <ele>22.7</ele>
        <time>2011-08-17T12:48:45Z</time>
      </trkpt>
      <trkpt lat="41.730832" lon="2.899011">
        <ele>22.7</ele>
        <time>2011-08-17T12:48:51Z</time>
      </trkpt>
      <trkpt lat="41.730404" lon="2.899059">
        <ele>23.7</ele>
        <time>2011-08-17T12:49:00Z</time>
      </trkpt>
      <trkpt lat="41.730041" lon="2.899115">
        <ele>23.2</ele>
        <time>2011-08-17T12:49:08Z</time>
      </trkpt>
      <trkpt lat="41.729750" lon="2.899138">
        <ele>22.7</ele>
        <time>2011-08-17T12:49:16Z</time>
      </trkpt>
      <trkpt lat="41.729637" lon="2.899171">
        <ele>22.7</ele>
        <time>2011-08-17T12:49:21Z</time>
      </trkpt>
      <trkpt lat="41.729484" lon="2.899205">
        <ele>23.2</ele>
        <time>2011-08-17T12:49:28Z</time>
      </trkpt>
      <trkpt lat="41.729405" lon="2.899241">
        <ele>23.7</ele>
        <time>2011-08-17T12:49:33Z</time>
      </trkpt>
      <trkpt lat="41.729467" lon="2.899270">
        <ele>25.6</ele>
        <time>2011-08-17T12:49:38Z</time>
      </trkpt>
      <trkpt lat="41.729510" lon="2.899220">
        <ele>26.1</ele>
        <time>2011-08-17T12:49:41Z</time>
      </trkpt>
      <trkpt lat="41.729379" lon="2.899221">
        <ele>28.5</ele>
        <time>2011-08-17T12:49:49Z</time>
      </trkpt>
      <trkpt lat="41.729286" lon="2.899260">
        <ele>29.9</ele>
        <time>2011-08-17T12:49:55Z</time>
      </trkpt>
      <trkpt lat="41.729090" lon="2.899327">
        <ele>31.4</ele>
        <time>2011-08-17T12:50:02Z</time>
      </trkpt>
      <trkpt lat="41.728873" lon="2.899454">
        <ele>33.3</ele>
        <time>2011-08-17T12:50:09Z</time>
      </trkpt>
      <trkpt lat="41.728711" lon="2.899576">
        <ele>31.4</ele>
        <time>2011-08-17T12:50:15Z</time>
      </trkpt>
      <trkpt lat="41.728513" lon="2.899809">
        <ele>29.5</ele>
        <time>2011-08-17T12:50:22Z</time>
      </trkpt>
      <trkpt lat="41.728398" lon="2.900114">
        <ele>24.7</ele>
        <time>2011-08-17T12:50:29Z</time>
      </trkpt>
      <trkpt lat="41.728312" lon="2.900479">
        <ele>26.1</ele>
        <time>2011-08-17T12:50:35Z</time>
      </trkpt>
      <trkpt lat="41.728272" lon="2.901210">
        <ele>26.6</ele>
        <time>2011-08-17T12:50:45Z</time>
      </trkpt>
      <trkpt lat="41.728225" lon="2.902155">
        <ele>25.6</ele>
        <time>2011-08-17T12:50:56Z</time>
      </trkpt>
      <trkpt lat="41.728179" lon="2.903146">
        <ele>24.7</ele>
        <time>2011-08-17T12:51:06Z</time>
      </trkpt>
      <trkpt lat="41.728178" lon="2.904069">
        <ele>22.2</ele>
        <time>2011-08-17T12:51:15Z</time>
      </trkpt>
      <trkpt lat="41.728315" lon="2.904725">
        <ele>21.8</ele>
        <time>2011-08-17T12:51:22Z</time>
      </trkpt>
      <trkpt lat="41.728554" lon="2.905297">
        <ele>21.8</ele>
        <time>2011-08-17T12:51:29Z</time>
      </trkpt>
      <trkpt lat="41.728835" lon="2.905833">
        <ele>22.2</ele>
        <time>2011-08-17T12:51:37Z</time>
      </trkpt>
      <trkpt lat="41.729145" lon="2.906423">
        <ele>23.2</ele>
        <time>2011-08-17T12:51:46Z</time>
      </trkpt>
      <trkpt lat="41.729499" lon="2.907059">
        <ele>22.7</ele>
        <time>2011-08-17T12:51:56Z</time>
      </trkpt>
      <trkpt lat="41.729868" lon="2.907743">
        <ele>21.8</ele>
        <time>2011-08-17T12:52:06Z</time>
      </trkpt>
      <trkpt lat="41.730284" lon="2.908482">
        <ele>22.7</ele>
        <time>2011-08-17T12:52:17Z</time>
      </trkpt>
      <trkpt lat="41.730631" lon="2.909146">
        <ele>22.7</ele>
        <time>2011-08-17T12:52:27Z</time>
      </trkpt>
      <trkpt lat="41.730932" lon="2.909726">
        <ele>24.2</ele>
        <time>2011-08-17T12:52:36Z</time>
      </trkpt>
      <trkpt lat="41.731156" lon="2.910259">
        <ele>24.7</ele>
        <time>2011-08-17T12:52:44Z</time>
      </trkpt>
      <trkpt lat="41.731288" lon="2.910948">
        <ele>23.7</ele>
        <time>2011-08-17T12:52:53Z</time>
      </trkpt>
      <trkpt lat="41.731280" lon="2.911586">
        <ele>23.2</ele>
        <time>2011-08-17T12:53:01Z</time>
      </trkpt>
      <trkpt lat="41.731204" lon="2.912130">
        <ele>22.2</ele>
        <time>2011-08-17T12:53:08Z</time>
      </trkpt>
      <trkpt lat="41.731076" lon="2.912867">
        <ele>20.8</ele>
        <time>2011-08-17T12:53:17Z</time>
      </trkpt>
      <trkpt lat="41.730923" lon="2.913672">
        <ele>19.4</ele>
        <time>2011-08-17T12:53:26Z</time>
      </trkpt>
      <trkpt lat="41.730791" lon="2.914383">
        <ele>18.9</ele>
        <time>2011-08-17T12:53:34Z</time>
      </trkpt>
      <trkpt lat="41.730728" lon="2.914719">
        <ele>19.4</ele>
        <time>2011-08-17T12:53:38Z</time>
      </trkpt>
      <trkpt lat="41.730589" lon="2.915433">
        <ele>17.0</ele>
        <time>2011-08-17T12:53:47Z</time>
      </trkpt>
      <trkpt lat="41.730332" lon="2.916051">
        <ele>16.0</ele>
        <time>2011-08-17T12:53:56Z</time>
      </trkpt>
      <trkpt lat="41.730065" lon="2.916614">
        <ele>15.0</ele>
        <time>2011-08-17T12:54:06Z</time>
      </trkpt>
      <trkpt lat="41.730036" lon="2.916663">
        <ele>15.0</ele>
        <time>2011-08-17T12:54:07Z</time>
      </trkpt>
      <trkpt lat="41.729777" lon="2.917004">
        <ele>17.9</ele>
        <time>2011-08-17T12:54:15Z</time>
      </trkpt>
      <trkpt lat="41.729603" lon="2.917299">
        <ele>19.8</ele>
        <time>2011-08-17T12:54:21Z</time>
      </trkpt>
      <trkpt lat="41.729239" lon="2.917896">
        <ele>17.4</ele>
        <time>2011-08-17T12:54:33Z</time>
      </trkpt>
      <trkpt lat="41.729028" lon="2.918282">
        <ele>14.6</ele>
        <time>2011-08-17T12:54:42Z</time>
      </trkpt>
      <trkpt lat="41.728898" lon="2.918407">
        <ele>14.6</ele>
        <time>2011-08-17T12:54:46Z</time>
      </trkpt>
      <trkpt lat="41.728778" lon="2.918525">
        <ele>17.0</ele>
        <time>2011-08-17T12:54:50Z</time>
      </trkpt>
      <trkpt lat="41.728663" lon="2.918841">
        <ele>18.9</ele>
        <time>2011-08-17T12:54:56Z</time>
      </trkpt>
      <trkpt lat="41.728434" lon="2.919298">
        <ele>20.3</ele>
        <time>2011-08-17T12:55:05Z</time>
      </trkpt>
      <trkpt lat="41.728302" lon="2.919559">
        <ele>20.3</ele>
        <time>2011-08-17T12:55:11Z</time>
      </trkpt>
      <trkpt lat="41.728257" lon="2.919858">
        <ele>19.8</ele>
        <time>2011-08-17T12:55:17Z</time>
      </trkpt>
      <trkpt lat="41.728289" lon="2.919979">
        <ele>17.0</ele>
        <time>2011-08-17T12:55:22Z</time>
      </trkpt>
      <trkpt lat="41.728287" lon="2.920077">
        <ele>15.5</ele>
        <time>2011-08-17T12:58:53Z</time>
      </trkpt>
      <trkpt lat="41.728374" lon="2.920413">
        <ele>15.0</ele>
        <time>2011-08-17T12:59:01Z</time>
      </trkpt>
      <trkpt lat="41.728370" lon="2.920636">
        <ele>14.6</ele>
        <time>2011-08-17T12:59:07Z</time>
      </trkpt>
      <trkpt lat="41.728388" lon="2.920925">
        <ele>13.6</ele>
        <time>2011-08-17T12:59:13Z</time>
      </trkpt>
      <trkpt lat="41.728435" lon="2.921525">
        <ele>12.6</ele>
        <time>2011-08-17T12:59:22Z</time>
      </trkpt>
      <trkpt lat="41.728472" lon="2.922181">
        <ele>13.1</ele>
        <time>2011-08-17T12:59:32Z</time>
      </trkpt>
      <trkpt lat="41.728490" lon="2.922868">
        <ele>14.1</ele>
        <time>2011-08-17T12:59:42Z</time>
      </trkpt>
      <trkpt lat="41.728446" lon="2.923155">
        <ele>14.1</ele>
        <time>2011-08-17T12:59:46Z</time>
      </trkpt>
      <trkpt lat="41.728397" lon="2.923351">
        <ele>13.6</ele>
        <time>2011-08-17T12:59:49Z</time>
      </trkpt>
      <trkpt lat="41.728254" lon="2.923809">
        <ele>11.7</ele>
        <time>2011-08-17T12:59:57Z</time>
      </trkpt>
      <trkpt lat="41.728024" lon="2.924234">
        <ele>7.3</ele>
        <time>2011-08-17T13:00:04Z</time>
      </trkpt>
      <trkpt lat="41.727664" lon="2.924879">
        <ele>4.0</ele>
        <time>2011-08-17T13:00:13Z</time>
      </trkpt>
      <trkpt lat="41.727392" lon="2.925393">
        <ele>5.4</ele>
        <time>2011-08-17T13:00:20Z</time>
      </trkpt>
      <trkpt lat="41.727165" lon="2.925511">
        <ele>5.9</ele>
        <time>2011-08-17T13:00:24Z</time>
      </trkpt>
      <trkpt lat="41.726969" lon="2.925772">
        <ele>8.8</ele>
        <time>2011-08-17T13:00:29Z</time>
      </trkpt>
      <trkpt lat="41.727060" lon="2.925971">
        <ele>9.8</ele>
        <time>2011-08-17T13:00:32Z</time>
      </trkpt>
      <trkpt lat="41.727251" lon="2.926020">
        <ele>10.7</ele>
        <time>2011-08-17T13:00:36Z</time>
      </trkpt>
      <trkpt lat="41.727316" lon="2.925935">
        <ele>9.8</ele>
        <time>2011-08-17T13:00:41Z</time>
      </trkpt>
      <trkpt lat="41.727328" lon="2.925941">
        <ele>9.3</ele>
        <time>2011-08-17T13:00:44Z</time>
      </trkpt>
      <trkpt lat="41.727225" lon="2.926022">
        <ele>10.2</ele>
        <time>2011-08-17T13:00:50Z</time>
      </trkpt>
      <trkpt lat="41.727017" lon="2.926214">
        <ele>8.3</ele>
        <time>2011-08-17T13:00:58Z</time>
      </trkpt>
      <trkpt lat="41.727024" lon="2.926233">
        <ele>8.3</ele>
        <time>2011-08-17T13:01:00Z</time>
      </trkpt>
      <trkpt lat="41.727118" lon="2.926296">
        <ele>8.3</ele>
        <time>2011-08-17T13:01:05Z</time>
      </trkpt>
      <trkpt lat="41.727351" lon="2.926381">
        <ele>6.4</ele>
        <time>2011-08-17T13:01:12Z</time>
      </trkpt>
      <trkpt lat="41.727391" lon="2.926370">
        <ele>6.4</ele>
        <time>2011-08-17T13:01:13Z</time>
      </trkpt>
      <trkpt lat="41.727696" lon="2.926166">
        <ele>4.9</ele>
        <time>2011-08-17T13:01:21Z</time>
      </trkpt>
      <trkpt lat="41.727931" lon="2.926041">
        <ele>4.0</ele>
        <time>2011-08-17T13:01:27Z</time>
      </trkpt>
      <trkpt lat="41.728178" lon="2.925881">
        <ele>4.5</ele>
        <time>2011-08-17T13:01:34Z</time>
      </trkpt>
      <trkpt lat="41.728366" lon="2.925798">
        <ele>5.9</ele>
        <time>2011-08-17T13:01:39Z</time>
      </trkpt>
      <trkpt lat="41.728565" lon="2.925696">
        <ele>7.8</ele>
        <time>2011-08-17T13:01:44Z</time>
      </trkpt>
      <trkpt lat="41.728883" lon="2.925542">
        <ele>10.2</ele>
        <time>2011-08-17T13:01:52Z</time>
      </trkpt>
      <trkpt lat="41.729109" lon="2.925428">
        <ele>11.7</ele>
        <time>2011-08-17T13:01:58Z</time>
      </trkpt>
      <trkpt lat="41.729151" lon="2.925410">
        <ele>12.2</ele>
        <time>2011-08-17T13:01:59Z</time>
      </trkpt>
      <trkpt lat="41.729329" lon="2.925326">
        <ele>13.6</ele>
        <time>2011-08-17T13:02:04Z</time>
      </trkpt>
      <trkpt lat="41.729614" lon="2.925222">
        <ele>14.1</ele>
        <time>2011-08-17T13:02:11Z</time>
      </trkpt>
      <trkpt lat="41.729786" lon="2.925144">
        <ele>14.6</ele>
        <time>2011-08-17T13:02:16Z</time>
      </trkpt>
      <trkpt lat="41.730026" lon="2.925066">
        <ele>15.0</ele>
        <time>2011-08-17T13:02:21Z</time>
      </trkpt>
      <trkpt lat="41.730265" lon="2.924867">
        <ele>15.0</ele>
        <time>2011-08-17T13:02:27Z</time>
      </trkpt>
      <trkpt lat="41.730519" lon="2.924696">
        <ele>15.0</ele>
        <time>2011-08-17T13:02:34Z</time>
      </trkpt>
      <trkpt lat="41.730677" lon="2.924643">
        <ele>14.1</ele>
        <time>2011-08-17T13:02:41Z</time>
      </trkpt>
      <trkpt lat="41.730726" lon="2.924634">
        <ele>13.6</ele>
        <time>2011-08-17T13:02:49Z</time>
      </trkpt>
      <trkpt lat="41.730874" lon="2.924654">
        <ele>6.4</ele>
        <time>2011-08-17T13:03:31Z</time>
      </trkpt>
      <trkpt lat="41.731028" lon="2.924729">
        <ele>6.9</ele>
        <time>2011-08-17T13:03:37Z</time>
      </trkpt>
      <trkpt lat="41.731170" lon="2.924844">
        <ele>7.3</ele>
        <time>2011-08-17T13:03:43Z</time>
      </trkpt>
      <trkpt lat="41.731191" lon="2.924867">
        <ele>7.3</ele>
        <time>2011-08-17T13:03:44Z</time>
      </trkpt>
      <trkpt lat="41.731221" lon="2.924941">
        <ele>7.3</ele>
        <time>2011-08-17T13:03:47Z</time>
      </trkpt>
      <trkpt lat="41.731355" lon="2.925026">
        <ele>8.3</ele>
        <time>2011-08-17T13:03:55Z</time>
      </trkpt>
      <trkpt lat="41.731491" lon="2.925083">
        <ele>8.3</ele>
        <time>2011-08-17T13:04:01Z</time>
      </trkpt>
      <trkpt lat="41.731630" lon="2.925123">
        <ele>8.8</ele>
        <time>2011-08-17T13:04:08Z</time>
      </trkpt>
      <trkpt lat="41.731796" lon="2.925162">
        <ele>9.3</ele>
        <time>2011-08-17T13:04:16Z</time>
      </trkpt>
      <trkpt lat="41.731975" lon="2.925293">
        <ele>8.8</ele>
        <time>2011-08-17T13:04:24Z</time>
      </trkpt>
      <trkpt lat="41.732147" lon="2.925433">
        <ele>8.3</ele>
        <time>2011-08-17T13:04:29Z</time>
      </trkpt>
      <trkpt lat="41.732302" lon="2.925527">
        <ele>8.8</ele>
        <time>2011-08-17T13:04:35Z</time>
      </trkpt>
      <trkpt lat="41.732443" lon="2.925641">
        <ele>8.3</ele>
        <time>2011-08-17T13:04:39Z</time>
      </trkpt>
      <trkpt lat="41.732535" lon="2.925869">
        <ele>7.3</ele>
        <time>2011-08-17T13:04:46Z</time>
      </trkpt>
      <trkpt lat="41.732588" lon="2.926074">
        <ele>8.8</ele>
        <time>2011-08-17T13:04:53Z</time>
      </trkpt>
      <trkpt lat="41.732653" lon="2.926211">
        <ele>9.3</ele>
        <time>2011-08-17T13:05:00Z</time>
      </trkpt>
      <trkpt lat="41.732675" lon="2.926228">
        <ele>9.3</ele>
        <time>2011-08-17T13:05:02Z</time>
      </trkpt>
      <trkpt lat="41.732746" lon="2.926354">
        <ele>9.3</ele>
        <time>2011-08-17T13:05:10Z</time>
      </trkpt>
      <trkpt lat="41.732803" lon="2.926433">
        <ele>9.3</ele>
        <time>2011-08-17T13:05:15Z</time>
      </trkpt>
      <trkpt lat="41.732872" lon="2.926562">
        <ele>9.3</ele>
        <time>2011-08-17T13:05:23Z</time>
      </trkpt>
      <trkpt lat="41.732882" lon="2.926599">
        <ele>9.3</ele>
        <time>2011-08-17T13:05:25Z</time>
      </trkpt>
      <trkpt lat="41.732938" lon="2.926732">
        <ele>9.8</ele>
        <time>2011-08-17T13:05:33Z</time>
      </trkpt>
      <trkpt lat="41.733012" lon="2.926843">
        <ele>10.2</ele>
        <time>2011-08-17T13:05:40Z</time>
      </trkpt>
      <trkpt lat="41.733080" lon="2.926979">
        <ele>11.7</ele>
        <time>2011-08-17T13:05:48Z</time>
      </trkpt>
      <trkpt lat="41.733081" lon="2.927035">
        <ele>12.6</ele>
        <time>2011-08-17T13:05:51Z</time>
      </trkpt>
      <trkpt lat="41.733184" lon="2.927178">
        <ele>13.6</ele>
        <time>2011-08-17T13:06:00Z</time>
      </trkpt>
      <trkpt lat="41.733213" lon="2.927326">
        <ele>14.6</ele>
        <time>2011-08-17T13:06:06Z</time>
      </trkpt>
      <trkpt lat="41.733237" lon="2.927470">
        <ele>18.4</ele>
        <time>2011-08-17T13:06:14Z</time>
      </trkpt>
      <trkpt lat="41.733274" lon="2.927522">
        <ele>19.8</ele>
        <time>2011-08-17T13:06:17Z</time>
      </trkpt>
      <trkpt lat="41.733452" lon="2.927514">
        <ele>22.7</ele>
        <time>2011-08-17T13:06:27Z</time>
      </trkpt>
      <trkpt lat="41.733576" lon="2.927517">
        <ele>24.7</ele>
        <time>2011-08-17T13:06:35Z</time>
      </trkpt>
      <trkpt lat="41.733675" lon="2.927540">
        <ele>26.6</ele>
        <time>2011-08-17T13:06:42Z</time>
      </trkpt>
      <trkpt lat="41.733815" lon="2.927492">
        <ele>33.3</ele>
        <time>2011-08-17T13:06:52Z</time>
      </trkpt>
      <trkpt lat="41.733956" lon="2.927465">
        <ele>33.8</ele>
        <time>2011-08-17T13:07:00Z</time>
      </trkpt>
      <trkpt lat="41.734146" lon="2.927518">
        <ele>37.6</ele>
        <time>2011-08-17T13:07:10Z</time>
      </trkpt>
      <trkpt lat="41.734296" lon="2.927631">
        <ele>43.4</ele>
        <time>2011-08-17T13:07:19Z</time>
      </trkpt>
      <trkpt lat="41.734391" lon="2.927805">
        <ele>43.9</ele>
        <time>2011-08-17T13:07:27Z</time>
      </trkpt>
      <trkpt lat="41.734444" lon="2.927964">
        <ele>45.3</ele>
        <time>2011-08-17T13:07:35Z</time>
      </trkpt>
      <trkpt lat="41.734514" lon="2.928065">
        <ele>44.8</ele>
        <time>2011-08-17T13:07:41Z</time>
      </trkpt>
      <trkpt lat="41.734660" lon="2.928231">
        <ele>43.9</ele>
        <time>2011-08-17T13:07:50Z</time>
      </trkpt>
      <trkpt lat="41.734785" lon="2.928412">
        <ele>44.4</ele>
        <time>2011-08-17T13:07:58Z</time>
      </trkpt>
      <trkpt lat="41.734862" lon="2.928543">
        <ele>43.9</ele>
        <time>2011-08-17T13:08:04Z</time>
      </trkpt>
      <trkpt lat="41.734951" lon="2.928689">
        <ele>43.9</ele>
        <time>2011-08-17T13:08:11Z</time>
      </trkpt>
      <trkpt lat="41.735016" lon="2.928800">
        <ele>47.7</ele>
        <time>2011-08-17T13:08:17Z</time>
      </trkpt>
      <trkpt lat="41.735103" lon="2.928971">
        <ele>49.6</ele>
        <time>2011-08-17T13:08:25Z</time>
      </trkpt>
      <trkpt lat="41.735128" lon="2.929140">
        <ele>52.0</ele>
        <time>2011-08-17T13:08:32Z</time>
      </trkpt>
      <trkpt lat="41.735142" lon="2.929239">
        <ele>53.5</ele>
        <time>2011-08-17T13:08:36Z</time>
      </trkpt>
      <trkpt lat="41.735189" lon="2.929452">
        <ele>55.4</ele>
        <time>2011-08-17T13:08:44Z</time>
      </trkpt>
      <trkpt lat="41.735244" lon="2.929700">
        <ele>58.3</ele>
        <time>2011-08-17T13:08:53Z</time>
      </trkpt>
      <trkpt lat="41.735295" lon="2.929921">
        <ele>60.7</ele>
        <time>2011-08-17T13:09:01Z</time>
      </trkpt>
      <trkpt lat="41.735291" lon="2.930086">
        <ele>62.1</ele>
        <time>2011-08-17T13:09:08Z</time>
      </trkpt>
      <trkpt lat="41.735285" lon="2.930165">
        <ele>62.6</ele>
        <time>2011-08-17T13:09:11Z</time>
      </trkpt>
      <trkpt lat="41.735335" lon="2.930301">
        <ele>62.1</ele>
        <time>2011-08-17T13:09:18Z</time>
      </trkpt>
      <trkpt lat="41.735455" lon="2.930352">
        <ele>62.1</ele>
        <time>2011-08-17T13:09:26Z</time>
      </trkpt>
      <trkpt lat="41.735499" lon="2.930387">
        <ele>65.5</ele>
        <time>2011-08-17T13:09:34Z</time>
      </trkpt>
      <trkpt lat="41.735576" lon="2.930549">
        <ele>69.8</ele>
        <time>2011-08-17T13:09:42Z</time>
      </trkpt>
      <trkpt lat="41.735604" lon="2.930743">
        <ele>73.2</ele>
        <time>2011-08-17T13:09:51Z</time>
      </trkpt>
      <trkpt lat="41.735617" lon="2.930811">
        <ele>74.6</ele>
        <time>2011-08-17T13:09:54Z</time>
      </trkpt>
      <trkpt lat="41.735629" lon="2.930892">
        <ele>77.0</ele>
        <time>2011-08-17T13:09:58Z</time>
      </trkpt>
      <trkpt lat="41.735602" lon="2.931077">
        <ele>76.6</ele>
        <time>2011-08-17T13:10:06Z</time>
      </trkpt>
      <trkpt lat="41.735600" lon="2.931141">
        <ele>76.6</ele>
        <time>2011-08-17T13:10:09Z</time>
      </trkpt>
      <trkpt lat="41.735642" lon="2.931288">
        <ele>77.5</ele>
        <time>2011-08-17T13:10:16Z</time>
      </trkpt>
      <trkpt lat="41.735660" lon="2.931419">
        <ele>77.5</ele>
        <time>2011-08-17T13:10:23Z</time>
      </trkpt>
      <trkpt lat="41.735637" lon="2.931486">
        <ele>77.5</ele>
        <time>2011-08-17T13:10:27Z</time>
      </trkpt>
      <trkpt lat="41.735587" lon="2.931587">
        <ele>78.0</ele>
        <time>2011-08-17T13:10:31Z</time>
      </trkpt>
      <trkpt lat="41.735610" lon="2.931685">
        <ele>77.5</ele>
        <time>2011-08-17T13:10:36Z</time>
      </trkpt>
      <trkpt lat="41.735731" lon="2.931739">
        <ele>75.6</ele>
        <time>2011-08-17T13:10:44Z</time>
      </trkpt>
      <trkpt lat="41.735795" lon="2.931865">
        <ele>75.6</ele>
        <time>2011-08-17T13:10:51Z</time>
      </trkpt>
      <trkpt lat="41.735803" lon="2.931915">
        <ele>76.1</ele>
        <time>2011-08-17T13:10:53Z</time>
      </trkpt>
      <trkpt lat="41.735785" lon="2.932089">
        <ele>78.0</ele>
        <time>2011-08-17T13:11:01Z</time>
      </trkpt>
      <trkpt lat="41.735770" lon="2.932268">
        <ele>79.4</ele>
        <time>2011-08-17T13:11:08Z</time>
      </trkpt>
      <trkpt lat="41.735785" lon="2.932450">
        <ele>79.0</ele>
        <time>2011-08-17T13:11:15Z</time>
      </trkpt>
      <trkpt lat="41.735783" lon="2.932658">
        <ele>79.9</ele>
        <time>2011-08-17T13:11:23Z</time>
      </trkpt>
      <trkpt lat="41.735780" lon="2.932831">
        <ele>80.9</ele>
        <time>2011-08-17T13:11:30Z</time>
      </trkpt>
      <trkpt lat="41.735761" lon="2.933032">
        <ele>83.3</ele>
        <time>2011-08-17T13:11:38Z</time>
      </trkpt>
      <trkpt lat="41.735725" lon="2.933118">
        <ele>84.7</ele>
        <time>2011-08-17T13:11:42Z</time>
      </trkpt>
      <trkpt lat="41.735637" lon="2.933259">
        <ele>87.6</ele>
        <time>2011-08-17T13:11:50Z</time>
      </trkpt>
      <trkpt lat="41.735683" lon="2.933408">
        <ele>89.5</ele>
        <time>2011-08-17T13:11:56Z</time>
      </trkpt>
      <trkpt lat="41.735695" lon="2.933425">
        <ele>90.0</ele>
        <time>2011-08-17T13:11:57Z</time>
      </trkpt>
      <trkpt lat="41.735780" lon="2.933588">
        <ele>90.5</ele>
        <time>2011-08-17T13:12:06Z</time>
      </trkpt>
      <trkpt lat="41.735770" lon="2.933760">
        <ele>91.5</ele>
        <time>2011-08-17T13:12:14Z</time>
      </trkpt>
      <trkpt lat="41.735742" lon="2.933941">
        <ele>92.4</ele>
        <time>2011-08-17T13:12:22Z</time>
      </trkpt>
      <trkpt lat="41.735732" lon="2.934150">
        <ele>93.9</ele>
        <time>2011-08-17T13:12:30Z</time>
      </trkpt>
      <trkpt lat="41.735753" lon="2.934346">
        <ele>95.3</ele>
        <time>2011-08-17T13:12:39Z</time>
      </trkpt>
      <trkpt lat="41.735776" lon="2.934501">
        <ele>96.7</ele>
        <time>2011-08-17T13:12:46Z</time>
      </trkpt>
      <trkpt lat="41.735838" lon="2.934655">
        <ele>97.7</ele>
        <time>2011-08-17T13:12:54Z</time>
      </trkpt>
      <trkpt lat="41.735863" lon="2.934699">
        <ele>97.7</ele>
        <time>2011-08-17T13:12:56Z</time>
      </trkpt>
      <trkpt lat="41.736026" lon="2.934793">
        <ele>98.7</ele>
        <time>2011-08-17T13:13:05Z</time>
      </trkpt>
      <trkpt lat="41.736187" lon="2.934798">
        <ele>97.7</ele>
        <time>2011-08-17T13:13:14Z</time>
      </trkpt>
      <trkpt lat="41.736312" lon="2.934798">
        <ele>96.7</ele>
        <time>2011-08-17T13:13:21Z</time>
      </trkpt>
      <trkpt lat="41.736437" lon="2.934797">
        <ele>96.7</ele>
        <time>2011-08-17T13:13:28Z</time>
      </trkpt>
      <trkpt lat="41.736520" lon="2.934823">
        <ele>97.7</ele>
        <time>2011-08-17T13:13:33Z</time>
      </trkpt>
      <trkpt lat="41.736628" lon="2.934921">
        <ele>99.6</ele>
        <time>2011-08-17T13:13:41Z</time>
      </trkpt>
      <trkpt lat="41.736742" lon="2.934998">
        <ele>106.4</ele>
        <time>2011-08-17T13:13:49Z</time>
      </trkpt>
      <trkpt lat="41.736808" lon="2.935092">
        <ele>111.7</ele>
        <time>2011-08-17T13:13:57Z</time>
      </trkpt>
      <trkpt lat="41.736866" lon="2.935202">
        <ele>116.0</ele>
        <time>2011-08-17T13:14:05Z</time>
      </trkpt>
      <trkpt lat="41.736930" lon="2.935290">
        <ele>117.4</ele>
        <time>2011-08-17T13:14:11Z</time>
      </trkpt>
      <trkpt lat="41.736994" lon="2.935403">
        <ele>119.8</ele>
        <time>2011-08-17T13:14:19Z</time>
      </trkpt>
      <trkpt lat="41.737009" lon="2.935425">
        <ele>120.8</ele>
        <time>2011-08-17T13:14:21Z</time>
      </trkpt>
      <trkpt lat="41.737070" lon="2.935485">
        <ele>119.8</ele>
        <time>2011-08-17T13:14:26Z</time>
      </trkpt>
      <trkpt lat="41.737120" lon="2.935494">
        <ele>120.8</ele>
        <time>2011-08-17T13:14:30Z</time>
      </trkpt>
      <trkpt lat="41.737187" lon="2.935472">
        <ele>121.3</ele>
        <time>2011-08-17T13:14:36Z</time>
      </trkpt>
      <trkpt lat="41.737217" lon="2.935465">
        <ele>121.3</ele>
        <time>2011-08-17T13:14:38Z</time>
      </trkpt>
      <trkpt lat="41.737246" lon="2.935359">
        <ele>120.8</ele>
        <time>2011-08-17T13:14:46Z</time>
      </trkpt>
      <trkpt lat="41.737165" lon="2.935371">
        <ele>121.7</ele>
        <time>2011-08-17T13:14:52Z</time>
      </trkpt>
      <trkpt lat="41.737126" lon="2.935314">
        <ele>121.7</ele>
        <time>2011-08-17T13:14:58Z</time>
      </trkpt>
      <trkpt lat="41.737115" lon="2.935185">
        <ele>121.3</ele>
        <time>2011-08-17T13:15:05Z</time>
      </trkpt>
      <trkpt lat="41.737119" lon="2.935133">
        <ele>121.7</ele>
        <time>2011-08-17T13:15:08Z</time>
      </trkpt>
      <trkpt lat="41.737136" lon="2.934958">
        <ele>124.1</ele>
        <time>2011-08-17T13:15:17Z</time>
      </trkpt>
      <trkpt lat="41.737188" lon="2.934814">
        <ele>126.1</ele>
        <time>2011-08-17T13:15:24Z</time>
      </trkpt>
      <trkpt lat="41.737234" lon="2.934722">
        <ele>127.0</ele>
        <time>2011-08-17T13:15:30Z</time>
      </trkpt>
      <trkpt lat="41.737286" lon="2.934547">
        <ele>128.5</ele>
        <time>2011-08-17T13:15:39Z</time>
      </trkpt>
      <trkpt lat="41.737319" lon="2.934392">
        <ele>129.0</ele>
        <time>2011-08-17T13:15:46Z</time>
      </trkpt>
      <trkpt lat="41.737356" lon="2.934233">
        <ele>129.9</ele>
        <time>2011-08-17T13:15:54Z</time>
      </trkpt>
      <trkpt lat="41.737435" lon="2.934105">
        <ele>130.4</ele>
        <time>2011-08-17T13:16:02Z</time>
      </trkpt>
      <trkpt lat="41.737542" lon="2.934038">
        <ele>130.9</ele>
        <time>2011-08-17T13:16:10Z</time>
      </trkpt>
      <trkpt lat="41.737657" lon="2.933971">
        <ele>134.7</ele>
        <time>2011-08-17T13:16:18Z</time>
      </trkpt>
      <trkpt lat="41.737769" lon="2.933936">
        <ele>138.1</ele>
        <time>2011-08-17T13:16:26Z</time>
      </trkpt>
      <trkpt lat="41.737932" lon="2.933987">
        <ele>138.6</ele>
        <time>2011-08-17T13:16:35Z</time>
      </trkpt>
      <trkpt lat="41.737973" lon="2.934022">
        <ele>139.0</ele>
        <time>2011-08-17T13:16:38Z</time>
      </trkpt>
      <trkpt lat="41.738109" lon="2.934153">
        <ele>140.5</ele>
        <time>2011-08-17T13:16:48Z</time>
      </trkpt>
      <trkpt lat="41.738211" lon="2.934215">
        <ele>140.5</ele>
        <time>2011-08-17T13:16:56Z</time>
      </trkpt>
      <trkpt lat="41.738294" lon="2.934203">
        <ele>141.5</ele>
        <time>2011-08-17T13:17:02Z</time>
      </trkpt>
      <trkpt lat="41.738364" lon="2.934219">
        <ele>141.9</ele>
        <time>2011-08-17T13:17:06Z</time>
      </trkpt>
      <trkpt lat="41.738501" lon="2.934254">
        <ele>142.9</ele>
        <time>2011-08-17T13:17:14Z</time>
      </trkpt>
      <trkpt lat="41.738640" lon="2.934317">
        <ele>145.8</ele>
        <time>2011-08-17T13:17:23Z</time>
      </trkpt>
      <trkpt lat="41.738668" lon="2.934366">
        <ele>148.2</ele>
        <time>2011-08-17T13:17:27Z</time>
      </trkpt>
      <trkpt lat="41.738693" lon="2.934420">
        <ele>151.1</ele>
        <time>2011-08-17T13:17:31Z</time>
      </trkpt>
      <trkpt lat="41.738760" lon="2.934588">
        <ele>153.0</ele>
        <time>2011-08-17T13:17:40Z</time>
      </trkpt>
      <trkpt lat="41.738809" lon="2.934721">
        <ele>154.4</ele>
        <time>2011-08-17T13:17:47Z</time>
      </trkpt>
      <trkpt lat="41.738874" lon="2.934903">
        <ele>154.4</ele>
        <time>2011-08-17T13:17:56Z</time>
      </trkpt>
      <trkpt lat="41.738918" lon="2.935034">
        <ele>155.9</ele>
        <time>2011-08-17T13:18:03Z</time>
      </trkpt>
      <trkpt lat="41.738968" lon="2.935070">
        <ele>157.3</ele>
        <time>2011-08-17T13:18:07Z</time>
      </trkpt>
      <trkpt lat="41.739065" lon="2.935054">
        <ele>158.3</ele>
        <time>2011-08-17T13:18:15Z</time>
      </trkpt>
      <trkpt lat="41.739083" lon="2.935054">
        <ele>158.3</ele>
        <time>2011-08-17T13:18:16Z</time>
      </trkpt>
      <trkpt lat="41.739210" lon="2.935087">
        <ele>159.7</ele>
        <time>2011-08-17T13:18:24Z</time>
      </trkpt>
      <trkpt lat="41.739275" lon="2.935113">
        <ele>160.2</ele>
        <time>2011-08-17T13:18:28Z</time>
      </trkpt>
      <trkpt lat="41.739403" lon="2.935169">
        <ele>161.6</ele>
        <time>2011-08-17T13:18:36Z</time>
      </trkpt>
      <trkpt lat="41.739580" lon="2.935245">
        <ele>162.1</ele>
        <time>2011-08-17T13:18:44Z</time>
      </trkpt>
      <trkpt lat="41.739744" lon="2.935281">
        <ele>162.6</ele>
        <time>2011-08-17T13:18:52Z</time>
      </trkpt>
      <trkpt lat="41.739940" lon="2.935288">
        <ele>162.1</ele>
        <time>2011-08-17T13:18:59Z</time>
      </trkpt>
      <trkpt lat="41.740046" lon="2.935455">
        <ele>162.6</ele>
        <time>2011-08-17T13:19:06Z</time>
      </trkpt>
      <trkpt lat="41.740064" lon="2.935690">
        <ele>161.2</ele>
        <time>2011-08-17T13:19:13Z</time>
      </trkpt>
      <trkpt lat="41.740057" lon="2.936005">
        <ele>163.1</ele>
        <time>2011-08-17T13:19:21Z</time>
      </trkpt>
      <trkpt lat="41.740114" lon="2.936332">
        <ele>161.2</ele>
        <time>2011-08-17T13:19:28Z</time>
      </trkpt>
      <trkpt lat="41.740131" lon="2.936650">
        <ele>162.6</ele>
        <time>2011-08-17T13:19:36Z</time>
      </trkpt>
      <trkpt lat="41.740176" lon="2.936862">
        <ele>162.1</ele>
        <time>2011-08-17T13:19:41Z</time>
      </trkpt>
      <trkpt lat="41.740243" lon="2.936986">
        <ele>162.6</ele>
        <time>2011-08-17T13:19:45Z</time>
      </trkpt>
      <trkpt lat="41.740392" lon="2.936933">
        <ele>162.6</ele>
        <time>2011-08-17T13:19:52Z</time>
      </trkpt>
      <trkpt lat="41.740524" lon="2.936894">
        <ele>165.0</ele>
        <time>2011-08-17T13:20:00Z</time>
      </trkpt>
      <trkpt lat="41.740637" lon="2.936826">
        <ele>166.9</ele>
        <time>2011-08-17T13:20:07Z</time>
      </trkpt>
      <trkpt lat="41.740774" lon="2.936757">
        <ele>169.3</ele>
        <time>2011-08-17T13:20:16Z</time>
      </trkpt>
      <trkpt lat="41.740904" lon="2.936646">
        <ele>170.3</ele>
        <time>2011-08-17T13:20:24Z</time>
      </trkpt>
      <trkpt lat="41.741008" lon="2.936539">
        <ele>171.3</ele>
        <time>2011-08-17T13:20:31Z</time>
      </trkpt>
      <trkpt lat="41.741092" lon="2.936421">
        <ele>172.7</ele>
        <time>2011-08-17T13:20:38Z</time>
      </trkpt>
      <trkpt lat="41.741149" lon="2.936224">
        <ele>173.2</ele>
        <time>2011-08-17T13:20:46Z</time>
      </trkpt>
      <trkpt lat="41.741179" lon="2.936016">
        <ele>173.7</ele>
        <time>2011-08-17T13:20:55Z</time>
      </trkpt>
      <trkpt lat="41.741234" lon="2.935825">
        <ele>176.5</ele>
        <time>2011-08-17T13:21:04Z</time>
      </trkpt>
      <trkpt lat="41.741285" lon="2.935706">
        <ele>178.9</ele>
        <time>2011-08-17T13:21:11Z</time>
      </trkpt>
      <trkpt lat="41.741405" lon="2.935664">
        <ele>180.9</ele>
        <time>2011-08-17T13:21:18Z</time>
      </trkpt>
      <trkpt lat="41.741468" lon="2.935661">
        <ele>180.4</ele>
        <time>2011-08-17T13:21:22Z</time>
      </trkpt>
      <trkpt lat="41.741620" lon="2.935632">
        <ele>182.3</ele>
        <time>2011-08-17T13:21:32Z</time>
      </trkpt>
      <trkpt lat="41.741763" lon="2.935588">
        <ele>181.3</ele>
        <time>2011-08-17T13:21:40Z</time>
      </trkpt>
      <trkpt lat="41.741872" lon="2.935621">
        <ele>181.8</ele>
        <time>2011-08-17T13:21:46Z</time>
      </trkpt>
      <trkpt lat="41.741956" lon="2.935536">
        <ele>180.9</ele>
        <time>2011-08-17T13:21:52Z</time>
      </trkpt>
      <trkpt lat="41.742060" lon="2.935345">
        <ele>186.6</ele>
        <time>2011-08-17T13:22:01Z</time>
      </trkpt>
      <trkpt lat="41.742119" lon="2.935218">
        <ele>187.1</ele>
        <time>2011-08-17T13:22:08Z</time>
      </trkpt>
      <trkpt lat="41.742186" lon="2.935090">
        <ele>190.0</ele>
        <time>2011-08-17T13:22:15Z</time>
      </trkpt>
      <trkpt lat="41.742306" lon="2.935003">
        <ele>192.4</ele>
        <time>2011-08-17T13:22:23Z</time>
      </trkpt>
      <trkpt lat="41.742326" lon="2.934926">
        <ele>193.8</ele>
        <time>2011-08-17T13:22:27Z</time>
      </trkpt>
      <trkpt lat="41.742412" lon="2.934776">
        <ele>197.7</ele>
        <time>2011-08-17T13:22:36Z</time>
      </trkpt>
      <trkpt lat="41.742543" lon="2.934749">
        <ele>199.1</ele>
        <time>2011-08-17T13:22:43Z</time>
      </trkpt>
      <trkpt lat="41.742670" lon="2.934772">
        <ele>201.1</ele>
        <time>2011-08-17T13:22:50Z</time>
      </trkpt>
      <trkpt lat="41.742827" lon="2.934767">
        <ele>200.6</ele>
        <time>2011-08-17T13:23:00Z</time>
      </trkpt>
      <trkpt lat="41.742978" lon="2.934769">
        <ele>201.5</ele>
        <time>2011-08-17T13:23:08Z</time>
      </trkpt>
      <trkpt lat="41.743074" lon="2.934862">
        <ele>203.0</ele>
        <time>2011-08-17T13:23:14Z</time>
      </trkpt>
      <trkpt lat="41.743180" lon="2.935004">
        <ele>203.9</ele>
        <time>2011-08-17T13:23:22Z</time>
      </trkpt>
      <trkpt lat="41.743306" lon="2.935145">
        <ele>202.5</ele>
        <time>2011-08-17T13:23:31Z</time>
      </trkpt>
      <trkpt lat="41.743436" lon="2.935315">
        <ele>203.0</ele>
        <time>2011-08-17T13:23:40Z</time>
      </trkpt>
      <trkpt lat="41.743551" lon="2.935368">
        <ele>203.0</ele>
        <time>2011-08-17T13:23:47Z</time>
      </trkpt>
      <trkpt lat="41.743617" lon="2.935320">
        <ele>203.5</ele>
        <time>2011-08-17T13:23:51Z</time>
      </trkpt>
      <trkpt lat="41.743728" lon="2.935094">
        <ele>204.9</ele>
        <time>2011-08-17T13:24:01Z</time>
      </trkpt>
      <trkpt lat="41.743798" lon="2.934939">
        <ele>206.3</ele>
        <time>2011-08-17T13:24:08Z</time>
      </trkpt>
      <trkpt lat="41.743896" lon="2.934795">
        <ele>208.7</ele>
        <time>2011-08-17T13:24:16Z</time>
      </trkpt>
      <trkpt lat="41.744015" lon="2.934715">
        <ele>210.7</ele>
        <time>2011-08-17T13:24:23Z</time>
      </trkpt>
      <trkpt lat="41.744104" lon="2.934737">
        <ele>211.6</ele>
        <time>2011-08-17T13:24:28Z</time>
      </trkpt>
      <trkpt lat="41.744158" lon="2.934901">
        <ele>209.7</ele>
        <time>2011-08-17T13:24:36Z</time>
      </trkpt>
      <trkpt lat="41.744250" lon="2.935120">
        <ele>210.7</ele>
        <time>2011-08-17T13:24:46Z</time>
      </trkpt>
      <trkpt lat="41.744406" lon="2.935172">
        <ele>211.6</ele>
        <time>2011-08-17T13:24:54Z</time>
      </trkpt>
      <trkpt lat="41.744448" lon="2.935191">
        <ele>211.6</ele>
        <time>2011-08-17T13:24:56Z</time>
      </trkpt>
      <trkpt lat="41.744502" lon="2.935237">
        <ele>211.6</ele>
        <time>2011-08-17T13:25:00Z</time>
      </trkpt>
      <trkpt lat="41.744622" lon="2.935260">
        <ele>214.0</ele>
        <time>2011-08-17T13:25:06Z</time>
      </trkpt>
      <trkpt lat="41.744635" lon="2.935182">
        <ele>212.6</ele>
        <time>2011-08-17T13:25:12Z</time>
      </trkpt>
      <trkpt lat="41.744608" lon="2.935164">
        <ele>212.6</ele>
        <time>2011-08-17T13:25:14Z</time>
      </trkpt>
      <trkpt lat="41.744475" lon="2.935092">
        <ele>214.0</ele>
        <time>2011-08-17T13:25:22Z</time>
      </trkpt>
      <trkpt lat="41.744366" lon="2.935013">
        <ele>215.0</ele>
        <time>2011-08-17T13:25:30Z</time>
      </trkpt>
      <trkpt lat="41.744335" lon="2.934969">
        <ele>215.0</ele>
        <time>2011-08-17T13:25:33Z</time>
      </trkpt>
      <trkpt lat="41.744311" lon="2.934851">
        <ele>214.5</ele>
        <time>2011-08-17T13:25:39Z</time>
      </trkpt>
      <trkpt lat="41.744317" lon="2.934689">
        <ele>215.0</ele>
        <time>2011-08-17T13:25:47Z</time>
      </trkpt>
      <trkpt lat="41.744297" lon="2.934486">
        <ele>215.5</ele>
        <time>2011-08-17T13:25:56Z</time>
      </trkpt>
      <trkpt lat="41.744252" lon="2.934320">
        <ele>216.9</ele>
        <time>2011-08-17T13:26:04Z</time>
      </trkpt>
      <trkpt lat="41.744176" lon="2.934212">
        <ele>218.8</ele>
        <time>2011-08-17T13:26:11Z</time>
      </trkpt>
      <trkpt lat="41.744049" lon="2.934207">
        <ele>220.8</ele>
        <time>2011-08-17T13:26:18Z</time>
      </trkpt>
      <trkpt lat="41.743924" lon="2.934243">
        <ele>224.6</ele>
        <time>2011-08-17T13:26:25Z</time>
      </trkpt>
      <trkpt lat="41.743814" lon="2.934257">
        <ele>226.0</ele>
        <time>2011-08-17T13:26:31Z</time>
      </trkpt>
      <trkpt lat="41.743684" lon="2.934267">
        <ele>228.9</ele>
        <time>2011-08-17T13:26:38Z</time>
      </trkpt>
      <trkpt lat="41.743541" lon="2.934258">
        <ele>229.4</ele>
        <time>2011-08-17T13:26:45Z</time>
      </trkpt>
      <trkpt lat="41.743435" lon="2.934256">
        <ele>230.9</ele>
        <time>2011-08-17T13:26:52Z</time>
      </trkpt>
      <trkpt lat="41.743342" lon="2.934185">
        <ele>231.8</ele>
        <time>2011-08-17T13:26:58Z</time>
      </trkpt>
      <trkpt lat="41.743294" lon="2.934046">
        <ele>232.3</ele>
        <time>2011-08-17T13:27:06Z</time>
      </trkpt>
      <trkpt lat="41.743262" lon="2.933991">
        <ele>231.3</ele>
        <time>2011-08-17T13:27:09Z</time>
      </trkpt>
      <trkpt lat="41.743232" lon="2.933872">
        <ele>231.8</ele>
        <time>2011-08-17T13:27:16Z</time>
      </trkpt>
      <trkpt lat="41.743272" lon="2.933835">
        <ele>232.3</ele>
        <time>2011-08-17T13:27:21Z</time>
      </trkpt>
      <trkpt lat="41.743320" lon="2.933836">
        <ele>235.7</ele>
        <time>2011-08-17T13:27:27Z</time>
      </trkpt>
      <trkpt lat="41.743329" lon="2.933842">
        <ele>235.7</ele>
        <time>2011-08-17T13:27:28Z</time>
      </trkpt>
      <trkpt lat="41.743352" lon="2.933836">
        <ele>236.1</ele>
        <time>2011-08-17T13:27:30Z</time>
      </trkpt>
      <trkpt lat="41.743417" lon="2.933763">
        <ele>238.1</ele>
        <time>2011-08-17T13:27:38Z</time>
      </trkpt>
      <trkpt lat="41.743430" lon="2.933765">
        <ele>237.6</ele>
        <time>2011-08-17T13:27:39Z</time>
      </trkpt>
      <trkpt lat="41.743535" lon="2.933728">
        <ele>239.0</ele>
        <time>2011-08-17T13:27:47Z</time>
      </trkpt>
      <trkpt lat="41.743556" lon="2.933721">
        <ele>240.0</ele>
        <time>2011-08-17T13:27:49Z</time>
      </trkpt>
      <trkpt lat="41.743545" lon="2.933765">
        <ele>240.5</ele>
        <time>2011-08-17T13:27:55Z</time>
      </trkpt>
      <trkpt lat="41.743543" lon="2.933760">
        <ele>240.0</ele>
        <time>2011-08-17T13:28:08Z</time>
      </trkpt>
      <trkpt lat="41.743561" lon="2.933765">
        <ele>239.5</ele>
        <time>2011-08-17T13:29:19Z</time>
      </trkpt>
      <trkpt lat="41.743660" lon="2.933680">
        <ele>240.9</ele>
        <time>2011-08-17T13:29:26Z</time>
      </trkpt>
      <trkpt lat="41.743774" lon="2.933629">
        <ele>243.4</ele>
        <time>2011-08-17T13:29:33Z</time>
      </trkpt>
      <trkpt lat="41.743891" lon="2.933561">
        <ele>244.3</ele>
        <time>2011-08-17T13:29:41Z</time>
      </trkpt>
      <trkpt lat="41.744005" lon="2.933513">
        <ele>244.8</ele>
        <time>2011-08-17T13:29:47Z</time>
      </trkpt>
      <trkpt lat="41.744160" lon="2.933449">
        <ele>243.4</ele>
        <time>2011-08-17T13:29:56Z</time>
      </trkpt>
      <trkpt lat="41.744291" lon="2.933466">
        <ele>241.9</ele>
        <time>2011-08-17T13:30:03Z</time>
      </trkpt>
      <trkpt lat="41.744414" lon="2.933448">
        <ele>245.3</ele>
        <time>2011-08-17T13:30:10Z</time>
      </trkpt>
      <trkpt lat="41.744519" lon="2.933422">
        <ele>247.2</ele>
        <time>2011-08-17T13:30:16Z</time>
      </trkpt>
      <trkpt lat="41.744640" lon="2.933451">
        <ele>251.5</ele>
        <time>2011-08-17T13:30:24Z</time>
      </trkpt>
      <trkpt lat="41.744738" lon="2.933534">
        <ele>255.8</ele>
        <time>2011-08-17T13:30:32Z</time>
      </trkpt>
      <trkpt lat="41.744832" lon="2.933621">
        <ele>256.8</ele>
        <time>2011-08-17T13:30:39Z</time>
      </trkpt>
      <trkpt lat="41.744954" lon="2.933760">
        <ele>258.7</ele>
        <time>2011-08-17T13:30:49Z</time>
      </trkpt>
      <trkpt lat="41.745063" lon="2.933851">
        <ele>260.2</ele>
        <time>2011-08-17T13:30:57Z</time>
      </trkpt>
      <trkpt lat="41.745083" lon="2.933855">
        <ele>260.2</ele>
        <time>2011-08-17T13:30:58Z</time>
      </trkpt>
      <trkpt lat="41.745153" lon="2.933804">
        <ele>262.1</ele>
        <time>2011-08-17T13:31:04Z</time>
      </trkpt>
      <trkpt lat="41.745262" lon="2.933661">
        <ele>263.1</ele>
        <time>2011-08-17T13:31:13Z</time>
      </trkpt>
      <trkpt lat="41.745316" lon="2.933551">
        <ele>264.5</ele>
        <time>2011-08-17T13:31:20Z</time>
      </trkpt>
      <trkpt lat="41.745292" lon="2.933518">
        <ele>264.5</ele>
        <time>2011-08-17T13:31:23Z</time>
      </trkpt>
      <trkpt lat="41.745191" lon="2.933571">
        <ele>267.9</ele>
        <time>2011-08-17T13:31:30Z</time>
      </trkpt>
      <trkpt lat="41.745098" lon="2.933550">
        <ele>265.9</ele>
        <time>2011-08-17T13:31:36Z</time>
      </trkpt>
      <trkpt lat="41.745081" lon="2.933506">
        <ele>265.9</ele>
        <time>2011-08-17T13:31:39Z</time>
      </trkpt>
      <trkpt lat="41.745038" lon="2.933336">
        <ele>265.0</ele>
        <time>2011-08-17T13:31:48Z</time>
      </trkpt>
      <trkpt lat="41.744974" lon="2.933142">
        <ele>265.9</ele>
        <time>2011-08-17T13:31:57Z</time>
      </trkpt>
      <trkpt lat="41.744967" lon="2.933101">
        <ele>266.4</ele>
        <time>2011-08-17T13:31:59Z</time>
      </trkpt>
      <trkpt lat="41.744932" lon="2.932885">
        <ele>265.5</ele>
        <time>2011-08-17T13:32:08Z</time>
      </trkpt>
      <trkpt lat="41.744945" lon="2.932700">
        <ele>268.8</ele>
        <time>2011-08-17T13:32:16Z</time>
      </trkpt>
      <trkpt lat="41.744957" lon="2.932522">
        <ele>270.3</ele>
        <time>2011-08-17T13:32:23Z</time>
      </trkpt>
      <trkpt lat="41.744952" lon="2.932309">
        <ele>272.2</ele>
        <time>2011-08-17T13:32:32Z</time>
      </trkpt>
      <trkpt lat="41.744949" lon="2.932219">
        <ele>273.6</ele>
        <time>2011-08-17T13:32:36Z</time>
      </trkpt>
      <trkpt lat="41.744970" lon="2.932178">
        <ele>275.1</ele>
        <time>2011-08-17T13:32:40Z</time>
      </trkpt>
      <trkpt lat="41.744984" lon="2.932274">
        <ele>276.0</ele>
        <time>2011-08-17T13:32:45Z</time>
      </trkpt>
      <trkpt lat="41.744997" lon="2.932552">
        <ele>277.5</ele>
        <time>2011-08-17T13:32:57Z</time>
      </trkpt>
      <trkpt lat="41.745008" lon="2.932576">
        <ele>277.5</ele>
        <time>2011-08-17T13:32:58Z</time>
      </trkpt>
      <trkpt lat="41.745106" lon="2.932679">
        <ele>278.4</ele>
        <time>2011-08-17T13:33:09Z</time>
      </trkpt>
      <trkpt lat="41.745110" lon="2.932570">
        <ele>278.9</ele>
        <time>2011-08-17T13:33:15Z</time>
      </trkpt>
      <trkpt lat="41.745116" lon="2.932503">
        <ele>280.4</ele>
        <time>2011-08-17T13:33:18Z</time>
      </trkpt>
      <trkpt lat="41.745127" lon="2.932327">
        <ele>280.4</ele>
        <time>2011-08-17T13:33:26Z</time>
      </trkpt>
      <trkpt lat="41.745148" lon="2.932119">
        <ele>282.8</ele>
        <time>2011-08-17T13:33:35Z</time>
      </trkpt>
      <trkpt lat="41.745143" lon="2.931888">
        <ele>286.6</ele>
        <time>2011-08-17T13:33:44Z</time>
      </trkpt>
      <trkpt lat="41.745054" lon="2.931722">
        <ele>287.1</ele>
        <time>2011-08-17T13:33:52Z</time>
      </trkpt>
      <trkpt lat="41.744970" lon="2.931587">
        <ele>286.6</ele>
        <time>2011-08-17T13:33:59Z</time>
      </trkpt>
      <trkpt lat="41.744920" lon="2.931392">
        <ele>286.6</ele>
        <time>2011-08-17T13:34:08Z</time>
      </trkpt>
      <trkpt lat="41.744905" lon="2.931245">
        <ele>287.6</ele>
        <time>2011-08-17T13:34:16Z</time>
      </trkpt>
      <trkpt lat="41.744885" lon="2.931239">
        <ele>290.5</ele>
        <time>2011-08-17T13:34:29Z</time>
      </trkpt>
      <trkpt lat="41.744882" lon="2.931138">
        <ele>290.0</ele>
        <time>2011-08-17T13:35:04Z</time>
      </trkpt>
      <trkpt lat="41.744954" lon="2.930924">
        <ele>288.5</ele>
        <time>2011-08-17T13:35:14Z</time>
      </trkpt>
      <trkpt lat="41.745026" lon="2.930786">
        <ele>287.6</ele>
        <time>2011-08-17T13:35:21Z</time>
      </trkpt>
      <trkpt lat="41.745140" lon="2.930630">
        <ele>286.6</ele>
        <time>2011-08-17T13:35:29Z</time>
      </trkpt>
      <trkpt lat="41.745178" lon="2.930495">
        <ele>286.6</ele>
        <time>2011-08-17T13:35:35Z</time>
      </trkpt>
      <trkpt lat="41.745145" lon="2.930243">
        <ele>290.0</ele>
        <time>2011-08-17T13:35:44Z</time>
      </trkpt>
      <trkpt lat="41.745153" lon="2.930068">
        <ele>293.3</ele>
        <time>2011-08-17T13:35:51Z</time>
      </trkpt>
      <trkpt lat="41.745170" lon="2.929862">
        <ele>295.3</ele>
        <time>2011-08-17T13:36:00Z</time>
      </trkpt>
      <trkpt lat="41.745066" lon="2.929736">
        <ele>301.0</ele>
        <time>2011-08-17T13:36:07Z</time>
      </trkpt>
      <trkpt lat="41.744910" lon="2.929630">
        <ele>302.0</ele>
        <time>2011-08-17T13:36:15Z</time>
      </trkpt>
      <trkpt lat="41.744810" lon="2.929492">
        <ele>303.0</ele>
        <time>2011-08-17T13:36:22Z</time>
      </trkpt>
      <trkpt lat="41.744769" lon="2.929338">
        <ele>302.0</ele>
        <time>2011-08-17T13:36:29Z</time>
      </trkpt>
      <trkpt lat="41.744750" lon="2.929152">
        <ele>303.0</ele>
        <time>2011-08-17T13:36:36Z</time>
      </trkpt>
      <trkpt lat="41.744808" lon="2.928922">
        <ele>304.9</ele>
        <time>2011-08-17T13:36:46Z</time>
      </trkpt>
      <trkpt lat="41.744874" lon="2.928784">
        <ele>305.4</ele>
        <time>2011-08-17T13:36:53Z</time>
      </trkpt>
      <trkpt lat="41.744973" lon="2.928664">
        <ele>308.7</ele>
        <time>2011-08-17T13:37:00Z</time>
      </trkpt>
      <trkpt lat="41.745078" lon="2.928538">
        <ele>312.6</ele>
        <time>2011-08-17T13:37:08Z</time>
      </trkpt>
      <trkpt lat="41.745160" lon="2.928406">
        <ele>314.5</ele>
        <time>2011-08-17T13:37:15Z</time>
      </trkpt>
      <trkpt lat="41.745262" lon="2.928365">
        <ele>316.4</ele>
        <time>2011-08-17T13:37:21Z</time>
      </trkpt>
      <trkpt lat="41.745285" lon="2.928373">
        <ele>316.9</ele>
        <time>2011-08-17T13:37:23Z</time>
      </trkpt>
      <trkpt lat="41.745308" lon="2.928421">
        <ele>316.9</ele>
        <time>2011-08-17T13:37:27Z</time>
      </trkpt>
      <trkpt lat="41.745318" lon="2.928444">
        <ele>317.4</ele>
        <time>2011-08-17T13:37:29Z</time>
      </trkpt>
      <trkpt lat="41.745327" lon="2.928549">
        <ele>318.3</ele>
        <time>2011-08-17T13:37:36Z</time>
      </trkpt>
      <trkpt lat="41.745344" lon="2.928627">
        <ele>319.8</ele>
        <time>2011-08-17T13:37:41Z</time>
      </trkpt>
      <trkpt lat="41.745349" lon="2.928665">
        <ele>320.3</ele>
        <time>2011-08-17T13:37:49Z</time>
      </trkpt>
      <trkpt lat="41.745398" lon="2.928723">
        <ele>319.3</ele>
        <time>2011-08-17T13:38:22Z</time>
      </trkpt>
      <trkpt lat="41.745411" lon="2.928781">
        <ele>318.8</ele>
        <time>2011-08-17T13:38:30Z</time>
      </trkpt>
      <trkpt lat="41.745435" lon="2.928834">
        <ele>318.3</ele>
        <time>2011-08-17T13:38:45Z</time>
      </trkpt>
      <trkpt lat="41.745484" lon="2.928933">
        <ele>318.3</ele>
        <time>2011-08-17T13:38:53Z</time>
      </trkpt>
      <trkpt lat="41.745527" lon="2.928988">
        <ele>318.8</ele>
        <time>2011-08-17T13:39:01Z</time>
      </trkpt>
      <trkpt lat="41.745550" lon="2.929081">
        <ele>319.8</ele>
        <time>2011-08-17T13:39:08Z</time>
      </trkpt>
      <trkpt lat="41.745562" lon="2.929108">
        <ele>319.8</ele>
        <time>2011-08-17T13:39:15Z</time>
      </trkpt>
      <trkpt lat="41.745565" lon="2.929113">
        <ele>320.7</ele>
        <time>2011-08-17T13:39:24Z</time>
      </trkpt>
      <trkpt lat="41.745585" lon="2.929200">
        <ele>322.2</ele>
        <time>2011-08-17T13:41:53Z</time>
      </trkpt>
      <trkpt lat="41.745664" lon="2.929313">
        <ele>324.1</ele>
        <time>2011-08-17T13:42:01Z</time>
      </trkpt>
      <trkpt lat="41.745787" lon="2.929403">
        <ele>325.5</ele>
        <time>2011-08-17T13:42:09Z</time>
      </trkpt>
      <trkpt lat="41.745919" lon="2.929495">
        <ele>327.9</ele>
        <time>2011-08-17T13:42:17Z</time>
      </trkpt>
      <trkpt lat="41.745988" lon="2.929554">
        <ele>328.4</ele>
        <time>2011-08-17T13:42:23Z</time>
      </trkpt>
      <trkpt lat="41.746078" lon="2.929603">
        <ele>329.4</ele>
        <time>2011-08-17T13:42:29Z</time>
      </trkpt>
      <trkpt lat="41.746162" lon="2.929631">
        <ele>331.8</ele>
        <time>2011-08-17T13:42:35Z</time>
      </trkpt>
      <trkpt lat="41.746180" lon="2.929646">
        <ele>332.3</ele>
        <time>2011-08-17T13:42:37Z</time>
      </trkpt>
      <trkpt lat="41.746278" lon="2.929692">
        <ele>335.6</ele>
        <time>2011-08-17T13:42:45Z</time>
      </trkpt>
      <trkpt lat="41.746310" lon="2.929732">
        <ele>337.1</ele>
        <time>2011-08-17T13:42:51Z</time>
      </trkpt>
      <trkpt lat="41.746319" lon="2.929744">
        <ele>337.1</ele>
        <time>2011-08-17T13:43:03Z</time>
      </trkpt>
      <trkpt lat="41.746315" lon="2.929760">
        <ele>336.1</ele>
        <time>2011-08-17T13:43:15Z</time>
      </trkpt>
      <trkpt lat="41.746321" lon="2.929762">
        <ele>336.6</ele>
        <time>2011-08-17T13:43:23Z</time>
      </trkpt>
      <trkpt lat="41.746393" lon="2.929783">
        <ele>336.1</ele>
        <time>2011-08-17T13:43:28Z</time>
      </trkpt>
      <trkpt lat="41.746513" lon="2.929845">
        <ele>338.0</ele>
        <time>2011-08-17T13:43:37Z</time>
      </trkpt>
      <trkpt lat="41.746533" lon="2.929860">
        <ele>338.5</ele>
        <time>2011-08-17T13:43:43Z</time>
      </trkpt>
      <trkpt lat="41.746598" lon="2.929850">
        <ele>340.4</ele>
        <time>2011-08-17T13:43:52Z</time>
      </trkpt>
      <trkpt lat="41.746657" lon="2.929853">
        <ele>341.4</ele>
        <time>2011-08-17T13:44:00Z</time>
      </trkpt>
      <trkpt lat="41.746690" lon="2.929870">
        <ele>340.4</ele>
        <time>2011-08-17T13:44:08Z</time>
      </trkpt>
      <trkpt lat="41.746793" lon="2.929892">
        <ele>341.4</ele>
        <time>2011-08-17T13:44:15Z</time>
      </trkpt>
      <trkpt lat="41.746878" lon="2.929975">
        <ele>344.8</ele>
        <time>2011-08-17T13:44:22Z</time>
      </trkpt>
      <trkpt lat="41.746973" lon="2.930114">
        <ele>345.7</ele>
        <time>2011-08-17T13:44:31Z</time>
      </trkpt>
      <trkpt lat="41.747087" lon="2.930132">
        <ele>346.2</ele>
        <time>2011-08-17T13:44:38Z</time>
      </trkpt>
      <trkpt lat="41.747117" lon="2.930122">
        <ele>346.7</ele>
        <time>2011-08-17T13:44:40Z</time>
      </trkpt>
      <trkpt lat="41.747202" lon="2.930087">
        <ele>349.6</ele>
        <time>2011-08-17T13:44:46Z</time>
      </trkpt>
      <trkpt lat="41.747307" lon="2.930047">
        <ele>351.5</ele>
        <time>2011-08-17T13:44:54Z</time>
      </trkpt>
      <trkpt lat="41.747408" lon="2.930054">
        <ele>354.4</ele>
        <time>2011-08-17T13:45:01Z</time>
      </trkpt>
      <trkpt lat="41.747546" lon="2.929988">
        <ele>359.7</ele>
        <time>2011-08-17T13:45:11Z</time>
      </trkpt>
      <trkpt lat="41.747640" lon="2.929952">
        <ele>362.1</ele>
        <time>2011-08-17T13:45:17Z</time>
      </trkpt>
      <trkpt lat="41.747737" lon="2.929912">
        <ele>365.4</ele>
        <time>2011-08-17T13:45:24Z</time>
      </trkpt>
      <trkpt lat="41.747824" lon="2.929793">
        <ele>368.3</ele>
        <time>2011-08-17T13:45:31Z</time>
      </trkpt>
      <trkpt lat="41.747927" lon="2.929695">
        <ele>366.9</ele>
        <time>2011-08-17T13:45:39Z</time>
      </trkpt>
      <trkpt lat="41.747996" lon="2.929583">
        <ele>367.4</ele>
        <time>2011-08-17T13:45:46Z</time>
      </trkpt>
      <trkpt lat="41.748065" lon="2.929519">
        <ele>369.8</ele>
        <time>2011-08-17T13:45:52Z</time>
      </trkpt>
      <trkpt lat="41.748127" lon="2.929539">
        <ele>370.7</ele>
        <time>2011-08-17T13:45:57Z</time>
      </trkpt>
      <trkpt lat="41.748180" lon="2.929640">
        <ele>373.1</ele>
        <time>2011-08-17T13:46:03Z</time>
      </trkpt>
      <trkpt lat="41.748191" lon="2.929659">
        <ele>372.6</ele>
        <time>2011-08-17T13:46:05Z</time>
      </trkpt>
      <trkpt lat="41.748265" lon="2.929784">
        <ele>374.1</ele>
        <time>2011-08-17T13:46:14Z</time>
      </trkpt>
      <trkpt lat="41.748323" lon="2.929864">
        <ele>376.5</ele>
        <time>2011-08-17T13:46:20Z</time>
      </trkpt>
      <trkpt lat="41.748437" lon="2.929992">
        <ele>376.0</ele>
        <time>2011-08-17T13:46:30Z</time>
      </trkpt>
      <trkpt lat="41.748488" lon="2.930013">
        <ele>377.0</ele>
        <time>2011-08-17T13:46:34Z</time>
      </trkpt>
      <trkpt lat="41.748512" lon="2.930064">
        <ele>378.9</ele>
        <time>2011-08-17T13:46:42Z</time>
      </trkpt>
      <trkpt lat="41.748532" lon="2.930093">
        <ele>375.5</ele>
        <time>2011-08-17T13:53:17Z</time>
      </trkpt>
      <trkpt lat="41.748540" lon="2.930089">
        <ele>375.5</ele>
        <time>2011-08-17T13:53:19Z</time>
      </trkpt>
      <trkpt lat="41.748646" lon="2.930021">
        <ele>378.4</ele>
        <time>2011-08-17T13:53:29Z</time>
      </trkpt>
      <trkpt lat="41.748683" lon="2.930008">
        <ele>379.9</ele>
        <time>2011-08-17T13:53:32Z</time>
      </trkpt>
      <trkpt lat="41.748749" lon="2.929984">
        <ele>381.8</ele>
        <time>2011-08-17T13:53:37Z</time>
      </trkpt>
      <trkpt lat="41.748867" lon="2.929987">
        <ele>385.6</ele>
        <time>2011-08-17T13:53:45Z</time>
      </trkpt>
      <trkpt lat="41.748996" lon="2.929989">
        <ele>390.0</ele>
        <time>2011-08-17T13:53:55Z</time>
      </trkpt>
      <trkpt lat="41.749110" lon="2.930028">
        <ele>391.4</ele>
        <time>2011-08-17T13:54:03Z</time>
      </trkpt>
      <trkpt lat="41.749236" lon="2.930058">
        <ele>391.9</ele>
        <time>2011-08-17T13:54:11Z</time>
      </trkpt>
      <trkpt lat="41.749309" lon="2.930073">
        <ele>391.4</ele>
        <time>2011-08-17T13:54:16Z</time>
      </trkpt>
      <trkpt lat="41.749389" lon="2.930122">
        <ele>393.3</ele>
        <time>2011-08-17T13:54:22Z</time>
      </trkpt>
      <trkpt lat="41.749529" lon="2.930108">
        <ele>397.2</ele>
        <time>2011-08-17T13:54:32Z</time>
      </trkpt>
      <trkpt lat="41.749692" lon="2.930112">
        <ele>400.0</ele>
        <time>2011-08-17T13:54:38Z</time>
      </trkpt>
      <trkpt lat="41.749836" lon="2.930138">
        <ele>402.4</ele>
        <time>2011-08-17T13:54:45Z</time>
      </trkpt>
      <trkpt lat="41.749982" lon="2.930148">
        <ele>407.7</ele>
        <time>2011-08-17T13:54:52Z</time>
      </trkpt>
      <trkpt lat="41.750127" lon="2.930142">
        <ele>414.0</ele>
        <time>2011-08-17T13:55:00Z</time>
      </trkpt>
      <trkpt lat="41.750200" lon="2.930149">
        <ele>411.1</ele>
        <time>2011-08-17T13:55:05Z</time>
      </trkpt>
      <trkpt lat="41.750257" lon="2.930177">
        <ele>409.2</ele>
        <time>2011-08-17T13:55:10Z</time>
      </trkpt>
      <trkpt lat="41.750313" lon="2.930178">
        <ele>412.1</ele>
        <time>2011-08-17T13:55:15Z</time>
      </trkpt>
      <trkpt lat="41.750337" lon="2.930177">
        <ele>411.1</ele>
        <time>2011-08-17T13:55:17Z</time>
      </trkpt>
      <trkpt lat="41.750369" lon="2.930209">
        <ele>412.1</ele>
        <time>2011-08-17T13:55:21Z</time>
      </trkpt>
      <trkpt lat="41.750395" lon="2.930223">
        <ele>412.5</ele>
        <time>2011-08-17T13:55:23Z</time>
      </trkpt>
      <trkpt lat="41.750504" lon="2.930313">
        <ele>411.1</ele>
        <time>2011-08-17T13:55:32Z</time>
      </trkpt>
      <trkpt lat="41.750512" lon="2.930341">
        <ele>414.0</ele>
        <time>2011-08-17T13:55:34Z</time>
      </trkpt>
      <trkpt lat="41.750528" lon="2.930352">
        <ele>414.5</ele>
        <time>2011-08-17T13:55:36Z</time>
      </trkpt>
      <trkpt lat="41.750540" lon="2.930300">
        <ele>415.9</ele>
        <time>2011-08-17T13:55:42Z</time>
      </trkpt>
      <trkpt lat="41.750525" lon="2.930294">
        <ele>417.8</ele>
        <time>2011-08-17T13:55:53Z</time>
      </trkpt>
      <trkpt lat="41.750555" lon="2.930338">
        <ele>417.3</ele>
        <time>2011-08-17T13:56:12Z</time>
      </trkpt>
      <trkpt lat="41.750574" lon="2.930377">
        <ele>417.3</ele>
        <time>2011-08-17T13:56:14Z</time>
      </trkpt>
      <trkpt lat="41.750672" lon="2.930460">
        <ele>416.4</ele>
        <time>2011-08-17T13:56:22Z</time>
      </trkpt>
      <trkpt lat="41.750757" lon="2.930443">
        <ele>415.9</ele>
        <time>2011-08-17T13:56:28Z</time>
      </trkpt>
      <trkpt lat="41.750829" lon="2.930302">
        <ele>414.5</ele>
        <time>2011-08-17T13:56:36Z</time>
      </trkpt>
      <trkpt lat="41.750836" lon="2.930289">
        <ele>414.5</ele>
        <time>2011-08-17T13:56:37Z</time>
      </trkpt>
      <trkpt lat="41.750815" lon="2.930223">
        <ele>414.9</ele>
        <time>2011-08-17T13:56:41Z</time>
      </trkpt>
      <trkpt lat="41.750769" lon="2.930160">
        <ele>414.9</ele>
        <time>2011-08-17T13:56:46Z</time>
      </trkpt>
      <trkpt lat="41.750664" lon="2.930065">
        <ele>414.5</ele>
        <time>2011-08-17T13:56:54Z</time>
      </trkpt>
      <trkpt lat="41.750592" lon="2.929970">
        <ele>413.0</ele>
        <time>2011-08-17T13:57:00Z</time>
      </trkpt>
      <trkpt lat="41.750593" lon="2.929799">
        <ele>412.5</ele>
        <time>2011-08-17T13:57:09Z</time>
      </trkpt>
      <trkpt lat="41.750652" lon="2.929676">
        <ele>414.0</ele>
        <time>2011-08-17T13:57:17Z</time>
      </trkpt>
      <trkpt lat="41.750746" lon="2.929536">
        <ele>414.5</ele>
        <time>2011-08-17T13:57:25Z</time>
      </trkpt>
      <trkpt lat="41.750740" lon="2.929505">
        <ele>414.5</ele>
        <time>2011-08-17T13:57:27Z</time>
      </trkpt>
      <trkpt lat="41.750614" lon="2.929408">
        <ele>414.9</ele>
        <time>2011-08-17T13:57:36Z</time>
      </trkpt>
      <trkpt lat="41.750519" lon="2.929332">
        <ele>414.9</ele>
        <time>2011-08-17T13:57:43Z</time>
      </trkpt>
      <trkpt lat="41.750457" lon="2.929192">
        <ele>415.4</ele>
        <time>2011-08-17T13:57:51Z</time>
      </trkpt>
      <trkpt lat="41.750388" lon="2.929081">
        <ele>419.8</ele>
        <time>2011-08-17T13:57:58Z</time>
      </trkpt>
      <trkpt lat="41.750346" lon="2.929040">
        <ele>424.6</ele>
        <time>2011-08-17T13:58:06Z</time>
      </trkpt>
      <trkpt lat="41.750337" lon="2.929021">
        <ele>423.6</ele>
        <time>2011-08-17T14:00:14Z</time>
      </trkpt>
      <trkpt lat="41.750461" lon="2.929020">
        <ele>423.6</ele>
        <time>2011-08-17T14:00:22Z</time>
      </trkpt>
      <trkpt lat="41.750573" lon="2.929025">
        <ele>427.4</ele>
        <time>2011-08-17T14:00:28Z</time>
      </trkpt>
      <trkpt lat="41.750625" lon="2.928901">
        <ele>428.4</ele>
        <time>2011-08-17T14:00:35Z</time>
      </trkpt>
      <trkpt lat="41.750626" lon="2.928864">
        <ele>428.4</ele>
        <time>2011-08-17T14:00:37Z</time>
      </trkpt>
      <trkpt lat="41.750620" lon="2.928755">
        <ele>428.9</ele>
        <time>2011-08-17T14:00:43Z</time>
      </trkpt>
      <trkpt lat="41.750609" lon="2.928653">
        <ele>428.9</ele>
        <time>2011-08-17T14:00:48Z</time>
      </trkpt>
      <trkpt lat="41.750630" lon="2.928428">
        <ele>427.0</ele>
        <time>2011-08-17T14:00:58Z</time>
      </trkpt>
      <trkpt lat="41.750695" lon="2.928274">
        <ele>430.8</ele>
        <time>2011-08-17T14:01:07Z</time>
      </trkpt>
      <trkpt lat="41.750703" lon="2.928272">
        <ele>431.3</ele>
        <time>2011-08-17T14:01:08Z</time>
      </trkpt>
      <trkpt lat="41.750794" lon="2.928261">
        <ele>435.1</ele>
        <time>2011-08-17T14:01:14Z</time>
      </trkpt>
      <trkpt lat="41.750880" lon="2.928266">
        <ele>437.5</ele>
        <time>2011-08-17T14:01:18Z</time>
      </trkpt>
      <trkpt lat="41.751057" lon="2.928303">
        <ele>442.8</ele>
        <time>2011-08-17T14:01:26Z</time>
      </trkpt>
      <trkpt lat="41.751148" lon="2.928325">
        <ele>444.7</ele>
        <time>2011-08-17T14:01:32Z</time>
      </trkpt>
      <trkpt lat="41.751311" lon="2.928401">
        <ele>445.7</ele>
        <time>2011-08-17T14:01:39Z</time>
      </trkpt>
      <trkpt lat="41.751481" lon="2.928515">
        <ele>449.1</ele>
        <time>2011-08-17T14:01:47Z</time>
      </trkpt>
      <trkpt lat="41.751644" lon="2.928584">
        <ele>451.0</ele>
        <time>2011-08-17T14:01:54Z</time>
      </trkpt>
      <trkpt lat="41.751807" lon="2.928666">
        <ele>453.9</ele>
        <time>2011-08-17T14:02:01Z</time>
      </trkpt>
      <trkpt lat="41.751992" lon="2.928713">
        <ele>457.2</ele>
        <time>2011-08-17T14:02:09Z</time>
      </trkpt>
      <trkpt lat="41.752151" lon="2.928718">
        <ele>462.5</ele>
        <time>2011-08-17T14:02:16Z</time>
      </trkpt>
      <trkpt lat="41.752269" lon="2.928721">
        <ele>465.9</ele>
        <time>2011-08-17T14:02:22Z</time>
      </trkpt>
      <trkpt lat="41.752429" lon="2.928759">
        <ele>469.3</ele>
        <time>2011-08-17T14:02:29Z</time>
      </trkpt>
      <trkpt lat="41.752569" lon="2.928837">
        <ele>474.5</ele>
        <time>2011-08-17T14:02:35Z</time>
      </trkpt>
      <trkpt lat="41.752702" lon="2.928943">
        <ele>477.0</ele>
        <time>2011-08-17T14:02:41Z</time>
      </trkpt>
      <trkpt lat="41.752770" lon="2.929035">
        <ele>477.4</ele>
        <time>2011-08-17T14:02:48Z</time>
      </trkpt>
      <trkpt lat="41.752838" lon="2.929138">
        <ele>473.6</ele>
        <time>2011-08-17T14:02:56Z</time>
      </trkpt>
      <trkpt lat="41.752847" lon="2.929155">
        <ele>472.6</ele>
        <time>2011-08-17T14:02:57Z</time>
      </trkpt>
      <trkpt lat="41.752902" lon="2.929203">
        <ele>467.3</ele>
        <time>2011-08-17T14:03:05Z</time>
      </trkpt>
      <trkpt lat="41.752941" lon="2.929284">
        <ele>465.9</ele>
        <time>2011-08-17T14:04:38Z</time>
      </trkpt>
      <trkpt lat="41.752988" lon="2.929396">
        <ele>464.5</ele>
        <time>2011-08-17T14:04:40Z</time>
      </trkpt>
      <trkpt lat="41.753176" lon="2.929810">
        <ele>461.1</ele>
        <time>2011-08-17T14:04:48Z</time>
      </trkpt>
      <trkpt lat="41.753406" lon="2.930007">
        <ele>459.6</ele>
        <time>2011-08-17T14:04:54Z</time>
      </trkpt>
      <trkpt lat="41.753666" lon="2.930175">
        <ele>461.1</ele>
        <time>2011-08-17T14:05:01Z</time>
      </trkpt>
      <trkpt lat="41.753821" lon="2.930253">
        <ele>462.5</ele>
        <time>2011-08-17T14:05:07Z</time>
      </trkpt>
      <trkpt lat="41.753974" lon="2.930368">
        <ele>463.5</ele>
        <time>2011-08-17T14:05:11Z</time>
      </trkpt>
      <trkpt lat="41.754217" lon="2.930403">
        <ele>466.4</ele>
        <time>2011-08-17T14:05:17Z</time>
      </trkpt>
      <trkpt lat="41.754368" lon="2.930360">
        <ele>466.9</ele>
        <time>2011-08-17T14:05:20Z</time>
      </trkpt>
      <trkpt lat="41.754510" lon="2.930372">
        <ele>468.3</ele>
        <time>2011-08-17T14:05:23Z</time>
      </trkpt>
      <trkpt lat="41.754689" lon="2.930491">
        <ele>470.2</ele>
        <time>2011-08-17T14:05:28Z</time>
      </trkpt>
      <trkpt lat="41.754825" lon="2.930817">
        <ele>468.8</ele>
        <time>2011-08-17T14:05:34Z</time>
      </trkpt>
      <trkpt lat="41.754982" lon="2.930960">
        <ele>468.8</ele>
        <time>2011-08-17T14:05:39Z</time>
      </trkpt>
      <trkpt lat="41.755084" lon="2.930980">
        <ele>469.7</ele>
        <time>2011-08-17T14:05:42Z</time>
      </trkpt>
      <trkpt lat="41.755314" lon="2.931091">
        <ele>468.8</ele>
        <time>2011-08-17T14:05:49Z</time>
      </trkpt>
      <trkpt lat="41.755471" lon="2.931273">
        <ele>469.3</ele>
        <time>2011-08-17T14:05:55Z</time>
      </trkpt>
      <trkpt lat="41.755549" lon="2.931387">
        <ele>470.7</ele>
        <time>2011-08-17T14:06:01Z</time>
      </trkpt>
      <trkpt lat="41.755594" lon="2.931500">
        <ele>471.7</ele>
        <time>2011-08-17T14:06:08Z</time>
      </trkpt>
      <trkpt lat="41.755692" lon="2.931628">
        <ele>472.1</ele>
        <time>2011-08-17T14:06:11Z</time>
      </trkpt>
      <trkpt lat="41.755742" lon="2.931621">
        <ele>472.6</ele>
        <time>2011-08-17T14:06:14Z</time>
      </trkpt>
      <trkpt lat="41.755732" lon="2.931630">
        <ele>472.6</ele>
        <time>2011-08-17T14:06:15Z</time>
      </trkpt>
      <trkpt lat="41.755694" lon="2.931662">
        <ele>471.2</ele>
        <time>2011-08-17T14:06:28Z</time>
      </trkpt>
      <trkpt lat="41.755721" lon="2.931751">
        <ele>472.1</ele>
        <time>2011-08-17T14:07:09Z</time>
      </trkpt>
      <trkpt lat="41.755810" lon="2.932069">
        <ele>472.6</ele>
        <time>2011-08-17T14:07:15Z</time>
      </trkpt>
      <trkpt lat="41.755895" lon="2.932480">
        <ele>472.1</ele>
        <time>2011-08-17T14:07:22Z</time>
      </trkpt>
      <trkpt lat="41.755885" lon="2.932780">
        <ele>472.1</ele>
        <time>2011-08-17T14:07:28Z</time>
      </trkpt>
      <trkpt lat="41.755860" lon="2.932952">
        <ele>472.1</ele>
        <time>2011-08-17T14:07:31Z</time>
      </trkpt>
      <trkpt lat="41.755890" lon="2.933236">
        <ele>471.7</ele>
        <time>2011-08-17T14:07:35Z</time>
      </trkpt>
      <trkpt lat="41.755972" lon="2.933588">
        <ele>471.2</ele>
        <time>2011-08-17T14:07:40Z</time>
      </trkpt>
      <trkpt lat="41.756018" lon="2.933780">
        <ele>470.7</ele>
        <time>2011-08-17T14:07:43Z</time>
      </trkpt>
      <trkpt lat="41.756115" lon="2.933968">
        <ele>470.2</ele>
        <time>2011-08-17T14:07:46Z</time>
      </trkpt>
      <trkpt lat="41.756330" lon="2.934112">
        <ele>470.7</ele>
        <time>2011-08-17T14:07:51Z</time>
      </trkpt>
      <trkpt lat="41.756363" lon="2.934096">
        <ele>471.2</ele>
        <time>2011-08-17T14:07:52Z</time>
      </trkpt>
      <trkpt lat="41.756576" lon="2.934015">
        <ele>473.1</ele>
        <time>2011-08-17T14:07:59Z</time>
      </trkpt>
      <trkpt lat="41.756715" lon="2.934005">
        <ele>476.5</ele>
        <time>2011-08-17T14:08:05Z</time>
      </trkpt>
      <trkpt lat="41.756951" lon="2.934109">
        <ele>479.8</ele>
        <time>2011-08-17T14:08:12Z</time>
      </trkpt>
      <trkpt lat="41.757134" lon="2.934263">
        <ele>481.8</ele>
        <time>2011-08-17T14:08:19Z</time>
      </trkpt>
      <trkpt lat="41.757242" lon="2.934511">
        <ele>483.2</ele>
        <time>2011-08-17T14:08:25Z</time>
      </trkpt>
      <trkpt lat="41.757393" lon="2.934866">
        <ele>482.7</ele>
        <time>2011-08-17T14:08:33Z</time>
      </trkpt>
      <trkpt lat="41.757583" lon="2.935053">
        <ele>480.3</ele>
        <time>2011-08-17T14:08:40Z</time>
      </trkpt>
      <trkpt lat="41.757799" lon="2.935219">
        <ele>477.4</ele>
        <time>2011-08-17T14:08:47Z</time>
      </trkpt>
      <trkpt lat="41.758107" lon="2.935351">
        <ele>477.4</ele>
        <time>2011-08-17T14:08:55Z</time>
      </trkpt>
      <trkpt lat="41.758194" lon="2.935357">
        <ele>478.4</ele>
        <time>2011-08-17T14:08:57Z</time>
      </trkpt>
      <trkpt lat="41.758403" lon="2.935334">
        <ele>478.9</ele>
        <time>2011-08-17T14:09:01Z</time>
      </trkpt>
      <trkpt lat="41.758640" lon="2.935161">
        <ele>474.5</ele>
        <time>2011-08-17T14:09:06Z</time>
      </trkpt>
      <trkpt lat="41.758842" lon="2.935008">
        <ele>475.0</ele>
        <time>2011-08-17T14:09:12Z</time>
      </trkpt>
      <trkpt lat="41.758972" lon="2.935107">
        <ele>475.5</ele>
        <time>2011-08-17T14:09:17Z</time>
      </trkpt>
      <trkpt lat="41.759127" lon="2.935148">
        <ele>476.5</ele>
        <time>2011-08-17T14:09:24Z</time>
      </trkpt>
      <trkpt lat="41.759353" lon="2.935194">
        <ele>479.4</ele>
        <time>2011-08-17T14:09:31Z</time>
      </trkpt>
      <trkpt lat="41.759640" lon="2.935300">
        <ele>474.5</ele>
        <time>2011-08-17T14:09:40Z</time>
      </trkpt>
      <trkpt lat="41.759791" lon="2.935476">
        <ele>475.0</ele>
        <time>2011-08-17T14:09:48Z</time>
      </trkpt>
      <trkpt lat="41.759811" lon="2.935518">
        <ele>476.0</ele>
        <time>2011-08-17T14:09:56Z</time>
      </trkpt>
      <trkpt lat="41.759833" lon="2.935599">
        <ele>476.5</ele>
        <time>2011-08-17T14:10:03Z</time>
      </trkpt>
      <trkpt lat="41.759863" lon="2.935716">
        <ele>476.0</ele>
        <time>2011-08-17T14:10:06Z</time>
      </trkpt>
      <trkpt lat="41.760000" lon="2.936135">
        <ele>476.0</ele>
        <time>2011-08-17T14:10:14Z</time>
      </trkpt>
      <trkpt lat="41.760124" lon="2.936461">
        <ele>477.0</ele>
        <time>2011-08-17T14:10:20Z</time>
      </trkpt>
      <trkpt lat="41.760151" lon="2.936515">
        <ele>477.0</ele>
        <time>2011-08-17T14:10:21Z</time>
      </trkpt>
      <trkpt lat="41.760272" lon="2.936704">
        <ele>477.0</ele>
        <time>2011-08-17T14:10:25Z</time>
      </trkpt>
      <trkpt lat="41.760309" lon="2.936814">
        <ele>477.0</ele>
        <time>2011-08-17T14:10:27Z</time>
      </trkpt>
      <trkpt lat="41.760374" lon="2.937009">
        <ele>477.0</ele>
        <time>2011-08-17T14:10:31Z</time>
      </trkpt>
      <trkpt lat="41.760504" lon="2.937390">
        <ele>477.0</ele>
        <time>2011-08-17T14:10:38Z</time>
      </trkpt>
      <trkpt lat="41.760589" lon="2.937614">
        <ele>477.4</ele>
        <time>2011-08-17T14:10:42Z</time>
      </trkpt>
      <trkpt lat="41.760758" lon="2.937855">
        <ele>478.4</ele>
        <time>2011-08-17T14:10:49Z</time>
      </trkpt>
      <trkpt lat="41.760993" lon="2.937966">
        <ele>479.4</ele>
        <time>2011-08-17T14:10:55Z</time>
      </trkpt>
      <trkpt lat="41.761214" lon="2.938136">
        <ele>480.3</ele>
        <time>2011-08-17T14:11:01Z</time>
      </trkpt>
      <trkpt lat="41.761434" lon="2.938374">
        <ele>481.8</ele>
        <time>2011-08-17T14:11:08Z</time>
      </trkpt>
      <trkpt lat="41.761602" lon="2.938558">
        <ele>484.6</ele>
        <time>2011-08-17T14:11:14Z</time>
      </trkpt>
      <trkpt lat="41.761623" lon="2.938610">
        <ele>484.6</ele>
        <time>2011-08-17T14:11:15Z</time>
      </trkpt>
      <trkpt lat="41.761770" lon="2.938805">
        <ele>485.1</ele>
        <time>2011-08-17T14:11:19Z</time>
      </trkpt>
      <trkpt lat="41.761962" lon="2.938989">
        <ele>484.6</ele>
        <time>2011-08-17T14:11:23Z</time>
      </trkpt>
      <trkpt lat="41.762152" lon="2.939078">
        <ele>484.6</ele>
        <time>2011-08-17T14:11:27Z</time>
      </trkpt>
      <trkpt lat="41.762258" lon="2.939092">
        <ele>484.6</ele>
        <time>2011-08-17T14:11:29Z</time>
      </trkpt>
      <trkpt lat="41.762508" lon="2.939193">
        <ele>479.8</ele>
        <time>2011-08-17T14:11:35Z</time>
      </trkpt>
      <trkpt lat="41.762667" lon="2.939306">
        <ele>476.0</ele>
        <time>2011-08-17T14:11:42Z</time>
      </trkpt>
      <trkpt lat="41.762689" lon="2.939329">
        <ele>474.5</ele>
        <time>2011-08-17T14:11:45Z</time>
      </trkpt>
      <trkpt lat="41.762843" lon="2.939366">
        <ele>472.1</ele>
        <time>2011-08-17T14:11:51Z</time>
      </trkpt>
      <trkpt lat="41.763185" lon="2.939404">
        <ele>467.3</ele>
        <time>2011-08-17T14:11:58Z</time>
      </trkpt>
      <trkpt lat="41.763410" lon="2.939278">
        <ele>462.5</ele>
        <time>2011-08-17T14:12:02Z</time>
      </trkpt>
      <trkpt lat="41.763697" lon="2.938939">
        <ele>452.4</ele>
        <time>2011-08-17T14:12:06Z</time>
      </trkpt>
      <trkpt lat="41.764119" lon="2.937888">
        <ele>446.7</ele>
        <time>2011-08-17T14:12:14Z</time>
      </trkpt>
      <trkpt lat="41.764355" lon="2.937130">
        <ele>444.7</ele>
        <time>2011-08-17T14:12:21Z</time>
      </trkpt>
      <trkpt lat="41.764557" lon="2.936707">
        <ele>443.3</ele>
        <time>2011-08-17T14:12:26Z</time>
      </trkpt>
      <trkpt lat="41.764915" lon="2.936555">
        <ele>442.3</ele>
        <time>2011-08-17T14:12:31Z</time>
      </trkpt>
      <trkpt lat="41.765379" lon="2.936405">
        <ele>440.4</ele>
        <time>2011-08-17T14:12:38Z</time>
      </trkpt>
      <trkpt lat="41.765718" lon="2.936366">
        <ele>439.9</ele>
        <time>2011-08-17T14:12:44Z</time>
      </trkpt>
      <trkpt lat="41.765971" lon="2.936501">
        <ele>439.5</ele>
        <time>2011-08-17T14:12:50Z</time>
      </trkpt>
      <trkpt lat="41.766147" lon="2.936703">
        <ele>439.5</ele>
        <time>2011-08-17T14:12:57Z</time>
      </trkpt>
      <trkpt lat="41.766173" lon="2.936764">
        <ele>439.5</ele>
        <time>2011-08-17T14:13:02Z</time>
      </trkpt>
      <trkpt lat="41.766171" lon="2.936765">
        <ele>439.0</ele>
        <time>2011-08-17T14:13:09Z</time>
      </trkpt>
      <trkpt lat="41.766404" lon="2.936860">
        <ele>441.9</ele>
        <time>2011-08-17T14:13:16Z</time>
      </trkpt>
      <trkpt lat="41.766709" lon="2.936985">
        <ele>444.7</ele>
        <time>2011-08-17T14:13:23Z</time>
      </trkpt>
      <trkpt lat="41.766918" lon="2.937032">
        <ele>445.7</ele>
        <time>2011-08-17T14:13:27Z</time>
      </trkpt>
      <trkpt lat="41.767239" lon="2.936869">
        <ele>442.3</ele>
        <time>2011-08-17T14:13:32Z</time>
      </trkpt>
      <trkpt lat="41.767668" lon="2.936384">
        <ele>440.4</ele>
        <time>2011-08-17T14:13:38Z</time>
      </trkpt>
      <trkpt lat="41.767830" lon="2.936251">
        <ele>439.0</ele>
        <time>2011-08-17T14:13:40Z</time>
      </trkpt>
      <trkpt lat="41.768322" lon="2.936259">
        <ele>437.5</ele>
        <time>2011-08-17T14:13:45Z</time>
      </trkpt>
      <trkpt lat="41.768779" lon="2.936302">
        <ele>433.2</ele>
        <time>2011-08-17T14:13:49Z</time>
      </trkpt>
      <trkpt lat="41.769230" lon="2.936266">
        <ele>428.4</ele>
        <time>2011-08-17T14:13:53Z</time>
      </trkpt>
      <trkpt lat="41.769392" lon="2.936039">
        <ele>425.0</ele>
        <time>2011-08-17T14:13:55Z</time>
      </trkpt>
      <trkpt lat="41.769467" lon="2.935761">
        <ele>422.6</ele>
        <time>2011-08-17T14:13:57Z</time>
      </trkpt>
      <trkpt lat="41.769527" lon="2.935143">
        <ele>418.8</ele>
        <time>2011-08-17T14:14:01Z</time>
      </trkpt>
      <trkpt lat="41.769449" lon="2.934676">
        <ele>414.9</ele>
        <time>2011-08-17T14:14:04Z</time>
      </trkpt>
      <trkpt lat="41.769310" lon="2.933888">
        <ele>407.7</ele>
        <time>2011-08-17T14:14:09Z</time>
      </trkpt>
      <trkpt lat="41.769061" lon="2.933347">
        <ele>403.9</ele>
        <time>2011-08-17T14:14:13Z</time>
      </trkpt>
      <trkpt lat="41.768775" lon="2.933086">
        <ele>401.0</ele>
        <time>2011-08-17T14:14:16Z</time>
      </trkpt>
      <trkpt lat="41.768470" lon="2.932690">
        <ele>397.6</ele>
        <time>2011-08-17T14:14:20Z</time>
      </trkpt>
      <trkpt lat="41.768565" lon="2.932253">
        <ele>394.8</ele>
        <time>2011-08-17T14:14:23Z</time>
      </trkpt>
      <trkpt lat="41.768787" lon="2.932114">
        <ele>390.9</ele>
        <time>2011-08-17T14:14:25Z</time>
      </trkpt>
      <trkpt lat="41.769020" lon="2.931995">
        <ele>389.0</ele>
        <time>2011-08-17T14:14:27Z</time>
      </trkpt>
      <trkpt lat="41.769388" lon="2.931981">
        <ele>386.1</ele>
        <time>2011-08-17T14:14:30Z</time>
      </trkpt>
      <trkpt lat="41.769692" lon="2.932250">
        <ele>384.2</ele>
        <time>2011-08-17T14:14:33Z</time>
      </trkpt>
      <trkpt lat="41.769913" lon="2.932258">
        <ele>381.3</ele>
        <time>2011-08-17T14:14:35Z</time>
      </trkpt>
      <trkpt lat="41.770146" lon="2.932135">
        <ele>379.9</ele>
        <time>2011-08-17T14:14:37Z</time>
      </trkpt>
      <trkpt lat="41.770997" lon="2.931848">
        <ele>372.2</ele>
        <time>2011-08-17T14:14:44Z</time>
      </trkpt>
      <trkpt lat="41.771257" lon="2.931562">
        <ele>369.3</ele>
        <time>2011-08-17T14:14:47Z</time>
      </trkpt>
      <trkpt lat="41.770927" lon="2.931041">
        <ele>366.9</ele>
        <time>2011-08-17T14:14:52Z</time>
      </trkpt>
      <trkpt lat="41.770612" lon="2.930572">
        <ele>365.9</ele>
        <time>2011-08-17T14:14:56Z</time>
      </trkpt>
      <trkpt lat="41.770300" lon="2.930129">
        <ele>364.0</ele>
        <time>2011-08-17T14:15:00Z</time>
      </trkpt>
      <trkpt lat="41.769714" lon="2.929781">
        <ele>356.8</ele>
        <time>2011-08-17T14:15:06Z</time>
      </trkpt>
      <trkpt lat="41.769462" lon="2.929390">
        <ele>352.9</ele>
        <time>2011-08-17T14:15:10Z</time>
      </trkpt>
      <trkpt lat="41.769496" lon="2.928971">
        <ele>351.0</ele>
        <time>2011-08-17T14:15:13Z</time>
      </trkpt>
      <trkpt lat="41.769682" lon="2.928591">
        <ele>349.1</ele>
        <time>2011-08-17T14:15:16Z</time>
      </trkpt>
      <trkpt lat="41.769907" lon="2.928257">
        <ele>345.3</ele>
        <time>2011-08-17T14:15:19Z</time>
      </trkpt>
      <trkpt lat="41.770412" lon="2.927193">
        <ele>341.4</ele>
        <time>2011-08-17T14:15:27Z</time>
      </trkpt>
      <trkpt lat="41.770487" lon="2.926629">
        <ele>337.1</ele>
        <time>2011-08-17T14:15:31Z</time>
      </trkpt>
      <trkpt lat="41.770499" lon="2.926183">
        <ele>334.2</ele>
        <time>2011-08-17T14:15:34Z</time>
      </trkpt>
      <trkpt lat="41.770738" lon="2.925867">
        <ele>332.8</ele>
        <time>2011-08-17T14:15:37Z</time>
      </trkpt>
      <trkpt lat="41.771007" lon="2.925606">
        <ele>330.8</ele>
        <time>2011-08-17T14:15:40Z</time>
      </trkpt>
      <trkpt lat="41.771251" lon="2.925124">
        <ele>328.4</ele>
        <time>2011-08-17T14:15:44Z</time>
      </trkpt>
      <trkpt lat="41.771483" lon="2.924825">
        <ele>326.5</ele>
        <time>2011-08-17T14:15:47Z</time>
      </trkpt>
      <trkpt lat="41.771591" lon="2.924775">
        <ele>326.0</ele>
        <time>2011-08-17T14:15:48Z</time>
      </trkpt>
      <trkpt lat="41.771773" lon="2.924455">
        <ele>324.1</ele>
        <time>2011-08-17T14:15:51Z</time>
      </trkpt>
      <trkpt lat="41.771710" lon="2.924025">
        <ele>322.2</ele>
        <time>2011-08-17T14:15:54Z</time>
      </trkpt>
      <trkpt lat="41.771651" lon="2.923760">
        <ele>320.7</ele>
        <time>2011-08-17T14:15:56Z</time>
      </trkpt>
      <trkpt lat="41.771756" lon="2.923382">
        <ele>317.9</ele>
        <time>2011-08-17T14:15:59Z</time>
      </trkpt>
      <trkpt lat="41.771847" lon="2.923317">
        <ele>316.4</ele>
        <time>2011-08-17T14:16:00Z</time>
      </trkpt>
      <trkpt lat="41.772554" lon="2.923136">
        <ele>312.6</ele>
        <time>2011-08-17T14:16:07Z</time>
      </trkpt>
      <trkpt lat="41.772886" lon="2.922805">
        <ele>312.1</ele>
        <time>2011-08-17T14:16:11Z</time>
      </trkpt>
      <trkpt lat="41.772876" lon="2.922537">
        <ele>312.1</ele>
        <time>2011-08-17T14:16:13Z</time>
      </trkpt>
      <trkpt lat="41.772740" lon="2.922311">
        <ele>311.1</ele>
        <time>2011-08-17T14:16:15Z</time>
      </trkpt>
      <trkpt lat="41.772571" lon="2.921966">
        <ele>309.7</ele>
        <time>2011-08-17T14:16:18Z</time>
      </trkpt>
      <trkpt lat="41.772687" lon="2.921520">
        <ele>308.7</ele>
        <time>2011-08-17T14:16:22Z</time>
      </trkpt>
      <trkpt lat="41.772868" lon="2.921489">
        <ele>308.2</ele>
        <time>2011-08-17T14:16:24Z</time>
      </trkpt>
      <trkpt lat="41.773133" lon="2.921696">
        <ele>306.3</ele>
        <time>2011-08-17T14:16:27Z</time>
      </trkpt>
      <trkpt lat="41.773223" lon="2.921743">
        <ele>305.4</ele>
        <time>2011-08-17T14:16:28Z</time>
      </trkpt>
      <trkpt lat="41.773604" lon="2.921917">
        <ele>302.5</ele>
        <time>2011-08-17T14:16:32Z</time>
      </trkpt>
      <trkpt lat="41.773951" lon="2.921804">
        <ele>299.1</ele>
        <time>2011-08-17T14:16:36Z</time>
      </trkpt>
      <trkpt lat="41.774043" lon="2.921581">
        <ele>297.2</ele>
        <time>2011-08-17T14:16:38Z</time>
      </trkpt>
      <trkpt lat="41.774147" lon="2.921072">
        <ele>294.3</ele>
        <time>2011-08-17T14:16:42Z</time>
      </trkpt>
      <trkpt lat="41.774351" lon="2.920687">
        <ele>292.9</ele>
        <time>2011-08-17T14:16:46Z</time>
      </trkpt>
      <trkpt lat="41.774538" lon="2.920677">
        <ele>292.9</ele>
        <time>2011-08-17T14:16:48Z</time>
      </trkpt>
      <trkpt lat="41.775231" lon="2.920728">
        <ele>288.5</ele>
        <time>2011-08-17T14:16:55Z</time>
      </trkpt>
      <trkpt lat="41.775322" lon="2.920717">
        <ele>288.1</ele>
        <time>2011-08-17T14:16:56Z</time>
      </trkpt>
      <trkpt lat="41.775795" lon="2.920700">
        <ele>283.2</ele>
        <time>2011-08-17T14:17:01Z</time>
      </trkpt>
      <trkpt lat="41.776028" lon="2.920963">
        <ele>281.3</ele>
        <time>2011-08-17T14:17:04Z</time>
      </trkpt>
      <trkpt lat="41.776200" lon="2.921292">
        <ele>279.9</ele>
        <time>2011-08-17T14:17:07Z</time>
      </trkpt>
      <trkpt lat="41.776547" lon="2.921370">
        <ele>276.0</ele>
        <time>2011-08-17T14:17:11Z</time>
      </trkpt>
      <trkpt lat="41.776820" lon="2.921256">
        <ele>275.6</ele>
        <time>2011-08-17T14:17:14Z</time>
      </trkpt>
      <trkpt lat="41.777009" lon="2.921119">
        <ele>275.1</ele>
        <time>2011-08-17T14:17:16Z</time>
      </trkpt>
      <trkpt lat="41.777421" lon="2.920997">
        <ele>271.7</ele>
        <time>2011-08-17T14:17:20Z</time>
      </trkpt>
      <trkpt lat="41.777760" lon="2.920688">
        <ele>268.8</ele>
        <time>2011-08-17T14:17:24Z</time>
      </trkpt>
      <trkpt lat="41.777967" lon="2.920611">
        <ele>267.4</ele>
        <time>2011-08-17T14:17:26Z</time>
      </trkpt>
      <trkpt lat="41.778260" lon="2.920818">
        <ele>265.0</ele>
        <time>2011-08-17T14:17:29Z</time>
      </trkpt>
      <trkpt lat="41.778431" lon="2.920995">
        <ele>263.1</ele>
        <time>2011-08-17T14:17:31Z</time>
      </trkpt>
      <trkpt lat="41.778789" lon="2.921078">
        <ele>260.2</ele>
        <time>2011-08-17T14:17:35Z</time>
      </trkpt>
      <trkpt lat="41.778900" lon="2.920863">
        <ele>257.8</ele>
        <time>2011-08-17T14:17:37Z</time>
      </trkpt>
      <trkpt lat="41.778929" lon="2.920436">
        <ele>255.4</ele>
        <time>2011-08-17T14:17:40Z</time>
      </trkpt>
      <trkpt lat="41.778890" lon="2.920022">
        <ele>253.9</ele>
        <time>2011-08-17T14:17:43Z</time>
      </trkpt>
      <trkpt lat="41.778685" lon="2.919249">
        <ele>248.6</ele>
        <time>2011-08-17T14:17:49Z</time>
      </trkpt>
      <trkpt lat="41.778461" lon="2.918860">
        <ele>247.7</ele>
        <time>2011-08-17T14:17:53Z</time>
      </trkpt>
      <trkpt lat="41.778477" lon="2.918526">
        <ele>245.8</ele>
        <time>2011-08-17T14:17:56Z</time>
      </trkpt>
      <trkpt lat="41.778721" lon="2.918400">
        <ele>244.8</ele>
        <time>2011-08-17T14:17:59Z</time>
      </trkpt>
      <trkpt lat="41.778877" lon="2.918497">
        <ele>244.3</ele>
        <time>2011-08-17T14:18:01Z</time>
      </trkpt>
      <trkpt lat="41.779361" lon="2.918887">
        <ele>240.9</ele>
        <time>2011-08-17T14:18:08Z</time>
      </trkpt>
      <trkpt lat="41.779740" lon="2.919156">
        <ele>240.0</ele>
        <time>2011-08-17T14:18:13Z</time>
      </trkpt>
      <trkpt lat="41.780220" lon="2.919655">
        <ele>234.7</ele>
        <time>2011-08-17T14:18:19Z</time>
      </trkpt>
      <trkpt lat="41.780405" lon="2.919831">
        <ele>232.8</ele>
        <time>2011-08-17T14:18:21Z</time>
      </trkpt>
      <trkpt lat="41.780674" lon="2.920340">
        <ele>228.9</ele>
        <time>2011-08-17T14:18:25Z</time>
      </trkpt>
      <trkpt lat="41.780723" lon="2.920503">
        <ele>228.0</ele>
        <time>2011-08-17T14:18:26Z</time>
      </trkpt>
      <trkpt lat="41.780891" lon="2.921344">
        <ele>227.0</ele>
        <time>2011-08-17T14:18:31Z</time>
      </trkpt>
      <trkpt lat="41.781189" lon="2.921793">
        <ele>224.6</ele>
        <time>2011-08-17T14:18:35Z</time>
      </trkpt>
      <trkpt lat="41.781287" lon="2.921849">
        <ele>224.1</ele>
        <time>2011-08-17T14:18:36Z</time>
      </trkpt>
      <trkpt lat="41.781931" lon="2.922118">
        <ele>223.2</ele>
        <time>2011-08-17T14:18:43Z</time>
      </trkpt>
      <trkpt lat="41.782358" lon="2.922281">
        <ele>225.1</ele>
        <time>2011-08-17T14:18:49Z</time>
      </trkpt>
      <trkpt lat="41.782620" lon="2.922414">
        <ele>224.6</ele>
        <time>2011-08-17T14:18:54Z</time>
      </trkpt>
      <trkpt lat="41.782896" lon="2.922460">
        <ele>227.0</ele>
        <time>2011-08-17T14:18:59Z</time>
      </trkpt>
      <trkpt lat="41.783102" lon="2.922426">
        <ele>226.5</ele>
        <time>2011-08-17T14:19:03Z</time>
      </trkpt>
      <trkpt lat="41.783531" lon="2.922105">
        <ele>224.6</ele>
        <time>2011-08-17T14:19:13Z</time>
      </trkpt>
      <trkpt lat="41.783740" lon="2.922048">
        <ele>224.6</ele>
        <time>2011-08-17T14:19:16Z</time>
      </trkpt>
      <trkpt lat="41.784031" lon="2.921708">
        <ele>224.6</ele>
        <time>2011-08-17T14:19:24Z</time>
      </trkpt>
      <trkpt lat="41.784474" lon="2.921331">
        <ele>222.2</ele>
        <time>2011-08-17T14:19:32Z</time>
      </trkpt>
      <trkpt lat="41.785001" lon="2.920899">
        <ele>221.2</ele>
        <time>2011-08-17T14:19:41Z</time>
      </trkpt>
      <trkpt lat="41.785391" lon="2.920545">
        <ele>218.8</ele>
        <time>2011-08-17T14:19:48Z</time>
      </trkpt>
      <trkpt lat="41.785623" lon="2.920346">
        <ele>218.4</ele>
        <time>2011-08-17T14:19:52Z</time>
      </trkpt>
      <trkpt lat="41.785954" lon="2.919843">
        <ele>217.4</ele>
        <time>2011-08-17T14:20:00Z</time>
      </trkpt>
      <trkpt lat="41.786209" lon="2.919340">
        <ele>218.8</ele>
        <time>2011-08-17T14:20:07Z</time>
      </trkpt>
      <trkpt lat="41.786286" lon="2.919211">
        <ele>218.4</ele>
        <time>2011-08-17T14:20:09Z</time>
      </trkpt>
      <trkpt lat="41.786522" lon="2.918962">
        <ele>218.8</ele>
        <time>2011-08-17T14:20:14Z</time>
      </trkpt>
      <trkpt lat="41.786634" lon="2.918909">
        <ele>218.4</ele>
        <time>2011-08-17T14:20:16Z</time>
      </trkpt>
      <trkpt lat="41.787240" lon="2.918791">
        <ele>216.9</ele>
        <time>2011-08-17T14:20:26Z</time>
      </trkpt>
      <trkpt lat="41.787753" lon="2.918870">
        <ele>217.4</ele>
        <time>2011-08-17T14:20:34Z</time>
      </trkpt>
      <trkpt lat="41.788477" lon="2.918887">
        <ele>218.8</ele>
        <time>2011-08-17T14:20:45Z</time>
      </trkpt>
      <trkpt lat="41.788852" lon="2.918802">
        <ele>217.4</ele>
        <time>2011-08-17T14:20:51Z</time>
      </trkpt>
      <trkpt lat="41.789170" lon="2.918577">
        <ele>218.4</ele>
        <time>2011-08-17T14:20:57Z</time>
      </trkpt>
      <trkpt lat="41.789362" lon="2.918301">
        <ele>216.9</ele>
        <time>2011-08-17T14:21:02Z</time>
      </trkpt>
      <trkpt lat="41.789428" lon="2.918097">
        <ele>216.4</ele>
        <time>2011-08-17T14:21:05Z</time>
      </trkpt>
      <trkpt lat="41.789470" lon="2.917722">
        <ele>216.4</ele>
        <time>2011-08-17T14:21:10Z</time>
      </trkpt>
      <trkpt lat="41.789627" lon="2.917366">
        <ele>217.4</ele>
        <time>2011-08-17T14:21:16Z</time>
      </trkpt>
      <trkpt lat="41.789790" lon="2.917327">
        <ele>218.4</ele>
        <time>2011-08-17T14:21:19Z</time>
      </trkpt>
      <trkpt lat="41.789966" lon="2.917432">
        <ele>214.5</ele>
        <time>2011-08-17T14:21:22Z</time>
      </trkpt>
      <trkpt lat="41.790461" lon="2.917818">
        <ele>208.7</ele>
        <time>2011-08-17T14:21:29Z</time>
      </trkpt>
      <trkpt lat="41.790681" lon="2.918083">
        <ele>206.8</ele>
        <time>2011-08-17T14:21:32Z</time>
      </trkpt>
      <trkpt lat="41.791055" lon="2.918241">
        <ele>205.9</ele>
        <time>2011-08-17T14:21:36Z</time>
      </trkpt>
      <trkpt lat="41.791228" lon="2.918132">
        <ele>204.9</ele>
        <time>2011-08-17T14:21:38Z</time>
      </trkpt>
      <trkpt lat="41.791800" lon="2.917787">
        <ele>203.9</ele>
        <time>2011-08-17T14:21:45Z</time>
      </trkpt>
      <trkpt lat="41.792529" lon="2.917552">
        <ele>200.1</ele>
        <time>2011-08-17T14:21:54Z</time>
      </trkpt>
      <trkpt lat="41.792864" lon="2.917435">
        <ele>200.6</ele>
        <time>2011-08-17T14:21:58Z</time>
      </trkpt>
      <trkpt lat="41.793344" lon="2.917224">
        <ele>202.5</ele>
        <time>2011-08-17T14:22:05Z</time>
      </trkpt>
      <trkpt lat="41.793641" lon="2.916981">
        <ele>200.1</ele>
        <time>2011-08-17T14:22:10Z</time>
      </trkpt>
      <trkpt lat="41.794111" lon="2.916566">
        <ele>198.2</ele>
        <time>2011-08-17T14:22:18Z</time>
      </trkpt>
      <trkpt lat="41.794458" lon="2.916228">
        <ele>198.2</ele>
        <time>2011-08-17T14:22:24Z</time>
      </trkpt>
      <trkpt lat="41.794798" lon="2.915637">
        <ele>198.2</ele>
        <time>2011-08-17T14:22:32Z</time>
      </trkpt>
      <trkpt lat="41.795085" lon="2.915031">
        <ele>199.1</ele>
        <time>2011-08-17T14:22:40Z</time>
      </trkpt>
      <trkpt lat="41.795292" lon="2.914464">
        <ele>196.2</ele>
        <time>2011-08-17T14:22:48Z</time>
      </trkpt>
      <trkpt lat="41.795316" lon="2.914396">
        <ele>196.2</ele>
        <time>2011-08-17T14:22:49Z</time>
      </trkpt>
      <trkpt lat="41.795439" lon="2.914147">
        <ele>196.7</ele>
        <time>2011-08-17T14:22:53Z</time>
      </trkpt>
      <trkpt lat="41.795554" lon="2.913998">
        <ele>199.1</ele>
        <time>2011-08-17T14:22:56Z</time>
      </trkpt>
      <trkpt lat="41.795836" lon="2.913815">
        <ele>199.6</ele>
        <time>2011-08-17T14:23:03Z</time>
      </trkpt>
      <trkpt lat="41.796099" lon="2.913638">
        <ele>200.1</ele>
        <time>2011-08-17T14:23:11Z</time>
      </trkpt>
      <trkpt lat="41.796288" lon="2.913483">
        <ele>199.6</ele>
        <time>2011-08-17T14:23:18Z</time>
      </trkpt>
      <trkpt lat="41.796399" lon="2.913338">
        <ele>202.5</ele>
        <time>2011-08-17T14:23:24Z</time>
      </trkpt>
      <trkpt lat="41.796526" lon="2.913186">
        <ele>203.0</ele>
        <time>2011-08-17T14:23:30Z</time>
      </trkpt>
      <trkpt lat="41.796707" lon="2.913015">
        <ele>204.4</ele>
        <time>2011-08-17T14:23:38Z</time>
      </trkpt>
      <trkpt lat="41.796882" lon="2.912810">
        <ele>205.9</ele>
        <time>2011-08-17T14:23:46Z</time>
      </trkpt>
      <trkpt lat="41.797078" lon="2.912514">
        <ele>210.2</ele>
        <time>2011-08-17T14:23:55Z</time>
      </trkpt>
      <trkpt lat="41.797203" lon="2.912178">
        <ele>213.6</ele>
        <time>2011-08-17T14:24:04Z</time>
      </trkpt>
      <trkpt lat="41.797269" lon="2.911924">
        <ele>214.0</ele>
        <time>2011-08-17T14:24:11Z</time>
      </trkpt>
      <trkpt lat="41.797409" lon="2.911632">
        <ele>214.5</ele>
        <time>2011-08-17T14:24:20Z</time>
      </trkpt>
      <trkpt lat="41.797510" lon="2.911362">
        <ele>216.0</ele>
        <time>2011-08-17T14:24:28Z</time>
      </trkpt>
      <trkpt lat="41.797739" lon="2.911150">
        <ele>216.0</ele>
        <time>2011-08-17T14:24:38Z</time>
      </trkpt>
      <trkpt lat="41.797939" lon="2.910879">
        <ele>216.9</ele>
        <time>2011-08-17T14:24:48Z</time>
      </trkpt>
      <trkpt lat="41.798052" lon="2.910598">
        <ele>217.4</ele>
        <time>2011-08-17T14:24:55Z</time>
      </trkpt>
      <trkpt lat="41.798164" lon="2.910058">
        <ele>216.0</ele>
        <time>2011-08-17T14:25:05Z</time>
      </trkpt>
      <trkpt lat="41.798272" lon="2.909836">
        <ele>213.6</ele>
        <time>2011-08-17T14:25:11Z</time>
      </trkpt>
      <trkpt lat="41.798405" lon="2.909794">
        <ele>212.1</ele>
        <time>2011-08-17T14:25:17Z</time>
      </trkpt>
      <trkpt lat="41.798609" lon="2.909815">
        <ele>208.7</ele>
        <time>2011-08-17T14:25:22Z</time>
      </trkpt>
      <trkpt lat="41.798963" lon="2.909707">
        <ele>206.3</ele>
        <time>2011-08-17T14:25:29Z</time>
      </trkpt>
      <trkpt lat="41.799163" lon="2.909617">
        <ele>204.9</ele>
        <time>2011-08-17T14:25:32Z</time>
      </trkpt>
      <trkpt lat="41.799758" lon="2.909075">
        <ele>199.1</ele>
        <time>2011-08-17T14:25:40Z</time>
      </trkpt>
      <trkpt lat="41.800316" lon="2.908478">
        <ele>193.8</ele>
        <time>2011-08-17T14:25:47Z</time>
      </trkpt>
      <trkpt lat="41.800648" lon="2.908119">
        <ele>189.5</ele>
        <time>2011-08-17T14:25:51Z</time>
      </trkpt>
      <trkpt lat="41.801046" lon="2.907376">
        <ele>187.1</ele>
        <time>2011-08-17T14:25:57Z</time>
      </trkpt>
      <trkpt lat="41.801148" lon="2.906950">
        <ele>185.7</ele>
        <time>2011-08-17T14:26:00Z</time>
      </trkpt>
      <trkpt lat="41.801443" lon="2.906105">
        <ele>182.8</ele>
        <time>2011-08-17T14:26:07Z</time>
      </trkpt>
      <trkpt lat="41.801650" lon="2.905872">
        <ele>183.3</ele>
        <time>2011-08-17T14:26:10Z</time>
      </trkpt>
      <trkpt lat="41.801807" lon="2.905953">
        <ele>182.8</ele>
        <time>2011-08-17T14:26:12Z</time>
      </trkpt>
      <trkpt lat="41.801859" lon="2.906183">
        <ele>184.2</ele>
        <time>2011-08-17T14:26:14Z</time>
      </trkpt>
      <trkpt lat="41.801890" lon="2.906723">
        <ele>183.3</ele>
        <time>2011-08-17T14:26:18Z</time>
      </trkpt>
      <trkpt lat="41.802054" lon="2.907041">
        <ele>180.4</ele>
        <time>2011-08-17T14:26:21Z</time>
      </trkpt>
      <trkpt lat="41.802622" lon="2.907847">
        <ele>173.2</ele>
        <time>2011-08-17T14:26:29Z</time>
      </trkpt>
      <trkpt lat="41.803023" lon="2.908297">
        <ele>169.8</ele>
        <time>2011-08-17T14:26:34Z</time>
      </trkpt>
      <trkpt lat="41.803393" lon="2.908384">
        <ele>165.5</ele>
        <time>2011-08-17T14:26:38Z</time>
      </trkpt>
      <trkpt lat="41.803530" lon="2.908203">
        <ele>164.0</ele>
        <time>2011-08-17T14:26:40Z</time>
      </trkpt>
      <trkpt lat="41.803577" lon="2.908078">
        <ele>163.6</ele>
        <time>2011-08-17T14:26:41Z</time>
      </trkpt>
      <trkpt lat="41.803690" lon="2.907666">
        <ele>161.6</ele>
        <time>2011-08-17T14:26:44Z</time>
      </trkpt>
      <trkpt lat="41.804011" lon="2.907120">
        <ele>155.9</ele>
        <time>2011-08-17T14:26:49Z</time>
      </trkpt>
      <trkpt lat="41.804315" lon="2.907074">
        <ele>153.5</ele>
        <time>2011-08-17T14:26:52Z</time>
      </trkpt>
      <trkpt lat="41.805015" lon="2.907308">
        <ele>152.0</ele>
        <time>2011-08-17T14:26:59Z</time>
      </trkpt>
      <trkpt lat="41.805372" lon="2.907199">
        <ele>148.2</ele>
        <time>2011-08-17T14:27:03Z</time>
      </trkpt>
      <trkpt lat="41.805667" lon="2.906774">
        <ele>145.3</ele>
        <time>2011-08-17T14:27:07Z</time>
      </trkpt>
      <trkpt lat="41.806126" lon="2.905867">
        <ele>141.9</ele>
        <time>2011-08-17T14:27:15Z</time>
      </trkpt>
      <trkpt lat="41.806613" lon="2.904886">
        <ele>141.9</ele>
        <time>2011-08-17T14:27:24Z</time>
      </trkpt>
      <trkpt lat="41.806757" lon="2.904349">
        <ele>141.9</ele>
        <time>2011-08-17T14:27:29Z</time>
      </trkpt>
      <trkpt lat="41.806853" lon="2.903592">
        <ele>142.9</ele>
        <time>2011-08-17T14:27:37Z</time>
      </trkpt>
      <trkpt lat="41.806935" lon="2.903068">
        <ele>140.5</ele>
        <time>2011-08-17T14:27:44Z</time>
      </trkpt>
      <trkpt lat="41.807012" lon="2.902616">
        <ele>139.5</ele>
        <time>2011-08-17T14:27:51Z</time>
      </trkpt>
      <trkpt lat="41.807098" lon="2.901952">
        <ele>139.0</ele>
        <time>2011-08-17T14:28:01Z</time>
      </trkpt>
      <trkpt lat="41.807115" lon="2.901363">
        <ele>137.1</ele>
        <time>2011-08-17T14:28:08Z</time>
      </trkpt>
      <trkpt lat="41.807104" lon="2.900577">
        <ele>132.8</ele>
        <time>2011-08-17T14:28:15Z</time>
      </trkpt>
      <trkpt lat="41.807118" lon="2.900342">
        <ele>132.8</ele>
        <time>2011-08-17T14:28:17Z</time>
      </trkpt>
      <trkpt lat="41.807306" lon="2.899800">
        <ele>130.9</ele>
        <time>2011-08-17T14:28:22Z</time>
      </trkpt>
      <trkpt lat="41.807431" lon="2.899636">
        <ele>130.9</ele>
        <time>2011-08-17T14:28:24Z</time>
      </trkpt>
      <trkpt lat="41.807962" lon="2.899176">
        <ele>129.0</ele>
        <time>2011-08-17T14:28:32Z</time>
      </trkpt>
      <trkpt lat="41.808474" lon="2.898687">
        <ele>128.5</ele>
        <time>2011-08-17T14:28:41Z</time>
      </trkpt>
      <trkpt lat="41.809002" lon="2.898203">
        <ele>130.9</ele>
        <time>2011-08-17T14:28:51Z</time>
      </trkpt>
      <trkpt lat="41.809682" lon="2.897744">
        <ele>129.0</ele>
        <time>2011-08-17T14:29:03Z</time>
      </trkpt>
      <trkpt lat="41.810201" lon="2.897479">
        <ele>126.6</ele>
        <time>2011-08-17T14:29:12Z</time>
      </trkpt>
      <trkpt lat="41.810322" lon="2.897450">
        <ele>126.6</ele>
        <time>2011-08-17T14:29:14Z</time>
      </trkpt>
      <trkpt lat="41.810778" lon="2.897421">
        <ele>125.1</ele>
        <time>2011-08-17T14:29:22Z</time>
      </trkpt>
      <trkpt lat="41.810937" lon="2.897472">
        <ele>126.6</ele>
        <time>2011-08-17T14:29:25Z</time>
      </trkpt>
      <trkpt lat="41.811090" lon="2.897549">
        <ele>128.0</ele>
        <time>2011-08-17T14:29:28Z</time>
      </trkpt>
      <trkpt lat="41.811207" lon="2.897624">
        <ele>129.9</ele>
        <time>2011-08-17T14:29:31Z</time>
      </trkpt>
      <trkpt lat="41.811407" lon="2.897692">
        <ele>132.3</ele>
        <time>2011-08-17T14:29:36Z</time>
      </trkpt>
      <trkpt lat="41.811672" lon="2.897722">
        <ele>132.3</ele>
        <time>2011-08-17T14:29:43Z</time>
      </trkpt>
      <trkpt lat="41.811848" lon="2.897629">
        <ele>132.3</ele>
        <time>2011-08-17T14:29:48Z</time>
      </trkpt>
      <trkpt lat="41.811976" lon="2.897356">
        <ele>131.4</ele>
        <time>2011-08-17T14:29:54Z</time>
      </trkpt>
      <trkpt lat="41.812024" lon="2.897271">
        <ele>130.4</ele>
        <time>2011-08-17T14:29:56Z</time>
      </trkpt>
      <trkpt lat="41.812179" lon="2.897059">
        <ele>129.9</ele>
        <time>2011-08-17T14:30:04Z</time>
      </trkpt>
      <trkpt lat="41.812213" lon="2.896991">
        <ele>130.4</ele>
        <time>2011-08-17T14:30:15Z</time>
      </trkpt>
      <trkpt lat="41.812266" lon="2.896929">
        <ele>130.4</ele>
        <time>2011-08-17T14:30:17Z</time>
      </trkpt>
      <trkpt lat="41.812412" lon="2.896820">
        <ele>129.9</ele>
        <time>2011-08-17T14:30:21Z</time>
      </trkpt>
      <trkpt lat="41.812566" lon="2.896652">
        <ele>128.5</ele>
        <time>2011-08-17T14:30:25Z</time>
      </trkpt>
      <trkpt lat="41.812862" lon="2.896532">
        <ele>127.5</ele>
        <time>2011-08-17T14:30:30Z</time>
      </trkpt>
      <trkpt lat="41.813422" lon="2.896535">
        <ele>124.6</ele>
        <time>2011-08-17T14:30:37Z</time>
      </trkpt>
      <trkpt lat="41.814117" lon="2.896504">
        <ele>121.7</ele>
        <time>2011-08-17T14:30:44Z</time>
      </trkpt>
      <trkpt lat="41.814878" lon="2.896453">
        <ele>121.3</ele>
        <time>2011-08-17T14:30:52Z</time>
      </trkpt>
      <trkpt lat="41.815535" lon="2.896409">
        <ele>122.2</ele>
        <time>2011-08-17T14:31:00Z</time>
      </trkpt>
      <trkpt lat="41.816317" lon="2.896359">
        <ele>122.2</ele>
        <time>2011-08-17T14:31:10Z</time>
      </trkpt>
      <trkpt lat="41.816832" lon="2.896267">
        <ele>121.3</ele>
        <time>2011-08-17T14:31:17Z</time>
      </trkpt>
      <trkpt lat="41.817293" lon="2.896010">
        <ele>121.3</ele>
        <time>2011-08-17T14:31:24Z</time>
      </trkpt>
      <trkpt lat="41.817892" lon="2.895692">
        <ele>121.3</ele>
        <time>2011-08-17T14:31:33Z</time>
      </trkpt>
      <trkpt lat="41.818429" lon="2.895468">
        <ele>118.9</ele>
        <time>2011-08-17T14:31:41Z</time>
      </trkpt>
      <trkpt lat="41.818954" lon="2.895287">
        <ele>121.3</ele>
        <time>2011-08-17T14:31:49Z</time>
      </trkpt>
      <trkpt lat="41.819374" lon="2.895112">
        <ele>121.7</ele>
        <time>2011-08-17T14:31:56Z</time>
      </trkpt>
      <trkpt lat="41.819757" lon="2.894691">
        <ele>119.8</ele>
        <time>2011-08-17T14:32:04Z</time>
      </trkpt>
      <trkpt lat="41.819894" lon="2.894485">
        <ele>120.3</ele>
        <time>2011-08-17T14:32:07Z</time>
      </trkpt>
      <trkpt lat="41.820083" lon="2.894273">
        <ele>119.8</ele>
        <time>2011-08-17T14:32:11Z</time>
      </trkpt>
      <trkpt lat="41.820668" lon="2.893837">
        <ele>120.3</ele>
        <time>2011-08-17T14:32:21Z</time>
      </trkpt>
      <trkpt lat="41.821205" lon="2.893478">
        <ele>120.3</ele>
        <time>2011-08-17T14:32:30Z</time>
      </trkpt>
      <trkpt lat="41.821316" lon="2.893411">
        <ele>119.8</ele>
        <time>2011-08-17T14:32:32Z</time>
      </trkpt>
      <trkpt lat="41.821698" lon="2.893279">
        <ele>118.9</ele>
        <time>2011-08-17T14:32:38Z</time>
      </trkpt>
      <trkpt lat="41.821765" lon="2.893272">
        <ele>118.9</ele>
        <time>2011-08-17T14:32:39Z</time>
      </trkpt>
      <trkpt lat="41.822217" lon="2.893358">
        <ele>118.9</ele>
        <time>2011-08-17T14:32:47Z</time>
      </trkpt>
      <trkpt lat="41.822303" lon="2.893376">
        <ele>119.3</ele>
        <time>2011-08-17T14:32:49Z</time>
      </trkpt>
      <trkpt lat="41.822392" lon="2.893403">
        <ele>119.3</ele>
        <time>2011-08-17T14:32:51Z</time>
      </trkpt>
      <trkpt lat="41.822720" lon="2.893480">
        <ele>119.8</ele>
        <time>2011-08-17T14:32:59Z</time>
      </trkpt>
      <trkpt lat="41.823033" lon="2.893601">
        <ele>117.4</ele>
        <time>2011-08-17T14:33:07Z</time>
      </trkpt>
      <trkpt lat="41.823257" lon="2.893617">
        <ele>117.9</ele>
        <time>2011-08-17T14:33:13Z</time>
      </trkpt>
      <trkpt lat="41.823475" lon="2.893597">
        <ele>115.0</ele>
        <time>2011-08-17T14:33:20Z</time>
      </trkpt>
      <trkpt lat="41.823505" lon="2.893581">
        <ele>115.0</ele>
        <time>2011-08-17T14:33:21Z</time>
      </trkpt>
      <trkpt lat="41.823859" lon="2.893329">
        <ele>117.4</ele>
        <time>2011-08-17T14:33:30Z</time>
      </trkpt>
      <trkpt lat="41.823866" lon="2.893303">
        <ele>117.9</ele>
        <time>2011-08-17T14:33:35Z</time>
      </trkpt>
      <trkpt lat="41.823880" lon="2.893237">
        <ele>118.9</ele>
        <time>2011-08-17T14:34:02Z</time>
      </trkpt>
      <trkpt lat="41.823891" lon="2.893233">
        <ele>119.3</ele>
        <time>2011-08-17T14:34:13Z</time>
      </trkpt>
      <trkpt lat="41.823898" lon="2.893231">
        <ele>119.8</ele>
        <time>2011-08-17T14:35:35Z</time>
      </trkpt>
      <trkpt lat="41.823703" lon="2.893309">
        <ele>121.7</ele>
        <time>2011-08-17T14:35:43Z</time>
      </trkpt>
      <trkpt lat="41.823507" lon="2.893420">
        <ele>121.7</ele>
        <time>2011-08-17T14:35:50Z</time>
      </trkpt>
      <trkpt lat="41.823472" lon="2.893430">
        <ele>121.7</ele>
        <time>2011-08-17T14:35:51Z</time>
      </trkpt>
      <trkpt lat="41.823283" lon="2.893435">
        <ele>121.7</ele>
        <time>2011-08-17T14:35:58Z</time>
      </trkpt>
      <trkpt lat="41.823047" lon="2.893468">
        <ele>120.8</ele>
        <time>2011-08-17T14:36:04Z</time>
      </trkpt>
      <trkpt lat="41.822715" lon="2.893438">
        <ele>119.8</ele>
        <time>2011-08-17T14:36:11Z</time>
      </trkpt>
      <trkpt lat="41.822499" lon="2.893378">
        <ele>119.8</ele>
        <time>2011-08-17T14:36:16Z</time>
      </trkpt>
      <trkpt lat="41.822320" lon="2.893391">
        <ele>116.5</ele>
        <time>2011-08-17T14:36:20Z</time>
      </trkpt>
      <trkpt lat="41.822213" lon="2.893453">
        <ele>116.0</ele>
        <time>2011-08-17T14:36:23Z</time>
      </trkpt>
      <trkpt lat="41.822050" lon="2.893756">
        <ele>118.4</ele>
        <time>2011-08-17T14:36:30Z</time>
      </trkpt>
      <trkpt lat="41.821944" lon="2.894019">
        <ele>120.8</ele>
        <time>2011-08-17T14:36:36Z</time>
      </trkpt>
      <trkpt lat="41.821922" lon="2.894061">
        <ele>121.3</ele>
        <time>2011-08-17T14:36:37Z</time>
      </trkpt>
      <trkpt lat="41.821759" lon="2.894494">
        <ele>122.7</ele>
        <time>2011-08-17T14:36:45Z</time>
      </trkpt>
      <trkpt lat="41.821661" lon="2.894878">
        <ele>122.2</ele>
        <time>2011-08-17T14:36:52Z</time>
      </trkpt>
      <trkpt lat="41.821633" lon="2.894998">
        <ele>122.7</ele>
        <time>2011-08-17T14:36:54Z</time>
      </trkpt>
      <trkpt lat="41.821627" lon="2.895187">
        <ele>122.2</ele>
        <time>2011-08-17T14:36:57Z</time>
      </trkpt>
      <trkpt lat="41.821596" lon="2.895443">
        <ele>122.7</ele>
        <time>2011-08-17T14:37:01Z</time>
      </trkpt>
      <trkpt lat="41.821501" lon="2.895911">
        <ele>123.2</ele>
        <time>2011-08-17T14:37:09Z</time>
      </trkpt>
      <trkpt lat="41.821411" lon="2.896410">
        <ele>125.1</ele>
        <time>2011-08-17T14:37:17Z</time>
      </trkpt>
      <trkpt lat="41.821289" lon="2.897034">
        <ele>126.1</ele>
        <time>2011-08-17T14:37:27Z</time>
      </trkpt>
      <trkpt lat="41.821187" lon="2.897584">
        <ele>126.1</ele>
        <time>2011-08-17T14:37:36Z</time>
      </trkpt>
      <trkpt lat="41.821081" lon="2.898132">
        <ele>128.0</ele>
        <time>2011-08-17T14:37:45Z</time>
      </trkpt>
      <trkpt lat="41.820963" lon="2.898665">
        <ele>130.9</ele>
        <time>2011-08-17T14:37:54Z</time>
      </trkpt>
      <trkpt lat="41.820835" lon="2.899256">
        <ele>130.9</ele>
        <time>2011-08-17T14:38:04Z</time>
      </trkpt>
      <trkpt lat="41.820746" lon="2.899688">
        <ele>130.9</ele>
        <time>2011-08-17T14:38:12Z</time>
      </trkpt>
      <trkpt lat="41.820706" lon="2.900012">
        <ele>129.9</ele>
        <time>2011-08-17T14:38:19Z</time>
      </trkpt>
      <trkpt lat="41.820690" lon="2.900577">
        <ele>129.9</ele>
        <time>2011-08-17T14:38:28Z</time>
      </trkpt>
      <trkpt lat="41.820709" lon="2.900899">
        <ele>132.3</ele>
        <time>2011-08-17T14:38:33Z</time>
      </trkpt>
      <trkpt lat="41.820750" lon="2.901394">
        <ele>133.3</ele>
        <time>2011-08-17T14:38:41Z</time>
      </trkpt>
      <trkpt lat="41.820752" lon="2.901657">
        <ele>134.7</ele>
        <time>2011-08-17T14:38:45Z</time>
      </trkpt>
      <trkpt lat="41.820822" lon="2.902255">
        <ele>132.3</ele>
        <time>2011-08-17T14:38:54Z</time>
      </trkpt>
      <trkpt lat="41.820883" lon="2.902897">
        <ele>131.4</ele>
        <time>2011-08-17T14:39:03Z</time>
      </trkpt>
      <trkpt lat="41.820842" lon="2.903411">
        <ele>132.8</ele>
        <time>2011-08-17T14:39:10Z</time>
      </trkpt>
      <trkpt lat="41.820812" lon="2.903550">
        <ele>133.3</ele>
        <time>2011-08-17T14:39:12Z</time>
      </trkpt>
      <trkpt lat="41.820858" lon="2.903900">
        <ele>135.2</ele>
        <time>2011-08-17T14:39:17Z</time>
      </trkpt>
      <trkpt lat="41.821118" lon="2.904526">
        <ele>137.1</ele>
        <time>2011-08-17T14:39:27Z</time>
      </trkpt>
      <trkpt lat="41.821286" lon="2.905116">
        <ele>138.6</ele>
        <time>2011-08-17T14:39:36Z</time>
      </trkpt>
      <trkpt lat="41.821405" lon="2.905742">
        <ele>139.5</ele>
        <time>2011-08-17T14:39:45Z</time>
      </trkpt>
      <trkpt lat="41.821558" lon="2.906088">
        <ele>141.5</ele>
        <time>2011-08-17T14:39:51Z</time>
      </trkpt>
      <trkpt lat="41.821673" lon="2.906111">
        <ele>142.4</ele>
        <time>2011-08-17T14:39:54Z</time>
      </trkpt>
      <trkpt lat="41.821779" lon="2.906140">
        <ele>141.9</ele>
        <time>2011-08-17T14:39:58Z</time>
      </trkpt>
      <trkpt lat="41.821842" lon="2.906338">
        <ele>140.5</ele>
        <time>2011-08-17T14:40:03Z</time>
      </trkpt>
      <trkpt lat="41.821881" lon="2.906471">
        <ele>140.0</ele>
        <time>2011-08-17T14:40:05Z</time>
      </trkpt>
      <trkpt lat="41.821836" lon="2.907079">
        <ele>139.0</ele>
        <time>2011-08-17T14:40:12Z</time>
      </trkpt>
      <trkpt lat="41.821833" lon="2.907450">
        <ele>139.0</ele>
        <time>2011-08-17T14:40:16Z</time>
      </trkpt>
      <trkpt lat="41.821969" lon="2.907990">
        <ele>137.6</ele>
        <time>2011-08-17T14:40:22Z</time>
      </trkpt>
      <trkpt lat="41.822177" lon="2.908538">
        <ele>138.1</ele>
        <time>2011-08-17T14:40:29Z</time>
      </trkpt>
      <trkpt lat="41.822478" lon="2.909059">
        <ele>139.0</ele>
        <time>2011-08-17T14:40:37Z</time>
      </trkpt>
      <trkpt lat="41.822759" lon="2.909583">
        <ele>141.0</ele>
        <time>2011-08-17T14:40:45Z</time>
      </trkpt>
      <trkpt lat="41.823048" lon="2.910104">
        <ele>143.9</ele>
        <time>2011-08-17T14:40:53Z</time>
      </trkpt>
      <trkpt lat="41.823306" lon="2.910569">
        <ele>144.3</ele>
        <time>2011-08-17T14:41:01Z</time>
      </trkpt>
      <trkpt lat="41.823328" lon="2.910629">
        <ele>144.3</ele>
        <time>2011-08-17T14:41:02Z</time>
      </trkpt>
      <trkpt lat="41.823411" lon="2.910770">
        <ele>144.3</ele>
        <time>2011-08-17T14:41:05Z</time>
      </trkpt>
      <trkpt lat="41.823500" lon="2.910973">
        <ele>145.3</ele>
        <time>2011-08-17T14:41:09Z</time>
      </trkpt>
      <trkpt lat="41.823583" lon="2.911493">
        <ele>147.7</ele>
        <time>2011-08-17T14:41:17Z</time>
      </trkpt>
      <trkpt lat="41.823606" lon="2.911772">
        <ele>149.1</ele>
        <time>2011-08-17T14:41:20Z</time>
      </trkpt>
      <trkpt lat="41.823647" lon="2.912160">
        <ele>150.1</ele>
        <time>2011-08-17T14:41:24Z</time>
      </trkpt>
      <trkpt lat="41.823640" lon="2.912491">
        <ele>145.8</ele>
        <time>2011-08-17T14:41:27Z</time>
      </trkpt>
      <trkpt lat="41.823782" lon="2.913069">
        <ele>139.0</ele>
        <time>2011-08-17T14:41:32Z</time>
      </trkpt>
      <trkpt lat="41.824123" lon="2.913769">
        <ele>132.3</ele>
        <time>2011-08-17T14:41:39Z</time>
      </trkpt>
      <trkpt lat="41.824371" lon="2.914330">
        <ele>130.9</ele>
        <time>2011-08-17T14:41:46Z</time>
      </trkpt>
      <trkpt lat="41.824640" lon="2.914969">
        <ele>127.5</ele>
        <time>2011-08-17T14:41:55Z</time>
      </trkpt>
      <trkpt lat="41.824855" lon="2.915594">
        <ele>126.1</ele>
        <time>2011-08-17T14:42:02Z</time>
      </trkpt>
      <trkpt lat="41.825173" lon="2.916442">
        <ele>125.1</ele>
        <time>2011-08-17T14:42:11Z</time>
      </trkpt>
      <trkpt lat="41.825476" lon="2.917030">
        <ele>123.7</ele>
        <time>2011-08-17T14:42:18Z</time>
      </trkpt>
      <trkpt lat="41.825737" lon="2.917610">
        <ele>124.1</ele>
        <time>2011-08-17T14:42:25Z</time>
      </trkpt>
      <trkpt lat="41.826046" lon="2.918028">
        <ele>126.6</ele>
        <time>2011-08-17T14:42:32Z</time>
      </trkpt>
      <trkpt lat="41.826395" lon="2.918402">
        <ele>126.6</ele>
        <time>2011-08-17T14:42:40Z</time>
      </trkpt>
      <trkpt lat="41.826804" lon="2.918754">
        <ele>123.2</ele>
        <time>2011-08-17T14:42:48Z</time>
      </trkpt>
      <trkpt lat="41.826925" lon="2.918840">
        <ele>121.7</ele>
        <time>2011-08-17T14:42:50Z</time>
      </trkpt>
      <trkpt lat="41.827182" lon="2.918895">
        <ele>122.2</ele>
        <time>2011-08-17T14:42:54Z</time>
      </trkpt>
      <trkpt lat="41.827295" lon="2.918891">
        <ele>122.2</ele>
        <time>2011-08-17T14:42:56Z</time>
      </trkpt>
      <trkpt lat="41.827498" lon="2.918983">
        <ele>120.8</ele>
        <time>2011-08-17T14:43:01Z</time>
      </trkpt>
      <trkpt lat="41.827736" lon="2.919278">
        <ele>121.3</ele>
        <time>2011-08-17T14:43:07Z</time>
      </trkpt>
      <trkpt lat="41.827877" lon="2.919550">
        <ele>120.8</ele>
        <time>2011-08-17T14:43:11Z</time>
      </trkpt>
      <trkpt lat="41.828061" lon="2.919810">
        <ele>122.7</ele>
        <time>2011-08-17T14:43:16Z</time>
      </trkpt>
      <trkpt lat="41.828138" lon="2.919894">
        <ele>123.7</ele>
        <time>2011-08-17T14:43:18Z</time>
      </trkpt>
      <trkpt lat="41.828379" lon="2.920261">
        <ele>122.2</ele>
        <time>2011-08-17T14:43:24Z</time>
      </trkpt>
      <trkpt lat="41.828529" lon="2.920755">
        <ele>115.5</ele>
        <time>2011-08-17T14:43:30Z</time>
      </trkpt>
      <trkpt lat="41.828700" lon="2.920935">
        <ele>110.7</ele>
        <time>2011-08-17T14:43:34Z</time>
      </trkpt>
      <trkpt lat="41.828846" lon="2.921051">
        <ele>110.7</ele>
        <time>2011-08-17T14:43:39Z</time>
      </trkpt>
      <trkpt lat="41.828804" lon="2.921289">
        <ele>111.7</ele>
        <time>2011-08-17T14:43:43Z</time>
      </trkpt>
      <trkpt lat="41.828755" lon="2.921859">
        <ele>111.7</ele>
        <time>2011-08-17T14:43:50Z</time>
      </trkpt>
      <trkpt lat="41.828766" lon="2.922515">
        <ele>111.2</ele>
        <time>2011-08-17T14:43:58Z</time>
      </trkpt>
      <trkpt lat="41.828732" lon="2.923193">
        <ele>111.7</ele>
        <time>2011-08-17T14:44:07Z</time>
      </trkpt>
      <trkpt lat="41.828632" lon="2.923710">
        <ele>111.7</ele>
        <time>2011-08-17T14:44:14Z</time>
      </trkpt>
      <trkpt lat="41.828458" lon="2.924411">
        <ele>111.2</ele>
        <time>2011-08-17T14:44:23Z</time>
      </trkpt>
      <trkpt lat="41.828311" lon="2.925147">
        <ele>109.7</ele>
        <time>2011-08-17T14:44:32Z</time>
      </trkpt>
      <trkpt lat="41.828258" lon="2.925878">
        <ele>108.8</ele>
        <time>2011-08-17T14:44:40Z</time>
      </trkpt>
      <trkpt lat="41.828318" lon="2.926500">
        <ele>107.3</ele>
        <time>2011-08-17T14:44:47Z</time>
      </trkpt>
      <trkpt lat="41.828509" lon="2.927204">
        <ele>104.4</ele>
        <time>2011-08-17T14:44:55Z</time>
      </trkpt>
      <trkpt lat="41.828725" lon="2.927748">
        <ele>103.0</ele>
        <time>2011-08-17T14:45:01Z</time>
      </trkpt>
      <trkpt lat="41.829098" lon="2.928550">
        <ele>99.6</ele>
        <time>2011-08-17T14:45:10Z</time>
      </trkpt>
      <trkpt lat="41.829322" lon="2.929163">
        <ele>97.2</ele>
        <time>2011-08-17T14:45:17Z</time>
      </trkpt>
      <trkpt lat="41.829558" lon="2.929815">
        <ele>94.8</ele>
        <time>2011-08-17T14:45:24Z</time>
      </trkpt>
      <trkpt lat="41.829827" lon="2.930570">
        <ele>97.2</ele>
        <time>2011-08-17T14:45:32Z</time>
      </trkpt>
      <trkpt lat="41.830135" lon="2.931124">
        <ele>98.2</ele>
        <time>2011-08-17T14:45:39Z</time>
      </trkpt>
      <trkpt lat="41.830180" lon="2.931191">
        <ele>98.2</ele>
        <time>2011-08-17T14:45:40Z</time>
      </trkpt>
      <trkpt lat="41.830437" lon="2.931284">
        <ele>99.2</ele>
        <time>2011-08-17T14:45:44Z</time>
      </trkpt>
      <trkpt lat="41.830628" lon="2.931303">
        <ele>98.7</ele>
        <time>2011-08-17T14:45:47Z</time>
      </trkpt>
      <trkpt lat="41.830776" lon="2.931424">
        <ele>98.7</ele>
        <time>2011-08-17T14:45:50Z</time>
      </trkpt>
      <trkpt lat="41.830885" lon="2.931602">
        <ele>99.2</ele>
        <time>2011-08-17T14:45:54Z</time>
      </trkpt>
      <trkpt lat="41.830971" lon="2.932333">
        <ele>100.6</ele>
        <time>2011-08-17T14:46:04Z</time>
      </trkpt>
      <trkpt lat="41.831033" lon="2.933055">
        <ele>100.1</ele>
        <time>2011-08-17T14:46:12Z</time>
      </trkpt>
      <trkpt lat="41.831178" lon="2.933735">
        <ele>94.3</ele>
        <time>2011-08-17T14:46:18Z</time>
      </trkpt>
      <trkpt lat="41.831431" lon="2.934484">
        <ele>90.0</ele>
        <time>2011-08-17T14:46:24Z</time>
      </trkpt>
      <trkpt lat="41.831481" lon="2.934603">
        <ele>89.5</ele>
        <time>2011-08-17T14:46:25Z</time>
      </trkpt>
      <trkpt lat="41.831583" lon="2.935228">
        <ele>87.6</ele>
        <time>2011-08-17T14:46:30Z</time>
      </trkpt>
      <trkpt lat="41.831572" lon="2.935476">
        <ele>86.7</ele>
        <time>2011-08-17T14:46:32Z</time>
      </trkpt>
      <trkpt lat="41.831498" lon="2.935911">
        <ele>85.7</ele>
        <time>2011-08-17T14:46:36Z</time>
      </trkpt>
      <trkpt lat="41.831436" lon="2.936092">
        <ele>85.7</ele>
        <time>2011-08-17T14:46:38Z</time>
      </trkpt>
      <trkpt lat="41.830882" lon="2.936872">
        <ele>84.7</ele>
        <time>2011-08-17T14:46:49Z</time>
      </trkpt>
      <trkpt lat="41.830419" lon="2.937253">
        <ele>86.2</ele>
        <time>2011-08-17T14:46:57Z</time>
      </trkpt>
      <trkpt lat="41.830369" lon="2.937298">
        <ele>86.2</ele>
        <time>2011-08-17T14:46:58Z</time>
      </trkpt>
      <trkpt lat="41.830281" lon="2.937396">
        <ele>86.7</ele>
        <time>2011-08-17T14:47:00Z</time>
      </trkpt>
      <trkpt lat="41.829883" lon="2.937763">
        <ele>82.8</ele>
        <time>2011-08-17T14:47:08Z</time>
      </trkpt>
      <trkpt lat="41.829528" lon="2.938152">
        <ele>81.4</ele>
        <time>2011-08-17T14:47:15Z</time>
      </trkpt>
      <trkpt lat="41.829213" lon="2.938658">
        <ele>77.5</ele>
        <time>2011-08-17T14:47:22Z</time>
      </trkpt>
      <trkpt lat="41.829091" lon="2.938909">
        <ele>76.6</ele>
        <time>2011-08-17T14:47:25Z</time>
      </trkpt>
      <trkpt lat="41.829034" lon="2.939312">
        <ele>79.0</ele>
        <time>2011-08-17T14:47:29Z</time>
      </trkpt>
      <trkpt lat="41.829178" lon="2.939539">
        <ele>78.5</ele>
        <time>2011-08-17T14:47:32Z</time>
      </trkpt>
      <trkpt lat="41.829238" lon="2.939599">
        <ele>78.5</ele>
        <time>2011-08-17T14:47:33Z</time>
      </trkpt>
      <trkpt lat="41.829693" lon="2.940002">
        <ele>75.1</ele>
        <time>2011-08-17T14:47:40Z</time>
      </trkpt>
      <trkpt lat="41.829795" lon="2.940164">
        <ele>75.1</ele>
        <time>2011-08-17T14:47:42Z</time>
      </trkpt>
      <trkpt lat="41.829901" lon="2.940620">
        <ele>74.2</ele>
        <time>2011-08-17T14:47:47Z</time>
      </trkpt>
      <trkpt lat="41.829891" lon="2.940808">
        <ele>73.7</ele>
        <time>2011-08-17T14:47:49Z</time>
      </trkpt>
      <trkpt lat="41.829827" lon="2.941071">
        <ele>73.7</ele>
        <time>2011-08-17T14:47:52Z</time>
      </trkpt>
      <trkpt lat="41.829433" lon="2.941730">
        <ele>71.3</ele>
        <time>2011-08-17T14:48:00Z</time>
      </trkpt>
      <trkpt lat="41.829299" lon="2.941984">
        <ele>70.8</ele>
        <time>2011-08-17T14:48:03Z</time>
      </trkpt>
      <trkpt lat="41.829104" lon="2.942678">
        <ele>69.4</ele>
        <time>2011-08-17T14:48:10Z</time>
      </trkpt>
      <trkpt lat="41.829007" lon="2.943218">
        <ele>68.4</ele>
        <time>2011-08-17T14:48:15Z</time>
      </trkpt>
      <trkpt lat="41.828903" lon="2.943625">
        <ele>68.9</ele>
        <time>2011-08-17T14:48:19Z</time>
      </trkpt>
      <trkpt lat="41.828722" lon="2.943959">
        <ele>71.3</ele>
        <time>2011-08-17T14:48:23Z</time>
      </trkpt>
      <trkpt lat="41.828350" lon="2.944365">
        <ele>71.8</ele>
        <time>2011-08-17T14:48:29Z</time>
      </trkpt>
      <trkpt lat="41.828155" lon="2.944684">
        <ele>72.2</ele>
        <time>2011-08-17T14:48:33Z</time>
      </trkpt>
      <trkpt lat="41.828102" lon="2.944981">
        <ele>72.2</ele>
        <time>2011-08-17T14:48:36Z</time>
      </trkpt>
      <trkpt lat="41.828090" lon="2.945478">
        <ele>72.2</ele>
        <time>2011-08-17T14:48:41Z</time>
      </trkpt>
      <trkpt lat="41.828142" lon="2.946237">
        <ele>71.8</ele>
        <time>2011-08-17T14:48:49Z</time>
      </trkpt>
      <trkpt lat="41.828194" lon="2.947017">
        <ele>69.4</ele>
        <time>2011-08-17T14:48:57Z</time>
      </trkpt>
      <trkpt lat="41.828215" lon="2.947781">
        <ele>67.4</ele>
        <time>2011-08-17T14:49:05Z</time>
      </trkpt>
      <trkpt lat="41.828166" lon="2.948474">
        <ele>65.5</ele>
        <time>2011-08-17T14:49:13Z</time>
      </trkpt>
      <trkpt lat="41.828097" lon="2.949173">
        <ele>64.1</ele>
        <time>2011-08-17T14:49:20Z</time>
      </trkpt>
      <trkpt lat="41.828018" lon="2.950009">
        <ele>60.7</ele>
        <time>2011-08-17T14:49:28Z</time>
      </trkpt>
      <trkpt lat="41.827991" lon="2.950282">
        <ele>61.2</ele>
        <time>2011-08-17T14:49:31Z</time>
      </trkpt>
      <trkpt lat="41.827946" lon="2.950743">
        <ele>61.2</ele>
        <time>2011-08-17T14:49:36Z</time>
      </trkpt>
      <trkpt lat="41.828022" lon="2.951403">
        <ele>60.2</ele>
        <time>2011-08-17T14:49:42Z</time>
      </trkpt>
      <trkpt lat="41.828262" lon="2.952311">
        <ele>57.8</ele>
        <time>2011-08-17T14:49:51Z</time>
      </trkpt>
      <trkpt lat="41.828436" lon="2.952981">
        <ele>58.8</ele>
        <time>2011-08-17T14:49:58Z</time>
      </trkpt>
      <trkpt lat="41.828487" lon="2.953900">
        <ele>60.2</ele>
        <time>2011-08-17T14:50:07Z</time>
      </trkpt>
      <trkpt lat="41.828507" lon="2.954539">
        <ele>59.3</ele>
        <time>2011-08-17T14:50:13Z</time>
      </trkpt>
      <trkpt lat="41.828551" lon="2.955304">
        <ele>57.3</ele>
        <time>2011-08-17T14:50:20Z</time>
      </trkpt>
      <trkpt lat="41.828596" lon="2.956033">
        <ele>54.9</ele>
        <time>2011-08-17T14:50:26Z</time>
      </trkpt>
      <trkpt lat="41.828645" lon="2.956761">
        <ele>54.9</ele>
        <time>2011-08-17T14:50:32Z</time>
      </trkpt>
      <trkpt lat="41.828686" lon="2.957235">
        <ele>52.5</ele>
        <time>2011-08-17T14:50:36Z</time>
      </trkpt>
      <trkpt lat="41.828752" lon="2.958148">
        <ele>50.6</ele>
        <time>2011-08-17T14:50:44Z</time>
      </trkpt>
      <trkpt lat="41.828772" lon="2.958958">
        <ele>52.5</ele>
        <time>2011-08-17T14:50:52Z</time>
      </trkpt>
      <trkpt lat="41.828768" lon="2.959559">
        <ele>54.5</ele>
        <time>2011-08-17T14:50:59Z</time>
      </trkpt>
      <trkpt lat="41.828769" lon="2.959804">
        <ele>54.5</ele>
        <time>2011-08-17T14:51:02Z</time>
      </trkpt>
      <trkpt lat="41.828759" lon="2.960365">
        <ele>53.5</ele>
        <time>2011-08-17T14:51:09Z</time>
      </trkpt>
      <trkpt lat="41.828743" lon="2.960883">
        <ele>55.9</ele>
        <time>2011-08-17T14:51:15Z</time>
      </trkpt>
      <trkpt lat="41.828735" lon="2.961800">
        <ele>54.0</ele>
        <time>2011-08-17T14:51:25Z</time>
      </trkpt>
      <trkpt lat="41.828724" lon="2.962618">
        <ele>53.0</ele>
        <time>2011-08-17T14:51:33Z</time>
      </trkpt>
      <trkpt lat="41.828723" lon="2.963286">
        <ele>52.5</ele>
        <time>2011-08-17T14:51:39Z</time>
      </trkpt>
      <trkpt lat="41.828726" lon="2.964293">
        <ele>53.0</ele>
        <time>2011-08-17T14:51:48Z</time>
      </trkpt>
      <trkpt lat="41.828780" lon="2.965207">
        <ele>51.6</ele>
        <time>2011-08-17T14:51:56Z</time>
      </trkpt>
      <trkpt lat="41.828860" lon="2.966094">
        <ele>48.7</ele>
        <time>2011-08-17T14:52:04Z</time>
      </trkpt>
      <trkpt lat="41.828903" lon="2.966906">
        <ele>48.7</ele>
        <time>2011-08-17T14:52:12Z</time>
      </trkpt>
      <trkpt lat="41.828993" lon="2.967749">
        <ele>50.6</ele>
        <time>2011-08-17T14:52:20Z</time>
      </trkpt>
      <trkpt lat="41.829091" lon="2.968443">
        <ele>48.7</ele>
        <time>2011-08-17T14:52:27Z</time>
      </trkpt>
      <trkpt lat="41.829255" lon="2.968999">
        <ele>46.8</ele>
        <time>2011-08-17T14:52:33Z</time>
      </trkpt>
      <trkpt lat="41.829597" lon="2.969533">
        <ele>43.9</ele>
        <time>2011-08-17T14:52:40Z</time>
      </trkpt>
      <trkpt lat="41.829778" lon="2.969790">
        <ele>42.9</ele>
        <time>2011-08-17T14:52:44Z</time>
      </trkpt>
      <trkpt lat="41.829893" lon="2.970092">
        <ele>40.5</ele>
        <time>2011-08-17T14:52:48Z</time>
      </trkpt>
      <trkpt lat="41.829924" lon="2.970260">
        <ele>41.5</ele>
        <time>2011-08-17T14:52:50Z</time>
      </trkpt>
      <trkpt lat="41.829909" lon="2.970583">
        <ele>40.5</ele>
        <time>2011-08-17T14:52:54Z</time>
      </trkpt>
      <trkpt lat="41.829880" lon="2.970749">
        <ele>40.5</ele>
        <time>2011-08-17T14:52:56Z</time>
      </trkpt>
      <trkpt lat="41.829759" lon="2.970939">
        <ele>41.0</ele>
        <time>2011-08-17T14:52:59Z</time>
      </trkpt>
      <trkpt lat="41.829649" lon="2.971119">
        <ele>41.0</ele>
        <time>2011-08-17T14:53:02Z</time>
      </trkpt>
      <trkpt lat="41.829106" lon="2.971596">
        <ele>41.0</ele>
        <time>2011-08-17T14:53:12Z</time>
      </trkpt>
      <trkpt lat="41.828952" lon="2.971736">
        <ele>41.5</ele>
        <time>2011-08-17T14:53:15Z</time>
      </trkpt>
      <trkpt lat="41.828784" lon="2.971877">
        <ele>42.4</ele>
        <time>2011-08-17T14:53:18Z</time>
      </trkpt>
      <trkpt lat="41.828673" lon="2.971974">
        <ele>42.4</ele>
        <time>2011-08-17T14:53:20Z</time>
      </trkpt>
      <trkpt lat="41.828459" lon="2.972274">
        <ele>42.0</ele>
        <time>2011-08-17T14:53:25Z</time>
      </trkpt>
      <trkpt lat="41.828330" lon="2.972531">
        <ele>41.5</ele>
        <time>2011-08-17T14:53:29Z</time>
      </trkpt>
      <trkpt lat="41.828081" lon="2.972990">
        <ele>42.4</ele>
        <time>2011-08-17T14:53:36Z</time>
      </trkpt>
      <trkpt lat="41.827820" lon="2.973552">
        <ele>45.3</ele>
        <time>2011-08-17T14:53:44Z</time>
      </trkpt>
      <trkpt lat="41.827603" lon="2.974017">
        <ele>45.8</ele>
        <time>2011-08-17T14:53:51Z</time>
      </trkpt>
      <trkpt lat="41.827502" lon="2.974298">
        <ele>46.3</ele>
        <time>2011-08-17T14:53:55Z</time>
      </trkpt>
      <trkpt lat="41.827235" lon="2.974913">
        <ele>51.1</ele>
        <time>2011-08-17T14:54:04Z</time>
      </trkpt>
      <trkpt lat="41.827150" lon="2.975194">
        <ele>51.1</ele>
        <time>2011-08-17T14:54:08Z</time>
      </trkpt>
      <trkpt lat="41.827096" lon="2.975770">
        <ele>52.0</ele>
        <time>2011-08-17T14:54:15Z</time>
      </trkpt>
      <trkpt lat="41.827224" lon="2.976136">
        <ele>51.1</ele>
        <time>2011-08-17T14:54:20Z</time>
      </trkpt>
      <trkpt lat="41.827353" lon="2.976397">
        <ele>50.1</ele>
        <time>2011-08-17T14:54:24Z</time>
      </trkpt>
      <trkpt lat="41.827814" lon="2.976926">
        <ele>47.2</ele>
        <time>2011-08-17T14:54:34Z</time>
      </trkpt>
      <trkpt lat="41.828180" lon="2.977375">
        <ele>45.8</ele>
        <time>2011-08-17T14:54:42Z</time>
      </trkpt>
      <trkpt lat="41.828496" lon="2.977787">
        <ele>44.8</ele>
        <time>2011-08-17T14:54:49Z</time>
      </trkpt>
      <trkpt lat="41.828597" lon="2.978003">
        <ele>43.9</ele>
        <time>2011-08-17T14:54:52Z</time>
      </trkpt>
      <trkpt lat="41.828685" lon="2.978297">
        <ele>44.4</ele>
        <time>2011-08-17T14:54:56Z</time>
      </trkpt>
      <trkpt lat="41.828709" lon="2.978445">
        <ele>44.8</ele>
        <time>2011-08-17T14:54:58Z</time>
      </trkpt>
      <trkpt lat="41.828626" lon="2.978848">
        <ele>44.8</ele>
        <time>2011-08-17T14:55:03Z</time>
      </trkpt>
      <trkpt lat="41.828527" lon="2.979149">
        <ele>44.8</ele>
        <time>2011-08-17T14:55:06Z</time>
      </trkpt>
      <trkpt lat="41.828343" lon="2.979526">
        <ele>46.3</ele>
        <time>2011-08-17T14:55:12Z</time>
      </trkpt>
      <trkpt lat="41.828170" lon="2.979867">
        <ele>47.2</ele>
        <time>2011-08-17T14:55:18Z</time>
      </trkpt>
      <trkpt lat="41.827978" lon="2.980221">
        <ele>49.2</ele>
        <time>2011-08-17T14:55:26Z</time>
      </trkpt>
      <trkpt lat="41.827812" lon="2.980521">
        <ele>49.2</ele>
        <time>2011-08-17T14:55:32Z</time>
      </trkpt>
      <trkpt lat="41.827568" lon="2.980993">
        <ele>52.0</ele>
        <time>2011-08-17T14:55:39Z</time>
      </trkpt>
      <trkpt lat="41.827227" lon="2.981636">
        <ele>49.6</ele>
        <time>2011-08-17T14:55:48Z</time>
      </trkpt>
      <trkpt lat="41.826840" lon="2.982354">
        <ele>48.7</ele>
        <time>2011-08-17T14:55:57Z</time>
      </trkpt>
      <trkpt lat="41.826501" lon="2.982986">
        <ele>49.2</ele>
        <time>2011-08-17T14:56:05Z</time>
      </trkpt>
      <trkpt lat="41.826246" lon="2.983490">
        <ele>50.1</ele>
        <time>2011-08-17T14:56:12Z</time>
      </trkpt>
      <trkpt lat="41.825976" lon="2.984025">
        <ele>50.1</ele>
        <time>2011-08-17T14:56:19Z</time>
      </trkpt>
      <trkpt lat="41.825618" lon="2.984706">
        <ele>48.2</ele>
        <time>2011-08-17T14:56:28Z</time>
      </trkpt>
      <trkpt lat="41.825260" lon="2.985375">
        <ele>48.2</ele>
        <time>2011-08-17T14:56:37Z</time>
      </trkpt>
      <trkpt lat="41.824872" lon="2.986079">
        <ele>47.2</ele>
        <time>2011-08-17T14:56:47Z</time>
      </trkpt>
      <trkpt lat="41.824479" lon="2.986835">
        <ele>47.2</ele>
        <time>2011-08-17T14:56:57Z</time>
      </trkpt>
      <trkpt lat="41.824159" lon="2.987459">
        <ele>47.7</ele>
        <time>2011-08-17T14:57:05Z</time>
      </trkpt>
      <trkpt lat="41.823833" lon="2.988062">
        <ele>47.7</ele>
        <time>2011-08-17T14:57:13Z</time>
      </trkpt>
      <trkpt lat="41.823397" lon="2.988795">
        <ele>46.3</ele>
        <time>2011-08-17T14:57:23Z</time>
      </trkpt>
      <trkpt lat="41.822967" lon="2.989305">
        <ele>41.0</ele>
        <time>2011-08-17T14:57:32Z</time>
      </trkpt>
      <trkpt lat="41.822544" lon="2.989657">
        <ele>40.0</ele>
        <time>2011-08-17T14:57:40Z</time>
      </trkpt>
      <trkpt lat="41.822107" lon="2.990032">
        <ele>38.6</ele>
        <time>2011-08-17T14:57:49Z</time>
      </trkpt>
      <trkpt lat="41.821692" lon="2.990387">
        <ele>38.1</ele>
        <time>2011-08-17T14:57:57Z</time>
      </trkpt>
      <trkpt lat="41.821168" lon="2.990826">
        <ele>37.6</ele>
        <time>2011-08-17T14:58:06Z</time>
      </trkpt>
      <trkpt lat="41.820692" lon="2.991201">
        <ele>37.1</ele>
        <time>2011-08-17T14:58:14Z</time>
      </trkpt>
      <trkpt lat="41.820204" lon="2.991723">
        <ele>37.6</ele>
        <time>2011-08-17T14:58:23Z</time>
      </trkpt>
      <trkpt lat="41.819846" lon="2.992241">
        <ele>38.6</ele>
        <time>2011-08-17T14:58:31Z</time>
      </trkpt>
      <trkpt lat="41.819604" lon="2.992773">
        <ele>39.1</ele>
        <time>2011-08-17T14:58:38Z</time>
      </trkpt>
      <trkpt lat="41.819413" lon="2.993402">
        <ele>39.1</ele>
        <time>2011-08-17T14:58:46Z</time>
      </trkpt>
      <trkpt lat="41.819263" lon="2.993984">
        <ele>37.6</ele>
        <time>2011-08-17T14:58:54Z</time>
      </trkpt>
      <trkpt lat="41.819128" lon="2.994431">
        <ele>39.6</ele>
        <time>2011-08-17T14:59:02Z</time>
      </trkpt>
      <trkpt lat="41.819076" lon="2.994606">
        <ele>41.0</ele>
        <time>2011-08-17T14:59:06Z</time>
      </trkpt>
      <trkpt lat="41.818956" lon="2.994841">
        <ele>40.5</ele>
        <time>2011-08-17T14:59:11Z</time>
      </trkpt>
      <trkpt lat="41.818929" lon="2.994950">
        <ele>38.6</ele>
        <time>2011-08-17T14:59:13Z</time>
      </trkpt>
      <trkpt lat="41.818730" lon="2.995278">
        <ele>36.2</ele>
        <time>2011-08-17T14:59:21Z</time>
      </trkpt>
      <trkpt lat="41.818705" lon="2.995313">
        <ele>35.7</ele>
        <time>2011-08-17T14:59:22Z</time>
      </trkpt>
      <trkpt lat="41.818292" lon="2.995650">
        <ele>38.6</ele>
        <time>2011-08-17T14:59:31Z</time>
      </trkpt>
      <trkpt lat="41.817944" lon="2.995885">
        <ele>39.1</ele>
        <time>2011-08-17T14:59:38Z</time>
      </trkpt>
      <trkpt lat="41.817849" lon="2.995946">
        <ele>39.1</ele>
        <time>2011-08-17T14:59:40Z</time>
      </trkpt>
      <trkpt lat="41.817725" lon="2.996055">
        <ele>39.6</ele>
        <time>2011-08-17T14:59:43Z</time>
      </trkpt>
      <trkpt lat="41.817410" lon="2.996245">
        <ele>39.1</ele>
        <time>2011-08-17T14:59:50Z</time>
      </trkpt>
      <trkpt lat="41.817064" lon="2.996563">
        <ele>36.7</ele>
        <time>2011-08-17T14:59:57Z</time>
      </trkpt>
      <trkpt lat="41.816663" lon="2.997018">
        <ele>36.2</ele>
        <time>2011-08-17T15:00:06Z</time>
      </trkpt>
      <trkpt lat="41.816311" lon="2.997545">
        <ele>37.1</ele>
        <time>2011-08-17T15:00:15Z</time>
      </trkpt>
      <trkpt lat="41.816034" lon="2.998006">
        <ele>36.2</ele>
        <time>2011-08-17T15:00:23Z</time>
      </trkpt>
      <trkpt lat="41.815932" lon="2.998153">
        <ele>35.7</ele>
        <time>2011-08-17T15:00:26Z</time>
      </trkpt>
      <trkpt lat="41.815608" lon="2.998704">
        <ele>34.3</ele>
        <time>2011-08-17T15:00:36Z</time>
      </trkpt>
      <trkpt lat="41.815304" lon="2.999168">
        <ele>34.7</ele>
        <time>2011-08-17T15:00:44Z</time>
      </trkpt>
      <trkpt lat="41.814862" lon="2.999872">
        <ele>33.8</ele>
        <time>2011-08-17T15:00:56Z</time>
      </trkpt>
      <trkpt lat="41.814597" lon="3.000342">
        <ele>33.8</ele>
        <time>2011-08-17T15:01:03Z</time>
      </trkpt>
      <trkpt lat="41.814347" lon="3.000913">
        <ele>33.8</ele>
        <time>2011-08-17T15:01:11Z</time>
      </trkpt>
      <trkpt lat="41.814265" lon="3.001132">
        <ele>33.8</ele>
        <time>2011-08-17T15:01:14Z</time>
      </trkpt>
      <trkpt lat="41.814233" lon="3.001634">
        <ele>32.3</ele>
        <time>2011-08-17T15:01:20Z</time>
      </trkpt>
      <trkpt lat="41.814263" lon="3.001795">
        <ele>33.3</ele>
        <time>2011-08-17T15:01:22Z</time>
      </trkpt>
      <trkpt lat="41.814289" lon="3.002114">
        <ele>35.2</ele>
        <time>2011-08-17T15:01:26Z</time>
      </trkpt>
      <trkpt lat="41.814165" lon="3.002720">
        <ele>36.7</ele>
        <time>2011-08-17T15:01:34Z</time>
      </trkpt>
      <trkpt lat="41.814005" lon="3.003356">
        <ele>35.7</ele>
        <time>2011-08-17T15:01:43Z</time>
      </trkpt>
      <trkpt lat="41.813900" lon="3.003839">
        <ele>34.3</ele>
        <time>2011-08-17T15:01:50Z</time>
      </trkpt>
      <trkpt lat="41.813769" lon="3.004507">
        <ele>30.4</ele>
        <time>2011-08-17T15:02:00Z</time>
      </trkpt>
      <trkpt lat="41.813754" lon="3.004651">
        <ele>30.4</ele>
        <time>2011-08-17T15:02:02Z</time>
      </trkpt>
      <trkpt lat="41.813675" lon="3.004954">
        <ele>29.5</ele>
        <time>2011-08-17T15:02:07Z</time>
      </trkpt>
      <trkpt lat="41.813592" lon="3.005247">
        <ele>28.5</ele>
        <time>2011-08-17T15:02:12Z</time>
      </trkpt>
      <trkpt lat="41.813489" lon="3.005588">
        <ele>25.6</ele>
        <time>2011-08-17T15:02:17Z</time>
      </trkpt>
      <trkpt lat="41.813331" lon="3.006153">
        <ele>25.1</ele>
        <time>2011-08-17T15:02:27Z</time>
      </trkpt>
      <trkpt lat="41.813273" lon="3.006491">
        <ele>26.1</ele>
        <time>2011-08-17T15:02:33Z</time>
      </trkpt>
      <trkpt lat="41.813157" lon="3.007015">
        <ele>24.2</ele>
        <time>2011-08-17T15:02:42Z</time>
      </trkpt>
      <trkpt lat="41.813072" lon="3.007361">
        <ele>24.7</ele>
        <time>2011-08-17T15:02:49Z</time>
      </trkpt>
      <trkpt lat="41.812960" lon="3.007878">
        <ele>26.1</ele>
        <time>2011-08-17T15:02:57Z</time>
      </trkpt>
      <trkpt lat="41.812924" lon="3.008328">
        <ele>27.1</ele>
        <time>2011-08-17T15:03:04Z</time>
      </trkpt>
      <trkpt lat="41.812914" lon="3.008999">
        <ele>27.1</ele>
        <time>2011-08-17T15:03:13Z</time>
      </trkpt>
      <trkpt lat="41.812894" lon="3.009695">
        <ele>26.1</ele>
        <time>2011-08-17T15:03:22Z</time>
      </trkpt>
      <trkpt lat="41.812855" lon="3.010548">
        <ele>25.6</ele>
        <time>2011-08-17T15:03:32Z</time>
      </trkpt>
      <trkpt lat="41.812825" lon="3.011446">
        <ele>24.7</ele>
        <time>2011-08-17T15:03:42Z</time>
      </trkpt>
      <trkpt lat="41.812827" lon="3.012212">
        <ele>28.0</ele>
        <time>2011-08-17T15:03:51Z</time>
      </trkpt>
      <trkpt lat="41.812795" lon="3.013073">
        <ele>28.0</ele>
        <time>2011-08-17T15:04:01Z</time>
      </trkpt>
      <trkpt lat="41.812757" lon="3.013505">
        <ele>26.6</ele>
        <time>2011-08-17T15:04:06Z</time>
      </trkpt>
      <trkpt lat="41.812784" lon="3.014283">
        <ele>27.1</ele>
        <time>2011-08-17T15:04:15Z</time>
      </trkpt>
      <trkpt lat="41.812768" lon="3.015079">
        <ele>27.1</ele>
        <time>2011-08-17T15:04:24Z</time>
      </trkpt>
      <trkpt lat="41.812758" lon="3.015441">
        <ele>26.6</ele>
        <time>2011-08-17T15:04:28Z</time>
      </trkpt>
      <trkpt lat="41.812707" lon="3.015803">
        <ele>26.1</ele>
        <time>2011-08-17T15:04:32Z</time>
      </trkpt>
      <trkpt lat="41.812675" lon="3.016737">
        <ele>25.1</ele>
        <time>2011-08-17T15:04:43Z</time>
      </trkpt>
      <trkpt lat="41.812678" lon="3.017209">
        <ele>24.2</ele>
        <time>2011-08-17T15:04:50Z</time>
      </trkpt>
      <trkpt lat="41.812676" lon="3.017337">
        <ele>24.2</ele>
        <time>2011-08-17T15:04:52Z</time>
      </trkpt>
      <trkpt lat="41.812675" lon="3.017584">
        <ele>25.1</ele>
        <time>2011-08-17T15:04:56Z</time>
      </trkpt>
      <trkpt lat="41.812649" lon="3.017811">
        <ele>24.7</ele>
        <time>2011-08-17T15:04:59Z</time>
      </trkpt>
      <trkpt lat="41.812627" lon="3.018268">
        <ele>26.6</ele>
        <time>2011-08-17T15:05:06Z</time>
      </trkpt>
      <trkpt lat="41.812599" lon="3.018601">
        <ele>27.5</ele>
        <time>2011-08-17T15:05:12Z</time>
      </trkpt>
      <trkpt lat="41.812592" lon="3.018960">
        <ele>28.5</ele>
        <time>2011-08-17T15:05:18Z</time>
      </trkpt>
      <trkpt lat="41.812576" lon="3.019282">
        <ele>27.5</ele>
        <time>2011-08-17T15:05:22Z</time>
      </trkpt>
      <trkpt lat="41.812578" lon="3.020011">
        <ele>21.8</ele>
        <time>2011-08-17T15:05:32Z</time>
      </trkpt>
      <trkpt lat="41.812643" lon="3.020547">
        <ele>23.2</ele>
        <time>2011-08-17T15:05:41Z</time>
      </trkpt>
      <trkpt lat="41.812708" lon="3.020929">
        <ele>20.8</ele>
        <time>2011-08-17T15:05:47Z</time>
      </trkpt>
      <trkpt lat="41.812661" lon="3.021197">
        <ele>19.8</ele>
        <time>2011-08-17T15:05:52Z</time>
      </trkpt>
      <trkpt lat="41.812624" lon="3.021228">
        <ele>19.4</ele>
        <time>2011-08-17T15:05:53Z</time>
      </trkpt>
      <trkpt lat="41.812497" lon="3.021307">
        <ele>19.4</ele>
        <time>2011-08-17T15:05:56Z</time>
      </trkpt>
      <trkpt lat="41.812256" lon="3.021554">
        <ele>17.9</ele>
        <time>2011-08-17T15:06:02Z</time>
      </trkpt>
      <trkpt lat="41.812252" lon="3.021897">
        <ele>17.4</ele>
        <time>2011-08-17T15:06:06Z</time>
      </trkpt>
      <trkpt lat="41.812323" lon="3.022682">
        <ele>17.0</ele>
        <time>2011-08-17T15:06:15Z</time>
      </trkpt>
      <trkpt lat="41.812503" lon="3.023725">
        <ele>17.0</ele>
        <time>2011-08-17T15:06:27Z</time>
      </trkpt>
      <trkpt lat="41.812668" lon="3.024653">
        <ele>16.0</ele>
        <time>2011-08-17T15:06:37Z</time>
      </trkpt>
      <trkpt lat="41.812809" lon="3.025402">
        <ele>15.5</ele>
        <time>2011-08-17T15:06:45Z</time>
      </trkpt>
      <trkpt lat="41.812972" lon="3.026287">
        <ele>14.1</ele>
        <time>2011-08-17T15:06:54Z</time>
      </trkpt>
      <trkpt lat="41.813118" lon="3.027138">
        <ele>13.1</ele>
        <time>2011-08-17T15:07:03Z</time>
      </trkpt>
      <trkpt lat="41.813282" lon="3.028070">
        <ele>13.6</ele>
        <time>2011-08-17T15:07:13Z</time>
      </trkpt>
      <trkpt lat="41.813393" lon="3.028826">
        <ele>13.6</ele>
        <time>2011-08-17T15:07:22Z</time>
      </trkpt>
      <trkpt lat="41.813555" lon="3.029653">
        <ele>13.1</ele>
        <time>2011-08-17T15:07:32Z</time>
      </trkpt>
      <trkpt lat="41.813663" lon="3.030156">
        <ele>15.0</ele>
        <time>2011-08-17T15:07:39Z</time>
      </trkpt>
      <trkpt lat="41.813795" lon="3.030858">
        <ele>15.5</ele>
        <time>2011-08-17T15:07:49Z</time>
      </trkpt>
      <trkpt lat="41.813889" lon="3.031466">
        <ele>14.6</ele>
        <time>2011-08-17T15:07:58Z</time>
      </trkpt>
      <trkpt lat="41.813921" lon="3.031577">
        <ele>14.1</ele>
        <time>2011-08-17T15:08:00Z</time>
      </trkpt>
      <trkpt lat="41.813992" lon="3.032043">
        <ele>13.6</ele>
        <time>2011-08-17T15:08:08Z</time>
      </trkpt>
      <trkpt lat="41.814004" lon="3.032164">
        <ele>12.6</ele>
        <time>2011-08-17T15:08:10Z</time>
      </trkpt>
      <trkpt lat="41.814066" lon="3.032512">
        <ele>11.2</ele>
        <time>2011-08-17T15:08:17Z</time>
      </trkpt>
      <trkpt lat="41.814075" lon="3.032683">
        <ele>8.8</ele>
        <time>2011-08-17T15:08:20Z</time>
      </trkpt>
      <trkpt lat="41.814054" lon="3.032942">
        <ele>7.3</ele>
        <time>2011-08-17T15:08:24Z</time>
      </trkpt>
      <trkpt lat="41.813963" lon="3.033177">
        <ele>4.9</ele>
        <time>2011-08-17T15:08:28Z</time>
      </trkpt>
      <trkpt lat="41.813711" lon="3.033491">
        <ele>4.5</ele>
        <time>2011-08-17T15:08:36Z</time>
      </trkpt>
      <trkpt lat="41.813485" lon="3.033788">
        <ele>3.5</ele>
        <time>2011-08-17T15:08:43Z</time>
      </trkpt>
      <trkpt lat="41.813157" lon="3.034198">
        <ele>2.5</ele>
        <time>2011-08-17T15:08:52Z</time>
      </trkpt>
      <trkpt lat="41.812905" lon="3.034523">
        <ele>4.5</ele>
        <time>2011-08-17T15:08:59Z</time>
      </trkpt>
      <trkpt lat="41.812866" lon="3.034565">
        <ele>5.4</ele>
        <time>2011-08-17T15:09:00Z</time>
      </trkpt>
      <trkpt lat="41.812585" lon="3.034895">
        <ele>6.4</ele>
        <time>2011-08-17T15:09:08Z</time>
      </trkpt>
      <trkpt lat="41.812361" lon="3.035181">
        <ele>5.9</ele>
        <time>2011-08-17T15:09:16Z</time>
      </trkpt>
      <trkpt lat="41.812175" lon="3.035411">
        <ele>4.9</ele>
        <time>2011-08-17T15:09:23Z</time>
      </trkpt>
      <trkpt lat="41.811949" lon="3.035716">
        <ele>2.5</ele>
        <time>2011-08-17T15:09:32Z</time>
      </trkpt>
      <trkpt lat="41.811719" lon="3.036021">
        <ele>1.1</ele>
        <time>2011-08-17T15:09:39Z</time>
      </trkpt>
      <trkpt lat="41.811426" lon="3.036353">
        <ele>1.1</ele>
        <time>2011-08-17T15:09:46Z</time>
      </trkpt>
      <trkpt lat="41.811034" lon="3.036680">
        <ele>2.5</ele>
        <time>2011-08-17T15:09:54Z</time>
      </trkpt>
      <trkpt lat="41.810981" lon="3.036714">
        <ele>3.0</ele>
        <time>2011-08-17T15:09:55Z</time>
      </trkpt>
      <trkpt lat="41.810693" lon="3.036855">
        <ele>5.4</ele>
        <time>2011-08-17T15:10:00Z</time>
      </trkpt>
      <trkpt lat="41.810601" lon="3.036920">
        <ele>6.4</ele>
        <time>2011-08-17T15:10:02Z</time>
      </trkpt>
      <trkpt lat="41.810360" lon="3.037039">
        <ele>7.3</ele>
        <time>2011-08-17T15:10:06Z</time>
      </trkpt>
      <trkpt lat="41.809942" lon="3.037162">
        <ele>5.9</ele>
        <time>2011-08-17T15:10:14Z</time>
      </trkpt>
      <trkpt lat="41.809678" lon="3.037203">
        <ele>5.4</ele>
        <time>2011-08-17T15:10:20Z</time>
      </trkpt>
      <trkpt lat="41.809523" lon="3.037245">
        <ele>5.4</ele>
        <time>2011-08-17T15:10:24Z</time>
      </trkpt>
      <trkpt lat="41.809237" lon="3.037338">
        <ele>4.9</ele>
        <time>2011-08-17T15:10:30Z</time>
      </trkpt>
      <trkpt lat="41.809038" lon="3.037283">
        <ele>4.5</ele>
        <time>2011-08-17T15:10:34Z</time>
      </trkpt>
      <trkpt lat="41.808777" lon="3.037394">
        <ele>4.0</ele>
        <time>2011-08-17T15:10:42Z</time>
      </trkpt>
      <trkpt lat="41.808741" lon="3.037397">
        <ele>3.5</ele>
        <time>2011-08-17T15:10:43Z</time>
      </trkpt>
      <trkpt lat="41.808616" lon="3.037420">
        <ele>1.6</ele>
        <time>2011-08-17T15:10:46Z</time>
      </trkpt>
      <trkpt lat="41.808325" lon="3.037484">
        <ele>1.6</ele>
        <time>2011-08-17T15:10:53Z</time>
      </trkpt>
      <trkpt lat="41.808255" lon="3.037493">
        <ele>2.1</ele>
        <time>2011-08-17T15:10:55Z</time>
      </trkpt>
      <trkpt lat="41.807784" lon="3.037681">
        <ele>3.5</ele>
        <time>2011-08-17T15:11:02Z</time>
      </trkpt>
      <trkpt lat="41.807290" lon="3.037845">
        <ele>3.5</ele>
        <time>2011-08-17T15:11:11Z</time>
      </trkpt>
      <trkpt lat="41.806815" lon="3.038009">
        <ele>4.0</ele>
        <time>2011-08-17T15:11:20Z</time>
      </trkpt>
      <trkpt lat="41.806409" lon="3.038124">
        <ele>3.0</ele>
        <time>2011-08-17T15:11:28Z</time>
      </trkpt>
      <trkpt lat="41.806034" lon="3.038231">
        <ele>2.5</ele>
        <time>2011-08-17T15:11:36Z</time>
      </trkpt>
      <trkpt lat="41.805519" lon="3.038358">
        <ele>2.1</ele>
        <time>2011-08-17T15:11:46Z</time>
      </trkpt>
      <trkpt lat="41.804998" lon="3.038511">
        <ele>3.0</ele>
        <time>2011-08-17T15:11:56Z</time>
      </trkpt>
      <trkpt lat="41.804940" lon="3.038529">
        <ele>3.5</ele>
        <time>2011-08-17T15:11:57Z</time>
      </trkpt>
      <trkpt lat="41.804645" lon="3.038674">
        <ele>4.0</ele>
        <time>2011-08-17T15:12:03Z</time>
      </trkpt>
      <trkpt lat="41.804312" lon="3.038920">
        <ele>4.9</ele>
        <time>2011-08-17T15:12:10Z</time>
      </trkpt>
      <trkpt lat="41.803871" lon="3.039393">
        <ele>5.4</ele>
        <time>2011-08-17T15:12:20Z</time>
      </trkpt>
      <trkpt lat="41.803606" lon="3.039704">
        <ele>7.3</ele>
        <time>2011-08-17T15:12:27Z</time>
      </trkpt>
      <trkpt lat="41.803303" lon="3.040009">
        <ele>5.4</ele>
        <time>2011-08-17T15:12:35Z</time>
      </trkpt>
      <trkpt lat="41.803122" lon="3.040129">
        <ele>4.9</ele>
        <time>2011-08-17T15:12:39Z</time>
      </trkpt>
      <trkpt lat="41.802933" lon="3.040201">
        <ele>1.6</ele>
        <time>2011-08-17T15:12:43Z</time>
      </trkpt>
      <trkpt lat="41.802812" lon="3.040208">
        <ele>0.6</ele>
        <time>2011-08-17T15:12:46Z</time>
      </trkpt>
      <trkpt lat="41.802708" lon="3.040182">
        <ele>-0.8</ele>
        <time>2011-08-17T15:12:50Z</time>
      </trkpt>
      <trkpt lat="41.802539" lon="3.040488">
        <ele>-0.8</ele>
        <time>2011-08-17T15:12:57Z</time>
      </trkpt>
      <trkpt lat="41.802249" lon="3.040590">
        <ele>-2.3</ele>
        <time>2011-08-17T15:13:04Z</time>
      </trkpt>
      <trkpt lat="41.801955" lon="3.040718">
        <ele>-3.7</ele>
        <time>2011-08-17T15:13:11Z</time>
      </trkpt>
      <trkpt lat="41.801667" lon="3.040873">
        <ele>-5.1</ele>
        <time>2011-08-17T15:13:17Z</time>
      </trkpt>
      <trkpt lat="41.801425" lon="3.040963">
        <ele>-5.1</ele>
        <time>2011-08-17T15:13:24Z</time>
      </trkpt>
      <trkpt lat="41.801120" lon="3.041138">
        <ele>5.4</ele>
        <time>2011-08-17T15:13:30Z</time>
      </trkpt>
      <trkpt lat="41.800803" lon="3.041241">
        <ele>9.3</ele>
        <time>2011-08-17T15:13:36Z</time>
      </trkpt>
      <trkpt lat="41.800665" lon="3.041266">
        <ele>11.7</ele>
        <time>2011-08-17T15:13:39Z</time>
      </trkpt>
      <trkpt lat="41.800316" lon="3.041346">
        <ele>13.6</ele>
        <time>2011-08-17T15:13:46Z</time>
      </trkpt>
      <trkpt lat="41.799906" lon="3.041403">
        <ele>13.6</ele>
        <time>2011-08-17T15:13:54Z</time>
      </trkpt>
      <trkpt lat="41.799643" lon="3.041442">
        <ele>12.2</ele>
        <time>2011-08-17T15:14:01Z</time>
      </trkpt>
      <trkpt lat="41.799516" lon="3.041488">
        <ele>10.2</ele>
        <time>2011-08-17T15:14:04Z</time>
      </trkpt>
      <trkpt lat="41.799137" lon="3.041537">
        <ele>12.2</ele>
        <time>2011-08-17T15:14:11Z</time>
      </trkpt>
      <trkpt lat="41.798814" lon="3.041618">
        <ele>14.1</ele>
        <time>2011-08-17T15:14:18Z</time>
      </trkpt>
      <trkpt lat="41.798614" lon="3.041671">
        <ele>13.6</ele>
        <time>2011-08-17T15:14:24Z</time>
      </trkpt>
      <trkpt lat="41.798360" lon="3.041706">
        <ele>12.6</ele>
        <time>2011-08-17T15:14:33Z</time>
      </trkpt>
      <trkpt lat="41.798305" lon="3.041716">
        <ele>11.2</ele>
        <time>2011-08-17T15:14:35Z</time>
      </trkpt>
      <trkpt lat="41.798061" lon="3.041775">
        <ele>8.8</ele>
        <time>2011-08-17T15:14:41Z</time>
      </trkpt>
      <trkpt lat="41.797679" lon="3.041902">
        <ele>3.5</ele>
        <time>2011-08-17T15:14:50Z</time>
      </trkpt>
      <trkpt lat="41.797553" lon="3.041954">
        <ele>5.4</ele>
        <time>2011-08-17T15:14:55Z</time>
      </trkpt>
      <trkpt lat="41.797545" lon="3.041965">
        <ele>5.4</ele>
        <time>2011-08-17T15:15:01Z</time>
      </trkpt>
      <trkpt lat="41.797564" lon="3.042132">
        <ele>4.5</ele>
        <time>2011-08-17T15:15:06Z</time>
      </trkpt>
      <trkpt lat="41.797544" lon="3.042567">
        <ele>0.6</ele>
        <time>2011-08-17T15:15:12Z</time>
      </trkpt>
      <trkpt lat="41.797472" lon="3.042877">
        <ele>-0.8</ele>
        <time>2011-08-17T15:15:16Z</time>
      </trkpt>
      <trkpt lat="41.797387" lon="3.043140">
        <ele>-0.8</ele>
        <time>2011-08-17T15:15:21Z</time>
      </trkpt>
      <trkpt lat="41.797333" lon="3.043154">
        <ele>-0.8</ele>
        <time>2011-08-17T15:15:22Z</time>
      </trkpt>
      <trkpt lat="41.797237" lon="3.043180">
        <ele>-0.8</ele>
        <time>2011-08-17T15:15:24Z</time>
      </trkpt>
      <trkpt lat="41.797140" lon="3.043226">
        <ele>-0.8</ele>
        <time>2011-08-17T15:15:26Z</time>
      </trkpt>
      <trkpt lat="41.796701" lon="3.043626">
        <ele>2.5</ele>
        <time>2011-08-17T15:15:35Z</time>
      </trkpt>
      <trkpt lat="41.796287" lon="3.044044">
        <ele>4.0</ele>
        <time>2011-08-17T15:15:43Z</time>
      </trkpt>
      <trkpt lat="41.795796" lon="3.044579">
        <ele>3.0</ele>
        <time>2011-08-17T15:15:52Z</time>
      </trkpt>
      <trkpt lat="41.795490" lon="3.045042">
        <ele>2.5</ele>
        <time>2011-08-17T15:15:59Z</time>
      </trkpt>
      <trkpt lat="41.795087" lon="3.045640">
        <ele>3.0</ele>
        <time>2011-08-17T15:16:08Z</time>
      </trkpt>
      <trkpt lat="41.794824" lon="3.045808">
        <ele>2.5</ele>
        <time>2011-08-17T15:16:13Z</time>
      </trkpt>
      <trkpt lat="41.794227" lon="3.045957">
        <ele>0.6</ele>
        <time>2011-08-17T15:16:23Z</time>
      </trkpt>
      <trkpt lat="41.793718" lon="3.046086">
        <ele>-0.8</ele>
        <time>2011-08-17T15:16:31Z</time>
      </trkpt>
      <trkpt lat="41.793311" lon="3.046165">
        <ele>0.1</ele>
        <time>2011-08-17T15:16:38Z</time>
      </trkpt>
      <trkpt lat="41.793079" lon="3.046236">
        <ele>-0.3</ele>
        <time>2011-08-17T15:16:42Z</time>
      </trkpt>
      <trkpt lat="41.792815" lon="3.046499">
        <ele>-1.8</ele>
        <time>2011-08-17T15:16:48Z</time>
      </trkpt>
      <trkpt lat="41.792667" lon="3.046728">
        <ele>-4.2</ele>
        <time>2011-08-17T15:16:52Z</time>
      </trkpt>
      <trkpt lat="41.792552" lon="3.047041">
        <ele>-5.6</ele>
        <time>2011-08-17T15:16:57Z</time>
      </trkpt>
      <trkpt lat="41.792554" lon="3.047123">
        <ele>-5.6</ele>
        <time>2011-08-17T15:16:58Z</time>
      </trkpt>
      <trkpt lat="41.792598" lon="3.047344">
        <ele>-4.7</ele>
        <time>2011-08-17T15:17:01Z</time>
      </trkpt>
      <trkpt lat="41.792552" lon="3.047794">
        <ele>-6.6</ele>
        <time>2011-08-17T15:17:07Z</time>
      </trkpt>
      <trkpt lat="41.792452" lon="3.048284">
        <ele>-8.0</ele>
        <time>2011-08-17T15:17:14Z</time>
      </trkpt>
      <trkpt lat="41.792430" lon="3.048810">
        <ele>-3.7</ele>
        <time>2011-08-17T15:17:21Z</time>
      </trkpt>
      <trkpt lat="41.792382" lon="3.049287">
        <ele>-3.2</ele>
        <time>2011-08-17T15:17:28Z</time>
      </trkpt>
      <trkpt lat="41.792437" lon="3.049908">
        <ele>-3.2</ele>
        <time>2011-08-17T15:17:36Z</time>
      </trkpt>
      <trkpt lat="41.792539" lon="3.050256">
        <ele>-5.1</ele>
        <time>2011-08-17T15:17:41Z</time>
      </trkpt>
      <trkpt lat="41.792638" lon="3.050558">
        <ele>-8.0</ele>
        <time>2011-08-17T15:17:45Z</time>
      </trkpt>
      <trkpt lat="41.792804" lon="3.050907">
        <ele>-9.0</ele>
        <time>2011-08-17T15:17:50Z</time>
      </trkpt>
      <trkpt lat="41.792914" lon="3.051100">
        <ele>-10.0</ele>
        <time>2011-08-17T15:17:53Z</time>
      </trkpt>
      <trkpt lat="41.792902" lon="3.051362">
        <ele>-10.0</ele>
        <time>2011-08-17T15:17:58Z</time>
      </trkpt>
      <trkpt lat="41.792626" lon="3.051484">
        <ele>-8.0</ele>
        <time>2011-08-17T15:18:06Z</time>
      </trkpt>
      <trkpt lat="41.792577" lon="3.051495">
        <ele>-7.6</ele>
        <time>2011-08-17T15:18:07Z</time>
      </trkpt>
      <trkpt lat="41.792170" lon="3.051571">
        <ele>-5.6</ele>
        <time>2011-08-17T15:18:15Z</time>
      </trkpt>
      <trkpt lat="41.792037" lon="3.051602">
        <ele>-7.1</ele>
        <time>2011-08-17T15:18:18Z</time>
      </trkpt>
      <trkpt lat="41.791602" lon="3.051645">
        <ele>-7.1</ele>
        <time>2011-08-17T15:18:27Z</time>
      </trkpt>
      <trkpt lat="41.791512" lon="3.051650">
        <ele>-7.1</ele>
        <time>2011-08-17T15:18:29Z</time>
      </trkpt>
      <trkpt lat="41.791363" lon="3.051819">
        <ele>-6.6</ele>
        <time>2011-08-17T15:18:34Z</time>
      </trkpt>
      <trkpt lat="41.791346" lon="3.051876">
        <ele>-6.6</ele>
        <time>2011-08-17T15:18:35Z</time>
      </trkpt>
      <trkpt lat="41.791240" lon="3.052235">
        <ele>-5.6</ele>
        <time>2011-08-17T15:18:41Z</time>
      </trkpt>
      <trkpt lat="41.791074" lon="3.052897">
        <ele>-7.6</ele>
        <time>2011-08-17T15:18:51Z</time>
      </trkpt>
      <trkpt lat="41.790839" lon="3.053585">
        <ele>-5.1</ele>
        <time>2011-08-17T15:19:02Z</time>
      </trkpt>
      <trkpt lat="41.790775" lon="3.053756">
        <ele>-5.1</ele>
        <time>2011-08-17T15:19:05Z</time>
      </trkpt>
      <trkpt lat="41.790727" lon="3.053872">
        <ele>-4.7</ele>
        <time>2011-08-17T15:19:07Z</time>
      </trkpt>
      <trkpt lat="41.790563" lon="3.054210">
        <ele>-4.2</ele>
        <time>2011-08-17T15:19:14Z</time>
      </trkpt>
      <trkpt lat="41.790522" lon="3.054447">
        <ele>-3.7</ele>
        <time>2011-08-17T15:19:19Z</time>
      </trkpt>
      <trkpt lat="41.790642" lon="3.054780">
        <ele>-4.7</ele>
        <time>2011-08-17T15:19:26Z</time>
      </trkpt>
      <trkpt lat="41.790755" lon="3.055007">
        <ele>-2.3</ele>
        <time>2011-08-17T15:19:31Z</time>
      </trkpt>
      <trkpt lat="41.790925" lon="3.055455">
        <ele>1.6</ele>
        <time>2011-08-17T15:19:41Z</time>
      </trkpt>
      <trkpt lat="41.791055" lon="3.055827">
        <ele>3.5</ele>
        <time>2011-08-17T15:19:49Z</time>
      </trkpt>
      <trkpt lat="41.791160" lon="3.056158">
        <ele>3.5</ele>
        <time>2011-08-17T15:19:56Z</time>
      </trkpt>
      <trkpt lat="41.791341" lon="3.056569">
        <ele>3.0</ele>
        <time>2011-08-17T15:20:06Z</time>
      </trkpt>
      <trkpt lat="41.791532" lon="3.056991">
        <ele>5.4</ele>
        <time>2011-08-17T15:20:17Z</time>
      </trkpt>
      <trkpt lat="41.791632" lon="3.057295">
        <ele>4.0</ele>
        <time>2011-08-17T15:20:25Z</time>
      </trkpt>
      <trkpt lat="41.791762" lon="3.057549">
        <ele>3.5</ele>
        <time>2011-08-17T15:20:32Z</time>
      </trkpt>
      <trkpt lat="41.791837" lon="3.057751">
        <ele>3.5</ele>
        <time>2011-08-17T15:20:39Z</time>
      </trkpt>
      <trkpt lat="41.791968" lon="3.057937">
        <ele>2.5</ele>
        <time>2011-08-17T15:20:47Z</time>
      </trkpt>
      <trkpt lat="41.791978" lon="3.057969">
        <ele>2.5</ele>
        <time>2011-08-17T15:20:48Z</time>
      </trkpt>
      <trkpt lat="41.792106" lon="3.058156">
        <ele>2.1</ele>
        <time>2011-08-17T15:20:54Z</time>
      </trkpt>
      <trkpt lat="41.792280" lon="3.058352">
        <ele>2.5</ele>
        <time>2011-08-17T15:20:59Z</time>
      </trkpt>
      <trkpt lat="41.792590" lon="3.058592">
        <ele>4.0</ele>
        <time>2011-08-17T15:21:07Z</time>
      </trkpt>
      <trkpt lat="41.792680" lon="3.058658">
        <ele>4.9</ele>
        <time>2011-08-17T15:21:09Z</time>
      </trkpt>
      <trkpt lat="41.793197" lon="3.058966">
        <ele>9.3</ele>
        <time>2011-08-17T15:21:22Z</time>
      </trkpt>
      <trkpt lat="41.793782" lon="3.059106">
        <ele>12.2</ele>
        <time>2011-08-17T15:21:36Z</time>
      </trkpt>
      <trkpt lat="41.793940" lon="3.059128">
        <ele>11.7</ele>
        <time>2011-08-17T15:21:40Z</time>
      </trkpt>
      <trkpt lat="41.794156" lon="3.059291">
        <ele>16.0</ele>
        <time>2011-08-17T15:21:46Z</time>
      </trkpt>
      <trkpt lat="41.794322" lon="3.059518">
        <ele>18.9</ele>
        <time>2011-08-17T15:21:52Z</time>
      </trkpt>
      <trkpt lat="41.794519" lon="3.059800">
        <ele>19.8</ele>
        <time>2011-08-17T15:21:59Z</time>
      </trkpt>
      <trkpt lat="41.794632" lon="3.059938">
        <ele>19.4</ele>
        <time>2011-08-17T15:22:03Z</time>
      </trkpt>
      <trkpt lat="41.794801" lon="3.060050">
        <ele>18.9</ele>
        <time>2011-08-17T15:22:08Z</time>
      </trkpt>
      <trkpt lat="41.794994" lon="3.060161">
        <ele>18.4</ele>
        <time>2011-08-17T15:22:13Z</time>
      </trkpt>
      <trkpt lat="41.795306" lon="3.060405">
        <ele>14.6</ele>
        <time>2011-08-17T15:22:21Z</time>
      </trkpt>
      <trkpt lat="41.795547" lon="3.060549">
        <ele>10.7</ele>
        <time>2011-08-17T15:22:28Z</time>
      </trkpt>
      <trkpt lat="41.795744" lon="3.060526">
        <ele>10.2</ele>
        <time>2011-08-17T15:22:34Z</time>
      </trkpt>
      <trkpt lat="41.795895" lon="3.060392">
        <ele>10.2</ele>
        <time>2011-08-17T15:22:41Z</time>
      </trkpt>
      <trkpt lat="41.796010" lon="3.060277">
        <ele>11.2</ele>
        <time>2011-08-17T15:22:47Z</time>
      </trkpt>
      <trkpt lat="41.796172" lon="3.060067">
        <ele>9.3</ele>
        <time>2011-08-17T15:22:53Z</time>
      </trkpt>
      <trkpt lat="41.796323" lon="3.059799">
        <ele>9.3</ele>
        <time>2011-08-17T15:23:00Z</time>
      </trkpt>
      <trkpt lat="41.796405" lon="3.059530">
        <ele>7.8</ele>
        <time>2011-08-17T15:23:04Z</time>
      </trkpt>
      <trkpt lat="41.796634" lon="3.059086">
        <ele>4.9</ele>
        <time>2011-08-17T15:23:10Z</time>
      </trkpt>
      <trkpt lat="41.796720" lon="3.058957">
        <ele>4.5</ele>
        <time>2011-08-17T15:23:12Z</time>
      </trkpt>
      <trkpt lat="41.796972" lon="3.058872">
        <ele>2.1</ele>
        <time>2011-08-17T15:23:16Z</time>
      </trkpt>
      <trkpt lat="41.797080" lon="3.059001">
        <ele>0.6</ele>
        <time>2011-08-17T15:23:18Z</time>
      </trkpt>
      <trkpt lat="41.797301" lon="3.059229">
        <ele>-3.2</ele>
        <time>2011-08-17T15:23:22Z</time>
      </trkpt>
      <trkpt lat="41.797551" lon="3.059345">
        <ele>-5.1</ele>
        <time>2011-08-17T15:23:26Z</time>
      </trkpt>
      <trkpt lat="41.797727" lon="3.059367">
        <ele>-7.6</ele>
        <time>2011-08-17T15:23:29Z</time>
      </trkpt>
      <trkpt lat="41.797821" lon="3.059514">
        <ele>-8.0</ele>
        <time>2011-08-17T15:23:33Z</time>
      </trkpt>
      <trkpt lat="41.797796" lon="3.059664">
        <ele>-8.5</ele>
        <time>2011-08-17T15:23:37Z</time>
      </trkpt>
      <trkpt lat="41.797731" lon="3.059821">
        <ele>-7.6</ele>
        <time>2011-08-17T15:23:42Z</time>
      </trkpt>
      <trkpt lat="41.797712" lon="3.059856">
        <ele>-7.1</ele>
        <time>2011-08-17T15:23:43Z</time>
      </trkpt>
      <trkpt lat="41.797691" lon="3.059931">
        <ele>-8.0</ele>
        <time>2011-08-17T15:23:45Z</time>
      </trkpt>
      <trkpt lat="41.797537" lon="3.060009">
        <ele>-5.1</ele>
        <time>2011-08-17T15:23:51Z</time>
      </trkpt>
      <trkpt lat="41.797523" lon="3.060047">
        <ele>-5.1</ele>
        <time>2011-08-17T15:23:52Z</time>
      </trkpt>
      <trkpt lat="41.797506" lon="3.060138">
        <ele>-7.1</ele>
        <time>2011-08-17T15:23:58Z</time>
      </trkpt>
      <trkpt lat="41.797505" lon="3.060137">
        <ele>-7.6</ele>
        <time>2011-08-17T15:24:24Z</time>
      </trkpt>
    </trkseg>
  </trk></gpx>